<?xml version="1.0" encoding="UTF-8" standalone="no" ?>
<gpx xmlns="http://www.topografix.com/GPX/1/1" xmlns:xsi="http://www.w3.org/2001/XMLSchema-instance" xsi:schemaLocation="http://www.topografix.com/GPX/1/1 http://www.topografix.com/GPX/1/1/gpx.xsd" version="1.1" creator="VisuGPX - https://www.visugpx.com">
  <metadata>
    <name>VTT Saint-Germain St Romain-de-Popey</name>
    <desc><![CDATA[circuit au départ de Sain Germain Nuelles vers Saint Romain-de-Popey]]></desc>
  </metadata>
  <trk>
    <name><![CDATA[VTT Saint-Germain St Romain-de-Popey]]></name>
    <trkseg>
      <trkpt lat="45.85212" lon="4.61091">
        <ele>295.79998779297</ele>
        <time>2020-10-04T16:37:37.348Z</time>
      </trkpt>
      <trkpt lat="45.8522" lon="4.61081">
        <ele>296</ele>
        <time>2020-10-04T16:37:37.422Z</time>
      </trkpt>
      <trkpt lat="45.85238" lon="4.61069">
        <ele>296</ele>
        <time>2020-10-04T16:37:37.504Z</time>
      </trkpt>
      <trkpt lat="45.85252" lon="4.61061">
        <ele>296.79998779297</ele>
        <time>2020-10-04T16:37:37.591Z</time>
      </trkpt>
      <trkpt lat="45.85257" lon="4.61059">
        <ele>297.39999389648</ele>
        <time>2020-10-04T16:37:37.680Z</time>
      </trkpt>
      <trkpt lat="45.85261" lon="4.61057">
        <ele>298</ele>
        <time>2020-10-04T16:37:37.771Z</time>
      </trkpt>
      <trkpt lat="45.85267" lon="4.61055">
        <ele>299.39999389648</ele>
        <time>2020-10-04T16:37:37.864Z</time>
      </trkpt>
      <trkpt lat="45.85269" lon="4.61054">
        <ele>299.60000610352</ele>
        <time>2020-10-04T16:37:37.958Z</time>
      </trkpt>
      <trkpt lat="45.85272" lon="4.61052">
        <ele>300.39999389648</ele>
        <time>2020-10-04T16:37:38.054Z</time>
      </trkpt>
      <trkpt lat="45.85274" lon="4.6105">
        <ele>300.60000610352</ele>
        <time>2020-10-04T16:37:38.151Z</time>
      </trkpt>
      <trkpt lat="45.85276" lon="4.61046">
        <ele>301.20001220703</ele>
        <time>2020-10-04T16:37:38.249Z</time>
      </trkpt>
      <trkpt lat="45.85277" lon="4.61041">
        <ele>301.79998779297</ele>
        <time>2020-10-04T16:37:38.348Z</time>
      </trkpt>
      <trkpt lat="45.8528" lon="4.6103">
        <ele>302.60000610352</ele>
        <time>2020-10-04T16:37:38.451Z</time>
      </trkpt>
      <trkpt lat="45.85286" lon="4.61009">
        <ele>303.60000610352</ele>
        <time>2020-10-04T16:37:38.560Z</time>
      </trkpt>
      <trkpt lat="45.85292" lon="4.60989">
        <ele>303.79998779297</ele>
        <time>2020-10-04T16:37:38.675Z</time>
      </trkpt>
      <trkpt lat="45.85295" lon="4.6098">
        <ele>303.79998779297</ele>
        <time>2020-10-04T16:37:38.793Z</time>
      </trkpt>
      <trkpt lat="45.85305" lon="4.60947">
        <ele>304.39999389648</ele>
        <time>2020-10-04T16:37:38.921Z</time>
      </trkpt>
      <trkpt lat="45.85315" lon="4.60918">
        <ele>304.39999389648</ele>
        <time>2020-10-04T16:37:39.058Z</time>
      </trkpt>
      <trkpt lat="45.85318" lon="4.60904">
        <ele>304.79998779297</ele>
        <time>2020-10-04T16:37:39.199Z</time>
      </trkpt>
      <trkpt lat="45.85325" lon="4.60881">
        <ele>305.20001220703</ele>
        <time>2020-10-04T16:37:39.347Z</time>
      </trkpt>
      <trkpt lat="45.85333" lon="4.60856">
        <ele>305.79998779297</ele>
        <time>2020-10-04T16:37:39.502Z</time>
      </trkpt>
      <trkpt lat="45.85336" lon="4.60848">
        <ele>306.20001220703</ele>
        <time>2020-10-04T16:37:39.660Z</time>
      </trkpt>
      <trkpt lat="45.85352" lon="4.60813">
        <ele>306.39999389648</ele>
        <time>2020-10-04T16:37:39.830Z</time>
      </trkpt>
      <trkpt lat="45.85365" lon="4.60783">
        <ele>306.39999389648</ele>
        <time>2020-10-04T16:37:40.009Z</time>
      </trkpt>
      <trkpt lat="45.85373" lon="4.60756">
        <ele>306.39999389648</ele>
        <time>2020-10-04T16:37:40.196Z</time>
      </trkpt>
      <trkpt lat="45.85378" lon="4.60744">
        <ele>306.39999389648</ele>
        <time>2020-10-04T16:37:40.387Z</time>
      </trkpt>
      <trkpt lat="45.85383" lon="4.60733">
        <ele>305.79998779297</ele>
        <time>2020-10-04T16:37:40.582Z</time>
      </trkpt>
      <trkpt lat="45.85387" lon="4.60722">
        <ele>305.20001220703</ele>
        <time>2020-10-04T16:37:40.780Z</time>
      </trkpt>
      <trkpt lat="45.85392" lon="4.60712">
        <ele>305</ele>
        <time>2020-10-04T16:37:40.982Z</time>
      </trkpt>
      <trkpt lat="45.85394" lon="4.60706">
        <ele>304.79998779297</ele>
        <time>2020-10-04T16:37:41.186Z</time>
      </trkpt>
      <trkpt lat="45.85407" lon="4.60678">
        <ele>304.20001220703</ele>
        <time>2020-10-04T16:37:41.399Z</time>
      </trkpt>
      <trkpt lat="45.85414" lon="4.60661">
        <ele>303.20001220703</ele>
        <time>2020-10-04T16:37:41.617Z</time>
      </trkpt>
      <trkpt lat="45.85421" lon="4.60638">
        <ele>302.60000610352</ele>
        <time>2020-10-04T16:37:41.842Z</time>
      </trkpt>
      <trkpt lat="45.85424" lon="4.60627">
        <ele>302.39999389648</ele>
        <time>2020-10-04T16:37:42.071Z</time>
      </trkpt>
      <trkpt lat="45.85428" lon="4.60606">
        <ele>302.20001220703</ele>
        <time>2020-10-04T16:37:42.306Z</time>
      </trkpt>
      <trkpt lat="45.85433" lon="4.60582">
        <ele>301.79998779297</ele>
        <time>2020-10-04T16:37:42.548Z</time>
      </trkpt>
      <trkpt lat="45.85438" lon="4.60557">
        <ele>301.79998779297</ele>
        <time>2020-10-04T16:37:42.797Z</time>
      </trkpt>
      <trkpt lat="45.85445" lon="4.60522">
        <ele>302.60000610352</ele>
        <time>2020-10-04T16:37:43.056Z</time>
      </trkpt>
      <trkpt lat="45.85451" lon="4.60495">
        <ele>303.20001220703</ele>
        <time>2020-10-04T16:37:43.323Z</time>
      </trkpt>
      <trkpt lat="45.85454" lon="4.60481">
        <ele>303.60000610352</ele>
        <time>2020-10-04T16:37:43.594Z</time>
      </trkpt>
      <trkpt lat="45.85457" lon="4.60463">
        <ele>303.79998779297</ele>
        <time>2020-10-04T16:37:43.870Z</time>
      </trkpt>
      <trkpt lat="45.85464" lon="4.60425">
        <ele>304.39999389648</ele>
        <time>2020-10-04T16:37:44.157Z</time>
      </trkpt>
      <trkpt lat="45.85465" lon="4.60421">
        <ele>304.79998779297</ele>
        <time>2020-10-04T16:37:44.445Z</time>
      </trkpt>
      <trkpt lat="45.85467" lon="4.6041">
        <ele>305</ele>
        <time>2020-10-04T16:37:44.736Z</time>
      </trkpt>
      <trkpt lat="45.85465" lon="4.60408">
        <ele>305</ele>
        <time>2020-10-04T16:37:45.028Z</time>
      </trkpt>
      <trkpt lat="45.85454" lon="4.604">
        <ele>305</ele>
        <time>2020-10-04T16:37:45.325Z</time>
      </trkpt>
      <trkpt lat="45.85448" lon="4.60399">
        <ele>305</ele>
        <time>2020-10-04T16:37:45.624Z</time>
      </trkpt>
      <trkpt lat="45.85427" lon="4.60394">
        <ele>305</ele>
        <time>2020-10-04T16:37:45.932Z</time>
      </trkpt>
      <trkpt lat="45.85392" lon="4.60386">
        <ele>303</ele>
        <time>2020-10-04T16:37:46.254Z</time>
      </trkpt>
      <trkpt lat="45.8538" lon="4.60382">
        <ele>301.20001220703</ele>
        <time>2020-10-04T16:37:46.581Z</time>
      </trkpt>
      <trkpt lat="45.85368" lon="4.6038">
        <ele>299.79998779297</ele>
        <time>2020-10-04T16:37:46.913Z</time>
      </trkpt>
      <trkpt lat="45.85362" lon="4.60379">
        <ele>299</ele>
        <time>2020-10-04T16:37:47.247Z</time>
      </trkpt>
      <trkpt lat="45.85355" lon="4.6038">
        <ele>298.39999389648</ele>
        <time>2020-10-04T16:37:47.583Z</time>
      </trkpt>
      <trkpt lat="45.85335" lon="4.60382">
        <ele>297.20001220703</ele>
        <time>2020-10-04T16:37:47.928Z</time>
      </trkpt>
      <trkpt lat="45.85328" lon="4.60381">
        <ele>296.39999389648</ele>
        <time>2020-10-04T16:37:48.275Z</time>
      </trkpt>
      <trkpt lat="45.85321" lon="4.60379">
        <ele>295.79998779297</ele>
        <time>2020-10-04T16:37:48.625Z</time>
      </trkpt>
      <trkpt lat="45.85303" lon="4.60373">
        <ele>294.20001220703</ele>
        <time>2020-10-04T16:37:48.982Z</time>
      </trkpt>
      <trkpt lat="45.85291" lon="4.60368">
        <ele>292.79998779297</ele>
        <time>2020-10-04T16:37:49.345Z</time>
      </trkpt>
      <trkpt lat="45.85269" lon="4.6036">
        <ele>291.39999389648</ele>
        <time>2020-10-04T16:37:49.716Z</time>
      </trkpt>
      <trkpt lat="45.85251" lon="4.60354">
        <ele>290.20001220703</ele>
        <time>2020-10-04T16:37:50.095Z</time>
      </trkpt>
      <trkpt lat="45.85228" lon="4.60345">
        <ele>290</ele>
        <time>2020-10-04T16:37:50.483Z</time>
      </trkpt>
      <trkpt lat="45.85221" lon="4.60342">
        <ele>289</ele>
        <time>2020-10-04T16:37:50.874Z</time>
      </trkpt>
      <trkpt lat="45.85213" lon="4.60339">
        <ele>288.60000610352</ele>
        <time>2020-10-04T16:37:51.269Z</time>
      </trkpt>
      <trkpt lat="45.85202" lon="4.60347">
        <ele>288.60000610352</ele>
        <time>2020-10-04T16:37:51.668Z</time>
      </trkpt>
      <trkpt lat="45.85199" lon="4.60351">
        <ele>288.60000610352</ele>
        <time>2020-10-04T16:37:52.069Z</time>
      </trkpt>
      <trkpt lat="45.85194" lon="4.60362">
        <ele>288.39999389648</ele>
        <time>2020-10-04T16:37:52.474Z</time>
      </trkpt>
      <trkpt lat="45.85185" lon="4.60378">
        <ele>288.20001220703</ele>
        <time>2020-10-04T16:37:52.884Z</time>
      </trkpt>
      <trkpt lat="45.85172" lon="4.60399">
        <ele>288</ele>
        <time>2020-10-04T16:37:53.302Z</time>
      </trkpt>
      <trkpt lat="45.85163" lon="4.60407">
        <ele>288</ele>
        <time>2020-10-04T16:37:53.724Z</time>
      </trkpt>
      <trkpt lat="45.85142" lon="4.60416">
        <ele>287.60000610352</ele>
        <time>2020-10-04T16:37:54.155Z</time>
      </trkpt>
      <trkpt lat="45.85131" lon="4.60418">
        <ele>287</ele>
        <time>2020-10-04T16:37:54.590Z</time>
      </trkpt>
      <trkpt lat="45.85126" lon="4.60419">
        <ele>287</ele>
        <time>2020-10-04T16:37:55.028Z</time>
      </trkpt>
      <trkpt lat="45.85109" lon="4.60419">
        <ele>286.39999389648</ele>
        <time>2020-10-04T16:37:55.472Z</time>
      </trkpt>
      <trkpt lat="45.85062" lon="4.60408">
        <ele>286.20001220703</ele>
        <time>2020-10-04T16:37:55.935Z</time>
      </trkpt>
      <trkpt lat="45.85026" lon="4.60383">
        <ele>286.20001220703</ele>
        <time>2020-10-04T16:37:56.414Z</time>
      </trkpt>
      <trkpt lat="45.85005" lon="4.60368">
        <ele>286.20001220703</ele>
        <time>2020-10-04T16:37:56.902Z</time>
      </trkpt>
      <trkpt lat="45.84993" lon="4.60364">
        <ele>286.20001220703</ele>
        <time>2020-10-04T16:37:57.395Z</time>
      </trkpt>
      <trkpt lat="45.8494" lon="4.60353">
        <ele>286.20001220703</ele>
        <time>2020-10-04T16:37:57.909Z</time>
      </trkpt>
      <trkpt lat="45.84924" lon="4.60348">
        <ele>286</ele>
        <time>2020-10-04T16:37:58.430Z</time>
      </trkpt>
      <trkpt lat="45.84904" lon="4.60341">
        <ele>286</ele>
        <time>2020-10-04T16:37:58.959Z</time>
      </trkpt>
      <trkpt lat="45.84871" lon="4.60327">
        <ele>285.79998779297</ele>
        <time>2020-10-04T16:37:59.501Z</time>
      </trkpt>
      <trkpt lat="45.84841" lon="4.60323">
        <ele>287.20001220703</ele>
        <time>2020-10-04T16:38:00.056Z</time>
      </trkpt>
      <trkpt lat="45.84833" lon="4.60324">
        <ele>288.39999389648</ele>
        <time>2020-10-04T16:38:00.614Z</time>
      </trkpt>
      <trkpt lat="45.84825" lon="4.60325">
        <ele>289.60000610352</ele>
        <time>2020-10-04T16:38:01.175Z</time>
      </trkpt>
      <trkpt lat="45.84814" lon="4.60327">
        <ele>290.20001220703</ele>
        <time>2020-10-04T16:38:01.740Z</time>
      </trkpt>
      <trkpt lat="45.84808" lon="4.60328">
        <ele>290.60000610352</ele>
        <time>2020-10-04T16:38:02.308Z</time>
      </trkpt>
      <trkpt lat="45.84794" lon="4.60331">
        <ele>291.79998779297</ele>
        <time>2020-10-04T16:38:02.881Z</time>
      </trkpt>
      <trkpt lat="45.84787" lon="4.60333">
        <ele>292.20001220703</ele>
        <time>2020-10-04T16:38:03.457Z</time>
      </trkpt>
      <trkpt lat="45.84775" lon="4.60336">
        <ele>293</ele>
        <time>2020-10-04T16:38:04.038Z</time>
      </trkpt>
      <trkpt lat="45.84773" lon="4.60337">
        <ele>293</ele>
        <time>2020-10-04T16:38:04.620Z</time>
      </trkpt>
      <trkpt lat="45.84756" lon="4.6034">
        <ele>294</ele>
        <time>2020-10-04T16:38:05.209Z</time>
      </trkpt>
      <trkpt lat="45.84752" lon="4.60342">
        <ele>294</ele>
        <time>2020-10-04T16:38:05.799Z</time>
      </trkpt>
      <trkpt lat="45.84724" lon="4.60351">
        <ele>294.60000610352</ele>
        <time>2020-10-04T16:38:06.401Z</time>
      </trkpt>
      <trkpt lat="45.84703" lon="4.60357">
        <ele>295</ele>
        <time>2020-10-04T16:38:07.011Z</time>
      </trkpt>
      <trkpt lat="45.84695" lon="4.60358">
        <ele>295.20001220703</ele>
        <time>2020-10-04T16:38:07.624Z</time>
      </trkpt>
      <trkpt lat="45.84686" lon="4.60356">
        <ele>296.20001220703</ele>
        <time>2020-10-04T16:38:08.241Z</time>
      </trkpt>
      <trkpt lat="45.84682" lon="4.60354">
        <ele>296.39999389648</ele>
        <time>2020-10-04T16:38:08.860Z</time>
      </trkpt>
      <trkpt lat="45.84668" lon="4.60342">
        <ele>296.60000610352</ele>
        <time>2020-10-04T16:38:09.485Z</time>
      </trkpt>
      <trkpt lat="45.84654" lon="4.60329">
        <ele>297</ele>
        <time>2020-10-04T16:38:10.117Z</time>
      </trkpt>
      <trkpt lat="45.84652" lon="4.60327">
        <ele>297.20001220703</ele>
        <time>2020-10-04T16:38:10.750Z</time>
      </trkpt>
      <trkpt lat="45.84642" lon="4.60318">
        <ele>297.60000610352</ele>
        <time>2020-10-04T16:38:11.387Z</time>
      </trkpt>
      <trkpt lat="45.84626" lon="4.60305">
        <ele>298</ele>
        <time>2020-10-04T16:38:12.032Z</time>
      </trkpt>
      <trkpt lat="45.84612" lon="4.60295">
        <ele>298</ele>
        <time>2020-10-04T16:38:12.683Z</time>
      </trkpt>
      <trkpt lat="45.84601" lon="4.60284">
        <ele>297.79998779297</ele>
        <time>2020-10-04T16:38:13.339Z</time>
      </trkpt>
      <trkpt lat="45.84587" lon="4.60271">
        <ele>297.60000610352</ele>
        <time>2020-10-04T16:38:14.002Z</time>
      </trkpt>
      <trkpt lat="45.84572" lon="4.60257">
        <ele>298</ele>
        <time>2020-10-04T16:38:14.672Z</time>
      </trkpt>
      <trkpt lat="45.84566" lon="4.60252">
        <ele>298.20001220703</ele>
        <time>2020-10-04T16:38:15.345Z</time>
      </trkpt>
      <trkpt lat="45.84557" lon="4.60244">
        <ele>298.39999389648</ele>
        <time>2020-10-04T16:38:16.022Z</time>
      </trkpt>
      <trkpt lat="45.84541" lon="4.60231">
        <ele>298.79998779297</ele>
        <time>2020-10-04T16:38:16.706Z</time>
      </trkpt>
      <trkpt lat="45.84528" lon="4.60219">
        <ele>299.39999389648</ele>
        <time>2020-10-04T16:38:17.396Z</time>
      </trkpt>
      <trkpt lat="45.84525" lon="4.60217">
        <ele>299.39999389648</ele>
        <time>2020-10-04T16:38:18.088Z</time>
      </trkpt>
      <trkpt lat="45.84508" lon="4.60203">
        <ele>299.39999389648</ele>
        <time>2020-10-04T16:38:18.787Z</time>
      </trkpt>
      <trkpt lat="45.84499" lon="4.60188">
        <ele>299.60000610352</ele>
        <time>2020-10-04T16:38:19.492Z</time>
      </trkpt>
      <trkpt lat="45.84505" lon="4.60171">
        <ele>300.20001220703</ele>
        <time>2020-10-04T16:38:20.202Z</time>
      </trkpt>
      <trkpt lat="45.8451" lon="4.60162">
        <ele>300.20001220703</ele>
        <time>2020-10-04T16:38:20.915Z</time>
      </trkpt>
      <trkpt lat="45.84512" lon="4.60158">
        <ele>300.39999389648</ele>
        <time>2020-10-04T16:38:21.630Z</time>
      </trkpt>
      <trkpt lat="45.84523" lon="4.60134">
        <ele>300.39999389648</ele>
        <time>2020-10-04T16:38:22.353Z</time>
      </trkpt>
      <trkpt lat="45.84536" lon="4.60095">
        <ele>300.39999389648</ele>
        <time>2020-10-04T16:38:23.088Z</time>
      </trkpt>
      <trkpt lat="45.84551" lon="4.60049">
        <ele>300.39999389648</ele>
        <time>2020-10-04T16:38:23.837Z</time>
      </trkpt>
      <trkpt lat="45.84569" lon="4.59998">
        <ele>300.60000610352</ele>
        <time>2020-10-04T16:38:24.602Z</time>
      </trkpt>
      <trkpt lat="45.84583" lon="4.59957">
        <ele>300.79998779297</ele>
        <time>2020-10-04T16:38:25.379Z</time>
      </trkpt>
      <trkpt lat="45.84599" lon="4.59914">
        <ele>301.20001220703</ele>
        <time>2020-10-04T16:38:26.170Z</time>
      </trkpt>
      <trkpt lat="45.84607" lon="4.59894">
        <ele>301.60000610352</ele>
        <time>2020-10-04T16:38:26.967Z</time>
      </trkpt>
      <trkpt lat="45.84609" lon="4.59881">
        <ele>301.79998779297</ele>
        <time>2020-10-04T16:38:27.768Z</time>
      </trkpt>
      <trkpt lat="45.84601" lon="4.59873">
        <ele>302</ele>
        <time>2020-10-04T16:38:28.572Z</time>
      </trkpt>
      <trkpt lat="45.84598" lon="4.59871">
        <ele>302</ele>
        <time>2020-10-04T16:38:29.378Z</time>
      </trkpt>
      <trkpt lat="45.84569" lon="4.59861">
        <ele>302</ele>
        <time>2020-10-04T16:38:30.196Z</time>
      </trkpt>
      <trkpt lat="45.84532" lon="4.59858">
        <ele>301.20001220703</ele>
        <time>2020-10-04T16:38:31.029Z</time>
      </trkpt>
      <trkpt lat="45.84527" lon="4.59858">
        <ele>301.20001220703</ele>
        <time>2020-10-04T16:38:31.864Z</time>
      </trkpt>
      <trkpt lat="45.84513" lon="4.59868">
        <ele>300.60000610352</ele>
        <time>2020-10-04T16:38:32.705Z</time>
      </trkpt>
      <trkpt lat="45.8451" lon="4.59873">
        <ele>300.60000610352</ele>
        <time>2020-10-04T16:38:33.548Z</time>
      </trkpt>
      <trkpt lat="45.84507" lon="4.59879">
        <ele>300.39999389648</ele>
        <time>2020-10-04T16:38:34.393Z</time>
      </trkpt>
      <trkpt lat="45.845" lon="4.59889">
        <ele>300</ele>
        <time>2020-10-04T16:38:35.241Z</time>
      </trkpt>
      <trkpt lat="45.84496" lon="4.59894">
        <ele>300</ele>
        <time>2020-10-04T16:38:36.091Z</time>
      </trkpt>
      <trkpt lat="45.84487" lon="4.59901">
        <ele>299.20001220703</ele>
        <time>2020-10-04T16:38:36.946Z</time>
      </trkpt>
      <trkpt lat="45.84476" lon="4.59907">
        <ele>298.60000610352</ele>
        <time>2020-10-04T16:38:37.805Z</time>
      </trkpt>
      <trkpt lat="45.8446" lon="4.59916">
        <ele>298</ele>
        <time>2020-10-04T16:38:38.671Z</time>
      </trkpt>
      <trkpt lat="45.84442" lon="4.59925">
        <ele>297.20001220703</ele>
        <time>2020-10-04T16:38:39.545Z</time>
      </trkpt>
      <trkpt lat="45.84436" lon="4.59928">
        <ele>296.60000610352</ele>
        <time>2020-10-04T16:38:40.421Z</time>
      </trkpt>
      <trkpt lat="45.84422" lon="4.59937">
        <ele>295.39999389648</ele>
        <time>2020-10-04T16:38:41.303Z</time>
      </trkpt>
      <trkpt lat="45.84408" lon="4.59945">
        <ele>294.20001220703</ele>
        <time>2020-10-04T16:38:42.191Z</time>
      </trkpt>
      <trkpt lat="45.844" lon="4.59948">
        <ele>293.39999389648</ele>
        <time>2020-10-04T16:38:43.082Z</time>
      </trkpt>
      <trkpt lat="45.84393" lon="4.59951">
        <ele>293.20001220703</ele>
        <time>2020-10-04T16:38:43.977Z</time>
      </trkpt>
      <trkpt lat="45.84378" lon="4.59955">
        <ele>291.60000610352</ele>
        <time>2020-10-04T16:38:44.878Z</time>
      </trkpt>
      <trkpt lat="45.84363" lon="4.59955">
        <ele>289.60000610352</ele>
        <time>2020-10-04T16:38:45.785Z</time>
      </trkpt>
      <trkpt lat="45.84355" lon="4.59954">
        <ele>288.79998779297</ele>
        <time>2020-10-04T16:38:46.694Z</time>
      </trkpt>
      <trkpt lat="45.84348" lon="4.59953">
        <ele>287.39999389648</ele>
        <time>2020-10-04T16:38:47.606Z</time>
      </trkpt>
      <trkpt lat="45.84341" lon="4.59952">
        <ele>286.39999389648</ele>
        <time>2020-10-04T16:38:48.521Z</time>
      </trkpt>
      <trkpt lat="45.84328" lon="4.59951">
        <ele>285</ele>
        <time>2020-10-04T16:38:49.441Z</time>
      </trkpt>
      <trkpt lat="45.84322" lon="4.5995">
        <ele>284.39999389648</ele>
        <time>2020-10-04T16:38:50.364Z</time>
      </trkpt>
      <trkpt lat="45.84317" lon="4.59949">
        <ele>283.79998779297</ele>
        <time>2020-10-04T16:38:51.289Z</time>
      </trkpt>
      <trkpt lat="45.84307" lon="4.59947">
        <ele>282.79998779297</ele>
        <time>2020-10-04T16:38:52.218Z</time>
      </trkpt>
      <trkpt lat="45.84304" lon="4.59946">
        <ele>281.79998779297</ele>
        <time>2020-10-04T16:38:53.148Z</time>
      </trkpt>
      <trkpt lat="45.843" lon="4.59945">
        <ele>280.20001220703</ele>
        <time>2020-10-04T16:38:54.079Z</time>
      </trkpt>
      <trkpt lat="45.84295" lon="4.59943">
        <ele>278.60000610352</ele>
        <time>2020-10-04T16:38:55.013Z</time>
      </trkpt>
      <trkpt lat="45.84291" lon="4.59941">
        <ele>277.79998779297</ele>
        <time>2020-10-04T16:38:55.949Z</time>
      </trkpt>
      <trkpt lat="45.84287" lon="4.59938">
        <ele>276.60000610352</ele>
        <time>2020-10-04T16:38:56.886Z</time>
      </trkpt>
      <trkpt lat="45.84282" lon="4.59933">
        <ele>275.79998779297</ele>
        <time>2020-10-04T16:38:57.826Z</time>
      </trkpt>
      <trkpt lat="45.84279" lon="4.59931">
        <ele>275.39999389648</ele>
        <time>2020-10-04T16:38:58.767Z</time>
      </trkpt>
      <trkpt lat="45.84276" lon="4.5993">
        <ele>275</ele>
        <time>2020-10-04T16:38:59.709Z</time>
      </trkpt>
      <trkpt lat="45.84275" lon="4.5993">
        <ele>274.60000610352</ele>
        <time>2020-10-04T16:39:00.651Z</time>
      </trkpt>
      <trkpt lat="45.84274" lon="4.59929">
        <ele>274.39999389648</ele>
        <time>2020-10-04T16:39:01.594Z</time>
      </trkpt>
      <trkpt lat="45.84269" lon="4.59925">
        <ele>274.20001220703</ele>
        <time>2020-10-04T16:39:02.539Z</time>
      </trkpt>
      <trkpt lat="45.84267" lon="4.59924">
        <ele>274.39999389648</ele>
        <time>2020-10-04T16:39:03.485Z</time>
      </trkpt>
      <trkpt lat="45.84262" lon="4.59919">
        <ele>274.39999389648</ele>
        <time>2020-10-04T16:39:04.434Z</time>
      </trkpt>
      <trkpt lat="45.84258" lon="4.59915">
        <ele>274.20001220703</ele>
        <time>2020-10-04T16:39:05.384Z</time>
      </trkpt>
      <trkpt lat="45.84256" lon="4.59914">
        <ele>274</ele>
        <time>2020-10-04T16:39:06.335Z</time>
      </trkpt>
      <trkpt lat="45.84249" lon="4.59908">
        <ele>273.39999389648</ele>
        <time>2020-10-04T16:39:07.289Z</time>
      </trkpt>
      <trkpt lat="45.84245" lon="4.59905">
        <ele>273</ele>
        <time>2020-10-04T16:39:08.245Z</time>
      </trkpt>
      <trkpt lat="45.84238" lon="4.59899">
        <ele>272.39999389648</ele>
        <time>2020-10-04T16:39:09.205Z</time>
      </trkpt>
      <trkpt lat="45.84235" lon="4.59896">
        <ele>272</ele>
        <time>2020-10-04T16:39:10.166Z</time>
      </trkpt>
      <trkpt lat="45.84221" lon="4.59879">
        <ele>271</ele>
        <time>2020-10-04T16:39:11.134Z</time>
      </trkpt>
      <trkpt lat="45.84217" lon="4.59875">
        <ele>270.79998779297</ele>
        <time>2020-10-04T16:39:12.104Z</time>
      </trkpt>
      <trkpt lat="45.84211" lon="4.59867">
        <ele>270.39999389648</ele>
        <time>2020-10-04T16:39:13.078Z</time>
      </trkpt>
      <trkpt lat="45.84204" lon="4.59858">
        <ele>270</ele>
        <time>2020-10-04T16:39:14.055Z</time>
      </trkpt>
      <trkpt lat="45.84198" lon="4.5985">
        <ele>269.60000610352</ele>
        <time>2020-10-04T16:39:15.035Z</time>
      </trkpt>
      <trkpt lat="45.8419" lon="4.59838">
        <ele>268.20001220703</ele>
        <time>2020-10-04T16:39:16.020Z</time>
      </trkpt>
      <trkpt lat="45.84188" lon="4.59834">
        <ele>267.79998779297</ele>
        <time>2020-10-04T16:39:17.006Z</time>
      </trkpt>
      <trkpt lat="45.84182" lon="4.59824">
        <ele>266.79998779297</ele>
        <time>2020-10-04T16:39:17.996Z</time>
      </trkpt>
      <trkpt lat="45.84176" lon="4.59811">
        <ele>265.60000610352</ele>
        <time>2020-10-04T16:39:18.990Z</time>
      </trkpt>
      <trkpt lat="45.84173" lon="4.598">
        <ele>264.39999389648</ele>
        <time>2020-10-04T16:39:19.988Z</time>
      </trkpt>
      <trkpt lat="45.8417" lon="4.59785">
        <ele>263.20001220703</ele>
        <time>2020-10-04T16:39:20.990Z</time>
      </trkpt>
      <trkpt lat="45.84172" lon="4.5976">
        <ele>262</ele>
        <time>2020-10-04T16:39:21.999Z</time>
      </trkpt>
      <trkpt lat="45.84174" lon="4.59732">
        <ele>261.39999389648</ele>
        <time>2020-10-04T16:39:23.016Z</time>
      </trkpt>
      <trkpt lat="45.84176" lon="4.59722">
        <ele>261</ele>
        <time>2020-10-04T16:39:24.036Z</time>
      </trkpt>
      <trkpt lat="45.84178" lon="4.59704">
        <ele>260.39999389648</ele>
        <time>2020-10-04T16:39:25.061Z</time>
      </trkpt>
      <trkpt lat="45.84179" lon="4.59682">
        <ele>259.79998779297</ele>
        <time>2020-10-04T16:39:26.092Z</time>
      </trkpt>
      <trkpt lat="45.84181" lon="4.59662">
        <ele>259.39999389648</ele>
        <time>2020-10-04T16:39:27.129Z</time>
      </trkpt>
      <trkpt lat="45.84183" lon="4.59654">
        <ele>259.39999389648</ele>
        <time>2020-10-04T16:39:28.168Z</time>
      </trkpt>
      <trkpt lat="45.84185" lon="4.59634">
        <ele>259</ele>
        <time>2020-10-04T16:39:29.212Z</time>
      </trkpt>
      <trkpt lat="45.84186" lon="4.59628">
        <ele>258.79998779297</ele>
        <time>2020-10-04T16:39:30.258Z</time>
      </trkpt>
      <trkpt lat="45.84188" lon="4.59609">
        <ele>258.39999389648</ele>
        <time>2020-10-04T16:39:31.309Z</time>
      </trkpt>
      <trkpt lat="45.8419" lon="4.59594">
        <ele>257.60000610352</ele>
        <time>2020-10-04T16:39:32.365Z</time>
      </trkpt>
      <trkpt lat="45.8419" lon="4.59592">
        <ele>257.20001220703</ele>
        <time>2020-10-04T16:39:33.421Z</time>
      </trkpt>
      <trkpt lat="45.8419" lon="4.59592">
        <ele>257.79998779297</ele>
        <time>2020-10-04T16:39:34.477Z</time>
      </trkpt>
      <trkpt lat="45.8419" lon="4.59588">
        <ele>257.60000610352</ele>
        <time>2020-10-04T16:39:35.534Z</time>
      </trkpt>
      <trkpt lat="45.8419" lon="4.59573">
        <ele>257.20001220703</ele>
        <time>2020-10-04T16:39:36.596Z</time>
      </trkpt>
      <trkpt lat="45.84189" lon="4.5957">
        <ele>257</ele>
        <time>2020-10-04T16:39:37.658Z</time>
      </trkpt>
      <trkpt lat="45.8419" lon="4.59562">
        <ele>256.60000610352</ele>
        <time>2020-10-04T16:39:38.723Z</time>
      </trkpt>
      <trkpt lat="45.8419" lon="4.5956">
        <ele>256.39999389648</ele>
        <time>2020-10-04T16:39:39.788Z</time>
      </trkpt>
      <trkpt lat="45.84191" lon="4.59558">
        <ele>256.20001220703</ele>
        <time>2020-10-04T16:39:40.854Z</time>
      </trkpt>
      <trkpt lat="45.84193" lon="4.59554">
        <ele>256</ele>
        <time>2020-10-04T16:39:41.921Z</time>
      </trkpt>
      <trkpt lat="45.84194" lon="4.59547">
        <ele>255.60000610352</ele>
        <time>2020-10-04T16:39:42.990Z</time>
      </trkpt>
      <trkpt lat="45.84194" lon="4.59544">
        <ele>255.60000610352</ele>
        <time>2020-10-04T16:39:44.060Z</time>
      </trkpt>
      <trkpt lat="45.84195" lon="4.59539">
        <ele>255.39999389648</ele>
        <time>2020-10-04T16:39:45.131Z</time>
      </trkpt>
      <trkpt lat="45.84195" lon="4.59536">
        <ele>255</ele>
        <time>2020-10-04T16:39:46.203Z</time>
      </trkpt>
      <trkpt lat="45.84197" lon="4.5953">
        <ele>254.19999694824</ele>
        <time>2020-10-04T16:39:47.277Z</time>
      </trkpt>
      <trkpt lat="45.84199" lon="4.59522">
        <ele>253.80000305176</ele>
        <time>2020-10-04T16:39:48.353Z</time>
      </trkpt>
      <trkpt lat="45.842" lon="4.59515">
        <ele>253</ele>
        <time>2020-10-04T16:39:49.431Z</time>
      </trkpt>
      <trkpt lat="45.842" lon="4.59514">
        <ele>252.80000305176</ele>
        <time>2020-10-04T16:39:50.510Z</time>
      </trkpt>
      <trkpt lat="45.84202" lon="4.59511">
        <ele>251.39999389648</ele>
        <time>2020-10-04T16:39:51.590Z</time>
      </trkpt>
      <trkpt lat="45.84202" lon="4.59507">
        <ele>249.80000305176</ele>
        <time>2020-10-04T16:39:52.671Z</time>
      </trkpt>
      <trkpt lat="45.84203" lon="4.59506">
        <ele>248.39999389648</ele>
        <time>2020-10-04T16:39:53.752Z</time>
      </trkpt>
      <trkpt lat="45.84206" lon="4.59498">
        <ele>247.39999389648</ele>
        <time>2020-10-04T16:39:54.836Z</time>
      </trkpt>
      <trkpt lat="45.84207" lon="4.59495">
        <ele>247</ele>
        <time>2020-10-04T16:39:55.921Z</time>
      </trkpt>
      <trkpt lat="45.84209" lon="4.59484">
        <ele>246.39999389648</ele>
        <time>2020-10-04T16:39:57.009Z</time>
      </trkpt>
      <trkpt lat="45.84209" lon="4.59483">
        <ele>246.39999389648</ele>
        <time>2020-10-04T16:39:58.097Z</time>
      </trkpt>
      <trkpt lat="45.84214" lon="4.59473">
        <ele>245.60000610352</ele>
        <time>2020-10-04T16:39:59.188Z</time>
      </trkpt>
      <trkpt lat="45.84217" lon="4.5946">
        <ele>245.19999694824</ele>
        <time>2020-10-04T16:40:00.283Z</time>
      </trkpt>
      <trkpt lat="45.84217" lon="4.59458">
        <ele>245.19999694824</ele>
        <time>2020-10-04T16:40:01.379Z</time>
      </trkpt>
      <trkpt lat="45.84221" lon="4.59444">
        <ele>245</ele>
        <time>2020-10-04T16:40:02.479Z</time>
      </trkpt>
      <trkpt lat="45.84222" lon="4.59441">
        <ele>245</ele>
        <time>2020-10-04T16:40:03.580Z</time>
      </trkpt>
      <trkpt lat="45.84228" lon="4.59427">
        <ele>244.60000610352</ele>
        <time>2020-10-04T16:40:04.686Z</time>
      </trkpt>
      <trkpt lat="45.84232" lon="4.59418">
        <ele>244.60000610352</ele>
        <time>2020-10-04T16:40:05.795Z</time>
      </trkpt>
      <trkpt lat="45.84234" lon="4.59413">
        <ele>244.60000610352</ele>
        <time>2020-10-04T16:40:06.905Z</time>
      </trkpt>
      <trkpt lat="45.84236" lon="4.59403">
        <ele>244.60000610352</ele>
        <time>2020-10-04T16:40:08.018Z</time>
      </trkpt>
      <trkpt lat="45.84238" lon="4.594">
        <ele>244.39999389648</ele>
        <time>2020-10-04T16:40:09.132Z</time>
      </trkpt>
      <trkpt lat="45.84246" lon="4.59385">
        <ele>244.80000305176</ele>
        <time>2020-10-04T16:40:10.251Z</time>
      </trkpt>
      <trkpt lat="45.84253" lon="4.59366">
        <ele>245</ele>
        <time>2020-10-04T16:40:11.376Z</time>
      </trkpt>
      <trkpt lat="45.84254" lon="4.59362">
        <ele>245.19999694824</ele>
        <time>2020-10-04T16:40:12.502Z</time>
      </trkpt>
      <trkpt lat="45.84259" lon="4.59353">
        <ele>245.80000305176</ele>
        <time>2020-10-04T16:40:13.632Z</time>
      </trkpt>
      <trkpt lat="45.84261" lon="4.59348">
        <ele>245.60000610352</ele>
        <time>2020-10-04T16:40:14.763Z</time>
      </trkpt>
      <trkpt lat="45.84267" lon="4.59337">
        <ele>245.80000305176</ele>
        <time>2020-10-04T16:40:15.898Z</time>
      </trkpt>
      <trkpt lat="45.84268" lon="4.59335">
        <ele>245.80000305176</ele>
        <time>2020-10-04T16:40:17.034Z</time>
      </trkpt>
      <trkpt lat="45.8427" lon="4.59332">
        <ele>246</ele>
        <time>2020-10-04T16:40:18.171Z</time>
      </trkpt>
      <trkpt lat="45.84275" lon="4.59322">
        <ele>246.80000305176</ele>
        <time>2020-10-04T16:40:19.311Z</time>
      </trkpt>
      <trkpt lat="45.84278" lon="4.59313">
        <ele>247.19999694824</ele>
        <time>2020-10-04T16:40:20.454Z</time>
      </trkpt>
      <trkpt lat="45.84283" lon="4.59305">
        <ele>247.60000610352</ele>
        <time>2020-10-04T16:40:21.600Z</time>
      </trkpt>
      <trkpt lat="45.84287" lon="4.59298">
        <ele>247.80000305176</ele>
        <time>2020-10-04T16:40:22.749Z</time>
      </trkpt>
      <trkpt lat="45.84289" lon="4.59296">
        <ele>247.80000305176</ele>
        <time>2020-10-04T16:40:23.898Z</time>
      </trkpt>
      <trkpt lat="45.84291" lon="4.59288">
        <ele>247.19999694824</ele>
        <time>2020-10-04T16:40:25.050Z</time>
      </trkpt>
      <trkpt lat="45.84292" lon="4.59287">
        <ele>246.39999389648</ele>
        <time>2020-10-04T16:40:26.202Z</time>
      </trkpt>
      <trkpt lat="45.84292" lon="4.59285">
        <ele>245.80000305176</ele>
        <time>2020-10-04T16:40:27.355Z</time>
      </trkpt>
      <trkpt lat="45.84292" lon="4.59282">
        <ele>245.60000610352</ele>
        <time>2020-10-04T16:40:28.508Z</time>
      </trkpt>
      <trkpt lat="45.84297" lon="4.59274">
        <ele>245.80000305176</ele>
        <time>2020-10-04T16:40:29.664Z</time>
      </trkpt>
      <trkpt lat="45.84303" lon="4.59262">
        <ele>246.39999389648</ele>
        <time>2020-10-04T16:40:30.824Z</time>
      </trkpt>
      <trkpt lat="45.84309" lon="4.59249">
        <ele>247</ele>
        <time>2020-10-04T16:40:31.989Z</time>
      </trkpt>
      <trkpt lat="45.84317" lon="4.59236">
        <ele>247.19999694824</ele>
        <time>2020-10-04T16:40:33.159Z</time>
      </trkpt>
      <trkpt lat="45.84327" lon="4.59217">
        <ele>247.60000610352</ele>
        <time>2020-10-04T16:40:34.335Z</time>
      </trkpt>
      <trkpt lat="45.84335" lon="4.59203">
        <ele>247.80000305176</ele>
        <time>2020-10-04T16:40:35.516Z</time>
      </trkpt>
      <trkpt lat="45.84343" lon="4.5919">
        <ele>248.39999389648</ele>
        <time>2020-10-04T16:40:36.702Z</time>
      </trkpt>
      <trkpt lat="45.84345" lon="4.59188">
        <ele>248.60000610352</ele>
        <time>2020-10-04T16:40:37.889Z</time>
      </trkpt>
      <trkpt lat="45.8435" lon="4.59176">
        <ele>249.39999389648</ele>
        <time>2020-10-04T16:40:39.080Z</time>
      </trkpt>
      <trkpt lat="45.84352" lon="4.59173">
        <ele>250.60000610352</ele>
        <time>2020-10-04T16:40:40.272Z</time>
      </trkpt>
      <trkpt lat="45.84352" lon="4.59172">
        <ele>251.39999389648</ele>
        <time>2020-10-04T16:40:41.464Z</time>
      </trkpt>
      <trkpt lat="45.84352" lon="4.59172">
        <ele>251.19999694824</ele>
        <time>2020-10-04T16:40:42.656Z</time>
      </trkpt>
      <trkpt lat="45.84353" lon="4.59171">
        <ele>251.19999694824</ele>
        <time>2020-10-04T16:40:43.849Z</time>
      </trkpt>
      <trkpt lat="45.84354" lon="4.59169">
        <ele>251.19999694824</ele>
        <time>2020-10-04T16:40:45.042Z</time>
      </trkpt>
      <trkpt lat="45.84355" lon="4.59164">
        <ele>251.19999694824</ele>
        <time>2020-10-04T16:40:46.237Z</time>
      </trkpt>
      <trkpt lat="45.84357" lon="4.5916">
        <ele>251.19999694824</ele>
        <time>2020-10-04T16:40:47.433Z</time>
      </trkpt>
      <trkpt lat="45.84358" lon="4.59159">
        <ele>251</ele>
        <time>2020-10-04T16:40:48.629Z</time>
      </trkpt>
      <trkpt lat="45.84358" lon="4.59158">
        <ele>250.60000610352</ele>
        <time>2020-10-04T16:40:49.826Z</time>
      </trkpt>
      <trkpt lat="45.84364" lon="4.5915">
        <ele>250.39999389648</ele>
        <time>2020-10-04T16:40:51.026Z</time>
      </trkpt>
      <trkpt lat="45.84369" lon="4.59132">
        <ele>250.39999389648</ele>
        <time>2020-10-04T16:40:52.231Z</time>
      </trkpt>
      <trkpt lat="45.84376" lon="4.59113">
        <ele>250.39999389648</ele>
        <time>2020-10-04T16:40:53.442Z</time>
      </trkpt>
      <trkpt lat="45.84387" lon="4.59089">
        <ele>249.80000305176</ele>
        <time>2020-10-04T16:40:54.661Z</time>
      </trkpt>
      <trkpt lat="45.84388" lon="4.59086">
        <ele>249.60000610352</ele>
        <time>2020-10-04T16:40:55.881Z</time>
      </trkpt>
      <trkpt lat="45.84389" lon="4.59084">
        <ele>249.80000305176</ele>
        <time>2020-10-04T16:40:57.102Z</time>
      </trkpt>
      <trkpt lat="45.8439" lon="4.59081">
        <ele>249.80000305176</ele>
        <time>2020-10-04T16:40:58.324Z</time>
      </trkpt>
      <trkpt lat="45.84389" lon="4.59077">
        <ele>249.80000305176</ele>
        <time>2020-10-04T16:40:59.547Z</time>
      </trkpt>
      <trkpt lat="45.84388" lon="4.59075">
        <ele>249.39999389648</ele>
        <time>2020-10-04T16:41:00.771Z</time>
      </trkpt>
      <trkpt lat="45.84388" lon="4.59075">
        <ele>248.80000305176</ele>
        <time>2020-10-04T16:41:01.995Z</time>
      </trkpt>
      <trkpt lat="45.84388" lon="4.59075">
        <ele>248.39999389648</ele>
        <time>2020-10-04T16:41:03.219Z</time>
      </trkpt>
      <trkpt lat="45.84387" lon="4.59074">
        <ele>248.19999694824</ele>
        <time>2020-10-04T16:41:04.443Z</time>
      </trkpt>
      <trkpt lat="45.84387" lon="4.59074">
        <ele>247.80000305176</ele>
        <time>2020-10-04T16:41:05.667Z</time>
      </trkpt>
      <trkpt lat="45.84387" lon="4.59073">
        <ele>248</ele>
        <time>2020-10-04T16:41:06.891Z</time>
      </trkpt>
      <trkpt lat="45.84386" lon="4.59075">
        <ele>248.60000610352</ele>
        <time>2020-10-04T16:41:08.116Z</time>
      </trkpt>
      <trkpt lat="45.84385" lon="4.59077">
        <ele>248.60000610352</ele>
        <time>2020-10-04T16:41:09.342Z</time>
      </trkpt>
      <trkpt lat="45.84376" lon="4.5909">
        <ele>248.60000610352</ele>
        <time>2020-10-04T16:41:10.573Z</time>
      </trkpt>
      <trkpt lat="45.84372" lon="4.59094">
        <ele>248.60000610352</ele>
        <time>2020-10-04T16:41:11.805Z</time>
      </trkpt>
      <trkpt lat="45.84372" lon="4.59093">
        <ele>247.60000610352</ele>
        <time>2020-10-04T16:41:13.038Z</time>
      </trkpt>
      <trkpt lat="45.84372" lon="4.59093">
        <ele>246.19999694824</ele>
        <time>2020-10-04T16:41:14.271Z</time>
      </trkpt>
      <trkpt lat="45.84371" lon="4.59094">
        <ele>246</ele>
        <time>2020-10-04T16:41:15.504Z</time>
      </trkpt>
      <trkpt lat="45.84371" lon="4.59094">
        <ele>246</ele>
        <time>2020-10-04T16:41:16.737Z</time>
      </trkpt>
      <trkpt lat="45.84369" lon="4.59098">
        <ele>246</ele>
        <time>2020-10-04T16:41:17.972Z</time>
      </trkpt>
      <trkpt lat="45.84358" lon="4.59109">
        <ele>246</ele>
        <time>2020-10-04T16:41:19.212Z</time>
      </trkpt>
      <trkpt lat="45.84348" lon="4.59102">
        <ele>245.80000305176</ele>
        <time>2020-10-04T16:41:20.456Z</time>
      </trkpt>
      <trkpt lat="45.84347" lon="4.59096">
        <ele>245</ele>
        <time>2020-10-04T16:41:21.702Z</time>
      </trkpt>
      <trkpt lat="45.84348" lon="4.59089">
        <ele>244</ele>
        <time>2020-10-04T16:41:22.950Z</time>
      </trkpt>
      <trkpt lat="45.8435" lon="4.59082">
        <ele>242.80000305176</ele>
        <time>2020-10-04T16:41:24.200Z</time>
      </trkpt>
      <trkpt lat="45.84351" lon="4.59077">
        <ele>242.60000610352</ele>
        <time>2020-10-04T16:41:25.452Z</time>
      </trkpt>
      <trkpt lat="45.84354" lon="4.59066">
        <ele>242.39999389648</ele>
        <time>2020-10-04T16:41:26.707Z</time>
      </trkpt>
      <trkpt lat="45.84368" lon="4.59027">
        <ele>242</ele>
        <time>2020-10-04T16:41:27.974Z</time>
      </trkpt>
      <trkpt lat="45.84377" lon="4.59007">
        <ele>241.39999389648</ele>
        <time>2020-10-04T16:41:29.248Z</time>
      </trkpt>
      <trkpt lat="45.84386" lon="4.58986">
        <ele>240.19999694824</ele>
        <time>2020-10-04T16:41:30.528Z</time>
      </trkpt>
      <trkpt lat="45.84396" lon="4.58967">
        <ele>238.80000305176</ele>
        <time>2020-10-04T16:41:31.815Z</time>
      </trkpt>
      <trkpt lat="45.84401" lon="4.58956">
        <ele>238</ele>
        <time>2020-10-04T16:41:33.106Z</time>
      </trkpt>
      <trkpt lat="45.84402" lon="4.5895">
        <ele>237.60000610352</ele>
        <time>2020-10-04T16:41:34.398Z</time>
      </trkpt>
      <trkpt lat="45.84399" lon="4.58935">
        <ele>237</ele>
        <time>2020-10-04T16:41:35.695Z</time>
      </trkpt>
      <trkpt lat="45.84398" lon="4.5893">
        <ele>236.80000305176</ele>
        <time>2020-10-04T16:41:36.993Z</time>
      </trkpt>
      <trkpt lat="45.84396" lon="4.58919">
        <ele>236.39999389648</ele>
        <time>2020-10-04T16:41:38.294Z</time>
      </trkpt>
      <trkpt lat="45.84391" lon="4.58895">
        <ele>236.19999694824</ele>
        <time>2020-10-04T16:41:39.602Z</time>
      </trkpt>
      <trkpt lat="45.84383" lon="4.58871">
        <ele>236.39999389648</ele>
        <time>2020-10-04T16:41:40.917Z</time>
      </trkpt>
      <trkpt lat="45.84374" lon="4.58833">
        <ele>237.60000610352</ele>
        <time>2020-10-04T16:41:42.244Z</time>
      </trkpt>
      <trkpt lat="45.84371" lon="4.58809">
        <ele>239</ele>
        <time>2020-10-04T16:41:43.578Z</time>
      </trkpt>
      <trkpt lat="45.84369" lon="4.58798">
        <ele>239.39999389648</ele>
        <time>2020-10-04T16:41:44.915Z</time>
      </trkpt>
      <trkpt lat="45.84367" lon="4.5878">
        <ele>240</ele>
        <time>2020-10-04T16:41:46.257Z</time>
      </trkpt>
      <trkpt lat="45.84365" lon="4.58763">
        <ele>240.39999389648</ele>
        <time>2020-10-04T16:41:47.604Z</time>
      </trkpt>
      <trkpt lat="45.84362" lon="4.58746">
        <ele>241.19999694824</ele>
        <time>2020-10-04T16:41:48.955Z</time>
      </trkpt>
      <trkpt lat="45.84358" lon="4.58726">
        <ele>242.19999694824</ele>
        <time>2020-10-04T16:41:50.312Z</time>
      </trkpt>
      <trkpt lat="45.84354" lon="4.58703">
        <ele>243</ele>
        <time>2020-10-04T16:41:51.676Z</time>
      </trkpt>
      <trkpt lat="45.84351" lon="4.58691">
        <ele>243.39999389648</ele>
        <time>2020-10-04T16:41:53.043Z</time>
      </trkpt>
      <trkpt lat="45.84345" lon="4.58675">
        <ele>244.39999389648</ele>
        <time>2020-10-04T16:41:54.415Z</time>
      </trkpt>
      <trkpt lat="45.84344" lon="4.58671">
        <ele>244.39999389648</ele>
        <time>2020-10-04T16:41:55.788Z</time>
      </trkpt>
      <trkpt lat="45.84335" lon="4.58651">
        <ele>245.19999694824</ele>
        <time>2020-10-04T16:41:57.168Z</time>
      </trkpt>
      <trkpt lat="45.84331" lon="4.58641">
        <ele>245.19999694824</ele>
        <time>2020-10-04T16:41:58.551Z</time>
      </trkpt>
      <trkpt lat="45.84322" lon="4.58622">
        <ele>245.19999694824</ele>
        <time>2020-10-04T16:41:59.940Z</time>
      </trkpt>
      <trkpt lat="45.84302" lon="4.58588">
        <ele>245</ele>
        <time>2020-10-04T16:42:01.342Z</time>
      </trkpt>
      <trkpt lat="45.84297" lon="4.58583">
        <ele>244.80000305176</ele>
        <time>2020-10-04T16:42:02.746Z</time>
      </trkpt>
      <trkpt lat="45.84283" lon="4.58576">
        <ele>243.39999389648</ele>
        <time>2020-10-04T16:42:04.156Z</time>
      </trkpt>
      <trkpt lat="45.84271" lon="4.58579">
        <ele>242.19999694824</ele>
        <time>2020-10-04T16:42:05.571Z</time>
      </trkpt>
      <trkpt lat="45.84259" lon="4.58583">
        <ele>240.80000305176</ele>
        <time>2020-10-04T16:42:06.991Z</time>
      </trkpt>
      <trkpt lat="45.84247" lon="4.58585">
        <ele>239.60000610352</ele>
        <time>2020-10-04T16:42:08.416Z</time>
      </trkpt>
      <trkpt lat="45.84236" lon="4.58587">
        <ele>238.39999389648</ele>
        <time>2020-10-04T16:42:09.845Z</time>
      </trkpt>
      <trkpt lat="45.84225" lon="4.58589">
        <ele>238</ele>
        <time>2020-10-04T16:42:11.278Z</time>
      </trkpt>
      <trkpt lat="45.8422" lon="4.5859">
        <ele>237.60000610352</ele>
        <time>2020-10-04T16:42:12.713Z</time>
      </trkpt>
      <trkpt lat="45.84216" lon="4.58591">
        <ele>237.19999694824</ele>
        <time>2020-10-04T16:42:14.150Z</time>
      </trkpt>
      <trkpt lat="45.84203" lon="4.58595">
        <ele>236.39999389648</ele>
        <time>2020-10-04T16:42:15.593Z</time>
      </trkpt>
      <trkpt lat="45.842" lon="4.58596">
        <ele>236.19999694824</ele>
        <time>2020-10-04T16:42:17.037Z</time>
      </trkpt>
      <trkpt lat="45.84193" lon="4.58598">
        <ele>235.80000305176</ele>
        <time>2020-10-04T16:42:18.484Z</time>
      </trkpt>
      <trkpt lat="45.84192" lon="4.58598">
        <ele>235.39999389648</ele>
        <time>2020-10-04T16:42:19.931Z</time>
      </trkpt>
      <trkpt lat="45.8419" lon="4.58598">
        <ele>235.39999389648</ele>
        <time>2020-10-04T16:42:21.379Z</time>
      </trkpt>
      <trkpt lat="45.8419" lon="4.58598">
        <ele>235.60000610352</ele>
        <time>2020-10-04T16:42:22.827Z</time>
      </trkpt>
      <trkpt lat="45.84188" lon="4.58598">
        <ele>235.39999389648</ele>
        <time>2020-10-04T16:42:24.275Z</time>
      </trkpt>
      <trkpt lat="45.84186" lon="4.58599">
        <ele>235.39999389648</ele>
        <time>2020-10-04T16:42:25.724Z</time>
      </trkpt>
      <trkpt lat="45.84182" lon="4.58601">
        <ele>235.39999389648</ele>
        <time>2020-10-04T16:42:27.175Z</time>
      </trkpt>
      <trkpt lat="45.84174" lon="4.58607">
        <ele>237.19999694824</ele>
        <time>2020-10-04T16:42:28.630Z</time>
      </trkpt>
      <trkpt lat="45.84166" lon="4.58612">
        <ele>237.60000610352</ele>
        <time>2020-10-04T16:42:30.088Z</time>
      </trkpt>
      <trkpt lat="45.84165" lon="4.58612">
        <ele>237.60000610352</ele>
        <time>2020-10-04T16:42:31.546Z</time>
      </trkpt>
      <trkpt lat="45.84163" lon="4.58611">
        <ele>237.39999389648</ele>
        <time>2020-10-04T16:42:33.005Z</time>
      </trkpt>
      <trkpt lat="45.84154" lon="4.58606">
        <ele>236.80000305176</ele>
        <time>2020-10-04T16:42:34.468Z</time>
      </trkpt>
      <trkpt lat="45.84144" lon="4.58604">
        <ele>236.19999694824</ele>
        <time>2020-10-04T16:42:35.935Z</time>
      </trkpt>
      <trkpt lat="45.84141" lon="4.58602">
        <ele>236</ele>
        <time>2020-10-04T16:42:37.403Z</time>
      </trkpt>
      <trkpt lat="45.84136" lon="4.58602">
        <ele>236</ele>
        <time>2020-10-04T16:42:38.873Z</time>
      </trkpt>
      <trkpt lat="45.84132" lon="4.58603">
        <ele>235.80000305176</ele>
        <time>2020-10-04T16:42:40.345Z</time>
      </trkpt>
      <trkpt lat="45.84131" lon="4.58604">
        <ele>235.80000305176</ele>
        <time>2020-10-04T16:42:41.817Z</time>
      </trkpt>
      <trkpt lat="45.84125" lon="4.58604">
        <ele>235.80000305176</ele>
        <time>2020-10-04T16:42:43.292Z</time>
      </trkpt>
      <trkpt lat="45.84109" lon="4.58608">
        <ele>235.80000305176</ele>
        <time>2020-10-04T16:42:44.773Z</time>
      </trkpt>
      <trkpt lat="45.84095" lon="4.58617">
        <ele>235.80000305176</ele>
        <time>2020-10-04T16:42:46.260Z</time>
      </trkpt>
      <trkpt lat="45.84077" lon="4.58639">
        <ele>236.80000305176</ele>
        <time>2020-10-04T16:42:47.757Z</time>
      </trkpt>
      <trkpt lat="45.84059" lon="4.58656">
        <ele>237.39999389648</ele>
        <time>2020-10-04T16:42:49.262Z</time>
      </trkpt>
      <trkpt lat="45.84044" lon="4.58663">
        <ele>238.39999389648</ele>
        <time>2020-10-04T16:42:50.773Z</time>
      </trkpt>
      <trkpt lat="45.84041" lon="4.58664">
        <ele>238.60000610352</ele>
        <time>2020-10-04T16:42:52.286Z</time>
      </trkpt>
      <trkpt lat="45.84023" lon="4.58663">
        <ele>239.60000610352</ele>
        <time>2020-10-04T16:42:53.806Z</time>
      </trkpt>
      <trkpt lat="45.84008" lon="4.58658">
        <ele>240.80000305176</ele>
        <time>2020-10-04T16:42:55.332Z</time>
      </trkpt>
      <trkpt lat="45.84006" lon="4.58657">
        <ele>241</ele>
        <time>2020-10-04T16:42:56.859Z</time>
      </trkpt>
      <trkpt lat="45.83996" lon="4.58654">
        <ele>242.19999694824</ele>
        <time>2020-10-04T16:42:58.390Z</time>
      </trkpt>
      <trkpt lat="45.83987" lon="4.58649">
        <ele>242.60000610352</ele>
        <time>2020-10-04T16:42:59.925Z</time>
      </trkpt>
      <trkpt lat="45.8396" lon="4.5865">
        <ele>243</ele>
        <time>2020-10-04T16:43:01.470Z</time>
      </trkpt>
      <trkpt lat="45.83957" lon="4.58649">
        <ele>243.19999694824</ele>
        <time>2020-10-04T16:43:03.016Z</time>
      </trkpt>
      <trkpt lat="45.83953" lon="4.58645">
        <ele>243.19999694824</ele>
        <time>2020-10-04T16:43:04.565Z</time>
      </trkpt>
      <trkpt lat="45.83952" lon="4.5864">
        <ele>243.39999389648</ele>
        <time>2020-10-04T16:43:06.115Z</time>
      </trkpt>
      <trkpt lat="45.83954" lon="4.58633">
        <ele>244.19999694824</ele>
        <time>2020-10-04T16:43:07.667Z</time>
      </trkpt>
      <trkpt lat="45.83955" lon="4.58629">
        <ele>244.60000610352</ele>
        <time>2020-10-04T16:43:09.220Z</time>
      </trkpt>
      <trkpt lat="45.83956" lon="4.58624">
        <ele>244.80000305176</ele>
        <time>2020-10-04T16:43:10.775Z</time>
      </trkpt>
      <trkpt lat="45.83957" lon="4.58619">
        <ele>245.19999694824</ele>
        <time>2020-10-04T16:43:12.331Z</time>
      </trkpt>
      <trkpt lat="45.83961" lon="4.58607">
        <ele>246.60000610352</ele>
        <time>2020-10-04T16:43:13.891Z</time>
      </trkpt>
      <trkpt lat="45.83962" lon="4.58603">
        <ele>247</ele>
        <time>2020-10-04T16:43:15.452Z</time>
      </trkpt>
      <trkpt lat="45.83964" lon="4.58597">
        <ele>247.60000610352</ele>
        <time>2020-10-04T16:43:17.015Z</time>
      </trkpt>
      <trkpt lat="45.83968" lon="4.58583">
        <ele>248.39999389648</ele>
        <time>2020-10-04T16:43:18.582Z</time>
      </trkpt>
      <trkpt lat="45.8397" lon="4.58577">
        <ele>248.80000305176</ele>
        <time>2020-10-04T16:43:20.151Z</time>
      </trkpt>
      <trkpt lat="45.83972" lon="4.5857">
        <ele>250.19999694824</ele>
        <time>2020-10-04T16:43:21.722Z</time>
      </trkpt>
      <trkpt lat="45.83972" lon="4.58567">
        <ele>250.80000305176</ele>
        <time>2020-10-04T16:43:23.294Z</time>
      </trkpt>
      <trkpt lat="45.83972" lon="4.58565">
        <ele>251.19999694824</ele>
        <time>2020-10-04T16:43:24.866Z</time>
      </trkpt>
      <trkpt lat="45.83972" lon="4.58558">
        <ele>252.60000610352</ele>
        <time>2020-10-04T16:43:26.440Z</time>
      </trkpt>
      <trkpt lat="45.83973" lon="4.58553">
        <ele>253.60000610352</ele>
        <time>2020-10-04T16:43:28.016Z</time>
      </trkpt>
      <trkpt lat="45.83973" lon="4.5855">
        <ele>254</ele>
        <time>2020-10-04T16:43:29.592Z</time>
      </trkpt>
      <trkpt lat="45.83973" lon="4.58544">
        <ele>254.80000305176</ele>
        <time>2020-10-04T16:43:31.170Z</time>
      </trkpt>
      <trkpt lat="45.83975" lon="4.58533">
        <ele>255.80000305176</ele>
        <time>2020-10-04T16:43:32.751Z</time>
      </trkpt>
      <trkpt lat="45.83975" lon="4.58524">
        <ele>257.20001220703</ele>
        <time>2020-10-04T16:43:34.335Z</time>
      </trkpt>
      <trkpt lat="45.83976" lon="4.58516">
        <ele>258.20001220703</ele>
        <time>2020-10-04T16:43:35.921Z</time>
      </trkpt>
      <trkpt lat="45.83975" lon="4.58508">
        <ele>259.60000610352</ele>
        <time>2020-10-04T16:43:37.509Z</time>
      </trkpt>
      <trkpt lat="45.83975" lon="4.585">
        <ele>260.79998779297</ele>
        <time>2020-10-04T16:43:39.099Z</time>
      </trkpt>
      <trkpt lat="45.83975" lon="4.58497">
        <ele>261.20001220703</ele>
        <time>2020-10-04T16:43:40.690Z</time>
      </trkpt>
      <trkpt lat="45.83974" lon="4.58491">
        <ele>262.20001220703</ele>
        <time>2020-10-04T16:43:42.283Z</time>
      </trkpt>
      <trkpt lat="45.83974" lon="4.58485">
        <ele>263</ele>
        <time>2020-10-04T16:43:43.878Z</time>
      </trkpt>
      <trkpt lat="45.83974" lon="4.58482">
        <ele>263.39999389648</ele>
        <time>2020-10-04T16:43:45.473Z</time>
      </trkpt>
      <trkpt lat="45.83972" lon="4.58473">
        <ele>264.39999389648</ele>
        <time>2020-10-04T16:43:47.071Z</time>
      </trkpt>
      <trkpt lat="45.83972" lon="4.5847">
        <ele>264.60000610352</ele>
        <time>2020-10-04T16:43:48.670Z</time>
      </trkpt>
      <trkpt lat="45.83971" lon="4.58461">
        <ele>265.39999389648</ele>
        <time>2020-10-04T16:43:50.271Z</time>
      </trkpt>
      <trkpt lat="45.83971" lon="4.58452">
        <ele>266.20001220703</ele>
        <time>2020-10-04T16:43:51.875Z</time>
      </trkpt>
      <trkpt lat="45.83971" lon="4.58445">
        <ele>266.60000610352</ele>
        <time>2020-10-04T16:43:53.481Z</time>
      </trkpt>
      <trkpt lat="45.8397" lon="4.58432">
        <ele>267.60000610352</ele>
        <time>2020-10-04T16:43:55.090Z</time>
      </trkpt>
      <trkpt lat="45.8397" lon="4.58425">
        <ele>268.20001220703</ele>
        <time>2020-10-04T16:43:56.701Z</time>
      </trkpt>
      <trkpt lat="45.8397" lon="4.58419">
        <ele>269</ele>
        <time>2020-10-04T16:43:58.314Z</time>
      </trkpt>
      <trkpt lat="45.83969" lon="4.5841">
        <ele>270</ele>
        <time>2020-10-04T16:43:59.930Z</time>
      </trkpt>
      <trkpt lat="45.83969" lon="4.58404">
        <ele>271</ele>
        <time>2020-10-04T16:44:01.547Z</time>
      </trkpt>
      <trkpt lat="45.83969" lon="4.58401">
        <ele>271.20001220703</ele>
        <time>2020-10-04T16:44:03.165Z</time>
      </trkpt>
      <trkpt lat="45.83969" lon="4.58389">
        <ele>272.60000610352</ele>
        <time>2020-10-04T16:44:04.786Z</time>
      </trkpt>
      <trkpt lat="45.83969" lon="4.5838">
        <ele>273.39999389648</ele>
        <time>2020-10-04T16:44:06.410Z</time>
      </trkpt>
      <trkpt lat="45.83969" lon="4.58377">
        <ele>274.20001220703</ele>
        <time>2020-10-04T16:44:08.035Z</time>
      </trkpt>
      <trkpt lat="45.83969" lon="4.58365">
        <ele>275.20001220703</ele>
        <time>2020-10-04T16:44:09.663Z</time>
      </trkpt>
      <trkpt lat="45.83968" lon="4.58359">
        <ele>276</ele>
        <time>2020-10-04T16:44:11.293Z</time>
      </trkpt>
      <trkpt lat="45.83968" lon="4.58354">
        <ele>276.60000610352</ele>
        <time>2020-10-04T16:44:12.924Z</time>
      </trkpt>
      <trkpt lat="45.83969" lon="4.58342">
        <ele>277.39999389648</ele>
        <time>2020-10-04T16:44:14.558Z</time>
      </trkpt>
      <trkpt lat="45.83969" lon="4.58339">
        <ele>277.79998779297</ele>
        <time>2020-10-04T16:44:16.193Z</time>
      </trkpt>
      <trkpt lat="45.8397" lon="4.58324">
        <ele>278.79998779297</ele>
        <time>2020-10-04T16:44:17.832Z</time>
      </trkpt>
      <trkpt lat="45.8397" lon="4.58319">
        <ele>279.20001220703</ele>
        <time>2020-10-04T16:44:19.473Z</time>
      </trkpt>
      <trkpt lat="45.83972" lon="4.58302">
        <ele>280</ele>
        <time>2020-10-04T16:44:21.118Z</time>
      </trkpt>
      <trkpt lat="45.83972" lon="4.58296">
        <ele>280.20001220703</ele>
        <time>2020-10-04T16:44:22.765Z</time>
      </trkpt>
      <trkpt lat="45.83971" lon="4.58277">
        <ele>280.79998779297</ele>
        <time>2020-10-04T16:44:24.418Z</time>
      </trkpt>
      <trkpt lat="45.8397" lon="4.5827">
        <ele>281</ele>
        <time>2020-10-04T16:44:26.073Z</time>
      </trkpt>
      <trkpt lat="45.83968" lon="4.58263">
        <ele>281.20001220703</ele>
        <time>2020-10-04T16:44:27.730Z</time>
      </trkpt>
      <trkpt lat="45.83964" lon="4.58251">
        <ele>281.60000610352</ele>
        <time>2020-10-04T16:44:29.390Z</time>
      </trkpt>
      <trkpt lat="45.83958" lon="4.58238">
        <ele>282</ele>
        <time>2020-10-04T16:44:31.055Z</time>
      </trkpt>
      <trkpt lat="45.83955" lon="4.58231">
        <ele>282</ele>
        <time>2020-10-04T16:44:32.722Z</time>
      </trkpt>
      <trkpt lat="45.83952" lon="4.58224">
        <ele>282.20001220703</ele>
        <time>2020-10-04T16:44:34.391Z</time>
      </trkpt>
      <trkpt lat="45.83942" lon="4.58208">
        <ele>283</ele>
        <time>2020-10-04T16:44:36.066Z</time>
      </trkpt>
      <trkpt lat="45.83932" lon="4.58191">
        <ele>284</ele>
        <time>2020-10-04T16:44:37.747Z</time>
      </trkpt>
      <trkpt lat="45.8393" lon="4.58185">
        <ele>284.39999389648</ele>
        <time>2020-10-04T16:44:39.430Z</time>
      </trkpt>
      <trkpt lat="45.83922" lon="4.5817">
        <ele>285</ele>
        <time>2020-10-04T16:44:41.118Z</time>
      </trkpt>
      <trkpt lat="45.83919" lon="4.58162">
        <ele>285.39999389648</ele>
        <time>2020-10-04T16:44:42.809Z</time>
      </trkpt>
      <trkpt lat="45.83915" lon="4.58154">
        <ele>286</ele>
        <time>2020-10-04T16:44:44.503Z</time>
      </trkpt>
      <trkpt lat="45.83911" lon="4.58143">
        <ele>286.39999389648</ele>
        <time>2020-10-04T16:44:46.200Z</time>
      </trkpt>
      <trkpt lat="45.83908" lon="4.58134">
        <ele>286.79998779297</ele>
        <time>2020-10-04T16:44:47.900Z</time>
      </trkpt>
      <trkpt lat="45.83905" lon="4.58128">
        <ele>287</ele>
        <time>2020-10-04T16:44:49.602Z</time>
      </trkpt>
      <trkpt lat="45.83899" lon="4.58113">
        <ele>287.39999389648</ele>
        <time>2020-10-04T16:44:51.309Z</time>
      </trkpt>
      <trkpt lat="45.83891" lon="4.58093">
        <ele>288</ele>
        <time>2020-10-04T16:44:53.022Z</time>
      </trkpt>
      <trkpt lat="45.83882" lon="4.58074">
        <ele>288.60000610352</ele>
        <time>2020-10-04T16:44:54.741Z</time>
      </trkpt>
      <trkpt lat="45.83881" lon="4.58072">
        <ele>288.60000610352</ele>
        <time>2020-10-04T16:44:56.461Z</time>
      </trkpt>
      <trkpt lat="45.83873" lon="4.58058">
        <ele>289.39999389648</ele>
        <time>2020-10-04T16:44:58.186Z</time>
      </trkpt>
      <trkpt lat="45.8387" lon="4.58054">
        <ele>289.60000610352</ele>
        <time>2020-10-04T16:44:59.913Z</time>
      </trkpt>
      <trkpt lat="45.83863" lon="4.58042">
        <ele>289.79998779297</ele>
        <time>2020-10-04T16:45:01.644Z</time>
      </trkpt>
      <trkpt lat="45.83852" lon="4.5802">
        <ele>290.20001220703</ele>
        <time>2020-10-04T16:45:03.382Z</time>
      </trkpt>
      <trkpt lat="45.83842" lon="4.58001">
        <ele>290.60000610352</ele>
        <time>2020-10-04T16:45:05.127Z</time>
      </trkpt>
      <trkpt lat="45.83835" lon="4.57985">
        <ele>290.79998779297</ele>
        <time>2020-10-04T16:45:06.877Z</time>
      </trkpt>
      <trkpt lat="45.83832" lon="4.57974">
        <ele>291.60000610352</ele>
        <time>2020-10-04T16:45:08.631Z</time>
      </trkpt>
      <trkpt lat="45.83832" lon="4.57974">
        <ele>292</ele>
        <time>2020-10-04T16:45:10.385Z</time>
      </trkpt>
      <trkpt lat="45.83832" lon="4.57974">
        <ele>293</ele>
        <time>2020-10-04T16:45:12.139Z</time>
      </trkpt>
      <trkpt lat="45.83832" lon="4.57974">
        <ele>293</ele>
        <time>2020-10-04T16:45:13.893Z</time>
      </trkpt>
      <trkpt lat="45.83832" lon="4.57974">
        <ele>293.20001220703</ele>
        <time>2020-10-04T16:45:15.647Z</time>
      </trkpt>
      <trkpt lat="45.83831" lon="4.57973">
        <ele>293</ele>
        <time>2020-10-04T16:45:17.401Z</time>
      </trkpt>
      <trkpt lat="45.83829" lon="4.57971">
        <ele>293</ele>
        <time>2020-10-04T16:45:19.156Z</time>
      </trkpt>
      <trkpt lat="45.83827" lon="4.57973">
        <ele>292.79998779297</ele>
        <time>2020-10-04T16:45:20.912Z</time>
      </trkpt>
      <trkpt lat="45.83814" lon="4.57976">
        <ele>292.79998779297</ele>
        <time>2020-10-04T16:45:22.673Z</time>
      </trkpt>
      <trkpt lat="45.83797" lon="4.5797">
        <ele>293.20001220703</ele>
        <time>2020-10-04T16:45:24.441Z</time>
      </trkpt>
      <trkpt lat="45.83777" lon="4.57961">
        <ele>293.79998779297</ele>
        <time>2020-10-04T16:45:26.217Z</time>
      </trkpt>
      <trkpt lat="45.83773" lon="4.57959">
        <ele>294.20001220703</ele>
        <time>2020-10-04T16:45:27.995Z</time>
      </trkpt>
      <trkpt lat="45.83762" lon="4.57954">
        <ele>295.20001220703</ele>
        <time>2020-10-04T16:45:29.778Z</time>
      </trkpt>
      <trkpt lat="45.8376" lon="4.57953">
        <ele>295.20001220703</ele>
        <time>2020-10-04T16:45:31.562Z</time>
      </trkpt>
      <trkpt lat="45.83753" lon="4.57948">
        <ele>295.79998779297</ele>
        <time>2020-10-04T16:45:33.349Z</time>
      </trkpt>
      <trkpt lat="45.83748" lon="4.57945">
        <ele>296.39999389648</ele>
        <time>2020-10-04T16:45:35.138Z</time>
      </trkpt>
      <trkpt lat="45.83742" lon="4.57939">
        <ele>297.20001220703</ele>
        <time>2020-10-04T16:45:36.930Z</time>
      </trkpt>
      <trkpt lat="45.83739" lon="4.57934">
        <ele>297.39999389648</ele>
        <time>2020-10-04T16:45:38.724Z</time>
      </trkpt>
      <trkpt lat="45.83734" lon="4.57925">
        <ele>297.79998779297</ele>
        <time>2020-10-04T16:45:40.521Z</time>
      </trkpt>
      <trkpt lat="45.83727" lon="4.5791">
        <ele>298.60000610352</ele>
        <time>2020-10-04T16:45:42.323Z</time>
      </trkpt>
      <trkpt lat="45.83716" lon="4.57888">
        <ele>299.60000610352</ele>
        <time>2020-10-04T16:45:44.132Z</time>
      </trkpt>
      <trkpt lat="45.83715" lon="4.57886">
        <ele>299.60000610352</ele>
        <time>2020-10-04T16:45:45.942Z</time>
      </trkpt>
      <trkpt lat="45.83708" lon="4.57872">
        <ele>300.39999389648</ele>
        <time>2020-10-04T16:45:47.757Z</time>
      </trkpt>
      <trkpt lat="45.83704" lon="4.57867">
        <ele>300.79998779297</ele>
        <time>2020-10-04T16:45:49.574Z</time>
      </trkpt>
      <trkpt lat="45.83699" lon="4.57861">
        <ele>301</ele>
        <time>2020-10-04T16:45:51.393Z</time>
      </trkpt>
      <trkpt lat="45.83689" lon="4.57848">
        <ele>301.79998779297</ele>
        <time>2020-10-04T16:45:53.218Z</time>
      </trkpt>
      <trkpt lat="45.83688" lon="4.57846">
        <ele>301.79998779297</ele>
        <time>2020-10-04T16:45:55.043Z</time>
      </trkpt>
      <trkpt lat="45.83679" lon="4.57836">
        <ele>302.20001220703</ele>
        <time>2020-10-04T16:45:56.873Z</time>
      </trkpt>
      <trkpt lat="45.83669" lon="4.57821">
        <ele>302.60000610352</ele>
        <time>2020-10-04T16:45:58.709Z</time>
      </trkpt>
      <trkpt lat="45.83666" lon="4.57817">
        <ele>302.79998779297</ele>
        <time>2020-10-04T16:46:00.546Z</time>
      </trkpt>
      <trkpt lat="45.83657" lon="4.57804">
        <ele>303.20001220703</ele>
        <time>2020-10-04T16:46:02.389Z</time>
      </trkpt>
      <trkpt lat="45.83645" lon="4.57789">
        <ele>303.60000610352</ele>
        <time>2020-10-04T16:46:04.238Z</time>
      </trkpt>
      <trkpt lat="45.83641" lon="4.57786">
        <ele>303.79998779297</ele>
        <time>2020-10-04T16:46:06.088Z</time>
      </trkpt>
      <trkpt lat="45.83636" lon="4.5778">
        <ele>304</ele>
        <time>2020-10-04T16:46:07.941Z</time>
      </trkpt>
      <trkpt lat="45.83626" lon="4.57764">
        <ele>304.20001220703</ele>
        <time>2020-10-04T16:46:09.800Z</time>
      </trkpt>
      <trkpt lat="45.83616" lon="4.57751">
        <ele>304.39999389648</ele>
        <time>2020-10-04T16:46:11.664Z</time>
      </trkpt>
      <trkpt lat="45.83602" lon="4.57734">
        <ele>304.60000610352</ele>
        <time>2020-10-04T16:46:13.536Z</time>
      </trkpt>
      <trkpt lat="45.83593" lon="4.57723">
        <ele>305</ele>
        <time>2020-10-04T16:46:15.412Z</time>
      </trkpt>
      <trkpt lat="45.83589" lon="4.57719">
        <ele>305</ele>
        <time>2020-10-04T16:46:17.290Z</time>
      </trkpt>
      <trkpt lat="45.83572" lon="4.57699">
        <ele>305.39999389648</ele>
        <time>2020-10-04T16:46:19.177Z</time>
      </trkpt>
      <trkpt lat="45.83558" lon="4.57688">
        <ele>305.60000610352</ele>
        <time>2020-10-04T16:46:21.070Z</time>
      </trkpt>
      <trkpt lat="45.83547" lon="4.57677">
        <ele>305.60000610352</ele>
        <time>2020-10-04T16:46:22.969Z</time>
      </trkpt>
      <trkpt lat="45.83545" lon="4.5766">
        <ele>305.60000610352</ele>
        <time>2020-10-04T16:46:24.872Z</time>
      </trkpt>
      <trkpt lat="45.83541" lon="4.57637">
        <ele>305.79998779297</ele>
        <time>2020-10-04T16:46:26.782Z</time>
      </trkpt>
      <trkpt lat="45.8354" lon="4.5763">
        <ele>306</ele>
        <time>2020-10-04T16:46:28.694Z</time>
      </trkpt>
      <trkpt lat="45.83537" lon="4.57612">
        <ele>306.20001220703</ele>
        <time>2020-10-04T16:46:30.611Z</time>
      </trkpt>
      <trkpt lat="45.83532" lon="4.57584">
        <ele>307</ele>
        <time>2020-10-04T16:46:32.536Z</time>
      </trkpt>
      <trkpt lat="45.83526" lon="4.57553">
        <ele>307.20001220703</ele>
        <time>2020-10-04T16:46:34.470Z</time>
      </trkpt>
      <trkpt lat="45.83526" lon="4.5755">
        <ele>307.20001220703</ele>
        <time>2020-10-04T16:46:36.405Z</time>
      </trkpt>
      <trkpt lat="45.83521" lon="4.57526">
        <ele>307.60000610352</ele>
        <time>2020-10-04T16:46:38.347Z</time>
      </trkpt>
      <trkpt lat="45.83517" lon="4.57503">
        <ele>308</ele>
        <time>2020-10-04T16:46:40.295Z</time>
      </trkpt>
      <trkpt lat="45.83515" lon="4.57487">
        <ele>308.20001220703</ele>
        <time>2020-10-04T16:46:42.248Z</time>
      </trkpt>
      <trkpt lat="45.83514" lon="4.57484">
        <ele>308.39999389648</ele>
        <time>2020-10-04T16:46:44.201Z</time>
      </trkpt>
      <trkpt lat="45.83508" lon="4.57473">
        <ele>308.60000610352</ele>
        <time>2020-10-04T16:46:46.158Z</time>
      </trkpt>
      <trkpt lat="45.83498" lon="4.57469">
        <ele>309</ele>
        <time>2020-10-04T16:46:48.119Z</time>
      </trkpt>
      <trkpt lat="45.83486" lon="4.5747">
        <ele>309.20001220703</ele>
        <time>2020-10-04T16:46:50.085Z</time>
      </trkpt>
      <trkpt lat="45.83475" lon="4.57473">
        <ele>309.20001220703</ele>
        <time>2020-10-04T16:46:52.056Z</time>
      </trkpt>
      <trkpt lat="45.83462" lon="4.57475">
        <ele>309.20001220703</ele>
        <time>2020-10-04T16:46:54.032Z</time>
      </trkpt>
      <trkpt lat="45.83461" lon="4.57476">
        <ele>309.20001220703</ele>
        <time>2020-10-04T16:46:56.008Z</time>
      </trkpt>
      <trkpt lat="45.83459" lon="4.57476">
        <ele>309.39999389648</ele>
        <time>2020-10-04T16:46:57.985Z</time>
      </trkpt>
      <trkpt lat="45.83448" lon="4.57476">
        <ele>309.39999389648</ele>
        <time>2020-10-04T16:46:59.966Z</time>
      </trkpt>
      <trkpt lat="45.83434" lon="4.57477">
        <ele>309.39999389648</ele>
        <time>2020-10-04T16:47:01.953Z</time>
      </trkpt>
      <trkpt lat="45.83418" lon="4.57477">
        <ele>309</ele>
        <time>2020-10-04T16:47:03.946Z</time>
      </trkpt>
      <trkpt lat="45.83404" lon="4.5748">
        <ele>309</ele>
        <time>2020-10-04T16:47:05.945Z</time>
      </trkpt>
      <trkpt lat="45.83391" lon="4.5748">
        <ele>309</ele>
        <time>2020-10-04T16:47:07.949Z</time>
      </trkpt>
      <trkpt lat="45.83378" lon="4.57477">
        <ele>309.39999389648</ele>
        <time>2020-10-04T16:47:09.958Z</time>
      </trkpt>
      <trkpt lat="45.83365" lon="4.5747">
        <ele>309.79998779297</ele>
        <time>2020-10-04T16:47:11.973Z</time>
      </trkpt>
      <trkpt lat="45.83352" lon="4.57466">
        <ele>310.39999389648</ele>
        <time>2020-10-04T16:47:13.993Z</time>
      </trkpt>
      <trkpt lat="45.83329" lon="4.57467">
        <ele>311.39999389648</ele>
        <time>2020-10-04T16:47:16.023Z</time>
      </trkpt>
      <trkpt lat="45.833" lon="4.57464">
        <ele>311.60000610352</ele>
        <time>2020-10-04T16:47:18.064Z</time>
      </trkpt>
      <trkpt lat="45.83291" lon="4.57464">
        <ele>311.20001220703</ele>
        <time>2020-10-04T16:47:20.109Z</time>
      </trkpt>
      <trkpt lat="45.83276" lon="4.57469">
        <ele>310.60000610352</ele>
        <time>2020-10-04T16:47:22.160Z</time>
      </trkpt>
      <trkpt lat="45.83273" lon="4.57471">
        <ele>310.39999389648</ele>
        <time>2020-10-04T16:47:24.212Z</time>
      </trkpt>
      <trkpt lat="45.83259" lon="4.5748">
        <ele>310</ele>
        <time>2020-10-04T16:47:26.270Z</time>
      </trkpt>
      <trkpt lat="45.83241" lon="4.57496">
        <ele>310.20001220703</ele>
        <time>2020-10-04T16:47:28.336Z</time>
      </trkpt>
      <trkpt lat="45.83219" lon="4.57512">
        <ele>310.20001220703</ele>
        <time>2020-10-04T16:47:30.412Z</time>
      </trkpt>
      <trkpt lat="45.83199" lon="4.57524">
        <ele>310.60000610352</ele>
        <time>2020-10-04T16:47:32.497Z</time>
      </trkpt>
      <trkpt lat="45.83182" lon="4.57536">
        <ele>311.39999389648</ele>
        <time>2020-10-04T16:47:34.589Z</time>
      </trkpt>
      <trkpt lat="45.83177" lon="4.5754">
        <ele>311.79998779297</ele>
        <time>2020-10-04T16:47:36.684Z</time>
      </trkpt>
      <trkpt lat="45.83161" lon="4.57554">
        <ele>312.20001220703</ele>
        <time>2020-10-04T16:47:38.786Z</time>
      </trkpt>
      <trkpt lat="45.83159" lon="4.57556">
        <ele>312.39999389648</ele>
        <time>2020-10-04T16:47:40.889Z</time>
      </trkpt>
      <trkpt lat="45.83142" lon="4.57568">
        <ele>313</ele>
        <time>2020-10-04T16:47:43.000Z</time>
      </trkpt>
      <trkpt lat="45.83123" lon="4.57582">
        <ele>313</ele>
        <time>2020-10-04T16:47:45.119Z</time>
      </trkpt>
      <trkpt lat="45.83101" lon="4.57596">
        <ele>312.79998779297</ele>
        <time>2020-10-04T16:47:47.248Z</time>
      </trkpt>
      <trkpt lat="45.83068" lon="4.57617">
        <ele>311.79998779297</ele>
        <time>2020-10-04T16:47:49.391Z</time>
      </trkpt>
      <trkpt lat="45.83058" lon="4.57623">
        <ele>311.39999389648</ele>
        <time>2020-10-04T16:47:51.538Z</time>
      </trkpt>
      <trkpt lat="45.83046" lon="4.57627">
        <ele>311.20001220703</ele>
        <time>2020-10-04T16:47:53.690Z</time>
      </trkpt>
      <trkpt lat="45.8304" lon="4.57619">
        <ele>311</ele>
        <time>2020-10-04T16:47:55.845Z</time>
      </trkpt>
      <trkpt lat="45.8304" lon="4.57609">
        <ele>311</ele>
        <time>2020-10-04T16:47:58.003Z</time>
      </trkpt>
      <trkpt lat="45.8304" lon="4.57598">
        <ele>311.20001220703</ele>
        <time>2020-10-04T16:48:00.164Z</time>
      </trkpt>
      <trkpt lat="45.83041" lon="4.57573">
        <ele>312.20001220703</ele>
        <time>2020-10-04T16:48:02.332Z</time>
      </trkpt>
      <trkpt lat="45.83041" lon="4.57563">
        <ele>312.60000610352</ele>
        <time>2020-10-04T16:48:04.503Z</time>
      </trkpt>
      <trkpt lat="45.83041" lon="4.57553">
        <ele>312.79998779297</ele>
        <time>2020-10-04T16:48:06.677Z</time>
      </trkpt>
      <trkpt lat="45.83042" lon="4.57542">
        <ele>313.60000610352</ele>
        <time>2020-10-04T16:48:08.854Z</time>
      </trkpt>
      <trkpt lat="45.83042" lon="4.57526">
        <ele>314.39999389648</ele>
        <time>2020-10-04T16:48:11.035Z</time>
      </trkpt>
      <trkpt lat="45.83042" lon="4.57519">
        <ele>314.79998779297</ele>
        <time>2020-10-04T16:48:13.218Z</time>
      </trkpt>
      <trkpt lat="45.83043" lon="4.57506">
        <ele>315.39999389648</ele>
        <time>2020-10-04T16:48:15.405Z</time>
      </trkpt>
      <trkpt lat="45.83043" lon="4.57499">
        <ele>315.79998779297</ele>
        <time>2020-10-04T16:48:17.594Z</time>
      </trkpt>
      <trkpt lat="45.83043" lon="4.57482">
        <ele>316.79998779297</ele>
        <time>2020-10-04T16:48:19.787Z</time>
      </trkpt>
      <trkpt lat="45.83044" lon="4.57472">
        <ele>317.60000610352</ele>
        <time>2020-10-04T16:48:21.983Z</time>
      </trkpt>
      <trkpt lat="45.83044" lon="4.57465">
        <ele>318</ele>
        <time>2020-10-04T16:48:24.181Z</time>
      </trkpt>
      <trkpt lat="45.83045" lon="4.57445">
        <ele>319</ele>
        <time>2020-10-04T16:48:26.385Z</time>
      </trkpt>
      <trkpt lat="45.83045" lon="4.57435">
        <ele>319.79998779297</ele>
        <time>2020-10-04T16:48:28.591Z</time>
      </trkpt>
      <trkpt lat="45.83045" lon="4.57428">
        <ele>320.20001220703</ele>
        <time>2020-10-04T16:48:30.799Z</time>
      </trkpt>
      <trkpt lat="45.83046" lon="4.57412">
        <ele>321.39999389648</ele>
        <time>2020-10-04T16:48:33.012Z</time>
      </trkpt>
      <trkpt lat="45.83046" lon="4.57393">
        <ele>322.39999389648</ele>
        <time>2020-10-04T16:48:35.230Z</time>
      </trkpt>
      <trkpt lat="45.83047" lon="4.57387">
        <ele>322.79998779297</ele>
        <time>2020-10-04T16:48:37.450Z</time>
      </trkpt>
      <trkpt lat="45.83047" lon="4.57372">
        <ele>323.60000610352</ele>
        <time>2020-10-04T16:48:39.674Z</time>
      </trkpt>
      <trkpt lat="45.83047" lon="4.57364">
        <ele>324.60000610352</ele>
        <time>2020-10-04T16:48:41.900Z</time>
      </trkpt>
      <trkpt lat="45.83047" lon="4.57361">
        <ele>324.79998779297</ele>
        <time>2020-10-04T16:48:44.127Z</time>
      </trkpt>
      <trkpt lat="45.83047" lon="4.57342">
        <ele>325.79998779297</ele>
        <time>2020-10-04T16:48:46.359Z</time>
      </trkpt>
      <trkpt lat="45.83047" lon="4.57339">
        <ele>326</ele>
        <time>2020-10-04T16:48:48.592Z</time>
      </trkpt>
      <trkpt lat="45.83047" lon="4.57326">
        <ele>327.20001220703</ele>
        <time>2020-10-04T16:48:50.829Z</time>
      </trkpt>
      <trkpt lat="45.83048" lon="4.57318">
        <ele>328.20001220703</ele>
        <time>2020-10-04T16:48:53.068Z</time>
      </trkpt>
      <trkpt lat="45.83048" lon="4.57313">
        <ele>328.79998779297</ele>
        <time>2020-10-04T16:48:55.308Z</time>
      </trkpt>
      <trkpt lat="45.83048" lon="4.57307">
        <ele>329.20001220703</ele>
        <time>2020-10-04T16:48:57.550Z</time>
      </trkpt>
      <trkpt lat="45.83049" lon="4.57297">
        <ele>330.20001220703</ele>
        <time>2020-10-04T16:48:59.795Z</time>
      </trkpt>
      <trkpt lat="45.83049" lon="4.57292">
        <ele>330.60000610352</ele>
        <time>2020-10-04T16:49:02.041Z</time>
      </trkpt>
      <trkpt lat="45.8305" lon="4.57278">
        <ele>331.60000610352</ele>
        <time>2020-10-04T16:49:04.291Z</time>
      </trkpt>
      <trkpt lat="45.8305" lon="4.57266">
        <ele>332.60000610352</ele>
        <time>2020-10-04T16:49:06.544Z</time>
      </trkpt>
      <trkpt lat="45.83051" lon="4.57256">
        <ele>333.39999389648</ele>
        <time>2020-10-04T16:49:08.800Z</time>
      </trkpt>
      <trkpt lat="45.8305" lon="4.5725">
        <ele>333.79998779297</ele>
        <time>2020-10-04T16:49:11.058Z</time>
      </trkpt>
      <trkpt lat="45.83051" lon="4.57231">
        <ele>334.60000610352</ele>
        <time>2020-10-04T16:49:13.321Z</time>
      </trkpt>
      <trkpt lat="45.83051" lon="4.57226">
        <ele>334.79998779297</ele>
        <time>2020-10-04T16:49:15.585Z</time>
      </trkpt>
      <trkpt lat="45.83051" lon="4.57215">
        <ele>335.79998779297</ele>
        <time>2020-10-04T16:49:17.853Z</time>
      </trkpt>
      <trkpt lat="45.83051" lon="4.57212">
        <ele>336</ele>
        <time>2020-10-04T16:49:20.121Z</time>
      </trkpt>
      <trkpt lat="45.83051" lon="4.572">
        <ele>337</ele>
        <time>2020-10-04T16:49:22.393Z</time>
      </trkpt>
      <trkpt lat="45.83051" lon="4.57191">
        <ele>337.60000610352</ele>
        <time>2020-10-04T16:49:24.667Z</time>
      </trkpt>
      <trkpt lat="45.83052" lon="4.57182">
        <ele>338.20001220703</ele>
        <time>2020-10-04T16:49:26.944Z</time>
      </trkpt>
      <trkpt lat="45.83052" lon="4.57165">
        <ele>339.20001220703</ele>
        <time>2020-10-04T16:49:29.225Z</time>
      </trkpt>
      <trkpt lat="45.83053" lon="4.57162">
        <ele>339.60000610352</ele>
        <time>2020-10-04T16:49:31.507Z</time>
      </trkpt>
      <trkpt lat="45.83053" lon="4.5715">
        <ele>340.60000610352</ele>
        <time>2020-10-04T16:49:33.792Z</time>
      </trkpt>
      <trkpt lat="45.83053" lon="4.57142">
        <ele>341.60000610352</ele>
        <time>2020-10-04T16:49:36.080Z</time>
      </trkpt>
      <trkpt lat="45.83053" lon="4.57139">
        <ele>341.79998779297</ele>
        <time>2020-10-04T16:49:38.369Z</time>
      </trkpt>
      <trkpt lat="45.83054" lon="4.57133">
        <ele>342.60000610352</ele>
        <time>2020-10-04T16:49:40.659Z</time>
      </trkpt>
      <trkpt lat="45.83054" lon="4.57115">
        <ele>343.79998779297</ele>
        <time>2020-10-04T16:49:42.954Z</time>
      </trkpt>
      <trkpt lat="45.83054" lon="4.57104">
        <ele>344.79998779297</ele>
        <time>2020-10-04T16:49:45.252Z</time>
      </trkpt>
      <trkpt lat="45.83054" lon="4.57093">
        <ele>345.60000610352</ele>
        <time>2020-10-04T16:49:47.553Z</time>
      </trkpt>
      <trkpt lat="45.83055" lon="4.57088">
        <ele>346</ele>
        <time>2020-10-04T16:49:49.856Z</time>
      </trkpt>
      <trkpt lat="45.83056" lon="4.57082">
        <ele>346.79998779297</ele>
        <time>2020-10-04T16:49:52.160Z</time>
      </trkpt>
      <trkpt lat="45.83058" lon="4.5708">
        <ele>347.20001220703</ele>
        <time>2020-10-04T16:49:54.465Z</time>
      </trkpt>
      <trkpt lat="45.83059" lon="4.57078">
        <ele>347.60000610352</ele>
        <time>2020-10-04T16:49:56.771Z</time>
      </trkpt>
      <trkpt lat="45.83064" lon="4.57076">
        <ele>348.39999389648</ele>
        <time>2020-10-04T16:49:59.079Z</time>
      </trkpt>
      <trkpt lat="45.83071" lon="4.57076">
        <ele>349.60000610352</ele>
        <time>2020-10-04T16:50:01.390Z</time>
      </trkpt>
      <trkpt lat="45.83073" lon="4.57076">
        <ele>349.79998779297</ele>
        <time>2020-10-04T16:50:03.702Z</time>
      </trkpt>
      <trkpt lat="45.83077" lon="4.57077">
        <ele>350.60000610352</ele>
        <time>2020-10-04T16:50:06.015Z</time>
      </trkpt>
      <trkpt lat="45.83083" lon="4.57076">
        <ele>351.60000610352</ele>
        <time>2020-10-04T16:50:08.331Z</time>
      </trkpt>
      <trkpt lat="45.83088" lon="4.57075">
        <ele>352.39999389648</ele>
        <time>2020-10-04T16:50:10.648Z</time>
      </trkpt>
      <trkpt lat="45.83089" lon="4.57075">
        <ele>352.79998779297</ele>
        <time>2020-10-04T16:50:12.966Z</time>
      </trkpt>
      <trkpt lat="45.83097" lon="4.57076">
        <ele>354</ele>
        <time>2020-10-04T16:50:15.287Z</time>
      </trkpt>
      <trkpt lat="45.83099" lon="4.57076">
        <ele>354.20001220703</ele>
        <time>2020-10-04T16:50:17.609Z</time>
      </trkpt>
      <trkpt lat="45.83112" lon="4.57075">
        <ele>354.60000610352</ele>
        <time>2020-10-04T16:50:19.936Z</time>
      </trkpt>
      <trkpt lat="45.83127" lon="4.57075">
        <ele>355</ele>
        <time>2020-10-04T16:50:22.269Z</time>
      </trkpt>
      <trkpt lat="45.83131" lon="4.57075">
        <ele>355</ele>
        <time>2020-10-04T16:50:24.604Z</time>
      </trkpt>
      <trkpt lat="45.83144" lon="4.57072">
        <ele>355</ele>
        <time>2020-10-04T16:50:26.944Z</time>
      </trkpt>
      <trkpt lat="45.83166" lon="4.57071">
        <ele>355</ele>
        <time>2020-10-04T16:50:29.293Z</time>
      </trkpt>
      <trkpt lat="45.83178" lon="4.57068">
        <ele>355.20001220703</ele>
        <time>2020-10-04T16:50:31.646Z</time>
      </trkpt>
      <trkpt lat="45.83192" lon="4.57067">
        <ele>355.20001220703</ele>
        <time>2020-10-04T16:50:34.005Z</time>
      </trkpt>
      <trkpt lat="45.83207" lon="4.57061">
        <ele>355.60000610352</ele>
        <time>2020-10-04T16:50:36.370Z</time>
      </trkpt>
      <trkpt lat="45.83215" lon="4.5705">
        <ele>355.60000610352</ele>
        <time>2020-10-04T16:50:38.740Z</time>
      </trkpt>
      <trkpt lat="45.83217" lon="4.57048">
        <ele>355.60000610352</ele>
        <time>2020-10-04T16:50:41.111Z</time>
      </trkpt>
      <trkpt lat="45.83228" lon="4.57036">
        <ele>355.79998779297</ele>
        <time>2020-10-04T16:50:43.487Z</time>
      </trkpt>
      <trkpt lat="45.83233" lon="4.57031">
        <ele>356.39999389648</ele>
        <time>2020-10-04T16:50:45.866Z</time>
      </trkpt>
      <trkpt lat="45.83238" lon="4.57026">
        <ele>357.60000610352</ele>
        <time>2020-10-04T16:50:48.247Z</time>
      </trkpt>
      <trkpt lat="45.83242" lon="4.57022">
        <ele>358.79998779297</ele>
        <time>2020-10-04T16:50:50.630Z</time>
      </trkpt>
      <trkpt lat="45.83247" lon="4.57016">
        <ele>359.79998779297</ele>
        <time>2020-10-04T16:50:53.016Z</time>
      </trkpt>
      <trkpt lat="45.83251" lon="4.57011">
        <ele>361</ele>
        <time>2020-10-04T16:50:55.404Z</time>
      </trkpt>
      <trkpt lat="45.83253" lon="4.57009">
        <ele>361.20001220703</ele>
        <time>2020-10-04T16:50:57.793Z</time>
      </trkpt>
      <trkpt lat="45.83257" lon="4.57003">
        <ele>362.20001220703</ele>
        <time>2020-10-04T16:51:00.184Z</time>
      </trkpt>
      <trkpt lat="45.83264" lon="4.56995">
        <ele>363.20001220703</ele>
        <time>2020-10-04T16:51:02.578Z</time>
      </trkpt>
      <trkpt lat="45.83265" lon="4.56993">
        <ele>363.60000610352</ele>
        <time>2020-10-04T16:51:04.973Z</time>
      </trkpt>
      <trkpt lat="45.8327" lon="4.56987">
        <ele>364.39999389648</ele>
        <time>2020-10-04T16:51:07.371Z</time>
      </trkpt>
      <trkpt lat="45.83274" lon="4.5698">
        <ele>365.60000610352</ele>
        <time>2020-10-04T16:51:09.771Z</time>
      </trkpt>
      <trkpt lat="45.83275" lon="4.56979">
        <ele>366</ele>
        <time>2020-10-04T16:51:12.172Z</time>
      </trkpt>
      <trkpt lat="45.83277" lon="4.56977">
        <ele>366.79998779297</ele>
        <time>2020-10-04T16:51:14.574Z</time>
      </trkpt>
      <trkpt lat="45.83282" lon="4.56972">
        <ele>368.20001220703</ele>
        <time>2020-10-04T16:51:16.978Z</time>
      </trkpt>
      <trkpt lat="45.83284" lon="4.5697">
        <ele>368.79998779297</ele>
        <time>2020-10-04T16:51:19.383Z</time>
      </trkpt>
      <trkpt lat="45.83285" lon="4.56969">
        <ele>369.20001220703</ele>
        <time>2020-10-04T16:51:21.788Z</time>
      </trkpt>
      <trkpt lat="45.83291" lon="4.56964">
        <ele>370.20001220703</ele>
        <time>2020-10-04T16:51:24.196Z</time>
      </trkpt>
      <trkpt lat="45.83292" lon="4.56962">
        <ele>370.39999389648</ele>
        <time>2020-10-04T16:51:26.605Z</time>
      </trkpt>
      <trkpt lat="45.83294" lon="4.56959">
        <ele>371</ele>
        <time>2020-10-04T16:51:29.015Z</time>
      </trkpt>
      <trkpt lat="45.83296" lon="4.56956">
        <ele>371.39999389648</ele>
        <time>2020-10-04T16:51:31.426Z</time>
      </trkpt>
      <trkpt lat="45.833" lon="4.5695">
        <ele>372</ele>
        <time>2020-10-04T16:51:33.839Z</time>
      </trkpt>
      <trkpt lat="45.83301" lon="4.56949">
        <ele>372</ele>
        <time>2020-10-04T16:51:36.253Z</time>
      </trkpt>
      <trkpt lat="45.83304" lon="4.56944">
        <ele>372.39999389648</ele>
        <time>2020-10-04T16:51:38.669Z</time>
      </trkpt>
      <trkpt lat="45.83305" lon="4.56942">
        <ele>372.79998779297</ele>
        <time>2020-10-04T16:51:41.085Z</time>
      </trkpt>
      <trkpt lat="45.83312" lon="4.56929">
        <ele>373.79998779297</ele>
        <time>2020-10-04T16:51:43.506Z</time>
      </trkpt>
      <trkpt lat="45.83312" lon="4.56927">
        <ele>374</ele>
        <time>2020-10-04T16:51:45.927Z</time>
      </trkpt>
      <trkpt lat="45.83314" lon="4.56922">
        <ele>374.79998779297</ele>
        <time>2020-10-04T16:51:48.350Z</time>
      </trkpt>
      <trkpt lat="45.83317" lon="4.56913">
        <ele>375.60000610352</ele>
        <time>2020-10-04T16:51:50.776Z</time>
      </trkpt>
      <trkpt lat="45.83317" lon="4.56909">
        <ele>375.79998779297</ele>
        <time>2020-10-04T16:51:53.203Z</time>
      </trkpt>
      <trkpt lat="45.83319" lon="4.56897">
        <ele>377</ele>
        <time>2020-10-04T16:51:55.633Z</time>
      </trkpt>
      <trkpt lat="45.83319" lon="4.56895">
        <ele>377</ele>
        <time>2020-10-04T16:51:58.064Z</time>
      </trkpt>
      <trkpt lat="45.8332" lon="4.56882">
        <ele>378.20001220703</ele>
        <time>2020-10-04T16:52:00.498Z</time>
      </trkpt>
      <trkpt lat="45.83322" lon="4.56872">
        <ele>379.39999389648</ele>
        <time>2020-10-04T16:52:02.935Z</time>
      </trkpt>
      <trkpt lat="45.83323" lon="4.56871">
        <ele>379.60000610352</ele>
        <time>2020-10-04T16:52:05.373Z</time>
      </trkpt>
      <trkpt lat="45.83326" lon="4.56861">
        <ele>380.60000610352</ele>
        <time>2020-10-04T16:52:07.814Z</time>
      </trkpt>
      <trkpt lat="45.83327" lon="4.56857">
        <ele>381</ele>
        <time>2020-10-04T16:52:10.256Z</time>
      </trkpt>
      <trkpt lat="45.8333" lon="4.56845">
        <ele>381.79998779297</ele>
        <time>2020-10-04T16:52:12.702Z</time>
      </trkpt>
      <trkpt lat="45.8333" lon="4.56842">
        <ele>382</ele>
        <time>2020-10-04T16:52:15.148Z</time>
      </trkpt>
      <trkpt lat="45.83332" lon="4.56828">
        <ele>382.79998779297</ele>
        <time>2020-10-04T16:52:17.598Z</time>
      </trkpt>
      <trkpt lat="45.83333" lon="4.56825">
        <ele>382.79998779297</ele>
        <time>2020-10-04T16:52:20.049Z</time>
      </trkpt>
      <trkpt lat="45.83335" lon="4.56809">
        <ele>383.39999389648</ele>
        <time>2020-10-04T16:52:22.505Z</time>
      </trkpt>
      <trkpt lat="45.8334" lon="4.5679">
        <ele>383.79998779297</ele>
        <time>2020-10-04T16:52:24.966Z</time>
      </trkpt>
      <trkpt lat="45.83342" lon="4.56766">
        <ele>383.79998779297</ele>
        <time>2020-10-04T16:52:27.434Z</time>
      </trkpt>
      <trkpt lat="45.83342" lon="4.56738">
        <ele>382.79998779297</ele>
        <time>2020-10-04T16:52:29.910Z</time>
      </trkpt>
      <trkpt lat="45.83342" lon="4.56716">
        <ele>382.39999389648</ele>
        <time>2020-10-04T16:52:32.392Z</time>
      </trkpt>
      <trkpt lat="45.83342" lon="4.56703">
        <ele>382</ele>
        <time>2020-10-04T16:52:34.877Z</time>
      </trkpt>
      <trkpt lat="45.83343" lon="4.56696">
        <ele>381.60000610352</ele>
        <time>2020-10-04T16:52:37.364Z</time>
      </trkpt>
      <trkpt lat="45.83344" lon="4.56678">
        <ele>381.39999389648</ele>
        <time>2020-10-04T16:52:39.856Z</time>
      </trkpt>
      <trkpt lat="45.83346" lon="4.56659">
        <ele>381.20001220703</ele>
        <time>2020-10-04T16:52:42.354Z</time>
      </trkpt>
      <trkpt lat="45.83349" lon="4.56641">
        <ele>381</ele>
        <time>2020-10-04T16:52:44.857Z</time>
      </trkpt>
      <trkpt lat="45.83349" lon="4.56637">
        <ele>380.79998779297</ele>
        <time>2020-10-04T16:52:47.361Z</time>
      </trkpt>
      <trkpt lat="45.83352" lon="4.56607">
        <ele>380.20001220703</ele>
        <time>2020-10-04T16:52:49.873Z</time>
      </trkpt>
      <trkpt lat="45.83355" lon="4.56584">
        <ele>380.20001220703</ele>
        <time>2020-10-04T16:52:52.392Z</time>
      </trkpt>
      <trkpt lat="45.83365" lon="4.56565">
        <ele>380.60000610352</ele>
        <time>2020-10-04T16:52:54.917Z</time>
      </trkpt>
      <trkpt lat="45.83378" lon="4.56547">
        <ele>381.60000610352</ele>
        <time>2020-10-04T16:52:57.449Z</time>
      </trkpt>
      <trkpt lat="45.83383" lon="4.56542">
        <ele>382</ele>
        <time>2020-10-04T16:52:59.984Z</time>
      </trkpt>
      <trkpt lat="45.83384" lon="4.5654">
        <ele>382.20001220703</ele>
        <time>2020-10-04T16:53:02.520Z</time>
      </trkpt>
      <trkpt lat="45.83392" lon="4.56535">
        <ele>382.39999389648</ele>
        <time>2020-10-04T16:53:05.059Z</time>
      </trkpt>
      <trkpt lat="45.83396" lon="4.56531">
        <ele>382.39999389648</ele>
        <time>2020-10-04T16:53:07.600Z</time>
      </trkpt>
      <trkpt lat="45.83406" lon="4.5652">
        <ele>382.79998779297</ele>
        <time>2020-10-04T16:53:10.146Z</time>
      </trkpt>
      <trkpt lat="45.8341" lon="4.56515">
        <ele>383</ele>
        <time>2020-10-04T16:53:12.694Z</time>
      </trkpt>
      <trkpt lat="45.83413" lon="4.56508">
        <ele>383.60000610352</ele>
        <time>2020-10-04T16:53:15.244Z</time>
      </trkpt>
      <trkpt lat="45.83415" lon="4.56505">
        <ele>384.20001220703</ele>
        <time>2020-10-04T16:53:17.796Z</time>
      </trkpt>
      <trkpt lat="45.83416" lon="4.56504">
        <ele>384.60000610352</ele>
        <time>2020-10-04T16:53:20.348Z</time>
      </trkpt>
      <trkpt lat="45.83417" lon="4.56504">
        <ele>385</ele>
        <time>2020-10-04T16:53:22.900Z</time>
      </trkpt>
      <trkpt lat="45.83417" lon="4.56504">
        <ele>386.20001220703</ele>
        <time>2020-10-04T16:53:25.452Z</time>
      </trkpt>
      <trkpt lat="45.83417" lon="4.56502">
        <ele>387</ele>
        <time>2020-10-04T16:53:28.005Z</time>
      </trkpt>
      <trkpt lat="45.83417" lon="4.56501">
        <ele>387</ele>
        <time>2020-10-04T16:53:30.558Z</time>
      </trkpt>
      <trkpt lat="45.83418" lon="4.56501">
        <ele>387</ele>
        <time>2020-10-04T16:53:33.111Z</time>
      </trkpt>
      <trkpt lat="45.83418" lon="4.56501">
        <ele>386.79998779297</ele>
        <time>2020-10-04T16:53:35.664Z</time>
      </trkpt>
      <trkpt lat="45.83417" lon="4.56501">
        <ele>386.60000610352</ele>
        <time>2020-10-04T16:53:38.217Z</time>
      </trkpt>
      <trkpt lat="45.83417" lon="4.56501">
        <ele>386.60000610352</ele>
        <time>2020-10-04T16:53:40.770Z</time>
      </trkpt>
      <trkpt lat="45.83417" lon="4.56501">
        <ele>387</ele>
        <time>2020-10-04T16:53:43.323Z</time>
      </trkpt>
      <trkpt lat="45.83417" lon="4.56501">
        <ele>387</ele>
        <time>2020-10-04T16:53:45.876Z</time>
      </trkpt>
      <trkpt lat="45.83417" lon="4.56501">
        <ele>386.39999389648</ele>
        <time>2020-10-04T16:53:48.430Z</time>
      </trkpt>
      <trkpt lat="45.83417" lon="4.56501">
        <ele>386.39999389648</ele>
        <time>2020-10-04T16:53:50.984Z</time>
      </trkpt>
      <trkpt lat="45.8342" lon="4.56496">
        <ele>386.60000610352</ele>
        <time>2020-10-04T16:53:53.539Z</time>
      </trkpt>
      <trkpt lat="45.83424" lon="4.56491">
        <ele>386.60000610352</ele>
        <time>2020-10-04T16:53:56.096Z</time>
      </trkpt>
      <trkpt lat="45.83427" lon="4.56483">
        <ele>388</ele>
        <time>2020-10-04T16:53:58.656Z</time>
      </trkpt>
      <trkpt lat="45.83428" lon="4.56481">
        <ele>388.60000610352</ele>
        <time>2020-10-04T16:54:01.217Z</time>
      </trkpt>
      <trkpt lat="45.83429" lon="4.5648">
        <ele>389</ele>
        <time>2020-10-04T16:54:03.778Z</time>
      </trkpt>
      <trkpt lat="45.83433" lon="4.56474">
        <ele>390</ele>
        <time>2020-10-04T16:54:06.341Z</time>
      </trkpt>
      <trkpt lat="45.83433" lon="4.56473">
        <ele>390</ele>
        <time>2020-10-04T16:54:08.905Z</time>
      </trkpt>
      <trkpt lat="45.83436" lon="4.56467">
        <ele>391</ele>
        <time>2020-10-04T16:54:11.471Z</time>
      </trkpt>
      <trkpt lat="45.83436" lon="4.56457">
        <ele>392</ele>
        <time>2020-10-04T16:54:14.039Z</time>
      </trkpt>
      <trkpt lat="45.83436" lon="4.56456">
        <ele>392</ele>
        <time>2020-10-04T16:54:16.608Z</time>
      </trkpt>
      <trkpt lat="45.83436" lon="4.56449">
        <ele>393</ele>
        <time>2020-10-04T16:54:19.179Z</time>
      </trkpt>
      <trkpt lat="45.83437" lon="4.56444">
        <ele>394.20001220703</ele>
        <time>2020-10-04T16:54:21.751Z</time>
      </trkpt>
      <trkpt lat="45.83438" lon="4.56444">
        <ele>395.39999389648</ele>
        <time>2020-10-04T16:54:24.323Z</time>
      </trkpt>
      <trkpt lat="45.83439" lon="4.56441">
        <ele>395.79998779297</ele>
        <time>2020-10-04T16:54:26.896Z</time>
      </trkpt>
      <trkpt lat="45.8344" lon="4.56433">
        <ele>396.39999389648</ele>
        <time>2020-10-04T16:54:29.471Z</time>
      </trkpt>
      <trkpt lat="45.83441" lon="4.56432">
        <ele>396.60000610352</ele>
        <time>2020-10-04T16:54:32.047Z</time>
      </trkpt>
      <trkpt lat="45.83442" lon="4.56429">
        <ele>397.39999389648</ele>
        <time>2020-10-04T16:54:34.624Z</time>
      </trkpt>
      <trkpt lat="45.83443" lon="4.56424">
        <ele>398</ele>
        <time>2020-10-04T16:54:37.202Z</time>
      </trkpt>
      <trkpt lat="45.83443" lon="4.56421">
        <ele>398.60000610352</ele>
        <time>2020-10-04T16:54:39.781Z</time>
      </trkpt>
      <trkpt lat="45.83444" lon="4.56415">
        <ele>399.79998779297</ele>
        <time>2020-10-04T16:54:42.362Z</time>
      </trkpt>
      <trkpt lat="45.83445" lon="4.56405">
        <ele>400.39999389648</ele>
        <time>2020-10-04T16:54:44.945Z</time>
      </trkpt>
      <trkpt lat="45.83446" lon="4.56403">
        <ele>400.60000610352</ele>
        <time>2020-10-04T16:54:47.529Z</time>
      </trkpt>
      <trkpt lat="45.83448" lon="4.56396">
        <ele>401.60000610352</ele>
        <time>2020-10-04T16:54:50.115Z</time>
      </trkpt>
      <trkpt lat="45.83448" lon="4.56395">
        <ele>401.60000610352</ele>
        <time>2020-10-04T16:54:52.701Z</time>
      </trkpt>
      <trkpt lat="45.83449" lon="4.56387">
        <ele>402.60000610352</ele>
        <time>2020-10-04T16:54:55.290Z</time>
      </trkpt>
      <trkpt lat="45.83449" lon="4.56387">
        <ele>402.79998779297</ele>
        <time>2020-10-04T16:54:57.879Z</time>
      </trkpt>
      <trkpt lat="45.83449" lon="4.56385">
        <ele>403.79998779297</ele>
        <time>2020-10-04T16:55:00.468Z</time>
      </trkpt>
      <trkpt lat="45.8345" lon="4.56384">
        <ele>403.79998779297</ele>
        <time>2020-10-04T16:55:03.057Z</time>
      </trkpt>
      <trkpt lat="45.8345" lon="4.5638">
        <ele>404.20001220703</ele>
        <time>2020-10-04T16:55:05.648Z</time>
      </trkpt>
      <trkpt lat="45.83453" lon="4.56367">
        <ele>404.39999389648</ele>
        <time>2020-10-04T16:55:08.242Z</time>
      </trkpt>
      <trkpt lat="45.83457" lon="4.5636">
        <ele>404.79998779297</ele>
        <time>2020-10-04T16:55:10.839Z</time>
      </trkpt>
      <trkpt lat="45.8346" lon="4.56352">
        <ele>405</ele>
        <time>2020-10-04T16:55:13.438Z</time>
      </trkpt>
      <trkpt lat="45.83463" lon="4.56342">
        <ele>406</ele>
        <time>2020-10-04T16:55:16.040Z</time>
      </trkpt>
      <trkpt lat="45.83466" lon="4.56337">
        <ele>406.39999389648</ele>
        <time>2020-10-04T16:55:18.644Z</time>
      </trkpt>
      <trkpt lat="45.83468" lon="4.56329">
        <ele>407</ele>
        <time>2020-10-04T16:55:21.251Z</time>
      </trkpt>
      <trkpt lat="45.8347" lon="4.5632">
        <ele>407.79998779297</ele>
        <time>2020-10-04T16:55:23.860Z</time>
      </trkpt>
      <trkpt lat="45.83471" lon="4.56315">
        <ele>408.20001220703</ele>
        <time>2020-10-04T16:55:26.471Z</time>
      </trkpt>
      <trkpt lat="45.83474" lon="4.56303">
        <ele>409.20001220703</ele>
        <time>2020-10-04T16:55:29.085Z</time>
      </trkpt>
      <trkpt lat="45.83477" lon="4.56292">
        <ele>410.20001220703</ele>
        <time>2020-10-04T16:55:31.703Z</time>
      </trkpt>
      <trkpt lat="45.83478" lon="4.5629">
        <ele>410.20001220703</ele>
        <time>2020-10-04T16:55:34.321Z</time>
      </trkpt>
      <trkpt lat="45.83479" lon="4.56285">
        <ele>410.39999389648</ele>
        <time>2020-10-04T16:55:36.940Z</time>
      </trkpt>
      <trkpt lat="45.83479" lon="4.56284">
        <ele>409.79998779297</ele>
        <time>2020-10-04T16:55:39.560Z</time>
      </trkpt>
      <trkpt lat="45.83477" lon="4.56282">
        <ele>409.79998779297</ele>
        <time>2020-10-04T16:55:42.181Z</time>
      </trkpt>
      <trkpt lat="45.83474" lon="4.56282">
        <ele>409.79998779297</ele>
        <time>2020-10-04T16:55:44.803Z</time>
      </trkpt>
      <trkpt lat="45.83466" lon="4.56279">
        <ele>409.79998779297</ele>
        <time>2020-10-04T16:55:47.428Z</time>
      </trkpt>
      <trkpt lat="45.83456" lon="4.56267">
        <ele>410.79998779297</ele>
        <time>2020-10-04T16:55:50.058Z</time>
      </trkpt>
      <trkpt lat="45.83454" lon="4.56263">
        <ele>411.20001220703</ele>
        <time>2020-10-04T16:55:52.690Z</time>
      </trkpt>
      <trkpt lat="45.8345" lon="4.56256">
        <ele>411.79998779297</ele>
        <time>2020-10-04T16:55:55.324Z</time>
      </trkpt>
      <trkpt lat="45.83449" lon="4.56254">
        <ele>412.20001220703</ele>
        <time>2020-10-04T16:55:57.959Z</time>
      </trkpt>
      <trkpt lat="45.83444" lon="4.56244">
        <ele>413.20001220703</ele>
        <time>2020-10-04T16:56:00.597Z</time>
      </trkpt>
      <trkpt lat="45.83436" lon="4.56232">
        <ele>414.20001220703</ele>
        <time>2020-10-04T16:56:03.240Z</time>
      </trkpt>
      <trkpt lat="45.83436" lon="4.5623">
        <ele>414.60000610352</ele>
        <time>2020-10-04T16:56:05.884Z</time>
      </trkpt>
      <trkpt lat="45.83433" lon="4.56224">
        <ele>415.39999389648</ele>
        <time>2020-10-04T16:56:08.529Z</time>
      </trkpt>
      <trkpt lat="45.8343" lon="4.56218">
        <ele>416</ele>
        <time>2020-10-04T16:56:11.176Z</time>
      </trkpt>
      <trkpt lat="45.83428" lon="4.56217">
        <ele>416.39999389648</ele>
        <time>2020-10-04T16:56:13.824Z</time>
      </trkpt>
      <trkpt lat="45.83427" lon="4.56217">
        <ele>416.79998779297</ele>
        <time>2020-10-04T16:56:16.473Z</time>
      </trkpt>
      <trkpt lat="45.83426" lon="4.56218">
        <ele>417</ele>
        <time>2020-10-04T16:56:19.122Z</time>
      </trkpt>
      <trkpt lat="45.83426" lon="4.56218">
        <ele>417.60000610352</ele>
        <time>2020-10-04T16:56:21.771Z</time>
      </trkpt>
      <trkpt lat="45.83424" lon="4.56218">
        <ele>418.39999389648</ele>
        <time>2020-10-04T16:56:24.421Z</time>
      </trkpt>
      <trkpt lat="45.83422" lon="4.5622">
        <ele>418.79998779297</ele>
        <time>2020-10-04T16:56:27.072Z</time>
      </trkpt>
      <trkpt lat="45.83421" lon="4.5622">
        <ele>418.79998779297</ele>
        <time>2020-10-04T16:56:29.723Z</time>
      </trkpt>
      <trkpt lat="45.83419" lon="4.5622">
        <ele>419</ele>
        <time>2020-10-04T16:56:32.375Z</time>
      </trkpt>
      <trkpt lat="45.83418" lon="4.56219">
        <ele>419.20001220703</ele>
        <time>2020-10-04T16:56:35.028Z</time>
      </trkpt>
      <trkpt lat="45.83418" lon="4.56218">
        <ele>419.20001220703</ele>
        <time>2020-10-04T16:56:37.681Z</time>
      </trkpt>
      <trkpt lat="45.83418" lon="4.56218">
        <ele>419</ele>
        <time>2020-10-04T16:56:40.334Z</time>
      </trkpt>
      <trkpt lat="45.83418" lon="4.56218">
        <ele>419</ele>
        <time>2020-10-04T16:56:42.987Z</time>
      </trkpt>
      <trkpt lat="45.83416" lon="4.56223">
        <ele>419.20001220703</ele>
        <time>2020-10-04T16:56:45.641Z</time>
      </trkpt>
      <trkpt lat="45.83412" lon="4.56235">
        <ele>419.20001220703</ele>
        <time>2020-10-04T16:56:48.299Z</time>
      </trkpt>
      <trkpt lat="45.83411" lon="4.56236">
        <ele>419.20001220703</ele>
        <time>2020-10-04T16:56:50.958Z</time>
      </trkpt>
      <trkpt lat="45.83404" lon="4.56251">
        <ele>419.39999389648</ele>
        <time>2020-10-04T16:56:53.622Z</time>
      </trkpt>
      <trkpt lat="45.83395" lon="4.56269">
        <ele>419.39999389648</ele>
        <time>2020-10-04T16:56:56.292Z</time>
      </trkpt>
      <trkpt lat="45.83392" lon="4.56274">
        <ele>419.60000610352</ele>
        <time>2020-10-04T16:56:58.963Z</time>
      </trkpt>
      <trkpt lat="45.83389" lon="4.56282">
        <ele>419.60000610352</ele>
        <time>2020-10-04T16:57:01.637Z</time>
      </trkpt>
      <trkpt lat="45.83378" lon="4.56296">
        <ele>419.60000610352</ele>
        <time>2020-10-04T16:57:04.317Z</time>
      </trkpt>
      <trkpt lat="45.83364" lon="4.56302">
        <ele>419.79998779297</ele>
        <time>2020-10-04T16:57:07.003Z</time>
      </trkpt>
      <trkpt lat="45.83349" lon="4.56307">
        <ele>419.79998779297</ele>
        <time>2020-10-04T16:57:09.695Z</time>
      </trkpt>
      <trkpt lat="45.83335" lon="4.56309">
        <ele>420.39999389648</ele>
        <time>2020-10-04T16:57:12.392Z</time>
      </trkpt>
      <trkpt lat="45.8333" lon="4.56311">
        <ele>420.79998779297</ele>
        <time>2020-10-04T16:57:15.091Z</time>
      </trkpt>
      <trkpt lat="45.83323" lon="4.56314">
        <ele>422.20001220703</ele>
        <time>2020-10-04T16:57:17.793Z</time>
      </trkpt>
      <trkpt lat="45.8332" lon="4.56315">
        <ele>422.39999389648</ele>
        <time>2020-10-04T16:57:20.496Z</time>
      </trkpt>
      <trkpt lat="45.83314" lon="4.56318">
        <ele>423.39999389648</ele>
        <time>2020-10-04T16:57:23.202Z</time>
      </trkpt>
      <trkpt lat="45.8331" lon="4.56318">
        <ele>424</ele>
        <time>2020-10-04T16:57:25.909Z</time>
      </trkpt>
      <trkpt lat="45.83307" lon="4.56319">
        <ele>424.39999389648</ele>
        <time>2020-10-04T16:57:28.618Z</time>
      </trkpt>
      <trkpt lat="45.833" lon="4.5632">
        <ele>425.20001220703</ele>
        <time>2020-10-04T16:57:31.330Z</time>
      </trkpt>
      <trkpt lat="45.83298" lon="4.56321">
        <ele>425.20001220703</ele>
        <time>2020-10-04T16:57:34.042Z</time>
      </trkpt>
      <trkpt lat="45.83288" lon="4.56324">
        <ele>426.39999389648</ele>
        <time>2020-10-04T16:57:36.758Z</time>
      </trkpt>
      <trkpt lat="45.83286" lon="4.56324">
        <ele>426.39999389648</ele>
        <time>2020-10-04T16:57:39.475Z</time>
      </trkpt>
      <trkpt lat="45.83277" lon="4.56326">
        <ele>427.20001220703</ele>
        <time>2020-10-04T16:57:42.196Z</time>
      </trkpt>
      <trkpt lat="45.83273" lon="4.56328">
        <ele>427.39999389648</ele>
        <time>2020-10-04T16:57:44.918Z</time>
      </trkpt>
      <trkpt lat="45.83272" lon="4.56329">
        <ele>427.39999389648</ele>
        <time>2020-10-04T16:57:47.641Z</time>
      </trkpt>
      <trkpt lat="45.83268" lon="4.5633">
        <ele>427.60000610352</ele>
        <time>2020-10-04T16:57:50.366Z</time>
      </trkpt>
      <trkpt lat="45.83258" lon="4.56335">
        <ele>427.79998779297</ele>
        <time>2020-10-04T16:57:53.095Z</time>
      </trkpt>
      <trkpt lat="45.8325" lon="4.5634">
        <ele>428</ele>
        <time>2020-10-04T16:57:55.827Z</time>
      </trkpt>
      <trkpt lat="45.83239" lon="4.56346">
        <ele>428.39999389648</ele>
        <time>2020-10-04T16:57:58.564Z</time>
      </trkpt>
      <trkpt lat="45.83237" lon="4.56347">
        <ele>428.60000610352</ele>
        <time>2020-10-04T16:58:01.302Z</time>
      </trkpt>
      <trkpt lat="45.8323" lon="4.56353">
        <ele>428.60000610352</ele>
        <time>2020-10-04T16:58:04.043Z</time>
      </trkpt>
      <trkpt lat="45.83226" lon="4.56356">
        <ele>428.79998779297</ele>
        <time>2020-10-04T16:58:06.786Z</time>
      </trkpt>
      <trkpt lat="45.83214" lon="4.56364">
        <ele>429</ele>
        <time>2020-10-04T16:58:09.534Z</time>
      </trkpt>
      <trkpt lat="45.83212" lon="4.56365">
        <ele>429.20001220703</ele>
        <time>2020-10-04T16:58:12.283Z</time>
      </trkpt>
      <trkpt lat="45.83201" lon="4.5637">
        <ele>429.39999389648</ele>
        <time>2020-10-04T16:58:15.036Z</time>
      </trkpt>
      <trkpt lat="45.83188" lon="4.56377">
        <ele>430</ele>
        <time>2020-10-04T16:58:17.795Z</time>
      </trkpt>
      <trkpt lat="45.83187" lon="4.56378">
        <ele>430.20001220703</ele>
        <time>2020-10-04T16:58:20.554Z</time>
      </trkpt>
      <trkpt lat="45.83186" lon="4.56379">
        <ele>430.60000610352</ele>
        <time>2020-10-04T16:58:23.314Z</time>
      </trkpt>
      <trkpt lat="45.83181" lon="4.56382">
        <ele>431</ele>
        <time>2020-10-04T16:58:26.076Z</time>
      </trkpt>
      <trkpt lat="45.83171" lon="4.56386">
        <ele>431.60000610352</ele>
        <time>2020-10-04T16:58:28.842Z</time>
      </trkpt>
      <trkpt lat="45.83162" lon="4.56394">
        <ele>432</ele>
        <time>2020-10-04T16:58:31.612Z</time>
      </trkpt>
      <trkpt lat="45.83154" lon="4.56401">
        <ele>432.20001220703</ele>
        <time>2020-10-04T16:58:34.386Z</time>
      </trkpt>
      <trkpt lat="45.83151" lon="4.56403">
        <ele>432.39999389648</ele>
        <time>2020-10-04T16:58:37.161Z</time>
      </trkpt>
      <trkpt lat="45.83144" lon="4.56408">
        <ele>432.79998779297</ele>
        <time>2020-10-04T16:58:39.939Z</time>
      </trkpt>
      <trkpt lat="45.83139" lon="4.56415">
        <ele>433.60000610352</ele>
        <time>2020-10-04T16:58:42.720Z</time>
      </trkpt>
      <trkpt lat="45.83134" lon="4.5642">
        <ele>434.39999389648</ele>
        <time>2020-10-04T16:58:45.504Z</time>
      </trkpt>
      <trkpt lat="45.83133" lon="4.56422">
        <ele>434.79998779297</ele>
        <time>2020-10-04T16:58:48.288Z</time>
      </trkpt>
      <trkpt lat="45.83128" lon="4.5643">
        <ele>435.79998779297</ele>
        <time>2020-10-04T16:58:51.075Z</time>
      </trkpt>
      <trkpt lat="45.83128" lon="4.56432">
        <ele>436</ele>
        <time>2020-10-04T16:58:53.863Z</time>
      </trkpt>
      <trkpt lat="45.83125" lon="4.56439">
        <ele>436.79998779297</ele>
        <time>2020-10-04T16:58:56.653Z</time>
      </trkpt>
      <trkpt lat="45.83123" lon="4.56447">
        <ele>437.60000610352</ele>
        <time>2020-10-04T16:58:59.446Z</time>
      </trkpt>
      <trkpt lat="45.83121" lon="4.56453">
        <ele>437.79998779297</ele>
        <time>2020-10-04T16:59:02.240Z</time>
      </trkpt>
      <trkpt lat="45.83119" lon="4.56461">
        <ele>438.60000610352</ele>
        <time>2020-10-04T16:59:05.037Z</time>
      </trkpt>
      <trkpt lat="45.83117" lon="4.56464">
        <ele>438.79998779297</ele>
        <time>2020-10-04T16:59:07.835Z</time>
      </trkpt>
      <trkpt lat="45.83117" lon="4.56466">
        <ele>439</ele>
        <time>2020-10-04T16:59:10.633Z</time>
      </trkpt>
      <trkpt lat="45.83116" lon="4.56469">
        <ele>439.39999389648</ele>
        <time>2020-10-04T16:59:13.432Z</time>
      </trkpt>
      <trkpt lat="45.8311" lon="4.56482">
        <ele>440.20001220703</ele>
        <time>2020-10-04T16:59:16.235Z</time>
      </trkpt>
      <trkpt lat="45.83107" lon="4.56487">
        <ele>440.60000610352</ele>
        <time>2020-10-04T16:59:19.040Z</time>
      </trkpt>
      <trkpt lat="45.83105" lon="4.56488">
        <ele>440.60000610352</ele>
        <time>2020-10-04T16:59:21.846Z</time>
      </trkpt>
      <trkpt lat="45.83105" lon="4.56486">
        <ele>441</ele>
        <time>2020-10-04T16:59:24.653Z</time>
      </trkpt>
      <trkpt lat="45.83105" lon="4.56487">
        <ele>441.20001220703</ele>
        <time>2020-10-04T16:59:27.460Z</time>
      </trkpt>
      <trkpt lat="45.83105" lon="4.56487">
        <ele>441.79998779297</ele>
        <time>2020-10-04T16:59:30.267Z</time>
      </trkpt>
      <trkpt lat="45.83105" lon="4.56486">
        <ele>441.79998779297</ele>
        <time>2020-10-04T16:59:33.074Z</time>
      </trkpt>
      <trkpt lat="45.83105" lon="4.56485">
        <ele>441.79998779297</ele>
        <time>2020-10-04T16:59:35.881Z</time>
      </trkpt>
      <trkpt lat="45.83105" lon="4.56476">
        <ele>441.79998779297</ele>
        <time>2020-10-04T16:59:38.691Z</time>
      </trkpt>
      <trkpt lat="45.83106" lon="4.56465">
        <ele>442</ele>
        <time>2020-10-04T16:59:41.504Z</time>
      </trkpt>
      <trkpt lat="45.83108" lon="4.56457">
        <ele>442.20001220703</ele>
        <time>2020-10-04T16:59:44.319Z</time>
      </trkpt>
      <trkpt lat="45.83108" lon="4.56454">
        <ele>442.20001220703</ele>
        <time>2020-10-04T16:59:47.135Z</time>
      </trkpt>
      <trkpt lat="45.83108" lon="4.56434">
        <ele>442.39999389648</ele>
        <time>2020-10-04T16:59:49.957Z</time>
      </trkpt>
      <trkpt lat="45.83107" lon="4.56416">
        <ele>442.39999389648</ele>
        <time>2020-10-04T16:59:52.784Z</time>
      </trkpt>
      <trkpt lat="45.83109" lon="4.56394">
        <ele>442.79998779297</ele>
        <time>2020-10-04T16:59:55.617Z</time>
      </trkpt>
      <trkpt lat="45.83109" lon="4.56387">
        <ele>443</ele>
        <time>2020-10-04T16:59:58.452Z</time>
      </trkpt>
      <trkpt lat="45.83109" lon="4.56381">
        <ele>443.20001220703</ele>
        <time>2020-10-04T17:00:01.289Z</time>
      </trkpt>
      <trkpt lat="45.83109" lon="4.56379">
        <ele>443.20001220703</ele>
        <time>2020-10-04T17:00:04.126Z</time>
      </trkpt>
      <trkpt lat="45.83109" lon="4.5637">
        <ele>443.39999389648</ele>
        <time>2020-10-04T17:00:06.965Z</time>
      </trkpt>
      <trkpt lat="45.8311" lon="4.56361">
        <ele>443.79998779297</ele>
        <time>2020-10-04T17:00:09.807Z</time>
      </trkpt>
      <trkpt lat="45.83113" lon="4.56354">
        <ele>444</ele>
        <time>2020-10-04T17:00:12.651Z</time>
      </trkpt>
      <trkpt lat="45.83115" lon="4.56347">
        <ele>444.39999389648</ele>
        <time>2020-10-04T17:00:15.497Z</time>
      </trkpt>
      <trkpt lat="45.83117" lon="4.56343">
        <ele>444.39999389648</ele>
        <time>2020-10-04T17:00:18.345Z</time>
      </trkpt>
      <trkpt lat="45.83121" lon="4.56333">
        <ele>444.79998779297</ele>
        <time>2020-10-04T17:00:21.196Z</time>
      </trkpt>
      <trkpt lat="45.83123" lon="4.56327">
        <ele>445.20001220703</ele>
        <time>2020-10-04T17:00:24.049Z</time>
      </trkpt>
      <trkpt lat="45.83127" lon="4.5632">
        <ele>445.60000610352</ele>
        <time>2020-10-04T17:00:26.904Z</time>
      </trkpt>
      <trkpt lat="45.83132" lon="4.56312">
        <ele>446.20001220703</ele>
        <time>2020-10-04T17:00:29.762Z</time>
      </trkpt>
      <trkpt lat="45.83134" lon="4.5631">
        <ele>446.39999389648</ele>
        <time>2020-10-04T17:00:32.621Z</time>
      </trkpt>
      <trkpt lat="45.83135" lon="4.56308">
        <ele>446.60000610352</ele>
        <time>2020-10-04T17:00:35.481Z</time>
      </trkpt>
      <trkpt lat="45.8314" lon="4.563">
        <ele>447.39999389648</ele>
        <time>2020-10-04T17:00:38.344Z</time>
      </trkpt>
      <trkpt lat="45.83148" lon="4.56288">
        <ele>448.39999389648</ele>
        <time>2020-10-04T17:00:41.211Z</time>
      </trkpt>
      <trkpt lat="45.83149" lon="4.56286">
        <ele>448.60000610352</ele>
        <time>2020-10-04T17:00:44.079Z</time>
      </trkpt>
      <trkpt lat="45.83155" lon="4.5628">
        <ele>449.39999389648</ele>
        <time>2020-10-04T17:00:46.950Z</time>
      </trkpt>
      <trkpt lat="45.83161" lon="4.56274">
        <ele>450.39999389648</ele>
        <time>2020-10-04T17:00:49.824Z</time>
      </trkpt>
      <trkpt lat="45.83163" lon="4.56272">
        <ele>450.60000610352</ele>
        <time>2020-10-04T17:00:52.699Z</time>
      </trkpt>
      <trkpt lat="45.83172" lon="4.56261">
        <ele>451.39999389648</ele>
        <time>2020-10-04T17:00:55.578Z</time>
      </trkpt>
      <trkpt lat="45.83175" lon="4.56259">
        <ele>451.60000610352</ele>
        <time>2020-10-04T17:00:58.459Z</time>
      </trkpt>
      <trkpt lat="45.83185" lon="4.56249">
        <ele>452</ele>
        <time>2020-10-04T17:01:01.345Z</time>
      </trkpt>
      <trkpt lat="45.83191" lon="4.56243">
        <ele>452</ele>
        <time>2020-10-04T17:01:04.234Z</time>
      </trkpt>
      <trkpt lat="45.83192" lon="4.5624">
        <ele>452</ele>
        <time>2020-10-04T17:01:07.123Z</time>
      </trkpt>
      <trkpt lat="45.83196" lon="4.56235">
        <ele>452</ele>
        <time>2020-10-04T17:01:10.015Z</time>
      </trkpt>
      <trkpt lat="45.83202" lon="4.5623">
        <ele>452.20001220703</ele>
        <time>2020-10-04T17:01:12.909Z</time>
      </trkpt>
      <trkpt lat="45.83208" lon="4.56223">
        <ele>452.20001220703</ele>
        <time>2020-10-04T17:01:15.806Z</time>
      </trkpt>
      <trkpt lat="45.83211" lon="4.56219">
        <ele>452.39999389648</ele>
        <time>2020-10-04T17:01:18.705Z</time>
      </trkpt>
      <trkpt lat="45.83217" lon="4.56211">
        <ele>452.39999389648</ele>
        <time>2020-10-04T17:01:21.607Z</time>
      </trkpt>
      <trkpt lat="45.8322" lon="4.56207">
        <ele>452.60000610352</ele>
        <time>2020-10-04T17:01:24.511Z</time>
      </trkpt>
      <trkpt lat="45.83225" lon="4.56196">
        <ele>452.60000610352</ele>
        <time>2020-10-04T17:01:27.418Z</time>
      </trkpt>
      <trkpt lat="45.83227" lon="4.56194">
        <ele>452.79998779297</ele>
        <time>2020-10-04T17:01:30.326Z</time>
      </trkpt>
      <trkpt lat="45.83232" lon="4.56183">
        <ele>453.20001220703</ele>
        <time>2020-10-04T17:01:33.238Z</time>
      </trkpt>
      <trkpt lat="45.83235" lon="4.56179">
        <ele>453.60000610352</ele>
        <time>2020-10-04T17:01:36.152Z</time>
      </trkpt>
      <trkpt lat="45.83242" lon="4.56168">
        <ele>454.20001220703</ele>
        <time>2020-10-04T17:01:39.070Z</time>
      </trkpt>
      <trkpt lat="45.83252" lon="4.56153">
        <ele>454.20001220703</ele>
        <time>2020-10-04T17:01:41.993Z</time>
      </trkpt>
      <trkpt lat="45.83256" lon="4.5614">
        <ele>454</ele>
        <time>2020-10-04T17:01:44.920Z</time>
      </trkpt>
      <trkpt lat="45.83257" lon="4.56137">
        <ele>454</ele>
        <time>2020-10-04T17:01:47.848Z</time>
      </trkpt>
      <trkpt lat="45.83257" lon="4.5613">
        <ele>454</ele>
        <time>2020-10-04T17:01:50.778Z</time>
      </trkpt>
      <trkpt lat="45.83259" lon="4.56117">
        <ele>454.39999389648</ele>
        <time>2020-10-04T17:01:53.712Z</time>
      </trkpt>
      <trkpt lat="45.83259" lon="4.56114">
        <ele>454.60000610352</ele>
        <time>2020-10-04T17:01:56.647Z</time>
      </trkpt>
      <trkpt lat="45.83257" lon="4.56101">
        <ele>455.20001220703</ele>
        <time>2020-10-04T17:01:59.585Z</time>
      </trkpt>
      <trkpt lat="45.83255" lon="4.56086">
        <ele>455.39999389648</ele>
        <time>2020-10-04T17:02:02.528Z</time>
      </trkpt>
      <trkpt lat="45.83253" lon="4.56075">
        <ele>455.79998779297</ele>
        <time>2020-10-04T17:02:05.474Z</time>
      </trkpt>
      <trkpt lat="45.83249" lon="4.56061">
        <ele>456.39999389648</ele>
        <time>2020-10-04T17:02:08.424Z</time>
      </trkpt>
      <trkpt lat="45.83247" lon="4.56042">
        <ele>456.60000610352</ele>
        <time>2020-10-04T17:02:11.379Z</time>
      </trkpt>
      <trkpt lat="45.83245" lon="4.56032">
        <ele>456.79998779297</ele>
        <time>2020-10-04T17:02:14.337Z</time>
      </trkpt>
      <trkpt lat="45.83243" lon="4.56026">
        <ele>456.79998779297</ele>
        <time>2020-10-04T17:02:17.297Z</time>
      </trkpt>
      <trkpt lat="45.83242" lon="4.56023">
        <ele>456.79998779297</ele>
        <time>2020-10-04T17:02:20.258Z</time>
      </trkpt>
      <trkpt lat="45.83239" lon="4.56011">
        <ele>457</ele>
        <time>2020-10-04T17:02:23.222Z</time>
      </trkpt>
      <trkpt lat="45.83234" lon="4.55994">
        <ele>457.39999389648</ele>
        <time>2020-10-04T17:02:26.191Z</time>
      </trkpt>
      <trkpt lat="45.83233" lon="4.55986">
        <ele>457.79998779297</ele>
        <time>2020-10-04T17:02:29.163Z</time>
      </trkpt>
      <trkpt lat="45.83229" lon="4.5597">
        <ele>458.20001220703</ele>
        <time>2020-10-04T17:02:32.139Z</time>
      </trkpt>
      <trkpt lat="45.83223" lon="4.55949">
        <ele>458.20001220703</ele>
        <time>2020-10-04T17:02:35.122Z</time>
      </trkpt>
      <trkpt lat="45.83218" lon="4.55929">
        <ele>458.20001220703</ele>
        <time>2020-10-04T17:02:38.111Z</time>
      </trkpt>
      <trkpt lat="45.83213" lon="4.55906">
        <ele>458.20001220703</ele>
        <time>2020-10-04T17:02:41.106Z</time>
      </trkpt>
      <trkpt lat="45.83207" lon="4.55882">
        <ele>457.79998779297</ele>
        <time>2020-10-04T17:02:44.109Z</time>
      </trkpt>
      <trkpt lat="45.83205" lon="4.55875">
        <ele>457.60000610352</ele>
        <time>2020-10-04T17:02:47.113Z</time>
      </trkpt>
      <trkpt lat="45.832" lon="4.5586">
        <ele>456.79998779297</ele>
        <time>2020-10-04T17:02:50.122Z</time>
      </trkpt>
      <trkpt lat="45.83194" lon="4.55844">
        <ele>456.20001220703</ele>
        <time>2020-10-04T17:02:53.136Z</time>
      </trkpt>
      <trkpt lat="45.83191" lon="4.55835">
        <ele>456</ele>
        <time>2020-10-04T17:02:56.153Z</time>
      </trkpt>
      <trkpt lat="45.83188" lon="4.55828">
        <ele>455.60000610352</ele>
        <time>2020-10-04T17:02:59.172Z</time>
      </trkpt>
      <trkpt lat="45.83181" lon="4.55807">
        <ele>454.39999389648</ele>
        <time>2020-10-04T17:03:02.198Z</time>
      </trkpt>
      <trkpt lat="45.83179" lon="4.55802">
        <ele>454</ele>
        <time>2020-10-04T17:03:05.225Z</time>
      </trkpt>
      <trkpt lat="45.83175" lon="4.55792">
        <ele>453.20001220703</ele>
        <time>2020-10-04T17:03:08.255Z</time>
      </trkpt>
      <trkpt lat="45.83169" lon="4.55771">
        <ele>452.60000610352</ele>
        <time>2020-10-04T17:03:11.292Z</time>
      </trkpt>
      <trkpt lat="45.83164" lon="4.55737">
        <ele>452.60000610352</ele>
        <time>2020-10-04T17:03:14.338Z</time>
      </trkpt>
      <trkpt lat="45.83158" lon="4.55707">
        <ele>452.39999389648</ele>
        <time>2020-10-04T17:03:17.393Z</time>
      </trkpt>
      <trkpt lat="45.83152" lon="4.55673">
        <ele>452.60000610352</ele>
        <time>2020-10-04T17:03:20.458Z</time>
      </trkpt>
      <trkpt lat="45.83143" lon="4.55644">
        <ele>453</ele>
        <time>2020-10-04T17:03:23.531Z</time>
      </trkpt>
      <trkpt lat="45.83135" lon="4.5562">
        <ele>454.39999389648</ele>
        <time>2020-10-04T17:03:26.612Z</time>
      </trkpt>
      <trkpt lat="45.83128" lon="4.55604">
        <ele>455.60000610352</ele>
        <time>2020-10-04T17:03:29.698Z</time>
      </trkpt>
      <trkpt lat="45.83127" lon="4.556">
        <ele>455.60000610352</ele>
        <time>2020-10-04T17:03:32.785Z</time>
      </trkpt>
      <trkpt lat="45.83113" lon="4.5557">
        <ele>456.39999389648</ele>
        <time>2020-10-04T17:03:35.882Z</time>
      </trkpt>
      <trkpt lat="45.83105" lon="4.55549">
        <ele>456.39999389648</ele>
        <time>2020-10-04T17:03:38.986Z</time>
      </trkpt>
      <trkpt lat="45.83095" lon="4.55524">
        <ele>456.39999389648</ele>
        <time>2020-10-04T17:03:42.098Z</time>
      </trkpt>
      <trkpt lat="45.83086" lon="4.555">
        <ele>456.39999389648</ele>
        <time>2020-10-04T17:03:45.217Z</time>
      </trkpt>
      <trkpt lat="45.83078" lon="4.55475">
        <ele>456.79998779297</ele>
        <time>2020-10-04T17:03:48.344Z</time>
      </trkpt>
      <trkpt lat="45.83077" lon="4.55471">
        <ele>456.79998779297</ele>
        <time>2020-10-04T17:03:51.472Z</time>
      </trkpt>
      <trkpt lat="45.83071" lon="4.55445">
        <ele>457</ele>
        <time>2020-10-04T17:03:54.608Z</time>
      </trkpt>
      <trkpt lat="45.83068" lon="4.55422">
        <ele>457</ele>
        <time>2020-10-04T17:03:57.750Z</time>
      </trkpt>
      <trkpt lat="45.83064" lon="4.55386">
        <ele>457.20001220703</ele>
        <time>2020-10-04T17:04:00.902Z</time>
      </trkpt>
      <trkpt lat="45.83061" lon="4.5535">
        <ele>457.39999389648</ele>
        <time>2020-10-04T17:04:04.064Z</time>
      </trkpt>
      <trkpt lat="45.83058" lon="4.55326">
        <ele>457.60000610352</ele>
        <time>2020-10-04T17:04:07.233Z</time>
      </trkpt>
      <trkpt lat="45.83053" lon="4.55306">
        <ele>457.79998779297</ele>
        <time>2020-10-04T17:04:10.408Z</time>
      </trkpt>
      <trkpt lat="45.83051" lon="4.55297">
        <ele>458</ele>
        <time>2020-10-04T17:04:13.586Z</time>
      </trkpt>
      <trkpt lat="45.8305" lon="4.55295">
        <ele>458</ele>
        <time>2020-10-04T17:04:16.765Z</time>
      </trkpt>
      <trkpt lat="45.8305" lon="4.55294">
        <ele>459</ele>
        <time>2020-10-04T17:04:19.944Z</time>
      </trkpt>
      <trkpt lat="45.8305" lon="4.55294">
        <ele>459.20001220703</ele>
        <time>2020-10-04T17:04:23.123Z</time>
      </trkpt>
      <trkpt lat="45.8305" lon="4.55289">
        <ele>459.20001220703</ele>
        <time>2020-10-04T17:04:26.303Z</time>
      </trkpt>
      <trkpt lat="45.83056" lon="4.55272">
        <ele>459.20001220703</ele>
        <time>2020-10-04T17:04:29.488Z</time>
      </trkpt>
      <trkpt lat="45.83066" lon="4.55243">
        <ele>459.20001220703</ele>
        <time>2020-10-04T17:04:32.682Z</time>
      </trkpt>
      <trkpt lat="45.83077" lon="4.55219">
        <ele>458.20001220703</ele>
        <time>2020-10-04T17:04:35.884Z</time>
      </trkpt>
      <trkpt lat="45.83079" lon="4.55215">
        <ele>457.79998779297</ele>
        <time>2020-10-04T17:04:39.088Z</time>
      </trkpt>
      <trkpt lat="45.83092" lon="4.55186">
        <ele>457.20001220703</ele>
        <time>2020-10-04T17:04:42.301Z</time>
      </trkpt>
      <trkpt lat="45.83094" lon="4.55182">
        <ele>457.20001220703</ele>
        <time>2020-10-04T17:04:45.516Z</time>
      </trkpt>
      <trkpt lat="45.83108" lon="4.55146">
        <ele>456.79998779297</ele>
        <time>2020-10-04T17:04:48.742Z</time>
      </trkpt>
      <trkpt lat="45.83124" lon="4.55109">
        <ele>456.79998779297</ele>
        <time>2020-10-04T17:04:51.980Z</time>
      </trkpt>
      <trkpt lat="45.83138" lon="4.55079">
        <ele>456.79998779297</ele>
        <time>2020-10-04T17:04:55.228Z</time>
      </trkpt>
      <trkpt lat="45.83155" lon="4.5504">
        <ele>458.20001220703</ele>
        <time>2020-10-04T17:04:58.489Z</time>
      </trkpt>
      <trkpt lat="45.83158" lon="4.55033">
        <ele>458.39999389648</ele>
        <time>2020-10-04T17:05:01.752Z</time>
      </trkpt>
      <trkpt lat="45.83166" lon="4.55013">
        <ele>459.39999389648</ele>
        <time>2020-10-04T17:05:05.021Z</time>
      </trkpt>
      <trkpt lat="45.83167" lon="4.5501">
        <ele>459.79998779297</ele>
        <time>2020-10-04T17:05:08.291Z</time>
      </trkpt>
      <trkpt lat="45.83173" lon="4.5499">
        <ele>460.79998779297</ele>
        <time>2020-10-04T17:05:11.568Z</time>
      </trkpt>
      <trkpt lat="45.83174" lon="4.54986">
        <ele>461</ele>
        <time>2020-10-04T17:05:14.846Z</time>
      </trkpt>
      <trkpt lat="45.83176" lon="4.54972">
        <ele>462</ele>
        <time>2020-10-04T17:05:18.127Z</time>
      </trkpt>
      <trkpt lat="45.83176" lon="4.54951">
        <ele>463.20001220703</ele>
        <time>2020-10-04T17:05:21.414Z</time>
      </trkpt>
      <trkpt lat="45.83176" lon="4.54931">
        <ele>464</ele>
        <time>2020-10-04T17:05:24.707Z</time>
      </trkpt>
      <trkpt lat="45.83177" lon="4.54925">
        <ele>464.20001220703</ele>
        <time>2020-10-04T17:05:28.001Z</time>
      </trkpt>
      <trkpt lat="45.83179" lon="4.54907">
        <ele>465.60000610352</ele>
        <time>2020-10-04T17:05:31.300Z</time>
      </trkpt>
      <trkpt lat="45.83179" lon="4.54904">
        <ele>465.79998779297</ele>
        <time>2020-10-04T17:05:34.600Z</time>
      </trkpt>
      <trkpt lat="45.8318" lon="4.54895">
        <ele>466.60000610352</ele>
        <time>2020-10-04T17:05:37.903Z</time>
      </trkpt>
      <trkpt lat="45.8318" lon="4.54886">
        <ele>467</ele>
        <time>2020-10-04T17:05:41.209Z</time>
      </trkpt>
      <trkpt lat="45.83183" lon="4.54868">
        <ele>467.60000610352</ele>
        <time>2020-10-04T17:05:44.520Z</time>
      </trkpt>
      <trkpt lat="45.83187" lon="4.54844">
        <ele>468.39999389648</ele>
        <time>2020-10-04T17:05:47.837Z</time>
      </trkpt>
      <trkpt lat="45.83189" lon="4.54836">
        <ele>468.79998779297</ele>
        <time>2020-10-04T17:05:51.157Z</time>
      </trkpt>
      <trkpt lat="45.83193" lon="4.54825">
        <ele>469.60000610352</ele>
        <time>2020-10-04T17:05:54.480Z</time>
      </trkpt>
      <trkpt lat="45.83194" lon="4.54822">
        <ele>469.79998779297</ele>
        <time>2020-10-04T17:05:57.804Z</time>
      </trkpt>
      <trkpt lat="45.83199" lon="4.54808">
        <ele>470.39999389648</ele>
        <time>2020-10-04T17:06:01.132Z</time>
      </trkpt>
      <trkpt lat="45.83201" lon="4.54803">
        <ele>470.79998779297</ele>
        <time>2020-10-04T17:06:04.462Z</time>
      </trkpt>
      <trkpt lat="45.83202" lon="4.54801">
        <ele>470.79998779297</ele>
        <time>2020-10-04T17:06:07.793Z</time>
      </trkpt>
      <trkpt lat="45.83205" lon="4.54794">
        <ele>471.39999389648</ele>
        <time>2020-10-04T17:06:11.126Z</time>
      </trkpt>
      <trkpt lat="45.83207" lon="4.5479">
        <ele>471.79998779297</ele>
        <time>2020-10-04T17:06:14.461Z</time>
      </trkpt>
      <trkpt lat="45.83213" lon="4.54782">
        <ele>472.39999389648</ele>
        <time>2020-10-04T17:06:17.799Z</time>
      </trkpt>
      <trkpt lat="45.83216" lon="4.54777">
        <ele>472.79998779297</ele>
        <time>2020-10-04T17:06:21.139Z</time>
      </trkpt>
      <trkpt lat="45.83222" lon="4.54769">
        <ele>473.39999389648</ele>
        <time>2020-10-04T17:06:24.482Z</time>
      </trkpt>
      <trkpt lat="45.83229" lon="4.5476">
        <ele>474</ele>
        <time>2020-10-04T17:06:27.829Z</time>
      </trkpt>
      <trkpt lat="45.83236" lon="4.5475">
        <ele>474.79998779297</ele>
        <time>2020-10-04T17:06:31.180Z</time>
      </trkpt>
      <trkpt lat="45.8324" lon="4.54745">
        <ele>475</ele>
        <time>2020-10-04T17:06:34.533Z</time>
      </trkpt>
      <trkpt lat="45.83247" lon="4.54733">
        <ele>475</ele>
        <time>2020-10-04T17:06:37.890Z</time>
      </trkpt>
      <trkpt lat="45.83263" lon="4.54706">
        <ele>475</ele>
        <time>2020-10-04T17:06:41.257Z</time>
      </trkpt>
      <trkpt lat="45.8328" lon="4.54677">
        <ele>474</ele>
        <time>2020-10-04T17:06:44.634Z</time>
      </trkpt>
      <trkpt lat="45.83287" lon="4.54657">
        <ele>472.79998779297</ele>
        <time>2020-10-04T17:06:48.017Z</time>
      </trkpt>
      <trkpt lat="45.83289" lon="4.5465">
        <ele>472.20001220703</ele>
        <time>2020-10-04T17:06:51.403Z</time>
      </trkpt>
      <trkpt lat="45.83291" lon="4.54641">
        <ele>471.79998779297</ele>
        <time>2020-10-04T17:06:54.791Z</time>
      </trkpt>
      <trkpt lat="45.83292" lon="4.54633">
        <ele>471.60000610352</ele>
        <time>2020-10-04T17:06:58.181Z</time>
      </trkpt>
      <trkpt lat="45.83293" lon="4.54617">
        <ele>471</ele>
        <time>2020-10-04T17:07:01.576Z</time>
      </trkpt>
      <trkpt lat="45.83293" lon="4.5461">
        <ele>470.39999389648</ele>
        <time>2020-10-04T17:07:04.973Z</time>
      </trkpt>
      <trkpt lat="45.83292" lon="4.54603">
        <ele>469.60000610352</ele>
        <time>2020-10-04T17:07:08.372Z</time>
      </trkpt>
      <trkpt lat="45.83292" lon="4.54596">
        <ele>469.20001220703</ele>
        <time>2020-10-04T17:07:11.773Z</time>
      </trkpt>
      <trkpt lat="45.83291" lon="4.54589">
        <ele>468.60000610352</ele>
        <time>2020-10-04T17:07:15.176Z</time>
      </trkpt>
      <trkpt lat="45.83289" lon="4.54581">
        <ele>467.79998779297</ele>
        <time>2020-10-04T17:07:18.581Z</time>
      </trkpt>
      <trkpt lat="45.83284" lon="4.54566">
        <ele>466.60000610352</ele>
        <time>2020-10-04T17:07:21.990Z</time>
      </trkpt>
      <trkpt lat="45.83278" lon="4.54551">
        <ele>465.39999389648</ele>
        <time>2020-10-04T17:07:25.404Z</time>
      </trkpt>
      <trkpt lat="45.83269" lon="4.54526">
        <ele>464</ele>
        <time>2020-10-04T17:07:28.826Z</time>
      </trkpt>
      <trkpt lat="45.83267" lon="4.54518">
        <ele>463.39999389648</ele>
        <time>2020-10-04T17:07:32.250Z</time>
      </trkpt>
      <trkpt lat="45.83266" lon="4.54501">
        <ele>462.79998779297</ele>
        <time>2020-10-04T17:07:35.679Z</time>
      </trkpt>
      <trkpt lat="45.83266" lon="4.54493">
        <ele>462.39999389648</ele>
        <time>2020-10-04T17:07:39.110Z</time>
      </trkpt>
      <trkpt lat="45.83267" lon="4.54485">
        <ele>461.20001220703</ele>
        <time>2020-10-04T17:07:42.544Z</time>
      </trkpt>
      <trkpt lat="45.83268" lon="4.54478">
        <ele>460.39999389648</ele>
        <time>2020-10-04T17:07:45.980Z</time>
      </trkpt>
      <trkpt lat="45.8327" lon="4.5447">
        <ele>460</ele>
        <time>2020-10-04T17:07:49.418Z</time>
      </trkpt>
      <trkpt lat="45.83274" lon="4.54456">
        <ele>459.60000610352</ele>
        <time>2020-10-04T17:07:52.860Z</time>
      </trkpt>
      <trkpt lat="45.83291" lon="4.54408">
        <ele>459.60000610352</ele>
        <time>2020-10-04T17:07:56.317Z</time>
      </trkpt>
      <trkpt lat="45.83302" lon="4.54381">
        <ele>460.20001220703</ele>
        <time>2020-10-04T17:07:59.783Z</time>
      </trkpt>
      <trkpt lat="45.83308" lon="4.54366">
        <ele>461</ele>
        <time>2020-10-04T17:08:03.254Z</time>
      </trkpt>
      <trkpt lat="45.8331" lon="4.54358">
        <ele>461.39999389648</ele>
        <time>2020-10-04T17:08:06.727Z</time>
      </trkpt>
      <trkpt lat="45.83318" lon="4.54332">
        <ele>461.79998779297</ele>
        <time>2020-10-04T17:08:10.208Z</time>
      </trkpt>
      <trkpt lat="45.83319" lon="4.54329">
        <ele>462</ele>
        <time>2020-10-04T17:08:13.690Z</time>
      </trkpt>
      <trkpt lat="45.83323" lon="4.54305">
        <ele>462.79998779297</ele>
        <time>2020-10-04T17:08:17.179Z</time>
      </trkpt>
      <trkpt lat="45.83324" lon="4.54293">
        <ele>463.20001220703</ele>
        <time>2020-10-04T17:08:20.671Z</time>
      </trkpt>
      <trkpt lat="45.83328" lon="4.54269">
        <ele>463.79998779297</ele>
        <time>2020-10-04T17:08:24.170Z</time>
      </trkpt>
      <trkpt lat="45.83329" lon="4.54255">
        <ele>464.20001220703</ele>
        <time>2020-10-04T17:08:27.673Z</time>
      </trkpt>
      <trkpt lat="45.83331" lon="4.5424">
        <ele>464.79998779297</ele>
        <time>2020-10-04T17:08:31.180Z</time>
      </trkpt>
      <trkpt lat="45.83332" lon="4.5423">
        <ele>465.39999389648</ele>
        <time>2020-10-04T17:08:34.690Z</time>
      </trkpt>
      <trkpt lat="45.83333" lon="4.54221">
        <ele>465.79998779297</ele>
        <time>2020-10-04T17:08:38.202Z</time>
      </trkpt>
      <trkpt lat="45.83333" lon="4.54212">
        <ele>466.60000610352</ele>
        <time>2020-10-04T17:08:41.717Z</time>
      </trkpt>
      <trkpt lat="45.83333" lon="4.54201">
        <ele>467</ele>
        <time>2020-10-04T17:08:45.235Z</time>
      </trkpt>
      <trkpt lat="45.83334" lon="4.54185">
        <ele>467.79998779297</ele>
        <time>2020-10-04T17:08:48.757Z</time>
      </trkpt>
      <trkpt lat="45.83335" lon="4.54171">
        <ele>468.39999389648</ele>
        <time>2020-10-04T17:08:52.283Z</time>
      </trkpt>
      <trkpt lat="45.83336" lon="4.5416">
        <ele>468.79998779297</ele>
        <time>2020-10-04T17:08:55.812Z</time>
      </trkpt>
      <trkpt lat="45.83336" lon="4.54145">
        <ele>469.60000610352</ele>
        <time>2020-10-04T17:08:59.345Z</time>
      </trkpt>
      <trkpt lat="45.83335" lon="4.54133">
        <ele>470</ele>
        <time>2020-10-04T17:09:02.882Z</time>
      </trkpt>
      <trkpt lat="45.83335" lon="4.54109">
        <ele>471.39999389648</ele>
        <time>2020-10-04T17:09:06.425Z</time>
      </trkpt>
      <trkpt lat="45.83336" lon="4.54088">
        <ele>472.60000610352</ele>
        <time>2020-10-04T17:09:09.974Z</time>
      </trkpt>
      <trkpt lat="45.83337" lon="4.54084">
        <ele>472.79998779297</ele>
        <time>2020-10-04T17:09:13.524Z</time>
      </trkpt>
      <trkpt lat="45.83345" lon="4.54066">
        <ele>473.60000610352</ele>
        <time>2020-10-04T17:09:17.080Z</time>
      </trkpt>
      <trkpt lat="45.8336" lon="4.54043">
        <ele>473.79998779297</ele>
        <time>2020-10-04T17:09:20.645Z</time>
      </trkpt>
      <trkpt lat="45.83379" lon="4.54021">
        <ele>474.20001220703</ele>
        <time>2020-10-04T17:09:24.220Z</time>
      </trkpt>
      <trkpt lat="45.83399" lon="4.53998">
        <ele>474.79998779297</ele>
        <time>2020-10-04T17:09:27.805Z</time>
      </trkpt>
      <trkpt lat="45.83415" lon="4.53977">
        <ele>475.79998779297</ele>
        <time>2020-10-04T17:09:31.398Z</time>
      </trkpt>
      <trkpt lat="45.83418" lon="4.53972">
        <ele>476.20001220703</ele>
        <time>2020-10-04T17:09:34.993Z</time>
      </trkpt>
      <trkpt lat="45.83427" lon="4.53956">
        <ele>476.79998779297</ele>
        <time>2020-10-04T17:09:38.594Z</time>
      </trkpt>
      <trkpt lat="45.83433" lon="4.53942">
        <ele>477.20001220703</ele>
        <time>2020-10-04T17:09:42.199Z</time>
      </trkpt>
      <trkpt lat="45.83435" lon="4.53936">
        <ele>477.39999389648</ele>
        <time>2020-10-04T17:09:45.806Z</time>
      </trkpt>
      <trkpt lat="45.83446" lon="4.53909">
        <ele>478.20001220703</ele>
        <time>2020-10-04T17:09:49.422Z</time>
      </trkpt>
      <trkpt lat="45.83448" lon="4.53904">
        <ele>478.39999389648</ele>
        <time>2020-10-04T17:09:53.040Z</time>
      </trkpt>
      <trkpt lat="45.83455" lon="4.53887">
        <ele>479</ele>
        <time>2020-10-04T17:09:56.663Z</time>
      </trkpt>
      <trkpt lat="45.83458" lon="4.53881">
        <ele>479.39999389648</ele>
        <time>2020-10-04T17:10:00.288Z</time>
      </trkpt>
      <trkpt lat="45.83465" lon="4.53866">
        <ele>480</ele>
        <time>2020-10-04T17:10:03.918Z</time>
      </trkpt>
      <trkpt lat="45.83475" lon="4.53835">
        <ele>480</ele>
        <time>2020-10-04T17:10:07.558Z</time>
      </trkpt>
      <trkpt lat="45.83484" lon="4.53802">
        <ele>479.60000610352</ele>
        <time>2020-10-04T17:10:11.208Z</time>
      </trkpt>
      <trkpt lat="45.83486" lon="4.53796">
        <ele>479.39999389648</ele>
        <time>2020-10-04T17:10:14.859Z</time>
      </trkpt>
      <trkpt lat="45.83498" lon="4.53762">
        <ele>479</ele>
        <time>2020-10-04T17:10:18.521Z</time>
      </trkpt>
      <trkpt lat="45.83501" lon="4.53756">
        <ele>478.60000610352</ele>
        <time>2020-10-04T17:10:22.185Z</time>
      </trkpt>
      <trkpt lat="45.83509" lon="4.53737">
        <ele>477.39999389648</ele>
        <time>2020-10-04T17:10:25.855Z</time>
      </trkpt>
      <trkpt lat="45.83512" lon="4.53728">
        <ele>476.79998779297</ele>
        <time>2020-10-04T17:10:29.528Z</time>
      </trkpt>
      <trkpt lat="45.83514" lon="4.53723">
        <ele>476.39999389648</ele>
        <time>2020-10-04T17:10:33.202Z</time>
      </trkpt>
      <trkpt lat="45.83522" lon="4.53703">
        <ele>475.20001220703</ele>
        <time>2020-10-04T17:10:36.883Z</time>
      </trkpt>
      <trkpt lat="45.83525" lon="4.53695">
        <ele>474.60000610352</ele>
        <time>2020-10-04T17:10:40.566Z</time>
      </trkpt>
      <trkpt lat="45.83529" lon="4.53686">
        <ele>473.79998779297</ele>
        <time>2020-10-04T17:10:44.252Z</time>
      </trkpt>
      <trkpt lat="45.83536" lon="4.53674">
        <ele>473</ele>
        <time>2020-10-04T17:10:47.943Z</time>
      </trkpt>
      <trkpt lat="45.83537" lon="4.53671">
        <ele>472.79998779297</ele>
        <time>2020-10-04T17:10:51.634Z</time>
      </trkpt>
      <trkpt lat="45.83543" lon="4.53654">
        <ele>472</ele>
        <time>2020-10-04T17:10:55.331Z</time>
      </trkpt>
      <trkpt lat="45.83555" lon="4.53635">
        <ele>472</ele>
        <time>2020-10-04T17:10:59.035Z</time>
      </trkpt>
      <trkpt lat="45.83565" lon="4.53619">
        <ele>474</ele>
        <time>2020-10-04T17:11:02.745Z</time>
        <extensions>
          <visugpx:TrkExtension xmlns:visugpx="https://www.visugpx.com/editgpx/">
            <visugpx:node>1</visugpx:node>
            </visugpx:TrkExtension>
        </extensions>
      </trkpt>
      <trkpt lat="45.83568" lon="4.53613">
        <ele>474.9</ele>
      </trkpt>
      <trkpt lat="45.83572" lon="4.53603">
        <ele>475.8</ele>
      </trkpt>
      <trkpt lat="45.83572" lon="4.53603">
        <ele>475.8</ele>
        <extensions>
          <visugpx:TrkExtension xmlns:visugpx="https://www.visugpx.com/editgpx/">
            <visugpx:node>2</visugpx:node>
            </visugpx:TrkExtension>
        </extensions>
      </trkpt>
      <trkpt lat="45.83572" lon="4.53603">
        <ele>475.8</ele>
      </trkpt>
      <trkpt lat="45.83581" lon="4.53608">
        <ele>475.8</ele>
      </trkpt>
      <trkpt lat="45.83583" lon="4.53611">
        <ele>475.6</ele>
        <extensions>
          <visugpx:TrkExtension xmlns:visugpx="https://www.visugpx.com/editgpx/">
            <visugpx:node>3</visugpx:node>
            </visugpx:TrkExtension>
        </extensions>
      </trkpt>
      <trkpt lat="45.83587" lon="4.53613">
        <ele>478.20001220703</ele>
        <time>2020-10-04T17:12:17.267Z</time>
      </trkpt>
      <trkpt lat="45.83598" lon="4.53624">
        <ele>478.20001220703</ele>
        <time>2020-10-04T17:12:21.012Z</time>
      </trkpt>
      <trkpt lat="45.83608" lon="4.53635">
        <ele>479.20001220703</ele>
        <time>2020-10-04T17:12:24.762Z</time>
      </trkpt>
      <trkpt lat="45.83614" lon="4.5364">
        <ele>479.60000610352</ele>
        <time>2020-10-04T17:12:28.515Z</time>
      </trkpt>
      <trkpt lat="45.83618" lon="4.53644">
        <ele>479.79998779297</ele>
        <time>2020-10-04T17:12:32.270Z</time>
      </trkpt>
      <trkpt lat="45.83629" lon="4.53655">
        <ele>480</ele>
        <time>2020-10-04T17:12:36.030Z</time>
      </trkpt>
      <trkpt lat="45.83637" lon="4.53662">
        <ele>480.60000610352</ele>
        <time>2020-10-04T17:12:39.794Z</time>
      </trkpt>
      <trkpt lat="45.8364" lon="4.53665">
        <ele>481</ele>
        <time>2020-10-04T17:12:43.559Z</time>
      </trkpt>
      <trkpt lat="45.83655" lon="4.53681">
        <ele>481.20001220703</ele>
        <time>2020-10-04T17:12:47.332Z</time>
      </trkpt>
      <trkpt lat="45.83667" lon="4.53693">
        <ele>481.79998779297</ele>
        <time>2020-10-04T17:12:51.111Z</time>
      </trkpt>
      <trkpt lat="45.83676" lon="4.53705">
        <ele>482.20001220703</ele>
        <time>2020-10-04T17:12:54.894Z</time>
      </trkpt>
      <trkpt lat="45.8368" lon="4.53711">
        <ele>482.79998779297</ele>
        <time>2020-10-04T17:12:58.680Z</time>
      </trkpt>
      <trkpt lat="45.83688" lon="4.53725">
        <ele>483.60000610352</ele>
        <time>2020-10-04T17:13:02.471Z</time>
      </trkpt>
      <trkpt lat="45.837" lon="4.53752">
        <ele>483.60000610352</ele>
        <time>2020-10-04T17:13:06.271Z</time>
      </trkpt>
      <trkpt lat="45.83713" lon="4.53764">
        <ele>483.20001220703</ele>
        <time>2020-10-04T17:13:10.077Z</time>
      </trkpt>
      <trkpt lat="45.83728" lon="4.53773">
        <ele>483.20001220703</ele>
        <time>2020-10-04T17:13:13.889Z</time>
      </trkpt>
      <trkpt lat="45.83738" lon="4.53777">
        <ele>483.60000610352</ele>
        <time>2020-10-04T17:13:17.705Z</time>
      </trkpt>
      <trkpt lat="45.83742" lon="4.53779">
        <ele>484</ele>
        <time>2020-10-04T17:13:21.523Z</time>
      </trkpt>
      <trkpt lat="45.83749" lon="4.53783">
        <ele>484.79998779297</ele>
        <time>2020-10-04T17:13:25.344Z</time>
      </trkpt>
      <trkpt lat="45.83751" lon="4.53784">
        <ele>485</ele>
        <time>2020-10-04T17:13:29.166Z</time>
      </trkpt>
      <trkpt lat="45.83758" lon="4.53787">
        <ele>486.20001220703</ele>
        <time>2020-10-04T17:13:32.991Z</time>
      </trkpt>
      <trkpt lat="45.8376" lon="4.53788">
        <ele>486.39999389648</ele>
        <time>2020-10-04T17:13:36.816Z</time>
      </trkpt>
      <trkpt lat="45.83768" lon="4.53792">
        <ele>487.20001220703</ele>
        <time>2020-10-04T17:13:40.645Z</time>
      </trkpt>
      <trkpt lat="45.83772" lon="4.53794">
        <ele>487.60000610352</ele>
        <time>2020-10-04T17:13:44.476Z</time>
      </trkpt>
      <trkpt lat="45.8378" lon="4.53799">
        <ele>488.39999389648</ele>
        <time>2020-10-04T17:13:48.310Z</time>
      </trkpt>
      <trkpt lat="45.83781" lon="4.538">
        <ele>488.60000610352</ele>
        <time>2020-10-04T17:13:52.145Z</time>
      </trkpt>
      <trkpt lat="45.83789" lon="4.53804">
        <ele>489</ele>
        <time>2020-10-04T17:13:55.983Z</time>
      </trkpt>
      <trkpt lat="45.83799" lon="4.5381">
        <ele>489.20001220703</ele>
        <time>2020-10-04T17:13:59.825Z</time>
      </trkpt>
      <trkpt lat="45.83805" lon="4.53813">
        <ele>489.20001220703</ele>
        <time>2020-10-04T17:14:03.670Z</time>
      </trkpt>
      <trkpt lat="45.83812" lon="4.53815">
        <ele>489.79998779297</ele>
        <time>2020-10-04T17:14:07.517Z</time>
      </trkpt>
      <trkpt lat="45.83823" lon="4.53817">
        <ele>490</ele>
        <time>2020-10-04T17:14:11.369Z</time>
      </trkpt>
      <trkpt lat="45.83836" lon="4.53818">
        <ele>490.20001220703</ele>
        <time>2020-10-04T17:14:15.226Z</time>
      </trkpt>
      <trkpt lat="45.83849" lon="4.53821">
        <ele>490.39999389648</ele>
        <time>2020-10-04T17:14:19.088Z</time>
      </trkpt>
      <trkpt lat="45.83859" lon="4.53819">
        <ele>491</ele>
        <time>2020-10-04T17:14:22.954Z</time>
      </trkpt>
      <trkpt lat="45.83869" lon="4.53817">
        <ele>491.39999389648</ele>
        <time>2020-10-04T17:14:26.824Z</time>
      </trkpt>
      <trkpt lat="45.83876" lon="4.53817">
        <ele>492.39999389648</ele>
        <time>2020-10-04T17:14:30.697Z</time>
      </trkpt>
      <trkpt lat="45.83878" lon="4.53818">
        <ele>492.60000610352</ele>
        <time>2020-10-04T17:14:34.571Z</time>
      </trkpt>
      <trkpt lat="45.8389" lon="4.53818">
        <ele>493.60000610352</ele>
        <time>2020-10-04T17:14:38.449Z</time>
      </trkpt>
      <trkpt lat="45.83906" lon="4.5382">
        <ele>494</ele>
        <time>2020-10-04T17:14:42.334Z</time>
      </trkpt>
      <trkpt lat="45.83924" lon="4.53822">
        <ele>494</ele>
        <time>2020-10-04T17:14:46.226Z</time>
      </trkpt>
      <trkpt lat="45.83927" lon="4.53822">
        <ele>493.79998779297</ele>
        <time>2020-10-04T17:14:50.119Z</time>
      </trkpt>
      <trkpt lat="45.8394" lon="4.53821">
        <ele>493</ele>
        <time>2020-10-04T17:14:54.017Z</time>
      </trkpt>
      <trkpt lat="45.8395" lon="4.53821">
        <ele>492.60000610352</ele>
        <time>2020-10-04T17:14:57.919Z</time>
      </trkpt>
      <trkpt lat="45.83956" lon="4.53821">
        <ele>491.79998779297</ele>
        <time>2020-10-04T17:15:01.824Z</time>
      </trkpt>
      <trkpt lat="45.83962" lon="4.53821">
        <ele>491.20001220703</ele>
        <time>2020-10-04T17:15:05.731Z</time>
      </trkpt>
      <trkpt lat="45.83974" lon="4.53819">
        <ele>490</ele>
        <time>2020-10-04T17:15:09.643Z</time>
      </trkpt>
      <trkpt lat="45.83987" lon="4.53817">
        <ele>488.79998779297</ele>
        <time>2020-10-04T17:15:13.560Z</time>
      </trkpt>
      <trkpt lat="45.83995" lon="4.53815">
        <ele>488</ele>
        <time>2020-10-04T17:15:17.480Z</time>
      </trkpt>
      <trkpt lat="45.84002" lon="4.53813">
        <ele>487.60000610352</ele>
        <time>2020-10-04T17:15:21.403Z</time>
      </trkpt>
      <trkpt lat="45.84009" lon="4.53814">
        <ele>486.39999389648</ele>
        <time>2020-10-04T17:15:25.329Z</time>
      </trkpt>
      <trkpt lat="45.84012" lon="4.53814">
        <ele>485.79998779297</ele>
        <time>2020-10-04T17:15:29.256Z</time>
      </trkpt>
      <trkpt lat="45.8402" lon="4.53815">
        <ele>485.20001220703</ele>
        <time>2020-10-04T17:15:33.186Z</time>
      </trkpt>
      <trkpt lat="45.84038" lon="4.53822">
        <ele>484.20001220703</ele>
        <time>2020-10-04T17:15:37.124Z</time>
      </trkpt>
      <trkpt lat="45.84041" lon="4.53823">
        <ele>484</ele>
        <time>2020-10-04T17:15:41.063Z</time>
      </trkpt>
      <trkpt lat="45.84052" lon="4.53822">
        <ele>482.79998779297</ele>
        <time>2020-10-04T17:15:45.006Z</time>
      </trkpt>
      <trkpt lat="45.84062" lon="4.53819">
        <ele>481.39999389648</ele>
        <time>2020-10-04T17:15:48.953Z</time>
      </trkpt>
      <trkpt lat="45.8407" lon="4.53816">
        <ele>480</ele>
        <time>2020-10-04T17:15:52.904Z</time>
      </trkpt>
      <trkpt lat="45.84077" lon="4.53814">
        <ele>478.60000610352</ele>
        <time>2020-10-04T17:15:56.857Z</time>
      </trkpt>
      <trkpt lat="45.8409" lon="4.53808">
        <ele>477.20001220703</ele>
        <time>2020-10-04T17:16:00.816Z</time>
      </trkpt>
      <trkpt lat="45.84095" lon="4.53807">
        <ele>476.60000610352</ele>
        <time>2020-10-04T17:16:04.777Z</time>
      </trkpt>
      <trkpt lat="45.84099" lon="4.53805">
        <ele>476</ele>
        <time>2020-10-04T17:16:08.739Z</time>
      </trkpt>
      <trkpt lat="45.84107" lon="4.53802">
        <ele>475</ele>
        <time>2020-10-04T17:16:12.705Z</time>
      </trkpt>
      <trkpt lat="45.84116" lon="4.53796">
        <ele>473.60000610352</ele>
        <time>2020-10-04T17:16:16.675Z</time>
      </trkpt>
      <trkpt lat="45.84124" lon="4.53789">
        <ele>472.79998779297</ele>
        <time>2020-10-04T17:16:20.649Z</time>
      </trkpt>
      <trkpt lat="45.84129" lon="4.53785">
        <ele>472.20001220703</ele>
        <time>2020-10-04T17:16:24.625Z</time>
      </trkpt>
      <trkpt lat="45.84138" lon="4.53777">
        <ele>470.79998779297</ele>
        <time>2020-10-04T17:16:28.605Z</time>
      </trkpt>
      <trkpt lat="45.84143" lon="4.53772">
        <ele>470.39999389648</ele>
        <time>2020-10-04T17:16:32.587Z</time>
      </trkpt>
      <trkpt lat="45.84151" lon="4.53764">
        <ele>469.39999389648</ele>
        <time>2020-10-04T17:16:36.573Z</time>
      </trkpt>
      <trkpt lat="45.84155" lon="4.53759">
        <ele>468.79998779297</ele>
        <time>2020-10-04T17:16:40.561Z</time>
      </trkpt>
      <trkpt lat="45.84159" lon="4.53754">
        <ele>468.39999389648</ele>
        <time>2020-10-04T17:16:44.551Z</time>
      </trkpt>
      <trkpt lat="45.84166" lon="4.53746">
        <ele>467.60000610352</ele>
        <time>2020-10-04T17:16:48.545Z</time>
      </trkpt>
      <trkpt lat="45.84169" lon="4.53742">
        <ele>467.20001220703</ele>
        <time>2020-10-04T17:16:52.540Z</time>
      </trkpt>
      <trkpt lat="45.84173" lon="4.53731">
        <ele>466.60000610352</ele>
        <time>2020-10-04T17:16:56.539Z</time>
      </trkpt>
      <trkpt lat="45.84174" lon="4.53728">
        <ele>466.60000610352</ele>
        <time>2020-10-04T17:17:00.539Z</time>
      </trkpt>
      <trkpt lat="45.84176" lon="4.53705">
        <ele>466.39999389648</ele>
        <time>2020-10-04T17:17:04.545Z</time>
      </trkpt>
      <trkpt lat="45.8418" lon="4.53677">
        <ele>468.20001220703</ele>
        <time>2020-10-04T17:17:08.559Z</time>
      </trkpt>
      <trkpt lat="45.84182" lon="4.53662">
        <ele>469.20001220703</ele>
        <time>2020-10-04T17:17:12.577Z</time>
      </trkpt>
      <trkpt lat="45.84183" lon="4.53651">
        <ele>470</ele>
        <time>2020-10-04T17:17:16.599Z</time>
      </trkpt>
      <trkpt lat="45.84184" lon="4.53648">
        <ele>470.20001220703</ele>
        <time>2020-10-04T17:17:20.622Z</time>
      </trkpt>
      <trkpt lat="45.84185" lon="4.53633">
        <ele>471.39999389648</ele>
        <time>2020-10-04T17:17:24.649Z</time>
      </trkpt>
      <trkpt lat="45.84186" lon="4.53626">
        <ele>472</ele>
        <time>2020-10-04T17:17:28.678Z</time>
      </trkpt>
      <trkpt lat="45.84186" lon="4.53615">
        <ele>472.39999389648</ele>
        <time>2020-10-04T17:17:32.710Z</time>
      </trkpt>
      <trkpt lat="45.84188" lon="4.53597">
        <ele>473.20001220703</ele>
        <time>2020-10-04T17:17:36.747Z</time>
      </trkpt>
      <trkpt lat="45.84188" lon="4.53594">
        <ele>473.39999389648</ele>
        <time>2020-10-04T17:17:40.785Z</time>
      </trkpt>
      <trkpt lat="45.84189" lon="4.5358">
        <ele>474.20001220703</ele>
        <time>2020-10-04T17:17:44.826Z</time>
      </trkpt>
      <trkpt lat="45.84188" lon="4.53565">
        <ele>474.60000610352</ele>
        <time>2020-10-04T17:17:48.872Z</time>
      </trkpt>
      <trkpt lat="45.84188" lon="4.53558">
        <ele>474.79998779297</ele>
        <time>2020-10-04T17:17:52.919Z</time>
      </trkpt>
      <trkpt lat="45.84187" lon="4.53539">
        <ele>475</ele>
        <time>2020-10-04T17:17:56.972Z</time>
      </trkpt>
      <trkpt lat="45.84184" lon="4.53514">
        <ele>475</ele>
        <time>2020-10-04T17:18:01.032Z</time>
      </trkpt>
      <trkpt lat="45.84181" lon="4.53493">
        <ele>474.79998779297</ele>
        <time>2020-10-04T17:18:05.098Z</time>
      </trkpt>
      <trkpt lat="45.84178" lon="4.53478">
        <ele>474.60000610352</ele>
        <time>2020-10-04T17:18:09.168Z</time>
      </trkpt>
      <trkpt lat="45.84175" lon="4.53455">
        <ele>474</ele>
        <time>2020-10-04T17:18:13.245Z</time>
      </trkpt>
      <trkpt lat="45.84172" lon="4.53441">
        <ele>473.20001220703</ele>
        <time>2020-10-04T17:18:17.326Z</time>
      </trkpt>
      <trkpt lat="45.84171" lon="4.53435">
        <ele>473.20001220703</ele>
        <time>2020-10-04T17:18:21.408Z</time>
      </trkpt>
      <trkpt lat="45.8417" lon="4.53432">
        <ele>473.20001220703</ele>
        <time>2020-10-04T17:18:25.491Z</time>
      </trkpt>
      <trkpt lat="45.84169" lon="4.53423">
        <ele>473.20001220703</ele>
        <time>2020-10-04T17:18:29.577Z</time>
      </trkpt>
      <trkpt lat="45.84166" lon="4.53403">
        <ele>473.20001220703</ele>
        <time>2020-10-04T17:18:33.668Z</time>
      </trkpt>
      <trkpt lat="45.84162" lon="4.53387">
        <ele>473.60000610352</ele>
        <time>2020-10-04T17:18:37.764Z</time>
      </trkpt>
      <trkpt lat="45.84158" lon="4.5337">
        <ele>473.79998779297</ele>
        <time>2020-10-04T17:18:41.865Z</time>
      </trkpt>
      <trkpt lat="45.84157" lon="4.53367">
        <ele>473.79998779297</ele>
        <time>2020-10-04T17:18:45.967Z</time>
      </trkpt>
      <trkpt lat="45.84154" lon="4.53351">
        <ele>474.20001220703</ele>
        <time>2020-10-04T17:18:50.074Z</time>
      </trkpt>
      <trkpt lat="45.8415" lon="4.53339">
        <ele>474.39999389648</ele>
        <time>2020-10-04T17:18:54.184Z</time>
      </trkpt>
      <trkpt lat="45.8415" lon="4.53337">
        <ele>474.60000610352</ele>
        <time>2020-10-04T17:18:58.295Z</time>
      </trkpt>
      <trkpt lat="45.84148" lon="4.53331">
        <ele>474.79998779297</ele>
        <time>2020-10-04T17:19:02.408Z</time>
      </trkpt>
      <trkpt lat="45.84146" lon="4.53325">
        <ele>475.39999389648</ele>
        <time>2020-10-04T17:19:06.523Z</time>
      </trkpt>
      <trkpt lat="45.84145" lon="4.53322">
        <ele>475.60000610352</ele>
        <time>2020-10-04T17:19:10.638Z</time>
      </trkpt>
      <trkpt lat="45.84141" lon="4.53311">
        <ele>476.60000610352</ele>
        <time>2020-10-04T17:19:14.757Z</time>
      </trkpt>
      <trkpt lat="45.84139" lon="4.53305">
        <ele>477.20001220703</ele>
        <time>2020-10-04T17:19:18.878Z</time>
      </trkpt>
      <trkpt lat="45.84136" lon="4.53296">
        <ele>478</ele>
        <time>2020-10-04T17:19:23.001Z</time>
      </trkpt>
      <trkpt lat="45.84131" lon="4.53284">
        <ele>478.79998779297</ele>
        <time>2020-10-04T17:19:27.128Z</time>
      </trkpt>
      <trkpt lat="45.84129" lon="4.53281">
        <ele>479</ele>
        <time>2020-10-04T17:19:31.256Z</time>
      </trkpt>
      <trkpt lat="45.8412" lon="4.53263">
        <ele>479.20001220703</ele>
        <time>2020-10-04T17:19:35.391Z</time>
      </trkpt>
      <trkpt lat="45.84118" lon="4.53241">
        <ele>479.20001220703</ele>
        <time>2020-10-04T17:19:39.532Z</time>
      </trkpt>
      <trkpt lat="45.8412" lon="4.53214">
        <ele>478.60000610352</ele>
        <time>2020-10-04T17:19:43.680Z</time>
      </trkpt>
      <trkpt lat="45.84124" lon="4.5319">
        <ele>478.60000610352</ele>
        <time>2020-10-04T17:19:47.835Z</time>
      </trkpt>
      <trkpt lat="45.84127" lon="4.53176">
        <ele>480</ele>
        <time>2020-10-04T17:19:51.994Z</time>
      </trkpt>
      <trkpt lat="45.84127" lon="4.53174">
        <ele>480.20001220703</ele>
        <time>2020-10-04T17:19:56.154Z</time>
      </trkpt>
      <trkpt lat="45.84131" lon="4.53165">
        <ele>481.20001220703</ele>
        <time>2020-10-04T17:20:00.317Z</time>
      </trkpt>
      <trkpt lat="45.84133" lon="4.53162">
        <ele>481.39999389648</ele>
        <time>2020-10-04T17:20:04.481Z</time>
      </trkpt>
      <trkpt lat="45.84142" lon="4.53144">
        <ele>481.39999389648</ele>
        <time>2020-10-04T17:20:08.651Z</time>
      </trkpt>
      <trkpt lat="45.84157" lon="4.53128">
        <ele>480.39999389648</ele>
        <time>2020-10-04T17:20:12.828Z</time>
      </trkpt>
      <trkpt lat="45.8416" lon="4.53126">
        <ele>479.79998779297</ele>
        <time>2020-10-04T17:20:17.007Z</time>
      </trkpt>
      <trkpt lat="45.84173" lon="4.53119">
        <ele>478.60000610352</ele>
        <time>2020-10-04T17:20:21.191Z</time>
      </trkpt>
      <trkpt lat="45.84178" lon="4.53117">
        <ele>478</ele>
        <time>2020-10-04T17:20:25.377Z</time>
      </trkpt>
      <trkpt lat="45.84182" lon="4.53114">
        <ele>477.20001220703</ele>
        <time>2020-10-04T17:20:29.565Z</time>
      </trkpt>
      <trkpt lat="45.84192" lon="4.53109">
        <ele>475.60000610352</ele>
        <time>2020-10-04T17:20:33.757Z</time>
      </trkpt>
      <trkpt lat="45.84204" lon="4.53103">
        <ele>474.60000610352</ele>
        <time>2020-10-04T17:20:37.954Z</time>
      </trkpt>
      <trkpt lat="45.8421" lon="4.531">
        <ele>474</ele>
        <time>2020-10-04T17:20:42.154Z</time>
      </trkpt>
      <trkpt lat="45.84216" lon="4.53096">
        <ele>473.20001220703</ele>
        <time>2020-10-04T17:20:46.356Z</time>
      </trkpt>
      <trkpt lat="45.84228" lon="4.53089">
        <ele>471.39999389648</ele>
        <time>2020-10-04T17:20:50.563Z</time>
      </trkpt>
      <trkpt lat="45.84238" lon="4.5308">
        <ele>469.60000610352</ele>
        <time>2020-10-04T17:20:54.775Z</time>
      </trkpt>
      <trkpt lat="45.84242" lon="4.53074">
        <ele>468.60000610352</ele>
        <time>2020-10-04T17:20:58.989Z</time>
      </trkpt>
      <trkpt lat="45.84245" lon="4.53068">
        <ele>467</ele>
        <time>2020-10-04T17:21:03.205Z</time>
      </trkpt>
      <trkpt lat="45.84248" lon="4.53063">
        <ele>465.79998779297</ele>
        <time>2020-10-04T17:21:07.423Z</time>
      </trkpt>
      <trkpt lat="45.8425" lon="4.53056">
        <ele>464.60000610352</ele>
        <time>2020-10-04T17:21:11.643Z</time>
      </trkpt>
      <trkpt lat="45.84252" lon="4.53049">
        <ele>463.60000610352</ele>
        <time>2020-10-04T17:21:15.865Z</time>
      </trkpt>
      <trkpt lat="45.84254" lon="4.53043">
        <ele>462.39999389648</ele>
        <time>2020-10-04T17:21:20.089Z</time>
      </trkpt>
      <trkpt lat="45.84255" lon="4.53036">
        <ele>460.79998779297</ele>
        <time>2020-10-04T17:21:24.315Z</time>
      </trkpt>
      <trkpt lat="45.84257" lon="4.53029">
        <ele>459.60000610352</ele>
        <time>2020-10-04T17:21:28.543Z</time>
      </trkpt>
      <trkpt lat="45.8426" lon="4.53015">
        <ele>458.39999389648</ele>
        <time>2020-10-04T17:21:32.775Z</time>
      </trkpt>
      <trkpt lat="45.84262" lon="4.53008">
        <ele>458</ele>
        <time>2020-10-04T17:21:37.009Z</time>
      </trkpt>
      <trkpt lat="45.84266" lon="4.52994">
        <ele>457</ele>
        <time>2020-10-04T17:21:41.248Z</time>
      </trkpt>
      <trkpt lat="45.84275" lon="4.52966">
        <ele>456</ele>
        <time>2020-10-04T17:21:45.495Z</time>
      </trkpt>
      <trkpt lat="45.84284" lon="4.52941">
        <ele>454.79998779297</ele>
        <time>2020-10-04T17:21:49.750Z</time>
      </trkpt>
      <trkpt lat="45.84286" lon="4.52935">
        <ele>454.39999389648</ele>
        <time>2020-10-04T17:21:54.007Z</time>
      </trkpt>
      <trkpt lat="45.84287" lon="4.52928">
        <ele>454</ele>
        <time>2020-10-04T17:21:58.266Z</time>
      </trkpt>
      <trkpt lat="45.84288" lon="4.52921">
        <ele>453.79998779297</ele>
        <time>2020-10-04T17:22:02.527Z</time>
      </trkpt>
      <trkpt lat="45.84293" lon="4.52885">
        <ele>453</ele>
        <time>2020-10-04T17:22:06.798Z</time>
      </trkpt>
      <trkpt lat="45.84294" lon="4.52878">
        <ele>452.60000610352</ele>
        <time>2020-10-04T17:22:11.071Z</time>
      </trkpt>
      <trkpt lat="45.84296" lon="4.5287">
        <ele>452.20001220703</ele>
        <time>2020-10-04T17:22:15.346Z</time>
      </trkpt>
      <trkpt lat="45.843" lon="4.52859">
        <ele>451.60000610352</ele>
        <time>2020-10-04T17:22:19.625Z</time>
      </trkpt>
      <trkpt lat="45.84302" lon="4.52855">
        <ele>451.60000610352</ele>
        <time>2020-10-04T17:22:23.905Z</time>
      </trkpt>
      <trkpt lat="45.84304" lon="4.5285">
        <ele>450.39999389648</ele>
        <time>2020-10-04T17:22:28.187Z</time>
      </trkpt>
      <trkpt lat="45.84304" lon="4.5285">
        <ele>450</ele>
        <time>2020-10-04T17:22:32.469Z</time>
      </trkpt>
      <trkpt lat="45.84305" lon="4.52849">
        <ele>449.20001220703</ele>
        <time>2020-10-04T17:22:36.751Z</time>
      </trkpt>
      <trkpt lat="45.84305" lon="4.52849">
        <ele>449</ele>
        <time>2020-10-04T17:22:41.033Z</time>
      </trkpt>
      <trkpt lat="45.84305" lon="4.52849">
        <ele>449</ele>
        <time>2020-10-04T17:22:45.315Z</time>
      </trkpt>
      <trkpt lat="45.84306" lon="4.52849">
        <ele>449</ele>
        <time>2020-10-04T17:22:49.597Z</time>
      </trkpt>
      <trkpt lat="45.84306" lon="4.52849">
        <ele>448.60000610352</ele>
        <time>2020-10-04T17:22:53.880Z</time>
      </trkpt>
      <trkpt lat="45.84307" lon="4.52848">
        <ele>448.60000610352</ele>
        <time>2020-10-04T17:22:58.163Z</time>
      </trkpt>
      <trkpt lat="45.84311" lon="4.52847">
        <ele>448.60000610352</ele>
        <time>2020-10-04T17:23:02.448Z</time>
      </trkpt>
      <trkpt lat="45.84327" lon="4.52848">
        <ele>448.60000610352</ele>
        <time>2020-10-04T17:23:06.739Z</time>
      </trkpt>
      <trkpt lat="45.84356" lon="4.52853">
        <ele>448.20001220703</ele>
        <time>2020-10-04T17:23:11.041Z</time>
      </trkpt>
      <trkpt lat="45.84368" lon="4.52852">
        <ele>447.79998779297</ele>
        <time>2020-10-04T17:23:15.348Z</time>
      </trkpt>
      <trkpt lat="45.8438" lon="4.5285">
        <ele>446.20001220703</ele>
        <time>2020-10-04T17:23:19.660Z</time>
      </trkpt>
      <trkpt lat="45.84393" lon="4.52847">
        <ele>445</ele>
        <time>2020-10-04T17:23:23.977Z</time>
      </trkpt>
      <trkpt lat="45.84407" lon="4.52846">
        <ele>444</ele>
        <time>2020-10-04T17:23:28.300Z</time>
      </trkpt>
      <trkpt lat="45.84415" lon="4.52847">
        <ele>443.79998779297</ele>
        <time>2020-10-04T17:23:32.626Z</time>
      </trkpt>
      <trkpt lat="45.84423" lon="4.52848">
        <ele>443.60000610352</ele>
        <time>2020-10-04T17:23:36.955Z</time>
      </trkpt>
      <trkpt lat="45.84448" lon="4.5285">
        <ele>442.79998779297</ele>
        <time>2020-10-04T17:23:41.294Z</time>
      </trkpt>
      <trkpt lat="45.84469" lon="4.52853">
        <ele>441.60000610352</ele>
        <time>2020-10-04T17:23:45.641Z</time>
      </trkpt>
      <trkpt lat="45.8448" lon="4.52857">
        <ele>439.60000610352</ele>
        <time>2020-10-04T17:23:49.993Z</time>
      </trkpt>
      <trkpt lat="45.84485" lon="4.52859">
        <ele>438.39999389648</ele>
        <time>2020-10-04T17:23:54.347Z</time>
      </trkpt>
      <trkpt lat="45.8449" lon="4.52862">
        <ele>437.39999389648</ele>
        <time>2020-10-04T17:23:58.703Z</time>
      </trkpt>
      <trkpt lat="45.84495" lon="4.52864">
        <ele>436.20001220703</ele>
        <time>2020-10-04T17:24:03.061Z</time>
      </trkpt>
      <trkpt lat="45.84505" lon="4.52867">
        <ele>435.39999389648</ele>
        <time>2020-10-04T17:24:07.423Z</time>
      </trkpt>
      <trkpt lat="45.8451" lon="4.52868">
        <ele>435.20001220703</ele>
        <time>2020-10-04T17:24:11.787Z</time>
      </trkpt>
      <trkpt lat="45.84514" lon="4.52869">
        <ele>435</ele>
        <time>2020-10-04T17:24:16.153Z</time>
      </trkpt>
      <trkpt lat="45.84517" lon="4.52871">
        <ele>434.79998779297</ele>
        <time>2020-10-04T17:24:20.520Z</time>
      </trkpt>
      <trkpt lat="45.84519" lon="4.52881">
        <ele>434.39999389648</ele>
        <time>2020-10-04T17:24:24.890Z</time>
      </trkpt>
      <trkpt lat="45.84517" lon="4.52908">
        <ele>433.79998779297</ele>
        <time>2020-10-04T17:24:29.268Z</time>
      </trkpt>
      <trkpt lat="45.84517" lon="4.52942">
        <ele>432.79998779297</ele>
        <time>2020-10-04T17:24:33.655Z</time>
      </trkpt>
      <trkpt lat="45.84517" lon="4.52988">
        <ele>431.20001220703</ele>
        <time>2020-10-04T17:24:38.055Z</time>
      </trkpt>
      <trkpt lat="45.84517" lon="4.52999">
        <ele>430</ele>
        <time>2020-10-04T17:24:42.458Z</time>
      </trkpt>
      <trkpt lat="45.84517" lon="4.5301">
        <ele>428.39999389648</ele>
        <time>2020-10-04T17:24:46.864Z</time>
      </trkpt>
      <trkpt lat="45.84517" lon="4.5302">
        <ele>427</ele>
        <time>2020-10-04T17:24:51.273Z</time>
      </trkpt>
      <trkpt lat="45.84518" lon="4.53029">
        <ele>425.60000610352</ele>
        <time>2020-10-04T17:24:55.684Z</time>
      </trkpt>
      <trkpt lat="45.84519" lon="4.53038">
        <ele>424.20001220703</ele>
        <time>2020-10-04T17:25:00.098Z</time>
      </trkpt>
      <trkpt lat="45.8452" lon="4.53046">
        <ele>423</ele>
        <time>2020-10-04T17:25:04.514Z</time>
      </trkpt>
      <trkpt lat="45.84523" lon="4.53054">
        <ele>422</ele>
        <time>2020-10-04T17:25:08.932Z</time>
      </trkpt>
      <trkpt lat="45.8453" lon="4.53071">
        <ele>420.20001220703</ele>
        <time>2020-10-04T17:25:13.356Z</time>
      </trkpt>
      <trkpt lat="45.84534" lon="4.53079">
        <ele>419.79998779297</ele>
        <time>2020-10-04T17:25:17.783Z</time>
      </trkpt>
      <trkpt lat="45.84539" lon="4.53087">
        <ele>418.79998779297</ele>
        <time>2020-10-04T17:25:22.213Z</time>
      </trkpt>
      <trkpt lat="45.84543" lon="4.53096">
        <ele>418.20001220703</ele>
        <time>2020-10-04T17:25:26.645Z</time>
      </trkpt>
      <trkpt lat="45.84546" lon="4.53105">
        <ele>417.39999389648</ele>
        <time>2020-10-04T17:25:31.080Z</time>
      </trkpt>
      <trkpt lat="45.84548" lon="4.53116">
        <ele>416.60000610352</ele>
        <time>2020-10-04T17:25:35.519Z</time>
      </trkpt>
      <trkpt lat="45.8455" lon="4.53126">
        <ele>415.79998779297</ele>
        <time>2020-10-04T17:25:39.961Z</time>
      </trkpt>
      <trkpt lat="45.84551" lon="4.53136">
        <ele>415.20001220703</ele>
        <time>2020-10-04T17:25:44.405Z</time>
      </trkpt>
      <trkpt lat="45.84552" lon="4.53142">
        <ele>413.79998779297</ele>
        <time>2020-10-04T17:25:48.851Z</time>
      </trkpt>
      <trkpt lat="45.84552" lon="4.53148">
        <ele>412.79998779297</ele>
        <time>2020-10-04T17:25:53.298Z</time>
      </trkpt>
      <trkpt lat="45.84553" lon="4.53155">
        <ele>411.20001220703</ele>
        <time>2020-10-04T17:25:57.747Z</time>
      </trkpt>
      <trkpt lat="45.84553" lon="4.53158">
        <ele>410.20001220703</ele>
        <time>2020-10-04T17:26:02.197Z</time>
      </trkpt>
      <trkpt lat="45.84553" lon="4.53161">
        <ele>409.60000610352</ele>
        <time>2020-10-04T17:26:06.648Z</time>
      </trkpt>
      <trkpt lat="45.84551" lon="4.53163">
        <ele>408.39999389648</ele>
        <time>2020-10-04T17:26:11.100Z</time>
      </trkpt>
      <trkpt lat="45.84549" lon="4.53165">
        <ele>407.60000610352</ele>
        <time>2020-10-04T17:26:15.553Z</time>
      </trkpt>
      <trkpt lat="45.84547" lon="4.53167">
        <ele>407</ele>
        <time>2020-10-04T17:26:20.007Z</time>
      </trkpt>
      <trkpt lat="45.84544" lon="4.5317">
        <ele>406.79998779297</ele>
        <time>2020-10-04T17:26:24.462Z</time>
      </trkpt>
      <trkpt lat="45.84534" lon="4.53184">
        <ele>406.20001220703</ele>
        <time>2020-10-04T17:26:28.923Z</time>
      </trkpt>
      <trkpt lat="45.84519" lon="4.53215">
        <ele>405</ele>
        <time>2020-10-04T17:26:33.395Z</time>
      </trkpt>
      <trkpt lat="45.84517" lon="4.5322">
        <ele>405</ele>
        <time>2020-10-04T17:26:37.868Z</time>
      </trkpt>
      <trkpt lat="45.8451" lon="4.53249">
        <ele>404</ele>
        <time>2020-10-04T17:26:42.350Z</time>
      </trkpt>
      <trkpt lat="45.84509" lon="4.53253">
        <ele>403.79998779297</ele>
        <time>2020-10-04T17:26:46.833Z</time>
      </trkpt>
      <trkpt lat="45.84503" lon="4.53291">
        <ele>403</ele>
        <time>2020-10-04T17:26:51.327Z</time>
      </trkpt>
      <trkpt lat="45.84501" lon="4.53307">
        <ele>402.79998779297</ele>
        <time>2020-10-04T17:26:55.825Z</time>
      </trkpt>
      <trkpt lat="45.84498" lon="4.53325">
        <ele>402.79998779297</ele>
        <time>2020-10-04T17:27:00.328Z</time>
      </trkpt>
      <trkpt lat="45.84496" lon="4.53353">
        <ele>402.60000610352</ele>
        <time>2020-10-04T17:27:04.839Z</time>
      </trkpt>
      <trkpt lat="45.84496" lon="4.53356">
        <ele>402.60000610352</ele>
        <time>2020-10-04T17:27:09.351Z</time>
      </trkpt>
      <trkpt lat="45.84499" lon="4.53362">
        <ele>402.79998779297</ele>
        <time>2020-10-04T17:27:13.865Z</time>
      </trkpt>
      <trkpt lat="45.84501" lon="4.53376">
        <ele>402.60000610352</ele>
        <time>2020-10-04T17:27:18.383Z</time>
      </trkpt>
      <trkpt lat="45.84504" lon="4.53406">
        <ele>403.20001220703</ele>
        <time>2020-10-04T17:27:22.909Z</time>
      </trkpt>
      <trkpt lat="45.84509" lon="4.53434">
        <ele>403.20001220703</ele>
        <time>2020-10-04T17:27:27.443Z</time>
      </trkpt>
      <trkpt lat="45.84518" lon="4.5345">
        <ele>403.39999389648</ele>
        <time>2020-10-04T17:27:31.983Z</time>
      </trkpt>
      <trkpt lat="45.84531" lon="4.53472">
        <ele>403.20001220703</ele>
        <time>2020-10-04T17:27:36.531Z</time>
      </trkpt>
      <trkpt lat="45.84548" lon="4.5349">
        <ele>402.79998779297</ele>
        <time>2020-10-04T17:27:41.087Z</time>
      </trkpt>
      <trkpt lat="45.84556" lon="4.53497">
        <ele>402</ele>
        <time>2020-10-04T17:27:45.647Z</time>
      </trkpt>
      <trkpt lat="45.84569" lon="4.53507">
        <ele>400.20001220703</ele>
        <time>2020-10-04T17:27:50.213Z</time>
      </trkpt>
      <trkpt lat="45.84577" lon="4.53515">
        <ele>398.39999389648</ele>
        <time>2020-10-04T17:27:54.783Z</time>
      </trkpt>
      <trkpt lat="45.84583" lon="4.53521">
        <ele>397</ele>
        <time>2020-10-04T17:27:59.356Z</time>
      </trkpt>
      <trkpt lat="45.84586" lon="4.53524">
        <ele>396.20001220703</ele>
        <time>2020-10-04T17:28:03.930Z</time>
      </trkpt>
      <trkpt lat="45.8459" lon="4.53528">
        <ele>395.79998779297</ele>
        <time>2020-10-04T17:28:08.506Z</time>
      </trkpt>
      <trkpt lat="45.84598" lon="4.53538">
        <ele>395.39999389648</ele>
        <time>2020-10-04T17:28:13.086Z</time>
      </trkpt>
      <trkpt lat="45.84606" lon="4.53547">
        <ele>394.39999389648</ele>
        <time>2020-10-04T17:28:17.670Z</time>
      </trkpt>
      <trkpt lat="45.84613" lon="4.53552">
        <ele>393.60000610352</ele>
        <time>2020-10-04T17:28:22.258Z</time>
      </trkpt>
      <trkpt lat="45.84617" lon="4.53555">
        <ele>393</ele>
        <time>2020-10-04T17:28:26.847Z</time>
      </trkpt>
      <trkpt lat="45.84622" lon="4.53563">
        <ele>392.20001220703</ele>
        <time>2020-10-04T17:28:31.439Z</time>
      </trkpt>
      <trkpt lat="45.84624" lon="4.53568">
        <ele>391.60000610352</ele>
        <time>2020-10-04T17:28:36.033Z</time>
      </trkpt>
      <trkpt lat="45.84627" lon="4.53579">
        <ele>390.39999389648</ele>
        <time>2020-10-04T17:28:40.630Z</time>
      </trkpt>
      <trkpt lat="45.84631" lon="4.53599">
        <ele>389.39999389648</ele>
        <time>2020-10-04T17:28:45.233Z</time>
      </trkpt>
      <trkpt lat="45.84634" lon="4.53614">
        <ele>389.39999389648</ele>
        <time>2020-10-04T17:28:49.840Z</time>
      </trkpt>
      <trkpt lat="45.84638" lon="4.53641">
        <ele>389.60000610352</ele>
        <time>2020-10-04T17:28:54.455Z</time>
      </trkpt>
      <trkpt lat="45.84642" lon="4.53669">
        <ele>390.39999389648</ele>
        <time>2020-10-04T17:28:59.078Z</time>
      </trkpt>
      <trkpt lat="45.84643" lon="4.53679">
        <ele>390.60000610352</ele>
        <time>2020-10-04T17:29:03.704Z</time>
      </trkpt>
      <trkpt lat="45.84642" lon="4.53722">
        <ele>390.60000610352</ele>
        <time>2020-10-04T17:29:08.342Z</time>
      </trkpt>
      <trkpt lat="45.84634" lon="4.53769">
        <ele>390.39999389648</ele>
        <time>2020-10-04T17:29:12.993Z</time>
      </trkpt>
      <trkpt lat="45.84627" lon="4.53812">
        <ele>389.39999389648</ele>
        <time>2020-10-04T17:29:17.656Z</time>
      </trkpt>
      <trkpt lat="45.84624" lon="4.53832">
        <ele>388.79998779297</ele>
        <time>2020-10-04T17:29:22.325Z</time>
      </trkpt>
      <trkpt lat="45.84617" lon="4.53873">
        <ele>388.79998779297</ele>
        <time>2020-10-04T17:29:27.005Z</time>
      </trkpt>
      <trkpt lat="45.84611" lon="4.53906">
        <ele>389.60000610352</ele>
        <time>2020-10-04T17:29:31.695Z</time>
      </trkpt>
      <trkpt lat="45.84609" lon="4.53917">
        <ele>390</ele>
        <time>2020-10-04T17:29:36.388Z</time>
      </trkpt>
      <trkpt lat="45.84606" lon="4.5394">
        <ele>390.20001220703</ele>
        <time>2020-10-04T17:29:41.088Z</time>
      </trkpt>
      <trkpt lat="45.84599" lon="4.53992">
        <ele>390.20001220703</ele>
        <time>2020-10-04T17:29:45.802Z</time>
      </trkpt>
      <trkpt lat="45.84597" lon="4.54003">
        <ele>390.20001220703</ele>
        <time>2020-10-04T17:29:50.519Z</time>
      </trkpt>
      <trkpt lat="45.84591" lon="4.5402">
        <ele>389.39999389648</ele>
        <time>2020-10-04T17:29:55.242Z</time>
      </trkpt>
      <trkpt lat="45.8459" lon="4.54037">
        <ele>387.79998779297</ele>
        <time>2020-10-04T17:29:59.969Z</time>
      </trkpt>
      <trkpt lat="45.8459" lon="4.54047">
        <ele>386.79998779297</ele>
        <time>2020-10-04T17:30:04.699Z</time>
      </trkpt>
      <trkpt lat="45.8459" lon="4.54057">
        <ele>385.60000610352</ele>
        <time>2020-10-04T17:30:09.432Z</time>
      </trkpt>
      <trkpt lat="45.8459" lon="4.54068">
        <ele>384.60000610352</ele>
        <time>2020-10-04T17:30:14.168Z</time>
      </trkpt>
      <trkpt lat="45.84591" lon="4.54079">
        <ele>383.39999389648</ele>
        <time>2020-10-04T17:30:18.907Z</time>
      </trkpt>
      <trkpt lat="45.84591" lon="4.54091">
        <ele>382.39999389648</ele>
        <time>2020-10-04T17:30:23.649Z</time>
      </trkpt>
      <trkpt lat="45.84591" lon="4.54102">
        <ele>381.39999389648</ele>
        <time>2020-10-04T17:30:28.395Z</time>
      </trkpt>
      <trkpt lat="45.84592" lon="4.54114">
        <ele>381</ele>
        <time>2020-10-04T17:30:33.144Z</time>
      </trkpt>
      <trkpt lat="45.84598" lon="4.54165">
        <ele>379.20001220703</ele>
        <time>2020-10-04T17:30:37.907Z</time>
      </trkpt>
      <trkpt lat="45.84601" lon="4.54191">
        <ele>378</ele>
        <time>2020-10-04T17:30:42.677Z</time>
      </trkpt>
      <trkpt lat="45.84605" lon="4.54216">
        <ele>376.39999389648</ele>
        <time>2020-10-04T17:30:47.454Z</time>
      </trkpt>
      <trkpt lat="45.84607" lon="4.54228">
        <ele>375.20001220703</ele>
        <time>2020-10-04T17:30:52.235Z</time>
      </trkpt>
      <trkpt lat="45.84609" lon="4.5424">
        <ele>374.39999389648</ele>
        <time>2020-10-04T17:30:57.019Z</time>
      </trkpt>
      <trkpt lat="45.84612" lon="4.54252">
        <ele>373.20001220703</ele>
        <time>2020-10-04T17:31:01.807Z</time>
      </trkpt>
      <trkpt lat="45.84618" lon="4.54275">
        <ele>371.60000610352</ele>
        <time>2020-10-04T17:31:06.602Z</time>
      </trkpt>
      <trkpt lat="45.84628" lon="4.54309">
        <ele>370.20001220703</ele>
        <time>2020-10-04T17:31:11.407Z</time>
      </trkpt>
      <trkpt lat="45.84632" lon="4.5432">
        <ele>369</ele>
        <time>2020-10-04T17:31:16.215Z</time>
      </trkpt>
      <trkpt lat="45.84636" lon="4.54331">
        <ele>368</ele>
        <time>2020-10-04T17:31:21.027Z</time>
      </trkpt>
      <trkpt lat="45.84639" lon="4.54343">
        <ele>366.79998779297</ele>
        <time>2020-10-04T17:31:25.842Z</time>
      </trkpt>
      <trkpt lat="45.84646" lon="4.54366">
        <ele>365.20001220703</ele>
        <time>2020-10-04T17:31:30.664Z</time>
      </trkpt>
      <trkpt lat="45.84657" lon="4.54401">
        <ele>364</ele>
        <time>2020-10-04T17:31:35.497Z</time>
      </trkpt>
      <trkpt lat="45.84664" lon="4.54423">
        <ele>362.79998779297</ele>
        <time>2020-10-04T17:31:40.337Z</time>
      </trkpt>
      <trkpt lat="45.84671" lon="4.54446">
        <ele>361.79998779297</ele>
        <time>2020-10-04T17:31:45.184Z</time>
      </trkpt>
      <trkpt lat="45.84674" lon="4.54457">
        <ele>361.39999389648</ele>
        <time>2020-10-04T17:31:50.034Z</time>
      </trkpt>
      <trkpt lat="45.84678" lon="4.54479">
        <ele>360.60000610352</ele>
        <time>2020-10-04T17:31:54.890Z</time>
      </trkpt>
      <trkpt lat="45.84679" lon="4.5449">
        <ele>360.20001220703</ele>
        <time>2020-10-04T17:31:59.749Z</time>
      </trkpt>
      <trkpt lat="45.84681" lon="4.5451">
        <ele>359.60000610352</ele>
        <time>2020-10-04T17:32:04.614Z</time>
      </trkpt>
      <trkpt lat="45.84683" lon="4.5452">
        <ele>359.39999389648</ele>
        <time>2020-10-04T17:32:09.482Z</time>
      </trkpt>
      <trkpt lat="45.84688" lon="4.54551">
        <ele>359</ele>
        <time>2020-10-04T17:32:14.359Z</time>
      </trkpt>
      <trkpt lat="45.84683" lon="4.54584">
        <ele>358.79998779297</ele>
        <time>2020-10-04T17:32:19.245Z</time>
      </trkpt>
      <trkpt lat="45.84671" lon="4.54655">
        <ele>359</ele>
        <time>2020-10-04T17:32:24.151Z</time>
      </trkpt>
      <trkpt lat="45.84662" lon="4.54703">
        <ele>359.39999389648</ele>
        <time>2020-10-04T17:32:29.071Z</time>
      </trkpt>
      <trkpt lat="45.8466" lon="4.54714">
        <ele>359.39999389648</ele>
        <time>2020-10-04T17:32:33.994Z</time>
      </trkpt>
      <trkpt lat="45.84656" lon="4.54742">
        <ele>359.79998779297</ele>
        <time>2020-10-04T17:32:38.925Z</time>
      </trkpt>
      <trkpt lat="45.84654" lon="4.5477">
        <ele>360.60000610352</ele>
        <time>2020-10-04T17:32:43.864Z</time>
      </trkpt>
      <trkpt lat="45.84652" lon="4.54785">
        <ele>361</ele>
        <time>2020-10-04T17:32:48.807Z</time>
      </trkpt>
      <trkpt lat="45.84646" lon="4.5483">
        <ele>361.39999389648</ele>
        <time>2020-10-04T17:32:53.763Z</time>
      </trkpt>
      <trkpt lat="45.84639" lon="4.54874">
        <ele>361.39999389648</ele>
        <time>2020-10-04T17:32:58.731Z</time>
      </trkpt>
      <trkpt lat="45.84631" lon="4.54939">
        <ele>360.20001220703</ele>
        <time>2020-10-04T17:33:03.718Z</time>
      </trkpt>
      <trkpt lat="45.84629" lon="4.54958">
        <ele>359.39999389648</ele>
        <time>2020-10-04T17:33:08.710Z</time>
      </trkpt>
      <trkpt lat="45.84626" lon="4.54987">
        <ele>358.39999389648</ele>
        <time>2020-10-04T17:33:13.710Z</time>
      </trkpt>
      <trkpt lat="45.84623" lon="4.55017">
        <ele>357.60000610352</ele>
        <time>2020-10-04T17:33:18.718Z</time>
      </trkpt>
      <trkpt lat="45.84623" lon="4.55027">
        <ele>357.20001220703</ele>
        <time>2020-10-04T17:33:23.729Z</time>
      </trkpt>
      <trkpt lat="45.8462" lon="4.5507">
        <ele>356.20001220703</ele>
        <time>2020-10-04T17:33:28.752Z</time>
      </trkpt>
      <trkpt lat="45.84618" lon="4.55101">
        <ele>354.79998779297</ele>
        <time>2020-10-04T17:33:33.784Z</time>
      </trkpt>
      <trkpt lat="45.84618" lon="4.55111">
        <ele>354.60000610352</ele>
        <time>2020-10-04T17:33:38.818Z</time>
      </trkpt>
      <trkpt lat="45.84618" lon="4.55142">
        <ele>353.60000610352</ele>
        <time>2020-10-04T17:33:43.861Z</time>
      </trkpt>
      <trkpt lat="45.84619" lon="4.55161">
        <ele>352.79998779297</ele>
        <time>2020-10-04T17:33:48.909Z</time>
      </trkpt>
      <trkpt lat="45.8462" lon="4.5517">
        <ele>352.60000610352</ele>
        <time>2020-10-04T17:33:53.960Z</time>
      </trkpt>
      <trkpt lat="45.84621" lon="4.55177">
        <ele>352.60000610352</ele>
        <time>2020-10-04T17:33:59.013Z</time>
      </trkpt>
      <trkpt lat="45.84621" lon="4.55182">
        <ele>352.20001220703</ele>
        <time>2020-10-04T17:34:04.067Z</time>
      </trkpt>
      <trkpt lat="45.84622" lon="4.55189">
        <ele>351.79998779297</ele>
        <time>2020-10-04T17:34:09.123Z</time>
      </trkpt>
      <trkpt lat="45.84626" lon="4.55211">
        <ele>351.60000610352</ele>
        <time>2020-10-04T17:34:14.186Z</time>
      </trkpt>
      <trkpt lat="45.84627" lon="4.55218">
        <ele>351.39999389648</ele>
        <time>2020-10-04T17:34:19.251Z</time>
      </trkpt>
      <trkpt lat="45.8463" lon="4.55258">
        <ele>351.20001220703</ele>
        <time>2020-10-04T17:34:24.327Z</time>
      </trkpt>
      <trkpt lat="45.84629" lon="4.55276">
        <ele>351</ele>
        <time>2020-10-04T17:34:29.408Z</time>
      </trkpt>
      <trkpt lat="45.84625" lon="4.55303">
        <ele>350.20001220703</ele>
        <time>2020-10-04T17:34:34.496Z</time>
      </trkpt>
      <trkpt lat="45.84618" lon="4.55335">
        <ele>348.79998779297</ele>
        <time>2020-10-04T17:34:39.594Z</time>
      </trkpt>
      <trkpt lat="45.84616" lon="4.55342">
        <ele>348.39999389648</ele>
        <time>2020-10-04T17:34:44.694Z</time>
      </trkpt>
      <trkpt lat="45.84613" lon="4.55357">
        <ele>347.60000610352</ele>
        <time>2020-10-04T17:34:49.798Z</time>
      </trkpt>
      <trkpt lat="45.8461" lon="4.55378">
        <ele>347</ele>
        <time>2020-10-04T17:34:54.908Z</time>
      </trkpt>
      <trkpt lat="45.84609" lon="4.55386">
        <ele>346.79998779297</ele>
        <time>2020-10-04T17:35:00.020Z</time>
      </trkpt>
      <trkpt lat="45.84608" lon="4.55392">
        <ele>346.39999389648</ele>
        <time>2020-10-04T17:35:05.134Z</time>
      </trkpt>
      <trkpt lat="45.84606" lon="4.55406">
        <ele>346</ele>
        <time>2020-10-04T17:35:10.252Z</time>
      </trkpt>
      <trkpt lat="45.84607" lon="4.5542">
        <ele>345.60000610352</ele>
        <time>2020-10-04T17:35:15.374Z</time>
      </trkpt>
      <trkpt lat="45.84607" lon="4.55426">
        <ele>345.20001220703</ele>
        <time>2020-10-04T17:35:20.497Z</time>
      </trkpt>
      <trkpt lat="45.84607" lon="4.55432">
        <ele>344.79998779297</ele>
        <time>2020-10-04T17:35:25.622Z</time>
      </trkpt>
      <trkpt lat="45.84604" lon="4.55456">
        <ele>344.60000610352</ele>
        <time>2020-10-04T17:35:30.754Z</time>
      </trkpt>
      <trkpt lat="45.84604" lon="4.55465">
        <ele>344.39999389648</ele>
        <time>2020-10-04T17:35:35.888Z</time>
      </trkpt>
      <trkpt lat="45.84602" lon="4.55474">
        <ele>344.39999389648</ele>
        <time>2020-10-04T17:35:41.025Z</time>
      </trkpt>
      <trkpt lat="45.846" lon="4.55502">
        <ele>343.79998779297</ele>
        <time>2020-10-04T17:35:46.170Z</time>
      </trkpt>
      <trkpt lat="45.84599" lon="4.55512">
        <ele>343.60000610352</ele>
        <time>2020-10-04T17:35:51.317Z</time>
      </trkpt>
      <trkpt lat="45.846" lon="4.55522">
        <ele>343</ele>
        <time>2020-10-04T17:35:56.467Z</time>
      </trkpt>
      <trkpt lat="45.84601" lon="4.55545">
        <ele>342</ele>
        <time>2020-10-04T17:36:01.624Z</time>
      </trkpt>
      <trkpt lat="45.84603" lon="4.55568">
        <ele>340.60000610352</ele>
        <time>2020-10-04T17:36:06.787Z</time>
      </trkpt>
      <trkpt lat="45.84604" lon="4.55579">
        <ele>340</ele>
        <time>2020-10-04T17:36:11.953Z</time>
      </trkpt>
      <trkpt lat="45.84605" lon="4.55591">
        <ele>339.39999389648</ele>
        <time>2020-10-04T17:36:17.122Z</time>
      </trkpt>
      <trkpt lat="45.84612" lon="4.55628">
        <ele>338.20001220703</ele>
        <time>2020-10-04T17:36:22.302Z</time>
      </trkpt>
      <trkpt lat="45.84614" lon="4.55641">
        <ele>336.79998779297</ele>
        <time>2020-10-04T17:36:27.486Z</time>
      </trkpt>
      <trkpt lat="45.84617" lon="4.55654">
        <ele>335.39999389648</ele>
        <time>2020-10-04T17:36:32.674Z</time>
      </trkpt>
      <trkpt lat="45.8462" lon="4.55681">
        <ele>333.79998779297</ele>
        <time>2020-10-04T17:36:37.869Z</time>
      </trkpt>
      <trkpt lat="45.84623" lon="4.55708">
        <ele>332.39999389648</ele>
        <time>2020-10-04T17:36:43.072Z</time>
      </trkpt>
      <trkpt lat="45.84625" lon="4.55722">
        <ele>331.39999389648</ele>
        <time>2020-10-04T17:36:48.279Z</time>
      </trkpt>
      <trkpt lat="45.84626" lon="4.55735">
        <ele>330.60000610352</ele>
        <time>2020-10-04T17:36:53.489Z</time>
      </trkpt>
      <trkpt lat="45.84627" lon="4.55747">
        <ele>329.39999389648</ele>
        <time>2020-10-04T17:36:58.703Z</time>
      </trkpt>
      <trkpt lat="45.84627" lon="4.55758">
        <ele>328.60000610352</ele>
        <time>2020-10-04T17:37:03.920Z</time>
      </trkpt>
      <trkpt lat="45.84626" lon="4.55768">
        <ele>328</ele>
        <time>2020-10-04T17:37:09.139Z</time>
      </trkpt>
      <trkpt lat="45.84625" lon="4.55782">
        <ele>326.39999389648</ele>
        <time>2020-10-04T17:37:14.362Z</time>
      </trkpt>
      <trkpt lat="45.84623" lon="4.55787">
        <ele>325.20001220703</ele>
        <time>2020-10-04T17:37:19.587Z</time>
      </trkpt>
      <trkpt lat="45.84621" lon="4.55792">
        <ele>323.79998779297</ele>
        <time>2020-10-04T17:37:24.813Z</time>
      </trkpt>
      <trkpt lat="45.84619" lon="4.55796">
        <ele>322.79998779297</ele>
        <time>2020-10-04T17:37:30.041Z</time>
      </trkpt>
      <trkpt lat="45.84612" lon="4.55802">
        <ele>321</ele>
        <time>2020-10-04T17:37:35.272Z</time>
      </trkpt>
      <trkpt lat="45.84596" lon="4.55805">
        <ele>320</ele>
        <time>2020-10-04T17:37:40.510Z</time>
      </trkpt>
      <trkpt lat="45.84585" lon="4.55801">
        <ele>319.60000610352</ele>
        <time>2020-10-04T17:37:45.752Z</time>
      </trkpt>
      <trkpt lat="45.84578" lon="4.55797">
        <ele>319.20001220703</ele>
        <time>2020-10-04T17:37:50.997Z</time>
      </trkpt>
      <trkpt lat="45.84575" lon="4.55795">
        <ele>318.79998779297</ele>
        <time>2020-10-04T17:37:56.243Z</time>
      </trkpt>
      <trkpt lat="45.84572" lon="4.55793">
        <ele>318.60000610352</ele>
        <time>2020-10-04T17:38:01.491Z</time>
      </trkpt>
      <trkpt lat="45.84561" lon="4.55787">
        <ele>318.20001220703</ele>
        <time>2020-10-04T17:38:06.743Z</time>
      </trkpt>
      <trkpt lat="45.84561" lon="4.55787">
        <ele>319</ele>
        <time>2020-10-04T17:38:11.995Z</time>
      </trkpt>
      <trkpt lat="45.8456" lon="4.55787">
        <ele>319</ele>
        <time>2020-10-04T17:38:17.248Z</time>
      </trkpt>
      <trkpt lat="45.84555" lon="4.55799">
        <ele>319</ele>
        <time>2020-10-04T17:38:22.505Z</time>
      </trkpt>
      <trkpt lat="45.84554" lon="4.55803">
        <ele>319</ele>
        <time>2020-10-04T17:38:27.763Z</time>
      </trkpt>
      <trkpt lat="45.8455" lon="4.5582">
        <ele>319</ele>
        <time>2020-10-04T17:38:33.026Z</time>
      </trkpt>
      <trkpt lat="45.84546" lon="4.55834">
        <ele>318</ele>
        <time>2020-10-04T17:38:38.293Z</time>
      </trkpt>
      <trkpt lat="45.84545" lon="4.5584">
        <ele>317</ele>
        <time>2020-10-04T17:38:43.562Z</time>
      </trkpt>
      <trkpt lat="45.84544" lon="4.55842">
        <ele>316.20001220703</ele>
        <time>2020-10-04T17:38:48.831Z</time>
      </trkpt>
      <trkpt lat="45.84544" lon="4.55845">
        <ele>315.79998779297</ele>
        <time>2020-10-04T17:38:54.101Z</time>
      </trkpt>
      <trkpt lat="45.84543" lon="4.55854">
        <ele>314.20001220703</ele>
        <time>2020-10-04T17:38:59.374Z</time>
      </trkpt>
      <trkpt lat="45.84542" lon="4.55859">
        <ele>313.39999389648</ele>
        <time>2020-10-04T17:39:04.648Z</time>
      </trkpt>
      <trkpt lat="45.84542" lon="4.55861">
        <ele>313</ele>
        <time>2020-10-04T17:39:09.923Z</time>
      </trkpt>
      <trkpt lat="45.8454" lon="4.55863">
        <ele>311.60000610352</ele>
        <time>2020-10-04T17:39:15.199Z</time>
      </trkpt>
      <trkpt lat="45.84539" lon="4.55864">
        <ele>310.60000610352</ele>
        <time>2020-10-04T17:39:20.475Z</time>
      </trkpt>
      <trkpt lat="45.84537" lon="4.55865">
        <ele>309.39999389648</ele>
        <time>2020-10-04T17:39:25.752Z</time>
      </trkpt>
      <trkpt lat="45.84536" lon="4.55865">
        <ele>308.20001220703</ele>
        <time>2020-10-04T17:39:31.029Z</time>
      </trkpt>
      <trkpt lat="45.84534" lon="4.55866">
        <ele>306.79998779297</ele>
        <time>2020-10-04T17:39:36.307Z</time>
      </trkpt>
      <trkpt lat="45.84526" lon="4.55867">
        <ele>305.79998779297</ele>
        <time>2020-10-04T17:39:41.589Z</time>
      </trkpt>
      <trkpt lat="45.84519" lon="4.55866">
        <ele>304.60000610352</ele>
        <time>2020-10-04T17:39:46.873Z</time>
      </trkpt>
      <trkpt lat="45.84516" lon="4.55865">
        <ele>303.60000610352</ele>
        <time>2020-10-04T17:39:52.158Z</time>
      </trkpt>
      <trkpt lat="45.84514" lon="4.55865">
        <ele>303</ele>
        <time>2020-10-04T17:39:57.444Z</time>
      </trkpt>
      <trkpt lat="45.8451" lon="4.55864">
        <ele>301.79998779297</ele>
        <time>2020-10-04T17:40:02.732Z</time>
      </trkpt>
      <trkpt lat="45.84505" lon="4.55863">
        <ele>300.79998779297</ele>
        <time>2020-10-04T17:40:08.022Z</time>
      </trkpt>
      <trkpt lat="45.84504" lon="4.55862">
        <ele>300.20001220703</ele>
        <time>2020-10-04T17:40:13.312Z</time>
      </trkpt>
      <trkpt lat="45.84502" lon="4.55861">
        <ele>299.39999389648</ele>
        <time>2020-10-04T17:40:18.603Z</time>
      </trkpt>
      <trkpt lat="45.84499" lon="4.55859">
        <ele>298.39999389648</ele>
        <time>2020-10-04T17:40:23.895Z</time>
      </trkpt>
      <trkpt lat="45.84495" lon="4.55858">
        <ele>297.60000610352</ele>
        <time>2020-10-04T17:40:29.189Z</time>
      </trkpt>
      <trkpt lat="45.84495" lon="4.55858">
        <ele>297.39999389648</ele>
        <time>2020-10-04T17:40:34.483Z</time>
      </trkpt>
      <trkpt lat="45.8449" lon="4.55854">
        <ele>296</ele>
        <time>2020-10-04T17:40:39.779Z</time>
      </trkpt>
      <trkpt lat="45.84487" lon="4.55853">
        <ele>295</ele>
        <time>2020-10-04T17:40:45.077Z</time>
      </trkpt>
      <trkpt lat="45.84486" lon="4.55853">
        <ele>294.79998779297</ele>
        <time>2020-10-04T17:40:50.375Z</time>
      </trkpt>
      <trkpt lat="45.84481" lon="4.55854">
        <ele>294</ele>
        <time>2020-10-04T17:40:55.675Z</time>
      </trkpt>
      <trkpt lat="45.8448" lon="4.55855">
        <ele>293.79998779297</ele>
        <time>2020-10-04T17:41:00.975Z</time>
      </trkpt>
      <trkpt lat="45.84479" lon="4.55856">
        <ele>293.79998779297</ele>
        <time>2020-10-04T17:41:06.276Z</time>
      </trkpt>
      <trkpt lat="45.84478" lon="4.5586">
        <ele>292.39999389648</ele>
        <time>2020-10-04T17:41:11.578Z</time>
      </trkpt>
      <trkpt lat="45.84478" lon="4.55861">
        <ele>292</ele>
        <time>2020-10-04T17:41:16.880Z</time>
      </trkpt>
      <trkpt lat="45.84477" lon="4.55863">
        <ele>291.20001220703</ele>
        <time>2020-10-04T17:41:22.183Z</time>
      </trkpt>
      <trkpt lat="45.84478" lon="4.55867">
        <ele>290</ele>
        <time>2020-10-04T17:41:27.487Z</time>
      </trkpt>
      <trkpt lat="45.84479" lon="4.55869">
        <ele>289.79998779297</ele>
        <time>2020-10-04T17:41:32.792Z</time>
      </trkpt>
      <trkpt lat="45.84482" lon="4.55875">
        <ele>289.39999389648</ele>
        <time>2020-10-04T17:41:38.099Z</time>
      </trkpt>
      <trkpt lat="45.84484" lon="4.55878">
        <ele>289.20001220703</ele>
        <time>2020-10-04T17:41:43.407Z</time>
      </trkpt>
      <trkpt lat="45.84486" lon="4.55881">
        <ele>289</ele>
        <time>2020-10-04T17:41:48.716Z</time>
      </trkpt>
      <trkpt lat="45.84488" lon="4.55884">
        <ele>288.79998779297</ele>
        <time>2020-10-04T17:41:54.026Z</time>
      </trkpt>
      <trkpt lat="45.84492" lon="4.5589">
        <ele>287.79998779297</ele>
        <time>2020-10-04T17:41:59.338Z</time>
      </trkpt>
      <trkpt lat="45.84494" lon="4.55893">
        <ele>287.39999389648</ele>
        <time>2020-10-04T17:42:04.652Z</time>
      </trkpt>
      <trkpt lat="45.84499" lon="4.55901">
        <ele>286</ele>
        <time>2020-10-04T17:42:09.969Z</time>
      </trkpt>
      <trkpt lat="45.84504" lon="4.55909">
        <ele>284.60000610352</ele>
        <time>2020-10-04T17:42:15.289Z</time>
      </trkpt>
      <trkpt lat="45.84506" lon="4.55912">
        <ele>283.79998779297</ele>
        <time>2020-10-04T17:42:20.610Z</time>
      </trkpt>
      <trkpt lat="45.84509" lon="4.55915">
        <ele>283</ele>
        <time>2020-10-04T17:42:25.932Z</time>
      </trkpt>
      <trkpt lat="45.84514" lon="4.5592">
        <ele>281.79998779297</ele>
        <time>2020-10-04T17:42:31.257Z</time>
      </trkpt>
      <trkpt lat="45.8452" lon="4.55926">
        <ele>280.39999389648</ele>
        <time>2020-10-04T17:42:36.585Z</time>
      </trkpt>
      <trkpt lat="45.84524" lon="4.5593">
        <ele>279.39999389648</ele>
        <time>2020-10-04T17:42:41.915Z</time>
      </trkpt>
      <trkpt lat="45.84527" lon="4.55935">
        <ele>278.39999389648</ele>
        <time>2020-10-04T17:42:47.246Z</time>
      </trkpt>
      <trkpt lat="45.84529" lon="4.55937">
        <ele>277.39999389648</ele>
        <time>2020-10-04T17:42:52.578Z</time>
      </trkpt>
      <trkpt lat="45.84531" lon="4.55938">
        <ele>276.20001220703</ele>
        <time>2020-10-04T17:42:57.911Z</time>
      </trkpt>
      <trkpt lat="45.84531" lon="4.55938">
        <ele>275.39999389648</ele>
        <time>2020-10-04T17:43:03.244Z</time>
      </trkpt>
      <trkpt lat="45.84531" lon="4.55938">
        <ele>275</ele>
        <time>2020-10-04T17:43:08.577Z</time>
      </trkpt>
      <trkpt lat="45.84534" lon="4.55943">
        <ele>274.79998779297</ele>
        <time>2020-10-04T17:43:13.912Z</time>
      </trkpt>
      <trkpt lat="45.84542" lon="4.55952">
        <ele>274.79998779297</ele>
        <time>2020-10-04T17:43:19.251Z</time>
      </trkpt>
      <trkpt lat="45.84549" lon="4.55959">
        <ele>274.20001220703</ele>
        <time>2020-10-04T17:43:24.593Z</time>
      </trkpt>
      <trkpt lat="45.84551" lon="4.55963">
        <ele>274</ele>
        <time>2020-10-04T17:43:29.937Z</time>
      </trkpt>
      <trkpt lat="45.8455" lon="4.55976">
        <ele>273.79998779297</ele>
        <time>2020-10-04T17:43:35.284Z</time>
      </trkpt>
      <trkpt lat="45.84549" lon="4.55981">
        <ele>273.60000610352</ele>
        <time>2020-10-04T17:43:40.633Z</time>
      </trkpt>
      <trkpt lat="45.84548" lon="4.55987">
        <ele>273.60000610352</ele>
        <time>2020-10-04T17:43:45.983Z</time>
      </trkpt>
      <trkpt lat="45.84546" lon="4.56007">
        <ele>272.39999389648</ele>
        <time>2020-10-04T17:43:51.339Z</time>
      </trkpt>
      <trkpt lat="45.84552" lon="4.56032">
        <ele>271.39999389648</ele>
        <time>2020-10-04T17:43:56.702Z</time>
      </trkpt>
      <trkpt lat="45.84561" lon="4.56049">
        <ele>271.39999389648</ele>
        <time>2020-10-04T17:44:02.072Z</time>
      </trkpt>
      <trkpt lat="45.84564" lon="4.56052">
        <ele>271.20001220703</ele>
        <time>2020-10-04T17:44:07.443Z</time>
      </trkpt>
      <trkpt lat="45.8458" lon="4.56063">
        <ele>270.79998779297</ele>
        <time>2020-10-04T17:44:12.821Z</time>
      </trkpt>
      <trkpt lat="45.84588" lon="4.56079">
        <ele>270.79998779297</ele>
        <time>2020-10-04T17:44:18.204Z</time>
      </trkpt>
      <trkpt lat="45.84596" lon="4.56097">
        <ele>270.79998779297</ele>
        <time>2020-10-04T17:44:23.593Z</time>
      </trkpt>
      <trkpt lat="45.846" lon="4.56112">
        <ele>270.60000610352</ele>
        <time>2020-10-04T17:44:28.987Z</time>
      </trkpt>
      <trkpt lat="45.84604" lon="4.56128">
        <ele>270</ele>
        <time>2020-10-04T17:44:34.385Z</time>
      </trkpt>
      <trkpt lat="45.84605" lon="4.56135">
        <ele>269.79998779297</ele>
        <time>2020-10-04T17:44:39.785Z</time>
      </trkpt>
      <trkpt lat="45.84605" lon="4.56147">
        <ele>269.39999389648</ele>
        <time>2020-10-04T17:44:45.189Z</time>
      </trkpt>
      <trkpt lat="45.84601" lon="4.56161">
        <ele>268.20001220703</ele>
        <time>2020-10-04T17:44:50.597Z</time>
      </trkpt>
      <trkpt lat="45.84599" lon="4.56165">
        <ele>267.60000610352</ele>
        <time>2020-10-04T17:44:56.006Z</time>
      </trkpt>
      <trkpt lat="45.84597" lon="4.56169">
        <ele>266.79998779297</ele>
        <time>2020-10-04T17:45:01.416Z</time>
      </trkpt>
      <trkpt lat="45.84592" lon="4.56176">
        <ele>265.39999389648</ele>
        <time>2020-10-04T17:45:06.829Z</time>
      </trkpt>
      <trkpt lat="45.84588" lon="4.56183">
        <ele>264.39999389648</ele>
        <time>2020-10-04T17:45:12.245Z</time>
      </trkpt>
      <trkpt lat="45.84588" lon="4.56188">
        <ele>263.79998779297</ele>
        <time>2020-10-04T17:45:17.662Z</time>
      </trkpt>
      <trkpt lat="45.84588" lon="4.56192">
        <ele>263.20001220703</ele>
        <time>2020-10-04T17:45:23.080Z</time>
      </trkpt>
      <trkpt lat="45.8459" lon="4.56199">
        <ele>261.79998779297</ele>
        <time>2020-10-04T17:45:28.500Z</time>
      </trkpt>
      <trkpt lat="45.84593" lon="4.56203">
        <ele>260.20001220703</ele>
        <time>2020-10-04T17:45:33.922Z</time>
      </trkpt>
      <trkpt lat="45.84596" lon="4.56206">
        <ele>258.79998779297</ele>
        <time>2020-10-04T17:45:39.346Z</time>
      </trkpt>
      <trkpt lat="45.84598" lon="4.56208">
        <ele>258.20001220703</ele>
        <time>2020-10-04T17:45:44.770Z</time>
      </trkpt>
      <trkpt lat="45.84599" lon="4.56209">
        <ele>257.39999389648</ele>
        <time>2020-10-04T17:45:50.195Z</time>
      </trkpt>
      <trkpt lat="45.84605" lon="4.56215">
        <ele>256.39999389648</ele>
        <time>2020-10-04T17:45:55.623Z</time>
      </trkpt>
      <trkpt lat="45.84608" lon="4.5622">
        <ele>256</ele>
        <time>2020-10-04T17:46:01.053Z</time>
      </trkpt>
      <trkpt lat="45.84622" lon="4.56233">
        <ele>255.39999389648</ele>
        <time>2020-10-04T17:46:06.489Z</time>
      </trkpt>
      <trkpt lat="45.84629" lon="4.56237">
        <ele>255.19999694824</ele>
        <time>2020-10-04T17:46:11.928Z</time>
      </trkpt>
      <trkpt lat="45.84638" lon="4.56236">
        <ele>254.80000305176</ele>
        <time>2020-10-04T17:46:17.371Z</time>
      </trkpt>
      <trkpt lat="45.84651" lon="4.56235">
        <ele>254.80000305176</ele>
        <time>2020-10-04T17:46:22.819Z</time>
      </trkpt>
      <trkpt lat="45.84653" lon="4.56235">
        <ele>254.80000305176</ele>
        <time>2020-10-04T17:46:28.268Z</time>
      </trkpt>
      <trkpt lat="45.8466" lon="4.5624">
        <ele>255.19999694824</ele>
        <time>2020-10-04T17:46:33.720Z</time>
      </trkpt>
      <trkpt lat="45.84669" lon="4.56251">
        <ele>256.20001220703</ele>
        <time>2020-10-04T17:46:39.176Z</time>
      </trkpt>
      <trkpt lat="45.84671" lon="4.56255">
        <ele>256.39999389648</ele>
        <time>2020-10-04T17:46:44.634Z</time>
      </trkpt>
      <trkpt lat="45.84673" lon="4.56274">
        <ele>257</ele>
        <time>2020-10-04T17:46:50.097Z</time>
      </trkpt>
      <trkpt lat="45.84678" lon="4.56301">
        <ele>257</ele>
        <time>2020-10-04T17:46:55.568Z</time>
      </trkpt>
      <trkpt lat="45.84682" lon="4.5631">
        <ele>257.20001220703</ele>
        <time>2020-10-04T17:47:01.042Z</time>
      </trkpt>
      <trkpt lat="45.8469" lon="4.56321">
        <ele>257.39999389648</ele>
        <time>2020-10-04T17:47:06.520Z</time>
      </trkpt>
      <trkpt lat="45.84699" lon="4.5633">
        <ele>257.60000610352</ele>
        <time>2020-10-04T17:47:12.002Z</time>
      </trkpt>
      <trkpt lat="45.84713" lon="4.56337">
        <ele>258.20001220703</ele>
        <time>2020-10-04T17:47:17.490Z</time>
      </trkpt>
      <trkpt lat="45.84714" lon="4.56339">
        <ele>258.39999389648</ele>
        <time>2020-10-04T17:47:22.979Z</time>
      </trkpt>
      <trkpt lat="45.84726" lon="4.56347">
        <ele>259.39999389648</ele>
        <time>2020-10-04T17:47:28.473Z</time>
      </trkpt>
      <trkpt lat="45.8473" lon="4.5635">
        <ele>260</ele>
        <time>2020-10-04T17:47:33.969Z</time>
      </trkpt>
      <trkpt lat="45.84733" lon="4.56354">
        <ele>260.60000610352</ele>
        <time>2020-10-04T17:47:39.467Z</time>
      </trkpt>
      <trkpt lat="45.84738" lon="4.56361">
        <ele>261.60000610352</ele>
        <time>2020-10-04T17:47:44.968Z</time>
      </trkpt>
      <trkpt lat="45.84739" lon="4.56363">
        <ele>261.79998779297</ele>
        <time>2020-10-04T17:47:50.469Z</time>
      </trkpt>
      <trkpt lat="45.84741" lon="4.56365">
        <ele>261.79998779297</ele>
        <time>2020-10-04T17:47:55.971Z</time>
      </trkpt>
      <trkpt lat="45.84751" lon="4.56379">
        <ele>262.60000610352</ele>
        <time>2020-10-04T17:48:01.479Z</time>
      </trkpt>
      <trkpt lat="45.84765" lon="4.56401">
        <ele>263.39999389648</ele>
        <time>2020-10-04T17:48:06.995Z</time>
      </trkpt>
      <trkpt lat="45.84767" lon="4.56405">
        <ele>263.79998779297</ele>
        <time>2020-10-04T17:48:12.512Z</time>
      </trkpt>
      <trkpt lat="45.84774" lon="4.56419">
        <ele>264.20001220703</ele>
        <time>2020-10-04T17:48:18.034Z</time>
      </trkpt>
      <trkpt lat="45.84779" lon="4.5643">
        <ele>265</ele>
        <time>2020-10-04T17:48:23.560Z</time>
      </trkpt>
      <trkpt lat="45.84781" lon="4.5643">
        <ele>265.20001220703</ele>
        <time>2020-10-04T17:48:29.086Z</time>
      </trkpt>
      <trkpt lat="45.84782" lon="4.56423">
        <ele>265.60000610352</ele>
        <time>2020-10-04T17:48:34.614Z</time>
      </trkpt>
      <trkpt lat="45.8478" lon="4.56416">
        <ele>265.79998779297</ele>
        <time>2020-10-04T17:48:40.144Z</time>
      </trkpt>
      <trkpt lat="45.84779" lon="4.56413">
        <ele>266.20001220703</ele>
        <time>2020-10-04T17:48:45.675Z</time>
      </trkpt>
      <trkpt lat="45.84773" lon="4.56397">
        <ele>266.60000610352</ele>
        <time>2020-10-04T17:48:51.212Z</time>
      </trkpt>
      <trkpt lat="45.84765" lon="4.56377">
        <ele>266.60000610352</ele>
        <time>2020-10-04T17:48:56.755Z</time>
      </trkpt>
      <trkpt lat="45.84755" lon="4.56356">
        <ele>267</ele>
        <time>2020-10-04T17:49:02.305Z</time>
      </trkpt>
      <trkpt lat="45.84752" lon="4.56351">
        <ele>267.20001220703</ele>
        <time>2020-10-04T17:49:07.857Z</time>
      </trkpt>
      <trkpt lat="45.8474" lon="4.56334">
        <ele>267.79998779297</ele>
        <time>2020-10-04T17:49:13.415Z</time>
      </trkpt>
      <trkpt lat="45.84737" lon="4.5632">
        <ele>268</ele>
        <time>2020-10-04T17:49:18.977Z</time>
      </trkpt>
      <trkpt lat="45.84738" lon="4.56305">
        <ele>268.60000610352</ele>
        <time>2020-10-04T17:49:24.544Z</time>
      </trkpt>
      <trkpt lat="45.84741" lon="4.56294">
        <ele>269.20001220703</ele>
        <time>2020-10-04T17:49:30.114Z</time>
      </trkpt>
      <trkpt lat="45.84742" lon="4.5629">
        <ele>270</ele>
        <time>2020-10-04T17:49:35.685Z</time>
      </trkpt>
      <trkpt lat="45.84744" lon="4.56284">
        <ele>270.60000610352</ele>
        <time>2020-10-04T17:49:41.258Z</time>
      </trkpt>
      <trkpt lat="45.84746" lon="4.56278">
        <ele>270.79998779297</ele>
        <time>2020-10-04T17:49:46.833Z</time>
      </trkpt>
      <trkpt lat="45.84747" lon="4.56277">
        <ele>271</ele>
        <time>2020-10-04T17:49:52.408Z</time>
      </trkpt>
      <trkpt lat="45.84755" lon="4.56273">
        <ele>271.60000610352</ele>
        <time>2020-10-04T17:49:57.986Z</time>
      </trkpt>
      <trkpt lat="45.84756" lon="4.56273">
        <ele>271.79998779297</ele>
        <time>2020-10-04T17:50:03.565Z</time>
      </trkpt>
      <trkpt lat="45.84766" lon="4.56274">
        <ele>272.79998779297</ele>
        <time>2020-10-04T17:50:09.148Z</time>
      </trkpt>
      <trkpt lat="45.84775" lon="4.56275">
        <ele>273.79998779297</ele>
        <time>2020-10-04T17:50:14.734Z</time>
      </trkpt>
      <trkpt lat="45.84781" lon="4.56278">
        <ele>274.60000610352</ele>
        <time>2020-10-04T17:50:20.323Z</time>
      </trkpt>
      <trkpt lat="45.84786" lon="4.5628">
        <ele>275</ele>
        <time>2020-10-04T17:50:25.914Z</time>
      </trkpt>
      <trkpt lat="45.84792" lon="4.56283">
        <ele>275.60000610352</ele>
        <time>2020-10-04T17:50:31.508Z</time>
      </trkpt>
      <trkpt lat="45.84801" lon="4.56284">
        <ele>276</ele>
        <time>2020-10-04T17:50:37.105Z</time>
      </trkpt>
      <trkpt lat="45.84802" lon="4.56284">
        <ele>276</ele>
        <time>2020-10-04T17:50:42.703Z</time>
      </trkpt>
      <trkpt lat="45.84808" lon="4.56283">
        <ele>277</ele>
        <time>2020-10-04T17:50:48.303Z</time>
      </trkpt>
      <trkpt lat="45.84811" lon="4.56283">
        <ele>277.60000610352</ele>
        <time>2020-10-04T17:50:53.904Z</time>
      </trkpt>
      <trkpt lat="45.84815" lon="4.56282">
        <ele>278</ele>
        <time>2020-10-04T17:50:59.507Z</time>
      </trkpt>
      <trkpt lat="45.84823" lon="4.56279">
        <ele>279</ele>
        <time>2020-10-04T17:51:05.113Z</time>
      </trkpt>
      <trkpt lat="45.84832" lon="4.56273">
        <ele>280</ele>
        <time>2020-10-04T17:51:10.723Z</time>
      </trkpt>
      <trkpt lat="45.84834" lon="4.56272">
        <ele>280.20001220703</ele>
        <time>2020-10-04T17:51:16.334Z</time>
      </trkpt>
      <trkpt lat="45.84841" lon="4.56266">
        <ele>281.39999389648</ele>
        <time>2020-10-04T17:51:21.948Z</time>
      </trkpt>
      <trkpt lat="45.84844" lon="4.56264">
        <ele>282</ele>
        <time>2020-10-04T17:51:27.563Z</time>
      </trkpt>
      <trkpt lat="45.84848" lon="4.56261">
        <ele>282.60000610352</ele>
        <time>2020-10-04T17:51:33.180Z</time>
      </trkpt>
      <trkpt lat="45.84852" lon="4.56257">
        <ele>283.60000610352</ele>
        <time>2020-10-04T17:51:38.799Z</time>
      </trkpt>
      <trkpt lat="45.84855" lon="4.56254">
        <ele>284.20001220703</ele>
        <time>2020-10-04T17:51:44.420Z</time>
      </trkpt>
      <trkpt lat="45.84858" lon="4.5625">
        <ele>284.79998779297</ele>
        <time>2020-10-04T17:51:50.042Z</time>
      </trkpt>
      <trkpt lat="45.84865" lon="4.56246">
        <ele>286</ele>
        <time>2020-10-04T17:51:55.667Z</time>
      </trkpt>
      <trkpt lat="45.84869" lon="4.56244">
        <ele>286.79998779297</ele>
        <time>2020-10-04T17:52:01.294Z</time>
        <extensions>
          <visugpx:TrkExtension xmlns:visugpx="https://www.visugpx.com/editgpx/">
            <visugpx:node>1</visugpx:node>
            </visugpx:TrkExtension>
        </extensions>
      </trkpt>
      <trkpt lat="45.84871" lon="4.56251">
        <ele>296.1</ele>
      </trkpt>
      <trkpt lat="45.84886" lon="4.56238">
        <ele>299.6</ele>
      </trkpt>
      <trkpt lat="45.84895" lon="4.56234">
        <ele>300.4</ele>
      </trkpt>
      <trkpt lat="45.84897" lon="4.56235">
        <ele>300.6</ele>
        <extensions>
          <visugpx:TrkExtension xmlns:visugpx="https://www.visugpx.com/editgpx/">
            <visugpx:node>2</visugpx:node>
            </visugpx:TrkExtension>
        </extensions>
      </trkpt>
      <trkpt lat="45.84898" lon="4.56236">
        <ele>300.8</ele>
      </trkpt>
      <trkpt lat="45.849" lon="4.56238">
        <ele>301</ele>
      </trkpt>
      <trkpt lat="45.84907" lon="4.56239">
        <ele>301.7</ele>
      </trkpt>
      <trkpt lat="45.84925" lon="4.56219">
        <ele>308.1</ele>
      </trkpt>
      <trkpt lat="45.84938" lon="4.56213">
        <ele>308.9</ele>
        <extensions>
          <visugpx:TrkExtension xmlns:visugpx="https://www.visugpx.com/editgpx/">
            <visugpx:node>3</visugpx:node>
            </visugpx:TrkExtension>
        </extensions>
      </trkpt>
      <trkpt lat="45.84944" lon="4.56211">
        <ele>303</ele>
        <time>2020-10-04T17:55:19.320Z</time>
      </trkpt>
      <trkpt lat="45.84948" lon="4.56209">
        <ele>304</ele>
        <time>2020-10-04T17:55:25.018Z</time>
      </trkpt>
      <trkpt lat="45.8495" lon="4.56209">
        <ele>304.39999389648</ele>
        <time>2020-10-04T17:55:30.716Z</time>
      </trkpt>
      <trkpt lat="45.84954" lon="4.56209">
        <ele>305.20001220703</ele>
        <time>2020-10-04T17:55:36.416Z</time>
      </trkpt>
      <trkpt lat="45.84957" lon="4.56209">
        <ele>305.60000610352</ele>
        <time>2020-10-04T17:55:42.117Z</time>
      </trkpt>
      <trkpt lat="45.84963" lon="4.56207">
        <ele>306.60000610352</ele>
        <time>2020-10-04T17:55:47.821Z</time>
      </trkpt>
      <trkpt lat="45.84969" lon="4.56207">
        <ele>307.79998779297</ele>
        <time>2020-10-04T17:55:53.527Z</time>
      </trkpt>
      <trkpt lat="45.84974" lon="4.56207">
        <ele>309</ele>
        <time>2020-10-04T17:55:59.235Z</time>
      </trkpt>
      <trkpt lat="45.84975" lon="4.56206">
        <ele>309.60000610352</ele>
        <time>2020-10-04T17:56:04.943Z</time>
      </trkpt>
      <trkpt lat="45.84975" lon="4.56206">
        <ele>310.20001220703</ele>
        <time>2020-10-04T17:56:10.651Z</time>
      </trkpt>
      <trkpt lat="45.84977" lon="4.56206">
        <ele>311.39999389648</ele>
        <time>2020-10-04T17:56:16.360Z</time>
      </trkpt>
      <trkpt lat="45.8498" lon="4.56205">
        <ele>311.60000610352</ele>
        <time>2020-10-04T17:56:22.070Z</time>
      </trkpt>
      <trkpt lat="45.84992" lon="4.56201">
        <ele>312</ele>
        <time>2020-10-04T17:56:27.785Z</time>
      </trkpt>
      <trkpt lat="45.85004" lon="4.56198">
        <ele>312.39999389648</ele>
        <time>2020-10-04T17:56:33.505Z</time>
      </trkpt>
      <trkpt lat="45.85015" lon="4.56195">
        <ele>312.79998779297</ele>
        <time>2020-10-04T17:56:39.230Z</time>
      </trkpt>
      <trkpt lat="45.8503" lon="4.56191">
        <ele>313.60000610352</ele>
        <time>2020-10-04T17:56:44.961Z</time>
      </trkpt>
      <trkpt lat="45.85042" lon="4.56187">
        <ele>314.60000610352</ele>
        <time>2020-10-04T17:56:50.697Z</time>
      </trkpt>
      <trkpt lat="45.85055" lon="4.56184">
        <ele>315.20001220703</ele>
        <time>2020-10-04T17:56:56.438Z</time>
      </trkpt>
      <trkpt lat="45.85065" lon="4.56182">
        <ele>315.79998779297</ele>
        <time>2020-10-04T17:57:02.183Z</time>
      </trkpt>
      <trkpt lat="45.85073" lon="4.5618">
        <ele>316.20001220703</ele>
        <time>2020-10-04T17:57:07.931Z</time>
      </trkpt>
      <trkpt lat="45.8508" lon="4.56179">
        <ele>317</ele>
        <time>2020-10-04T17:57:13.682Z</time>
      </trkpt>
      <trkpt lat="45.85093" lon="4.56178">
        <ele>317.39999389648</ele>
        <time>2020-10-04T17:57:19.438Z</time>
      </trkpt>
      <trkpt lat="45.85115" lon="4.5618">
        <ele>318</ele>
        <time>2020-10-04T17:57:25.203Z</time>
      </trkpt>
      <trkpt lat="45.85134" lon="4.56182">
        <ele>318.60000610352</ele>
        <time>2020-10-04T17:57:30.975Z</time>
      </trkpt>
      <trkpt lat="45.85151" lon="4.56185">
        <ele>319</ele>
        <time>2020-10-04T17:57:36.754Z</time>
      </trkpt>
      <trkpt lat="45.85167" lon="4.56187">
        <ele>319.79998779297</ele>
        <time>2020-10-04T17:57:42.539Z</time>
      </trkpt>
      <trkpt lat="45.85175" lon="4.56189">
        <ele>320</ele>
        <time>2020-10-04T17:57:48.328Z</time>
      </trkpt>
      <trkpt lat="45.85179" lon="4.56191">
        <ele>320.20001220703</ele>
        <time>2020-10-04T17:57:54.118Z</time>
      </trkpt>
      <trkpt lat="45.85184" lon="4.56191">
        <ele>320.79998779297</ele>
        <time>2020-10-04T17:57:59.910Z</time>
      </trkpt>
      <trkpt lat="45.85184" lon="4.56191">
        <ele>321.20001220703</ele>
        <time>2020-10-04T17:58:05.702Z</time>
      </trkpt>
      <trkpt lat="45.85184" lon="4.56191">
        <ele>322.20001220703</ele>
        <time>2020-10-04T17:58:11.494Z</time>
      </trkpt>
      <trkpt lat="45.85184" lon="4.56191">
        <ele>322.39999389648</ele>
        <time>2020-10-04T17:58:17.286Z</time>
      </trkpt>
      <trkpt lat="45.85184" lon="4.56191">
        <ele>322.39999389648</ele>
        <time>2020-10-04T17:58:23.078Z</time>
      </trkpt>
      <trkpt lat="45.85184" lon="4.56191">
        <ele>322.20001220703</ele>
        <time>2020-10-04T17:58:28.871Z</time>
      </trkpt>
      <trkpt lat="45.85186" lon="4.56189">
        <ele>322.20001220703</ele>
        <time>2020-10-04T17:58:34.664Z</time>
      </trkpt>
      <trkpt lat="45.85186" lon="4.56183">
        <ele>322.20001220703</ele>
        <time>2020-10-04T17:58:40.459Z</time>
      </trkpt>
      <trkpt lat="45.85189" lon="4.56153">
        <ele>322</ele>
        <time>2020-10-04T17:58:46.262Z</time>
      </trkpt>
      <trkpt lat="45.85192" lon="4.56112">
        <ele>320.60000610352</ele>
        <time>2020-10-04T17:58:52.077Z</time>
      </trkpt>
      <trkpt lat="45.85193" lon="4.56105">
        <ele>319.79998779297</ele>
        <time>2020-10-04T17:58:57.894Z</time>
      </trkpt>
      <trkpt lat="45.85193" lon="4.56097">
        <ele>319.20001220703</ele>
        <time>2020-10-04T17:59:03.713Z</time>
      </trkpt>
      <trkpt lat="45.85194" lon="4.56081">
        <ele>318</ele>
        <time>2020-10-04T17:59:09.537Z</time>
      </trkpt>
      <trkpt lat="45.85195" lon="4.56067">
        <ele>316.60000610352</ele>
        <time>2020-10-04T17:59:15.364Z</time>
      </trkpt>
      <trkpt lat="45.85195" lon="4.56061">
        <ele>315.79998779297</ele>
        <time>2020-10-04T17:59:21.193Z</time>
      </trkpt>
      <trkpt lat="45.85196" lon="4.56056">
        <ele>314.60000610352</ele>
        <time>2020-10-04T17:59:27.023Z</time>
      </trkpt>
      <trkpt lat="45.85197" lon="4.56048">
        <ele>313</ele>
        <time>2020-10-04T17:59:32.856Z</time>
      </trkpt>
      <trkpt lat="45.85198" lon="4.5604">
        <ele>312.60000610352</ele>
        <time>2020-10-04T17:59:38.691Z</time>
      </trkpt>
      <trkpt lat="45.85198" lon="4.56014">
        <ele>312.39999389648</ele>
        <time>2020-10-04T17:59:44.533Z</time>
      </trkpt>
      <trkpt lat="45.85202" lon="4.55994">
        <ele>314</ele>
        <time>2020-10-04T17:59:50.381Z</time>
      </trkpt>
      <trkpt lat="45.85203" lon="4.5599">
        <ele>314.39999389648</ele>
        <time>2020-10-04T17:59:56.230Z</time>
      </trkpt>
      <trkpt lat="45.85205" lon="4.5598">
        <ele>315.39999389648</ele>
        <time>2020-10-04T18:00:02.082Z</time>
      </trkpt>
      <trkpt lat="45.85209" lon="4.55965">
        <ele>316.60000610352</ele>
        <time>2020-10-04T18:00:07.939Z</time>
      </trkpt>
      <trkpt lat="45.85212" lon="4.55954">
        <ele>317</ele>
        <time>2020-10-04T18:00:13.799Z</time>
      </trkpt>
      <trkpt lat="45.85227" lon="4.55922">
        <ele>317.20001220703</ele>
        <time>2020-10-04T18:00:19.669Z</time>
      </trkpt>
      <trkpt lat="45.85246" lon="4.55891">
        <ele>317.20001220703</ele>
        <time>2020-10-04T18:00:25.551Z</time>
      </trkpt>
      <trkpt lat="45.85261" lon="4.55866">
        <ele>317</ele>
        <time>2020-10-04T18:00:31.442Z</time>
      </trkpt>
      <trkpt lat="45.85276" lon="4.55844">
        <ele>316.60000610352</ele>
        <time>2020-10-04T18:00:37.341Z</time>
      </trkpt>
      <trkpt lat="45.85291" lon="4.5582">
        <ele>315.39999389648</ele>
        <time>2020-10-04T18:00:43.250Z</time>
      </trkpt>
      <trkpt lat="45.85294" lon="4.55815">
        <ele>315</ele>
        <time>2020-10-04T18:00:49.160Z</time>
      </trkpt>
      <trkpt lat="45.85303" lon="4.55799">
        <ele>314.39999389648</ele>
        <time>2020-10-04T18:00:55.076Z</time>
      </trkpt>
      <trkpt lat="45.85307" lon="4.55792">
        <ele>314.20001220703</ele>
        <time>2020-10-04T18:01:00.994Z</time>
      </trkpt>
      <trkpt lat="45.85316" lon="4.55772">
        <ele>313.60000610352</ele>
        <time>2020-10-04T18:01:06.919Z</time>
      </trkpt>
      <trkpt lat="45.85319" lon="4.55768">
        <ele>313.60000610352</ele>
        <time>2020-10-04T18:01:12.846Z</time>
      </trkpt>
      <trkpt lat="45.85326" lon="4.55762">
        <ele>313.20001220703</ele>
        <time>2020-10-04T18:01:18.776Z</time>
      </trkpt>
      <trkpt lat="45.8533" lon="4.5576">
        <ele>313.20001220703</ele>
        <time>2020-10-04T18:01:24.707Z</time>
      </trkpt>
      <trkpt lat="45.85343" lon="4.55759">
        <ele>312.39999389648</ele>
        <time>2020-10-04T18:01:30.644Z</time>
      </trkpt>
      <trkpt lat="45.85346" lon="4.5576">
        <ele>312</ele>
        <time>2020-10-04T18:01:36.582Z</time>
      </trkpt>
      <trkpt lat="45.85354" lon="4.55764">
        <ele>310.79998779297</ele>
        <time>2020-10-04T18:01:42.523Z</time>
      </trkpt>
      <trkpt lat="45.85356" lon="4.55765">
        <ele>310.60000610352</ele>
        <time>2020-10-04T18:01:48.465Z</time>
      </trkpt>
      <trkpt lat="45.85368" lon="4.55773">
        <ele>309.60000610352</ele>
        <time>2020-10-04T18:01:54.413Z</time>
      </trkpt>
      <trkpt lat="45.85372" lon="4.55775">
        <ele>309.20001220703</ele>
        <time>2020-10-04T18:02:00.362Z</time>
      </trkpt>
      <trkpt lat="45.85379" lon="4.55779">
        <ele>308.20001220703</ele>
        <time>2020-10-04T18:02:06.314Z</time>
      </trkpt>
      <trkpt lat="45.85389" lon="4.55783">
        <ele>306.79998779297</ele>
        <time>2020-10-04T18:02:12.270Z</time>
      </trkpt>
      <trkpt lat="45.85392" lon="4.55785">
        <ele>306.20001220703</ele>
        <time>2020-10-04T18:02:18.228Z</time>
      </trkpt>
      <trkpt lat="45.85396" lon="4.55788">
        <ele>305.60000610352</ele>
        <time>2020-10-04T18:02:24.187Z</time>
      </trkpt>
      <trkpt lat="45.85404" lon="4.55792">
        <ele>304</ele>
        <time>2020-10-04T18:02:30.150Z</time>
      </trkpt>
      <trkpt lat="45.85412" lon="4.55798">
        <ele>302.39999389648</ele>
        <time>2020-10-04T18:02:36.116Z</time>
      </trkpt>
      <trkpt lat="45.85421" lon="4.55804">
        <ele>300.20001220703</ele>
        <time>2020-10-04T18:02:42.086Z</time>
      </trkpt>
      <trkpt lat="45.85429" lon="4.55811">
        <ele>299</ele>
        <time>2020-10-04T18:02:48.060Z</time>
      </trkpt>
      <trkpt lat="45.85433" lon="4.55814">
        <ele>298.39999389648</ele>
        <time>2020-10-04T18:02:54.036Z</time>
      </trkpt>
      <trkpt lat="45.85437" lon="4.55818">
        <ele>297.79998779297</ele>
        <time>2020-10-04T18:03:00.013Z</time>
      </trkpt>
      <trkpt lat="45.85446" lon="4.55825">
        <ele>296.60000610352</ele>
        <time>2020-10-04T18:03:05.995Z</time>
      </trkpt>
      <trkpt lat="45.85455" lon="4.55831">
        <ele>295.60000610352</ele>
        <time>2020-10-04T18:03:11.981Z</time>
      </trkpt>
      <trkpt lat="45.8546" lon="4.55834">
        <ele>295</ele>
        <time>2020-10-04T18:03:17.969Z</time>
      </trkpt>
      <trkpt lat="45.85469" lon="4.5584">
        <ele>294.39999389648</ele>
        <time>2020-10-04T18:03:23.961Z</time>
      </trkpt>
      <trkpt lat="45.8548" lon="4.55846">
        <ele>293.60000610352</ele>
        <time>2020-10-04T18:03:29.957Z</time>
      </trkpt>
      <trkpt lat="45.85484" lon="4.5585">
        <ele>293</ele>
        <time>2020-10-04T18:03:35.955Z</time>
      </trkpt>
      <trkpt lat="45.85498" lon="4.55863">
        <ele>292.20001220703</ele>
        <time>2020-10-04T18:03:41.960Z</time>
      </trkpt>
      <trkpt lat="45.85502" lon="4.55868">
        <ele>291.79998779297</ele>
        <time>2020-10-04T18:03:47.967Z</time>
      </trkpt>
      <trkpt lat="45.85536" lon="4.5592">
        <ele>291</ele>
        <time>2020-10-04T18:03:53.994Z</time>
      </trkpt>
      <trkpt lat="45.8554" lon="4.55926">
        <ele>291</ele>
        <time>2020-10-04T18:04:00.023Z</time>
      </trkpt>
      <trkpt lat="45.85553" lon="4.55942">
        <ele>291.79998779297</ele>
        <time>2020-10-04T18:04:06.059Z</time>
      </trkpt>
      <trkpt lat="45.85559" lon="4.55947">
        <ele>293</ele>
        <time>2020-10-04T18:04:12.097Z</time>
      </trkpt>
      <trkpt lat="45.85567" lon="4.55951">
        <ele>294.20001220703</ele>
        <time>2020-10-04T18:04:18.139Z</time>
      </trkpt>
      <trkpt lat="45.85575" lon="4.55952">
        <ele>295.20001220703</ele>
        <time>2020-10-04T18:04:24.184Z</time>
      </trkpt>
      <trkpt lat="45.85589" lon="4.55954">
        <ele>296.20001220703</ele>
        <time>2020-10-04T18:04:30.235Z</time>
      </trkpt>
      <trkpt lat="45.85592" lon="4.55954">
        <ele>296.39999389648</ele>
        <time>2020-10-04T18:04:36.287Z</time>
      </trkpt>
      <trkpt lat="45.85606" lon="4.55952">
        <ele>296.39999389648</ele>
        <time>2020-10-04T18:04:42.345Z</time>
      </trkpt>
      <trkpt lat="45.85619" lon="4.5595">
        <ele>296.60000610352</ele>
        <time>2020-10-04T18:04:48.408Z</time>
      </trkpt>
      <trkpt lat="45.85637" lon="4.55948">
        <ele>296.79998779297</ele>
        <time>2020-10-04T18:04:54.478Z</time>
      </trkpt>
      <trkpt lat="45.85656" lon="4.55946">
        <ele>296.79998779297</ele>
        <time>2020-10-04T18:05:00.555Z</time>
      </trkpt>
      <trkpt lat="45.85662" lon="4.55946">
        <ele>297</ele>
        <time>2020-10-04T18:05:06.635Z</time>
      </trkpt>
      <trkpt lat="45.85662" lon="4.5595">
        <ele>297.39999389648</ele>
        <time>2020-10-04T18:05:12.716Z</time>
      </trkpt>
      <trkpt lat="45.8566" lon="4.55952">
        <ele>297.60000610352</ele>
        <time>2020-10-04T18:05:18.798Z</time>
      </trkpt>
      <trkpt lat="45.85658" lon="4.55958">
        <ele>297.60000610352</ele>
        <time>2020-10-04T18:05:24.882Z</time>
      </trkpt>
      <trkpt lat="45.85658" lon="4.55964">
        <ele>297.79998779297</ele>
        <time>2020-10-04T18:05:30.967Z</time>
      </trkpt>
      <trkpt lat="45.85656" lon="4.55981">
        <ele>297.79998779297</ele>
        <time>2020-10-04T18:05:37.057Z</time>
      </trkpt>
      <trkpt lat="45.85652" lon="4.56001">
        <ele>297.60000610352</ele>
        <time>2020-10-04T18:05:43.153Z</time>
      </trkpt>
      <trkpt lat="45.85648" lon="4.56024">
        <ele>298.20001220703</ele>
        <time>2020-10-04T18:05:49.256Z</time>
      </trkpt>
      <trkpt lat="45.85647" lon="4.56029">
        <ele>298.39999389648</ele>
        <time>2020-10-04T18:05:55.360Z</time>
      </trkpt>
      <trkpt lat="45.85644" lon="4.56046">
        <ele>298.79998779297</ele>
        <time>2020-10-04T18:06:01.469Z</time>
      </trkpt>
      <trkpt lat="45.85642" lon="4.56055">
        <ele>300</ele>
        <time>2020-10-04T18:06:07.581Z</time>
      </trkpt>
      <trkpt lat="45.85641" lon="4.56063">
        <ele>300.79998779297</ele>
        <time>2020-10-04T18:06:13.695Z</time>
      </trkpt>
      <trkpt lat="45.85641" lon="4.56066">
        <ele>301.20001220703</ele>
        <time>2020-10-04T18:06:19.810Z</time>
      </trkpt>
      <trkpt lat="45.85637" lon="4.56083">
        <ele>302</ele>
        <time>2020-10-04T18:06:25.929Z</time>
      </trkpt>
      <trkpt lat="45.85637" lon="4.56085">
        <ele>302.39999389648</ele>
        <time>2020-10-04T18:06:32.049Z</time>
      </trkpt>
      <trkpt lat="45.85635" lon="4.56097">
        <ele>303.60000610352</ele>
        <time>2020-10-04T18:06:38.172Z</time>
      </trkpt>
      <trkpt lat="45.85634" lon="4.56099">
        <ele>303.79998779297</ele>
        <time>2020-10-04T18:06:44.296Z</time>
      </trkpt>
      <trkpt lat="45.85634" lon="4.56105">
        <ele>304.60000610352</ele>
        <time>2020-10-04T18:06:50.422Z</time>
      </trkpt>
      <trkpt lat="45.85633" lon="4.56119">
        <ele>305.79998779297</ele>
        <time>2020-10-04T18:06:56.552Z</time>
      </trkpt>
      <trkpt lat="45.85632" lon="4.56137">
        <ele>306.39999389648</ele>
        <time>2020-10-04T18:07:02.687Z</time>
      </trkpt>
      <trkpt lat="45.85633" lon="4.56149">
        <ele>306.79998779297</ele>
        <time>2020-10-04T18:07:08.825Z</time>
      </trkpt>
      <trkpt lat="45.85633" lon="4.56159">
        <ele>307.20001220703</ele>
        <time>2020-10-04T18:07:14.966Z</time>
      </trkpt>
      <trkpt lat="45.85635" lon="4.56173">
        <ele>307.79998779297</ele>
        <time>2020-10-04T18:07:21.111Z</time>
      </trkpt>
      <trkpt lat="45.85638" lon="4.56189">
        <ele>308.20001220703</ele>
        <time>2020-10-04T18:07:27.260Z</time>
      </trkpt>
      <trkpt lat="45.8564" lon="4.562">
        <ele>308.60000610352</ele>
        <time>2020-10-04T18:07:33.413Z</time>
      </trkpt>
      <trkpt lat="45.85641" lon="4.56212">
        <ele>309</ele>
        <time>2020-10-04T18:07:39.569Z</time>
      </trkpt>
      <trkpt lat="45.85643" lon="4.56228">
        <ele>309.60000610352</ele>
        <time>2020-10-04T18:07:45.729Z</time>
      </trkpt>
      <trkpt lat="45.85643" lon="4.56236">
        <ele>309.79998779297</ele>
        <time>2020-10-04T18:07:51.891Z</time>
      </trkpt>
      <trkpt lat="45.85644" lon="4.56243">
        <ele>310</ele>
        <time>2020-10-04T18:07:58.055Z</time>
      </trkpt>
      <trkpt lat="45.85645" lon="4.56261">
        <ele>310.79998779297</ele>
        <time>2020-10-04T18:08:04.225Z</time>
      </trkpt>
      <trkpt lat="45.85645" lon="4.56267">
        <ele>311</ele>
        <time>2020-10-04T18:08:10.396Z</time>
      </trkpt>
      <trkpt lat="45.85647" lon="4.56285">
        <ele>311.60000610352</ele>
        <time>2020-10-04T18:08:16.572Z</time>
      </trkpt>
      <trkpt lat="45.85647" lon="4.56287">
        <ele>311.79998779297</ele>
        <time>2020-10-04T18:08:22.749Z</time>
      </trkpt>
      <trkpt lat="45.85648" lon="4.56303">
        <ele>312.79998779297</ele>
        <time>2020-10-04T18:08:28.930Z</time>
      </trkpt>
      <trkpt lat="45.85648" lon="4.56318">
        <ele>314</ele>
        <time>2020-10-04T18:08:35.115Z</time>
      </trkpt>
      <trkpt lat="45.85648" lon="4.56321">
        <ele>314</ele>
        <time>2020-10-04T18:08:41.301Z</time>
      </trkpt>
      <trkpt lat="45.85647" lon="4.56338">
        <ele>315</ele>
        <time>2020-10-04T18:08:47.492Z</time>
      </trkpt>
      <trkpt lat="45.85646" lon="4.56342">
        <ele>315.20001220703</ele>
        <time>2020-10-04T18:08:53.684Z</time>
      </trkpt>
      <trkpt lat="45.85643" lon="4.56355">
        <ele>316</ele>
        <time>2020-10-04T18:08:59.880Z</time>
      </trkpt>
      <trkpt lat="45.85642" lon="4.56357">
        <ele>316.20001220703</ele>
        <time>2020-10-04T18:09:06.076Z</time>
      </trkpt>
      <trkpt lat="45.85638" lon="4.56369">
        <ele>317</ele>
        <time>2020-10-04T18:09:12.276Z</time>
      </trkpt>
      <trkpt lat="45.85637" lon="4.56373">
        <ele>317.20001220703</ele>
        <time>2020-10-04T18:09:18.477Z</time>
      </trkpt>
      <trkpt lat="45.85633" lon="4.56383">
        <ele>318</ele>
        <time>2020-10-04T18:09:24.682Z</time>
      </trkpt>
      <trkpt lat="45.85631" lon="4.56387">
        <ele>318.39999389648</ele>
        <time>2020-10-04T18:09:30.888Z</time>
      </trkpt>
      <trkpt lat="45.85627" lon="4.56398">
        <ele>319.39999389648</ele>
        <time>2020-10-04T18:09:37.097Z</time>
      </trkpt>
      <trkpt lat="45.85623" lon="4.56409">
        <ele>320.39999389648</ele>
        <time>2020-10-04T18:09:43.310Z</time>
      </trkpt>
      <trkpt lat="45.8562" lon="4.56418">
        <ele>321.39999389648</ele>
        <time>2020-10-04T18:09:49.525Z</time>
      </trkpt>
      <trkpt lat="45.85619" lon="4.5642">
        <ele>321.79998779297</ele>
        <time>2020-10-04T18:09:55.741Z</time>
      </trkpt>
      <trkpt lat="45.85614" lon="4.56434">
        <ele>322.79998779297</ele>
        <time>2020-10-04T18:10:01.961Z</time>
      </trkpt>
      <trkpt lat="45.85613" lon="4.56438">
        <ele>323.20001220703</ele>
        <time>2020-10-04T18:10:08.183Z</time>
      </trkpt>
      <trkpt lat="45.85608" lon="4.56454">
        <ele>324</ele>
        <time>2020-10-04T18:10:14.410Z</time>
      </trkpt>
      <trkpt lat="45.85608" lon="4.56456">
        <ele>324.20001220703</ele>
        <time>2020-10-04T18:10:20.637Z</time>
      </trkpt>
      <trkpt lat="45.85602" lon="4.56471">
        <ele>324.79998779297</ele>
        <time>2020-10-04T18:10:26.869Z</time>
      </trkpt>
      <trkpt lat="45.85602" lon="4.56473">
        <ele>325</ele>
        <time>2020-10-04T18:10:33.101Z</time>
      </trkpt>
      <trkpt lat="45.85603" lon="4.56477">
        <ele>325.20001220703</ele>
        <time>2020-10-04T18:10:39.334Z</time>
      </trkpt>
      <trkpt lat="45.85603" lon="4.56484">
        <ele>325.20001220703</ele>
        <time>2020-10-04T18:10:45.569Z</time>
      </trkpt>
      <trkpt lat="45.85599" lon="4.5649">
        <ele>325.39999389648</ele>
        <time>2020-10-04T18:10:51.807Z</time>
      </trkpt>
      <trkpt lat="45.85596" lon="4.56496">
        <ele>325.60000610352</ele>
        <time>2020-10-04T18:10:58.047Z</time>
      </trkpt>
      <trkpt lat="45.85591" lon="4.5652">
        <ele>326.20001220703</ele>
        <time>2020-10-04T18:11:04.294Z</time>
      </trkpt>
      <trkpt lat="45.85586" lon="4.56541">
        <ele>327.39999389648</ele>
        <time>2020-10-04T18:11:10.547Z</time>
      </trkpt>
      <trkpt lat="45.85585" lon="4.56544">
        <ele>327.39999389648</ele>
        <time>2020-10-04T18:11:16.801Z</time>
      </trkpt>
      <trkpt lat="45.8558" lon="4.56565">
        <ele>327.60000610352</ele>
        <time>2020-10-04T18:11:23.061Z</time>
      </trkpt>
      <trkpt lat="45.85576" lon="4.56586">
        <ele>327.79998779297</ele>
        <time>2020-10-04T18:11:29.327Z</time>
      </trkpt>
      <trkpt lat="45.85573" lon="4.566">
        <ele>328.39999389648</ele>
        <time>2020-10-04T18:11:35.597Z</time>
      </trkpt>
      <trkpt lat="45.85571" lon="4.56606">
        <ele>328.60000610352</ele>
        <time>2020-10-04T18:11:41.869Z</time>
      </trkpt>
      <trkpt lat="45.85567" lon="4.56624">
        <ele>328.79998779297</ele>
        <time>2020-10-04T18:11:48.146Z</time>
      </trkpt>
      <trkpt lat="45.85567" lon="4.56639">
        <ele>328.79998779297</ele>
        <time>2020-10-04T18:11:54.427Z</time>
      </trkpt>
      <trkpt lat="45.85564" lon="4.56656">
        <ele>329.60000610352</ele>
        <time>2020-10-04T18:12:00.713Z</time>
      </trkpt>
      <trkpt lat="45.85561" lon="4.56666">
        <ele>329.79998779297</ele>
        <time>2020-10-04T18:12:07.002Z</time>
      </trkpt>
      <trkpt lat="45.85557" lon="4.56688">
        <ele>330.39999389648</ele>
        <time>2020-10-04T18:12:13.297Z</time>
      </trkpt>
      <trkpt lat="45.85556" lon="4.56697">
        <ele>330.60000610352</ele>
        <time>2020-10-04T18:12:19.595Z</time>
      </trkpt>
      <trkpt lat="45.85554" lon="4.56706">
        <ele>330.79998779297</ele>
        <time>2020-10-04T18:12:25.895Z</time>
      </trkpt>
      <trkpt lat="45.8555" lon="4.56728">
        <ele>331.39999389648</ele>
        <time>2020-10-04T18:12:32.202Z</time>
      </trkpt>
      <trkpt lat="45.85549" lon="4.56731">
        <ele>331.60000610352</ele>
        <time>2020-10-04T18:12:38.510Z</time>
      </trkpt>
      <trkpt lat="45.85544" lon="4.56758">
        <ele>332.20001220703</ele>
        <time>2020-10-04T18:12:44.825Z</time>
      </trkpt>
      <trkpt lat="45.85543" lon="4.56768">
        <ele>332.60000610352</ele>
        <time>2020-10-04T18:12:51.143Z</time>
      </trkpt>
      <trkpt lat="45.85539" lon="4.56784">
        <ele>333.39999389648</ele>
        <time>2020-10-04T18:12:57.466Z</time>
      </trkpt>
      <trkpt lat="45.85537" lon="4.56796">
        <ele>333.79998779297</ele>
        <time>2020-10-04T18:13:03.792Z</time>
      </trkpt>
      <trkpt lat="45.85533" lon="4.56812">
        <ele>334.39999389648</ele>
        <time>2020-10-04T18:13:10.123Z</time>
      </trkpt>
      <trkpt lat="45.8553" lon="4.56826">
        <ele>334.79998779297</ele>
        <time>2020-10-04T18:13:16.458Z</time>
      </trkpt>
      <trkpt lat="45.85529" lon="4.56832">
        <ele>334.79998779297</ele>
        <time>2020-10-04T18:13:22.795Z</time>
      </trkpt>
      <trkpt lat="45.85524" lon="4.56856">
        <ele>335.20001220703</ele>
        <time>2020-10-04T18:13:29.139Z</time>
      </trkpt>
      <trkpt lat="45.85518" lon="4.56882">
        <ele>335.39999389648</ele>
        <time>2020-10-04T18:13:35.490Z</time>
      </trkpt>
      <trkpt lat="45.85516" lon="4.56903">
        <ele>335.60000610352</ele>
        <time>2020-10-04T18:13:41.847Z</time>
      </trkpt>
      <trkpt lat="45.85512" lon="4.56936">
        <ele>335.39999389648</ele>
        <time>2020-10-04T18:13:48.213Z</time>
      </trkpt>
      <trkpt lat="45.85509" lon="4.5696">
        <ele>335</ele>
        <time>2020-10-04T18:13:54.586Z</time>
      </trkpt>
      <trkpt lat="45.85508" lon="4.56979">
        <ele>334.79998779297</ele>
        <time>2020-10-04T18:14:00.964Z</time>
      </trkpt>
      <trkpt lat="45.85505" lon="4.57008">
        <ele>334.20001220703</ele>
        <time>2020-10-04T18:14:07.350Z</time>
      </trkpt>
      <trkpt lat="45.85504" lon="4.5703">
        <ele>333.79998779297</ele>
        <time>2020-10-04T18:14:13.743Z</time>
      </trkpt>
      <trkpt lat="45.85504" lon="4.57033">
        <ele>333.60000610352</ele>
        <time>2020-10-04T18:14:20.137Z</time>
      </trkpt>
      <trkpt lat="45.85501" lon="4.57051">
        <ele>333.39999389648</ele>
        <time>2020-10-04T18:14:26.536Z</time>
      </trkpt>
      <trkpt lat="45.85497" lon="4.57075">
        <ele>333.20001220703</ele>
        <time>2020-10-04T18:14:32.941Z</time>
      </trkpt>
      <trkpt lat="45.85494" lon="4.57098">
        <ele>333.20001220703</ele>
        <time>2020-10-04T18:14:39.353Z</time>
      </trkpt>
      <trkpt lat="45.8549" lon="4.57119">
        <ele>332.60000610352</ele>
        <time>2020-10-04T18:14:45.771Z</time>
      </trkpt>
      <trkpt lat="45.85488" lon="4.57131">
        <ele>332.20001220703</ele>
        <time>2020-10-04T18:14:52.192Z</time>
      </trkpt>
      <trkpt lat="45.85483" lon="4.57153">
        <ele>331.60000610352</ele>
        <time>2020-10-04T18:14:58.620Z</time>
      </trkpt>
      <trkpt lat="45.85482" lon="4.5716">
        <ele>331.39999389648</ele>
        <time>2020-10-04T18:15:05.050Z</time>
      </trkpt>
      <trkpt lat="45.85482" lon="4.57184">
        <ele>331.20001220703</ele>
        <time>2020-10-04T18:15:11.486Z</time>
      </trkpt>
      <trkpt lat="45.85488" lon="4.572">
        <ele>331</ele>
        <time>2020-10-04T18:15:17.927Z</time>
      </trkpt>
      <trkpt lat="45.85499" lon="4.57215">
        <ele>331.20001220703</ele>
        <time>2020-10-04T18:15:24.374Z</time>
      </trkpt>
      <trkpt lat="45.85506" lon="4.57224">
        <ele>331.60000610352</ele>
        <time>2020-10-04T18:15:30.825Z</time>
      </trkpt>
      <trkpt lat="45.85509" lon="4.57227">
        <ele>332.20001220703</ele>
        <time>2020-10-04T18:15:37.278Z</time>
      </trkpt>
      <trkpt lat="45.85511" lon="4.57231">
        <ele>332.79998779297</ele>
        <time>2020-10-04T18:15:43.732Z</time>
      </trkpt>
      <trkpt lat="45.85516" lon="4.57237">
        <ele>333.39999389648</ele>
        <time>2020-10-04T18:15:50.189Z</time>
      </trkpt>
      <trkpt lat="45.8552" lon="4.57241">
        <ele>333.79998779297</ele>
        <time>2020-10-04T18:15:56.647Z</time>
      </trkpt>
      <trkpt lat="45.85528" lon="4.57249">
        <ele>334.79998779297</ele>
        <time>2020-10-04T18:16:03.110Z</time>
      </trkpt>
      <trkpt lat="45.8553" lon="4.57252">
        <ele>335</ele>
        <time>2020-10-04T18:16:09.574Z</time>
      </trkpt>
      <trkpt lat="45.85538" lon="4.57264">
        <ele>335.60000610352</ele>
        <time>2020-10-04T18:16:16.042Z</time>
      </trkpt>
      <trkpt lat="45.85547" lon="4.5728">
        <ele>336</ele>
        <time>2020-10-04T18:16:22.516Z</time>
      </trkpt>
      <trkpt lat="45.85548" lon="4.57282">
        <ele>336</ele>
        <time>2020-10-04T18:16:28.991Z</time>
      </trkpt>
      <trkpt lat="45.85557" lon="4.57297">
        <ele>337</ele>
        <time>2020-10-04T18:16:35.471Z</time>
      </trkpt>
      <trkpt lat="45.85566" lon="4.57311">
        <ele>338</ele>
        <time>2020-10-04T18:16:41.956Z</time>
      </trkpt>
      <trkpt lat="45.85567" lon="4.57313">
        <ele>338.20001220703</ele>
        <time>2020-10-04T18:16:48.442Z</time>
      </trkpt>
      <trkpt lat="45.85573" lon="4.57322">
        <ele>338.60000610352</ele>
        <time>2020-10-04T18:16:54.931Z</time>
      </trkpt>
      <trkpt lat="45.85575" lon="4.57323">
        <ele>338.60000610352</ele>
        <time>2020-10-04T18:17:01.421Z</time>
      </trkpt>
      <trkpt lat="45.8558" lon="4.57323">
        <ele>338.79998779297</ele>
        <time>2020-10-04T18:17:07.913Z</time>
      </trkpt>
      <trkpt lat="45.85587" lon="4.57323">
        <ele>339.20001220703</ele>
        <time>2020-10-04T18:17:14.408Z</time>
      </trkpt>
      <trkpt lat="45.85601" lon="4.57318">
        <ele>339.79998779297</ele>
        <time>2020-10-04T18:17:20.909Z</time>
      </trkpt>
      <trkpt lat="45.85609" lon="4.57316">
        <ele>340.39999389648</ele>
        <time>2020-10-04T18:17:27.413Z</time>
      </trkpt>
      <trkpt lat="45.85614" lon="4.57315">
        <ele>340.79998779297</ele>
        <time>2020-10-04T18:17:33.919Z</time>
      </trkpt>
      <trkpt lat="45.8562" lon="4.57315">
        <ele>341.39999389648</ele>
        <time>2020-10-04T18:17:40.427Z</time>
      </trkpt>
      <trkpt lat="45.85627" lon="4.57316">
        <ele>341.79998779297</ele>
        <time>2020-10-04T18:17:46.938Z</time>
      </trkpt>
      <trkpt lat="45.85633" lon="4.57316">
        <ele>342.39999389648</ele>
        <time>2020-10-04T18:17:53.452Z</time>
      </trkpt>
      <trkpt lat="45.85635" lon="4.57316">
        <ele>342.60000610352</ele>
        <time>2020-10-04T18:17:59.966Z</time>
      </trkpt>
      <trkpt lat="45.85638" lon="4.57316">
        <ele>342.79998779297</ele>
        <time>2020-10-04T18:18:06.481Z</time>
      </trkpt>
      <trkpt lat="45.85644" lon="4.57317">
        <ele>343.39999389648</ele>
        <time>2020-10-04T18:18:12.999Z</time>
      </trkpt>
      <trkpt lat="45.85646" lon="4.57317">
        <ele>343.60000610352</ele>
        <time>2020-10-04T18:18:19.518Z</time>
      </trkpt>
      <trkpt lat="45.85656" lon="4.57319">
        <ele>344.20001220703</ele>
        <time>2020-10-04T18:18:26.041Z</time>
      </trkpt>
      <trkpt lat="45.85659" lon="4.57319">
        <ele>344.79998779297</ele>
        <time>2020-10-04T18:18:32.565Z</time>
      </trkpt>
      <trkpt lat="45.85668" lon="4.5732">
        <ele>345.20001220703</ele>
        <time>2020-10-04T18:18:39.092Z</time>
      </trkpt>
      <trkpt lat="45.85672" lon="4.57321">
        <ele>345.60000610352</ele>
        <time>2020-10-04T18:18:45.621Z</time>
      </trkpt>
      <trkpt lat="45.85675" lon="4.5732">
        <ele>345.79998779297</ele>
        <time>2020-10-04T18:18:52.151Z</time>
      </trkpt>
      <trkpt lat="45.85677" lon="4.5732">
        <ele>346</ele>
        <time>2020-10-04T18:18:58.682Z</time>
      </trkpt>
      <trkpt lat="45.85688" lon="4.57321">
        <ele>346.79998779297</ele>
        <time>2020-10-04T18:19:05.218Z</time>
      </trkpt>
      <trkpt lat="45.8569" lon="4.57321">
        <ele>347</ele>
        <time>2020-10-04T18:19:11.754Z</time>
      </trkpt>
      <trkpt lat="45.85698" lon="4.57322">
        <ele>348</ele>
        <time>2020-10-04T18:19:18.293Z</time>
      </trkpt>
      <trkpt lat="45.85701" lon="4.57323">
        <ele>348.20001220703</ele>
        <time>2020-10-04T18:19:24.834Z</time>
      </trkpt>
      <trkpt lat="45.85711" lon="4.57325">
        <ele>349.20001220703</ele>
        <time>2020-10-04T18:19:31.379Z</time>
      </trkpt>
      <trkpt lat="45.85713" lon="4.57325">
        <ele>349.39999389648</ele>
        <time>2020-10-04T18:19:37.924Z</time>
      </trkpt>
      <trkpt lat="45.85721" lon="4.57326">
        <ele>350.20001220703</ele>
        <time>2020-10-04T18:19:44.473Z</time>
      </trkpt>
      <trkpt lat="45.85724" lon="4.57326">
        <ele>350.39999389648</ele>
        <time>2020-10-04T18:19:51.023Z</time>
      </trkpt>
      <trkpt lat="45.85731" lon="4.57324">
        <ele>351.20001220703</ele>
        <time>2020-10-04T18:19:57.575Z</time>
      </trkpt>
      <trkpt lat="45.85732" lon="4.57323">
        <ele>351.39999389648</ele>
        <time>2020-10-04T18:20:04.128Z</time>
      </trkpt>
      <trkpt lat="45.85733" lon="4.57321">
        <ele>351.60000610352</ele>
        <time>2020-10-04T18:20:10.682Z</time>
      </trkpt>
      <trkpt lat="45.85736" lon="4.57314">
        <ele>352.20001220703</ele>
        <time>2020-10-04T18:20:17.238Z</time>
      </trkpt>
      <trkpt lat="45.85736" lon="4.57311">
        <ele>352.60000610352</ele>
        <time>2020-10-04T18:20:23.795Z</time>
      </trkpt>
      <trkpt lat="45.85737" lon="4.57304">
        <ele>353</ele>
        <time>2020-10-04T18:20:30.354Z</time>
      </trkpt>
      <trkpt lat="45.85738" lon="4.57302">
        <ele>353.20001220703</ele>
        <time>2020-10-04T18:20:36.914Z</time>
      </trkpt>
      <trkpt lat="45.85739" lon="4.57292">
        <ele>353.20001220703</ele>
        <time>2020-10-04T18:20:43.476Z</time>
      </trkpt>
      <trkpt lat="45.85741" lon="4.57272">
        <ele>353.20001220703</ele>
        <time>2020-10-04T18:20:50.044Z</time>
      </trkpt>
      <trkpt lat="45.85748" lon="4.57268">
        <ele>353.20001220703</ele>
        <time>2020-10-04T18:20:56.615Z</time>
      </trkpt>
      <trkpt lat="45.85763" lon="4.57268">
        <ele>353.20001220703</ele>
        <time>2020-10-04T18:21:03.192Z</time>
      </trkpt>
      <trkpt lat="45.85775" lon="4.57279">
        <ele>353.79998779297</ele>
        <time>2020-10-04T18:21:09.774Z</time>
      </trkpt>
      <trkpt lat="45.85788" lon="4.57292">
        <ele>354.20001220703</ele>
        <time>2020-10-04T18:21:16.362Z</time>
      </trkpt>
      <trkpt lat="45.85796" lon="4.57302">
        <ele>354.60000610352</ele>
        <time>2020-10-04T18:21:22.955Z</time>
      </trkpt>
      <trkpt lat="45.85799" lon="4.57304">
        <ele>354.79998779297</ele>
        <time>2020-10-04T18:21:29.549Z</time>
      </trkpt>
      <trkpt lat="45.85807" lon="4.57313">
        <ele>355.39999389648</ele>
        <time>2020-10-04T18:21:36.147Z</time>
      </trkpt>
      <trkpt lat="45.8581" lon="4.57316">
        <ele>355.79998779297</ele>
        <time>2020-10-04T18:21:42.747Z</time>
      </trkpt>
      <trkpt lat="45.85822" lon="4.5732">
        <ele>356.39999389648</ele>
        <time>2020-10-04T18:21:49.351Z</time>
      </trkpt>
      <trkpt lat="45.85825" lon="4.57323">
        <ele>356.79998779297</ele>
        <time>2020-10-04T18:21:55.957Z</time>
      </trkpt>
      <trkpt lat="45.85829" lon="4.57328">
        <ele>357.20001220703</ele>
        <time>2020-10-04T18:22:02.565Z</time>
      </trkpt>
      <trkpt lat="45.85838" lon="4.5734">
        <ele>357.39999389648</ele>
        <time>2020-10-04T18:22:09.178Z</time>
      </trkpt>
      <trkpt lat="45.85839" lon="4.57342">
        <ele>357.60000610352</ele>
        <time>2020-10-04T18:22:15.792Z</time>
      </trkpt>
      <trkpt lat="45.85845" lon="4.57352">
        <ele>358.20001220703</ele>
        <time>2020-10-04T18:22:22.409Z</time>
      </trkpt>
      <trkpt lat="45.85847" lon="4.57359">
        <ele>359</ele>
        <time>2020-10-04T18:22:29.028Z</time>
      </trkpt>
      <trkpt lat="45.85847" lon="4.57366">
        <ele>359.20001220703</ele>
        <time>2020-10-04T18:22:35.649Z</time>
      </trkpt>
      <trkpt lat="45.85846" lon="4.57371">
        <ele>360</ele>
        <time>2020-10-04T18:22:42.271Z</time>
      </trkpt>
      <trkpt lat="45.85841" lon="4.57387">
        <ele>361</ele>
        <time>2020-10-04T18:22:48.898Z</time>
      </trkpt>
      <trkpt lat="45.85833" lon="4.57405">
        <ele>362.20001220703</ele>
        <time>2020-10-04T18:22:55.531Z</time>
      </trkpt>
      <trkpt lat="45.85828" lon="4.5742">
        <ele>363.20001220703</ele>
        <time>2020-10-04T18:23:02.169Z</time>
      </trkpt>
      <trkpt lat="45.85828" lon="4.57422">
        <ele>363.39999389648</ele>
        <time>2020-10-04T18:23:08.807Z</time>
      </trkpt>
      <trkpt lat="45.85823" lon="4.57433">
        <ele>364.39999389648</ele>
        <time>2020-10-04T18:23:15.449Z</time>
      </trkpt>
      <trkpt lat="45.85819" lon="4.57444">
        <ele>365.60000610352</ele>
        <time>2020-10-04T18:23:22.095Z</time>
      </trkpt>
      <trkpt lat="45.85818" lon="4.57446">
        <ele>365.60000610352</ele>
        <time>2020-10-04T18:23:28.741Z</time>
      </trkpt>
      <trkpt lat="45.85815" lon="4.57457">
        <ele>366.79998779297</ele>
        <time>2020-10-04T18:23:35.390Z</time>
      </trkpt>
      <trkpt lat="45.85816" lon="4.57461">
        <ele>367.39999389648</ele>
        <time>2020-10-04T18:23:42.040Z</time>
      </trkpt>
      <trkpt lat="45.8582" lon="4.57464">
        <ele>367.79998779297</ele>
        <time>2020-10-04T18:23:48.692Z</time>
      </trkpt>
      <trkpt lat="45.85824" lon="4.57466">
        <ele>368</ele>
        <time>2020-10-04T18:23:55.346Z</time>
      </trkpt>
      <trkpt lat="45.85832" lon="4.5747">
        <ele>369</ele>
        <time>2020-10-04T18:24:02.003Z</time>
      </trkpt>
      <trkpt lat="45.85834" lon="4.57471">
        <ele>369.39999389648</ele>
        <time>2020-10-04T18:24:08.661Z</time>
      </trkpt>
      <trkpt lat="45.85838" lon="4.57474">
        <ele>369.60000610352</ele>
        <time>2020-10-04T18:24:15.321Z</time>
      </trkpt>
      <trkpt lat="45.85849" lon="4.57479">
        <ele>369.79998779297</ele>
        <time>2020-10-04T18:24:21.986Z</time>
      </trkpt>
      <trkpt lat="45.85862" lon="4.57487">
        <ele>370.20001220703</ele>
        <time>2020-10-04T18:24:28.656Z</time>
      </trkpt>
      <trkpt lat="45.85881" lon="4.57496">
        <ele>370.39999389648</ele>
        <time>2020-10-04T18:24:35.334Z</time>
      </trkpt>
      <trkpt lat="45.85889" lon="4.57495">
        <ele>370.60000610352</ele>
        <time>2020-10-04T18:24:42.015Z</time>
      </trkpt>
      <trkpt lat="45.8589" lon="4.57493">
        <ele>370.39999389648</ele>
        <time>2020-10-04T18:24:48.697Z</time>
      </trkpt>
      <trkpt lat="45.85899" lon="4.57474">
        <ele>370.20001220703</ele>
        <time>2020-10-04T18:24:55.385Z</time>
      </trkpt>
      <trkpt lat="45.85909" lon="4.57444">
        <ele>369.79998779297</ele>
        <time>2020-10-04T18:25:02.082Z</time>
      </trkpt>
      <trkpt lat="45.85914" lon="4.5743">
        <ele>369.20001220703</ele>
        <time>2020-10-04T18:25:08.784Z</time>
      </trkpt>
      <trkpt lat="45.85925" lon="4.57401">
        <ele>367.79998779297</ele>
        <time>2020-10-04T18:25:15.495Z</time>
      </trkpt>
      <trkpt lat="45.85931" lon="4.57387">
        <ele>366.79998779297</ele>
        <time>2020-10-04T18:25:22.211Z</time>
      </trkpt>
      <trkpt lat="45.85933" lon="4.5738">
        <ele>366.39999389648</ele>
        <time>2020-10-04T18:25:28.929Z</time>
      </trkpt>
      <trkpt lat="45.8594" lon="4.57364">
        <ele>365.60000610352</ele>
        <time>2020-10-04T18:25:35.652Z</time>
      </trkpt>
      <trkpt lat="45.85942" lon="4.57355">
        <ele>365.60000610352</ele>
        <time>2020-10-04T18:25:42.377Z</time>
      </trkpt>
      <trkpt lat="45.85938" lon="4.5734">
        <ele>365.60000610352</ele>
        <time>2020-10-04T18:25:49.107Z</time>
      </trkpt>
      <trkpt lat="45.85937" lon="4.57337">
        <ele>365.60000610352</ele>
        <time>2020-10-04T18:25:55.838Z</time>
      </trkpt>
      <trkpt lat="45.85937" lon="4.57333">
        <ele>365.39999389648</ele>
        <time>2020-10-04T18:26:02.570Z</time>
      </trkpt>
      <trkpt lat="45.85939" lon="4.57326">
        <ele>365.39999389648</ele>
        <time>2020-10-04T18:26:09.304Z</time>
      </trkpt>
      <trkpt lat="45.85944" lon="4.57316">
        <ele>365.60000610352</ele>
        <time>2020-10-04T18:26:16.041Z</time>
      </trkpt>
      <trkpt lat="45.8595" lon="4.57304">
        <ele>365.79998779297</ele>
        <time>2020-10-04T18:26:22.783Z</time>
      </trkpt>
      <trkpt lat="45.85965" lon="4.57275">
        <ele>366</ele>
        <time>2020-10-04T18:26:29.534Z</time>
      </trkpt>
      <trkpt lat="45.85981" lon="4.57244">
        <ele>366.39999389648</ele>
        <time>2020-10-04T18:26:36.296Z</time>
      </trkpt>
      <trkpt lat="45.85991" lon="4.57224">
        <ele>366.79998779297</ele>
        <time>2020-10-04T18:26:43.065Z</time>
      </trkpt>
      <trkpt lat="45.85998" lon="4.5721">
        <ele>367.20001220703</ele>
        <time>2020-10-04T18:26:49.839Z</time>
      </trkpt>
      <trkpt lat="45.86007" lon="4.57194">
        <ele>367.60000610352</ele>
        <time>2020-10-04T18:26:56.618Z</time>
      </trkpt>
      <trkpt lat="45.86009" lon="4.5719">
        <ele>367.79998779297</ele>
        <time>2020-10-04T18:27:03.399Z</time>
      </trkpt>
      <trkpt lat="45.86009" lon="4.57185">
        <ele>368.60000610352</ele>
        <time>2020-10-04T18:27:10.181Z</time>
      </trkpt>
      <trkpt lat="45.86008" lon="4.57184">
        <ele>369</ele>
        <time>2020-10-04T18:27:16.964Z</time>
      </trkpt>
      <trkpt lat="45.86" lon="4.57175">
        <ele>369.20001220703</ele>
        <time>2020-10-04T18:27:23.751Z</time>
      </trkpt>
      <trkpt lat="45.85988" lon="4.57161">
        <ele>369.20001220703</ele>
        <time>2020-10-04T18:27:30.544Z</time>
      </trkpt>
      <trkpt lat="45.85977" lon="4.57144">
        <ele>368.79998779297</ele>
        <time>2020-10-04T18:27:37.343Z</time>
      </trkpt>
      <trkpt lat="45.85963" lon="4.57117">
        <ele>368.20001220703</ele>
        <time>2020-10-04T18:27:44.152Z</time>
      </trkpt>
      <trkpt lat="45.85959" lon="4.57108">
        <ele>368</ele>
        <time>2020-10-04T18:27:50.963Z</time>
      </trkpt>
      <trkpt lat="45.85954" lon="4.57096">
        <ele>367.60000610352</ele>
        <time>2020-10-04T18:27:57.778Z</time>
      </trkpt>
      <trkpt lat="45.85952" lon="4.57089">
        <ele>367</ele>
        <time>2020-10-04T18:28:04.595Z</time>
      </trkpt>
      <trkpt lat="45.85954" lon="4.57083">
        <ele>366.60000610352</ele>
        <time>2020-10-04T18:28:11.414Z</time>
      </trkpt>
      <trkpt lat="45.85962" lon="4.57077">
        <ele>366.20001220703</ele>
        <time>2020-10-04T18:28:18.237Z</time>
      </trkpt>
      <trkpt lat="45.8598" lon="4.57072">
        <ele>365.79998779297</ele>
        <time>2020-10-04T18:28:25.067Z</time>
      </trkpt>
      <trkpt lat="45.85998" lon="4.57049">
        <ele>365.60000610352</ele>
        <time>2020-10-04T18:28:31.907Z</time>
      </trkpt>
      <trkpt lat="45.86018" lon="4.57025">
        <ele>364.39999389648</ele>
        <time>2020-10-04T18:28:38.757Z</time>
      </trkpt>
      <trkpt lat="45.86027" lon="4.57013">
        <ele>363</ele>
        <time>2020-10-04T18:28:45.612Z</time>
      </trkpt>
      <trkpt lat="45.86036" lon="4.57001">
        <ele>362.20001220703</ele>
        <time>2020-10-04T18:28:52.472Z</time>
      </trkpt>
      <trkpt lat="45.86039" lon="4.56997">
        <ele>361.79998779297</ele>
        <time>2020-10-04T18:28:59.334Z</time>
      </trkpt>
      <trkpt lat="45.8605" lon="4.56984">
        <ele>360.79998779297</ele>
        <time>2020-10-04T18:29:06.201Z</time>
      </trkpt>
      <trkpt lat="45.86062" lon="4.56968">
        <ele>360.20001220703</ele>
        <time>2020-10-04T18:29:13.075Z</time>
      </trkpt>
      <trkpt lat="45.86071" lon="4.56957">
        <ele>359.60000610352</ele>
        <time>2020-10-04T18:29:19.953Z</time>
      </trkpt>
      <trkpt lat="45.86086" lon="4.56938">
        <ele>358.20001220703</ele>
        <time>2020-10-04T18:29:26.839Z</time>
      </trkpt>
      <trkpt lat="45.86092" lon="4.56931">
        <ele>357.79998779297</ele>
        <time>2020-10-04T18:29:33.728Z</time>
      </trkpt>
      <trkpt lat="45.86103" lon="4.56918">
        <ele>356.79998779297</ele>
        <time>2020-10-04T18:29:40.623Z</time>
      </trkpt>
      <trkpt lat="45.86115" lon="4.56905">
        <ele>355.60000610352</ele>
        <time>2020-10-04T18:29:47.524Z</time>
      </trkpt>
      <trkpt lat="45.86124" lon="4.56892">
        <ele>354.20001220703</ele>
        <time>2020-10-04T18:29:54.430Z</time>
      </trkpt>
      <trkpt lat="45.86129" lon="4.56887">
        <ele>353.79998779297</ele>
        <time>2020-10-04T18:30:01.339Z</time>
      </trkpt>
      <trkpt lat="45.86145" lon="4.56866">
        <ele>353.39999389648</ele>
        <time>2020-10-04T18:30:08.256Z</time>
      </trkpt>
      <trkpt lat="45.86165" lon="4.56842">
        <ele>353.79998779297</ele>
        <time>2020-10-04T18:30:15.183Z</time>
      </trkpt>
      <trkpt lat="45.86182" lon="4.56822">
        <ele>355.39999389648</ele>
        <time>2020-10-04T18:30:22.119Z</time>
      </trkpt>
      <trkpt lat="45.86188" lon="4.56813">
        <ele>356.39999389648</ele>
        <time>2020-10-04T18:30:29.059Z</time>
      </trkpt>
      <trkpt lat="45.86192" lon="4.56809">
        <ele>356.60000610352</ele>
        <time>2020-10-04T18:30:36.001Z</time>
      </trkpt>
      <trkpt lat="45.86202" lon="4.56797">
        <ele>357.20001220703</ele>
        <time>2020-10-04T18:30:42.948Z</time>
      </trkpt>
      <trkpt lat="45.86205" lon="4.56788">
        <ele>357.60000610352</ele>
        <time>2020-10-04T18:30:49.898Z</time>
      </trkpt>
      <trkpt lat="45.86204" lon="4.56783">
        <ele>357.60000610352</ele>
        <time>2020-10-04T18:30:56.849Z</time>
      </trkpt>
      <trkpt lat="45.86205" lon="4.5677">
        <ele>357.79998779297</ele>
        <time>2020-10-04T18:31:03.804Z</time>
      </trkpt>
      <trkpt lat="45.86216" lon="4.56754">
        <ele>357.79998779297</ele>
        <time>2020-10-04T18:31:10.765Z</time>
      </trkpt>
      <trkpt lat="45.8622" lon="4.56749">
        <ele>357.60000610352</ele>
        <time>2020-10-04T18:31:17.728Z</time>
      </trkpt>
      <trkpt lat="45.86239" lon="4.56724">
        <ele>357</ele>
        <time>2020-10-04T18:31:24.701Z</time>
      </trkpt>
      <trkpt lat="45.86245" lon="4.56716">
        <ele>356.39999389648</ele>
        <time>2020-10-04T18:31:31.677Z</time>
      </trkpt>
      <trkpt lat="45.86255" lon="4.56702">
        <ele>355.60000610352</ele>
        <time>2020-10-04T18:31:38.659Z</time>
      </trkpt>
      <trkpt lat="45.86257" lon="4.56699">
        <ele>355.20001220703</ele>
        <time>2020-10-04T18:31:45.642Z</time>
      </trkpt>
      <trkpt lat="45.86263" lon="4.56695">
        <ele>354.60000610352</ele>
        <time>2020-10-04T18:31:52.628Z</time>
      </trkpt>
      <trkpt lat="45.86266" lon="4.56696">
        <ele>354.39999389648</ele>
        <time>2020-10-04T18:31:59.615Z</time>
      </trkpt>
      <trkpt lat="45.86272" lon="4.56702">
        <ele>353.79998779297</ele>
        <time>2020-10-04T18:32:06.605Z</time>
      </trkpt>
      <trkpt lat="45.86276" lon="4.56708">
        <ele>353.60000610352</ele>
        <time>2020-10-04T18:32:13.597Z</time>
      </trkpt>
      <trkpt lat="45.86291" lon="4.5674">
        <ele>353</ele>
        <time>2020-10-04T18:32:20.600Z</time>
      </trkpt>
      <trkpt lat="45.86301" lon="4.56757">
        <ele>353.20001220703</ele>
        <time>2020-10-04T18:32:27.609Z</time>
      </trkpt>
      <trkpt lat="45.86308" lon="4.56756">
        <ele>353.39999389648</ele>
        <time>2020-10-04T18:32:34.621Z</time>
      </trkpt>
      <trkpt lat="45.86309" lon="4.56755">
        <ele>353.39999389648</ele>
        <time>2020-10-04T18:32:41.634Z</time>
      </trkpt>
      <trkpt lat="45.86326" lon="4.5674">
        <ele>353.39999389648</ele>
        <time>2020-10-04T18:32:48.654Z</time>
      </trkpt>
      <trkpt lat="45.86342" lon="4.56725">
        <ele>352.79998779297</ele>
        <time>2020-10-04T18:32:55.682Z</time>
      </trkpt>
      <trkpt lat="45.86344" lon="4.56723">
        <ele>352.60000610352</ele>
        <time>2020-10-04T18:33:02.711Z</time>
      </trkpt>
      <trkpt lat="45.86357" lon="4.56712">
        <ele>351.60000610352</ele>
        <time>2020-10-04T18:33:09.746Z</time>
      </trkpt>
      <trkpt lat="45.86362" lon="4.56708">
        <ele>351.20001220703</ele>
        <time>2020-10-04T18:33:16.783Z</time>
      </trkpt>
      <trkpt lat="45.86381" lon="4.56692">
        <ele>350.39999389648</ele>
        <time>2020-10-04T18:33:23.829Z</time>
      </trkpt>
      <trkpt lat="45.86386" lon="4.56687">
        <ele>350</ele>
        <time>2020-10-04T18:33:30.877Z</time>
      </trkpt>
      <trkpt lat="45.8639" lon="4.56683">
        <ele>349.39999389648</ele>
        <time>2020-10-04T18:33:37.927Z</time>
      </trkpt>
      <trkpt lat="45.86397" lon="4.56675">
        <ele>348.20001220703</ele>
        <time>2020-10-04T18:33:44.981Z</time>
      </trkpt>
      <trkpt lat="45.86399" lon="4.56672">
        <ele>347.39999389648</ele>
        <time>2020-10-04T18:33:52.036Z</time>
      </trkpt>
      <trkpt lat="45.86399" lon="4.56665">
        <ele>347</ele>
        <time>2020-10-04T18:33:59.093Z</time>
      </trkpt>
      <trkpt lat="45.86398" lon="4.56662">
        <ele>347</ele>
        <time>2020-10-04T18:34:06.151Z</time>
      </trkpt>
      <trkpt lat="45.86395" lon="4.56654">
        <ele>346.79998779297</ele>
        <time>2020-10-04T18:34:13.211Z</time>
      </trkpt>
      <trkpt lat="45.86389" lon="4.56643">
        <ele>346</ele>
        <time>2020-10-04T18:34:20.275Z</time>
      </trkpt>
      <trkpt lat="45.86387" lon="4.56639">
        <ele>345.79998779297</ele>
        <time>2020-10-04T18:34:27.341Z</time>
      </trkpt>
      <trkpt lat="45.8638" lon="4.56624">
        <ele>344.79998779297</ele>
        <time>2020-10-04T18:34:34.412Z</time>
      </trkpt>
      <trkpt lat="45.86367" lon="4.56592">
        <ele>343.79998779297</ele>
        <time>2020-10-04T18:34:41.493Z</time>
      </trkpt>
      <trkpt lat="45.86352" lon="4.56551">
        <ele>342.79998779297</ele>
        <time>2020-10-04T18:34:48.587Z</time>
      </trkpt>
      <trkpt lat="45.8635" lon="4.56545">
        <ele>342.79998779297</ele>
        <time>2020-10-04T18:34:55.683Z</time>
      </trkpt>
      <trkpt lat="45.86339" lon="4.56512">
        <ele>341.60000610352</ele>
        <time>2020-10-04T18:35:02.789Z</time>
      </trkpt>
      <trkpt lat="45.86336" lon="4.56502">
        <ele>341</ele>
        <time>2020-10-04T18:35:09.898Z</time>
      </trkpt>
      <trkpt lat="45.8633" lon="4.56485">
        <ele>340.60000610352</ele>
        <time>2020-10-04T18:35:17.012Z</time>
      </trkpt>
      <trkpt lat="45.86326" lon="4.56466">
        <ele>340.39999389648</ele>
        <time>2020-10-04T18:35:24.132Z</time>
      </trkpt>
      <trkpt lat="45.86318" lon="4.56409">
        <ele>339.60000610352</ele>
        <time>2020-10-04T18:35:31.268Z</time>
      </trkpt>
      <trkpt lat="45.86317" lon="4.56402">
        <ele>339.60000610352</ele>
        <time>2020-10-04T18:35:38.406Z</time>
      </trkpt>
      <trkpt lat="45.86313" lon="4.5635">
        <ele>339</ele>
        <time>2020-10-04T18:35:45.558Z</time>
      </trkpt>
      <trkpt lat="45.86312" lon="4.56323">
        <ele>338.20001220703</ele>
        <time>2020-10-04T18:35:52.718Z</time>
      </trkpt>
      <trkpt lat="45.8631" lon="4.56298">
        <ele>337.60000610352</ele>
        <time>2020-10-04T18:35:59.885Z</time>
      </trkpt>
      <trkpt lat="45.86308" lon="4.56262">
        <ele>337</ele>
        <time>2020-10-04T18:36:07.062Z</time>
      </trkpt>
      <trkpt lat="45.86319" lon="4.56255">
        <ele>336.79998779297</ele>
        <time>2020-10-04T18:36:14.243Z</time>
      </trkpt>
      <trkpt lat="45.86324" lon="4.56254">
        <ele>336.79998779297</ele>
        <time>2020-10-04T18:36:21.426Z</time>
      </trkpt>
      <trkpt lat="45.8635" lon="4.5625">
        <ele>336.20001220703</ele>
        <time>2020-10-04T18:36:28.620Z</time>
      </trkpt>
      <trkpt lat="45.86359" lon="4.56249">
        <ele>336</ele>
        <time>2020-10-04T18:36:35.817Z</time>
      </trkpt>
      <trkpt lat="45.86375" lon="4.56247">
        <ele>334.60000610352</ele>
        <time>2020-10-04T18:36:43.021Z</time>
      </trkpt>
      <trkpt lat="45.86386" lon="4.56245">
        <ele>333.39999389648</ele>
        <time>2020-10-04T18:36:50.229Z</time>
      </trkpt>
      <trkpt lat="45.86413" lon="4.56241">
        <ele>332.39999389648</ele>
        <time>2020-10-04T18:36:57.448Z</time>
      </trkpt>
      <trkpt lat="45.8642" lon="4.5624">
        <ele>332</ele>
        <time>2020-10-04T18:37:04.669Z</time>
      </trkpt>
      <trkpt lat="45.86441" lon="4.56236">
        <ele>330.79998779297</ele>
        <time>2020-10-04T18:37:11.899Z</time>
      </trkpt>
      <trkpt lat="45.86447" lon="4.56235">
        <ele>330.79998779297</ele>
        <time>2020-10-04T18:37:19.131Z</time>
      </trkpt>
      <trkpt lat="45.8646" lon="4.56232">
        <ele>329.79998779297</ele>
        <time>2020-10-04T18:37:26.368Z</time>
      </trkpt>
      <trkpt lat="45.86473" lon="4.5623">
        <ele>328.39999389648</ele>
        <time>2020-10-04T18:37:33.611Z</time>
      </trkpt>
      <trkpt lat="45.86486" lon="4.56227">
        <ele>326.79998779297</ele>
        <time>2020-10-04T18:37:40.859Z</time>
      </trkpt>
      <trkpt lat="45.86497" lon="4.56225">
        <ele>325.60000610352</ele>
        <time>2020-10-04T18:37:48.112Z</time>
      </trkpt>
      <trkpt lat="45.86513" lon="4.56223">
        <ele>324</ele>
        <time>2020-10-04T18:37:55.371Z</time>
      </trkpt>
      <trkpt lat="45.86518" lon="4.56222">
        <ele>323.39999389648</ele>
        <time>2020-10-04T18:38:02.632Z</time>
      </trkpt>
      <trkpt lat="45.86529" lon="4.5622">
        <ele>322.79998779297</ele>
        <time>2020-10-04T18:38:09.897Z</time>
      </trkpt>
      <trkpt lat="45.86538" lon="4.56221">
        <ele>321.79998779297</ele>
        <time>2020-10-04T18:38:17.166Z</time>
      </trkpt>
      <trkpt lat="45.86542" lon="4.56222">
        <ele>321.39999389648</ele>
        <time>2020-10-04T18:38:24.437Z</time>
      </trkpt>
      <trkpt lat="45.86548" lon="4.56226">
        <ele>319.39999389648</ele>
        <time>2020-10-04T18:38:31.710Z</time>
      </trkpt>
      <trkpt lat="45.8655" lon="4.56229">
        <ele>318.60000610352</ele>
        <time>2020-10-04T18:38:38.984Z</time>
      </trkpt>
      <trkpt lat="45.86553" lon="4.56231">
        <ele>317.79998779297</ele>
        <time>2020-10-04T18:38:46.259Z</time>
      </trkpt>
      <trkpt lat="45.86556" lon="4.56234">
        <ele>316.39999389648</ele>
        <time>2020-10-04T18:38:53.536Z</time>
      </trkpt>
      <trkpt lat="45.86559" lon="4.56236">
        <ele>314.60000610352</ele>
        <time>2020-10-04T18:39:00.814Z</time>
      </trkpt>
      <trkpt lat="45.86562" lon="4.56238">
        <ele>313.20001220703</ele>
        <time>2020-10-04T18:39:08.093Z</time>
      </trkpt>
      <trkpt lat="45.86563" lon="4.56239">
        <ele>311.79998779297</ele>
        <time>2020-10-04T18:39:15.373Z</time>
      </trkpt>
      <trkpt lat="45.86564" lon="4.5624">
        <ele>310.79998779297</ele>
        <time>2020-10-04T18:39:22.653Z</time>
      </trkpt>
      <trkpt lat="45.86566" lon="4.56241">
        <ele>309.79998779297</ele>
        <time>2020-10-04T18:39:29.934Z</time>
      </trkpt>
      <trkpt lat="45.86567" lon="4.5624">
        <ele>309.20001220703</ele>
        <time>2020-10-04T18:39:37.216Z</time>
      </trkpt>
      <trkpt lat="45.86571" lon="4.56237">
        <ele>308.79998779297</ele>
        <time>2020-10-04T18:39:44.499Z</time>
      </trkpt>
      <trkpt lat="45.86573" lon="4.56235">
        <ele>308.60000610352</ele>
        <time>2020-10-04T18:39:51.784Z</time>
      </trkpt>
      <trkpt lat="45.8658" lon="4.5623">
        <ele>308.79998779297</ele>
        <time>2020-10-04T18:39:59.072Z</time>
      </trkpt>
      <trkpt lat="45.86593" lon="4.5622">
        <ele>309.20001220703</ele>
        <time>2020-10-04T18:40:06.366Z</time>
      </trkpt>
      <trkpt lat="45.86602" lon="4.56214">
        <ele>310</ele>
        <time>2020-10-04T18:40:13.663Z</time>
      </trkpt>
      <trkpt lat="45.86606" lon="4.56213">
        <ele>310.60000610352</ele>
        <time>2020-10-04T18:40:20.962Z</time>
      </trkpt>
      <trkpt lat="45.86613" lon="4.5621">
        <ele>312</ele>
        <time>2020-10-04T18:40:28.264Z</time>
      </trkpt>
      <trkpt lat="45.86621" lon="4.56208">
        <ele>313</ele>
        <time>2020-10-04T18:40:35.569Z</time>
      </trkpt>
      <trkpt lat="45.86627" lon="4.56207">
        <ele>314.20001220703</ele>
        <time>2020-10-04T18:40:42.877Z</time>
      </trkpt>
      <trkpt lat="45.86634" lon="4.56206">
        <ele>315.39999389648</ele>
        <time>2020-10-04T18:40:50.187Z</time>
      </trkpt>
      <trkpt lat="45.86635" lon="4.56205">
        <ele>315.79998779297</ele>
        <time>2020-10-04T18:40:57.498Z</time>
      </trkpt>
      <trkpt lat="45.86639" lon="4.56203">
        <ele>316.39999389648</ele>
        <time>2020-10-04T18:41:04.810Z</time>
      </trkpt>
      <trkpt lat="45.86643" lon="4.56201">
        <ele>317.60000610352</ele>
        <time>2020-10-04T18:41:12.124Z</time>
      </trkpt>
      <trkpt lat="45.86646" lon="4.56199">
        <ele>318.79998779297</ele>
        <time>2020-10-04T18:41:19.439Z</time>
      </trkpt>
      <trkpt lat="45.86646" lon="4.56199">
        <ele>320</ele>
        <time>2020-10-04T18:41:26.755Z</time>
      </trkpt>
      <trkpt lat="45.86646" lon="4.56199">
        <ele>321.20001220703</ele>
        <time>2020-10-04T18:41:34.071Z</time>
      </trkpt>
      <trkpt lat="45.86646" lon="4.56199">
        <ele>321.79998779297</ele>
        <time>2020-10-04T18:41:41.387Z</time>
      </trkpt>
      <trkpt lat="45.86646" lon="4.56199">
        <ele>322.20001220703</ele>
        <time>2020-10-04T18:41:48.703Z</time>
      </trkpt>
      <trkpt lat="45.86652" lon="4.56197">
        <ele>322.39999389648</ele>
        <time>2020-10-04T18:41:56.021Z</time>
      </trkpt>
      <trkpt lat="45.86668" lon="4.56193">
        <ele>322.60000610352</ele>
        <time>2020-10-04T18:42:03.345Z</time>
      </trkpt>
      <trkpt lat="45.86677" lon="4.56192">
        <ele>323.39999389648</ele>
        <time>2020-10-04T18:42:10.673Z</time>
      </trkpt>
      <trkpt lat="45.86683" lon="4.56191">
        <ele>324.39999389648</ele>
        <time>2020-10-04T18:42:18.003Z</time>
      </trkpt>
      <trkpt lat="45.86686" lon="4.5619">
        <ele>325.20001220703</ele>
        <time>2020-10-04T18:42:25.335Z</time>
      </trkpt>
      <trkpt lat="45.86688" lon="4.5619">
        <ele>325.79998779297</ele>
        <time>2020-10-04T18:42:32.667Z</time>
      </trkpt>
      <trkpt lat="45.86694" lon="4.5619">
        <ele>327.20001220703</ele>
        <time>2020-10-04T18:42:40.002Z</time>
      </trkpt>
      <trkpt lat="45.86703" lon="4.56192">
        <ele>328.20001220703</ele>
        <time>2020-10-04T18:42:47.340Z</time>
      </trkpt>
      <trkpt lat="45.86715" lon="4.56191">
        <ele>329.39999389648</ele>
        <time>2020-10-04T18:42:54.683Z</time>
      </trkpt>
      <trkpt lat="45.86724" lon="4.56191">
        <ele>330.60000610352</ele>
        <time>2020-10-04T18:43:02.030Z</time>
      </trkpt>
      <trkpt lat="45.86728" lon="4.56188">
        <ele>331.20001220703</ele>
        <time>2020-10-04T18:43:09.378Z</time>
      </trkpt>
      <trkpt lat="45.86733" lon="4.56185">
        <ele>331.60000610352</ele>
        <time>2020-10-04T18:43:16.728Z</time>
      </trkpt>
      <trkpt lat="45.86744" lon="4.56176">
        <ele>333</ele>
        <time>2020-10-04T18:43:24.083Z</time>
      </trkpt>
      <trkpt lat="45.86752" lon="4.5617">
        <ele>334.20001220703</ele>
        <time>2020-10-04T18:43:31.442Z</time>
      </trkpt>
      <trkpt lat="45.8676" lon="4.56164">
        <ele>335.39999389648</ele>
        <time>2020-10-04T18:43:38.805Z</time>
      </trkpt>
      <trkpt lat="45.86766" lon="4.5616">
        <ele>336.39999389648</ele>
        <time>2020-10-04T18:43:46.170Z</time>
      </trkpt>
      <trkpt lat="45.8677" lon="4.56157">
        <ele>337.79998779297</ele>
        <time>2020-10-04T18:43:53.537Z</time>
      </trkpt>
      <trkpt lat="45.86772" lon="4.56157">
        <ele>337.79998779297</ele>
        <time>2020-10-04T18:44:00.905Z</time>
      </trkpt>
      <trkpt lat="45.86777" lon="4.56154">
        <ele>339</ele>
        <time>2020-10-04T18:44:08.275Z</time>
      </trkpt>
      <trkpt lat="45.86778" lon="4.56153">
        <ele>340</ele>
        <time>2020-10-04T18:44:15.645Z</time>
      </trkpt>
      <trkpt lat="45.86778" lon="4.56153">
        <ele>341.20001220703</ele>
        <time>2020-10-04T18:44:23.015Z</time>
      </trkpt>
      <trkpt lat="45.86778" lon="4.56153">
        <ele>342.20001220703</ele>
        <time>2020-10-04T18:44:30.385Z</time>
      </trkpt>
      <trkpt lat="45.86777" lon="4.56153">
        <ele>342.60000610352</ele>
        <time>2020-10-04T18:44:37.755Z</time>
      </trkpt>
      <trkpt lat="45.86777" lon="4.56153">
        <ele>342.79998779297</ele>
        <time>2020-10-04T18:44:45.126Z</time>
      </trkpt>
      <trkpt lat="45.86777" lon="4.56153">
        <ele>343.20001220703</ele>
        <time>2020-10-04T18:44:52.497Z</time>
      </trkpt>
      <trkpt lat="45.86777" lon="4.56153">
        <ele>343</ele>
        <time>2020-10-04T18:44:59.868Z</time>
      </trkpt>
      <trkpt lat="45.86777" lon="4.56153">
        <ele>343</ele>
        <time>2020-10-04T18:45:07.239Z</time>
      </trkpt>
      <trkpt lat="45.86782" lon="4.5615">
        <ele>342.79998779297</ele>
        <time>2020-10-04T18:45:14.612Z</time>
      </trkpt>
      <trkpt lat="45.86794" lon="4.56142">
        <ele>343</ele>
        <time>2020-10-04T18:45:21.990Z</time>
      </trkpt>
      <trkpt lat="45.86799" lon="4.56139">
        <ele>343.39999389648</ele>
        <time>2020-10-04T18:45:29.370Z</time>
      </trkpt>
      <trkpt lat="45.86808" lon="4.56132">
        <ele>344.60000610352</ele>
        <time>2020-10-04T18:45:36.754Z</time>
      </trkpt>
      <trkpt lat="45.86819" lon="4.56126">
        <ele>345.79998779297</ele>
        <time>2020-10-04T18:45:44.143Z</time>
      </trkpt>
      <trkpt lat="45.86831" lon="4.56124">
        <ele>347</ele>
        <time>2020-10-04T18:45:51.537Z</time>
      </trkpt>
      <trkpt lat="45.86833" lon="4.56124">
        <ele>347.20001220703</ele>
        <time>2020-10-04T18:45:58.931Z</time>
      </trkpt>
      <trkpt lat="45.86841" lon="4.56124">
        <ele>348.20001220703</ele>
        <time>2020-10-04T18:46:06.329Z</time>
      </trkpt>
      <trkpt lat="45.86849" lon="4.56124">
        <ele>349.20001220703</ele>
        <time>2020-10-04T18:46:13.730Z</time>
      </trkpt>
      <trkpt lat="45.86851" lon="4.56124">
        <ele>349.60000610352</ele>
        <time>2020-10-04T18:46:21.132Z</time>
      </trkpt>
      <trkpt lat="45.86858" lon="4.56123">
        <ele>350.20001220703</ele>
        <time>2020-10-04T18:46:28.536Z</time>
      </trkpt>
      <trkpt lat="45.8686" lon="4.56122">
        <ele>350.39999389648</ele>
        <time>2020-10-04T18:46:35.941Z</time>
      </trkpt>
      <trkpt lat="45.86862" lon="4.56119">
        <ele>351</ele>
        <time>2020-10-04T18:46:43.347Z</time>
      </trkpt>
      <trkpt lat="45.86864" lon="4.56113">
        <ele>351.60000610352</ele>
        <time>2020-10-04T18:46:50.755Z</time>
      </trkpt>
      <trkpt lat="45.86865" lon="4.5611">
        <ele>351.79998779297</ele>
        <time>2020-10-04T18:46:58.164Z</time>
      </trkpt>
      <trkpt lat="45.86867" lon="4.56101">
        <ele>352.60000610352</ele>
        <time>2020-10-04T18:47:05.576Z</time>
      </trkpt>
      <trkpt lat="45.86867" lon="4.56097">
        <ele>352.79998779297</ele>
        <time>2020-10-04T18:47:12.989Z</time>
      </trkpt>
      <trkpt lat="45.8687" lon="4.56083">
        <ele>353.79998779297</ele>
        <time>2020-10-04T18:47:20.406Z</time>
      </trkpt>
      <trkpt lat="45.86871" lon="4.56075">
        <ele>354</ele>
        <time>2020-10-04T18:47:27.825Z</time>
      </trkpt>
      <trkpt lat="45.86874" lon="4.56055">
        <ele>354.79998779297</ele>
        <time>2020-10-04T18:47:35.250Z</time>
      </trkpt>
      <trkpt lat="45.86875" lon="4.5605">
        <ele>354.79998779297</ele>
        <time>2020-10-04T18:47:42.676Z</time>
      </trkpt>
      <trkpt lat="45.86878" lon="4.56032">
        <ele>355.39999389648</ele>
        <time>2020-10-04T18:47:50.107Z</time>
      </trkpt>
      <trkpt lat="45.8688" lon="4.56018">
        <ele>355.79998779297</ele>
        <time>2020-10-04T18:47:57.542Z</time>
      </trkpt>
      <trkpt lat="45.86882" lon="4.56003">
        <ele>356</ele>
        <time>2020-10-04T18:48:04.982Z</time>
      </trkpt>
      <trkpt lat="45.86888" lon="4.55972">
        <ele>356.39999389648</ele>
        <time>2020-10-04T18:48:12.431Z</time>
      </trkpt>
      <trkpt lat="45.86894" lon="4.55946">
        <ele>356.60000610352</ele>
        <time>2020-10-04T18:48:19.887Z</time>
      </trkpt>
      <trkpt lat="45.869" lon="4.55914">
        <ele>356.60000610352</ele>
        <time>2020-10-04T18:48:27.352Z</time>
      </trkpt>
      <trkpt lat="45.86907" lon="4.55885">
        <ele>356.39999389648</ele>
        <time>2020-10-04T18:48:34.826Z</time>
      </trkpt>
      <trkpt lat="45.86915" lon="4.55851">
        <ele>356</ele>
        <time>2020-10-04T18:48:42.310Z</time>
      </trkpt>
      <trkpt lat="45.86925" lon="4.55809">
        <ele>355.39999389648</ele>
        <time>2020-10-04T18:48:49.806Z</time>
      </trkpt>
      <trkpt lat="45.86929" lon="4.55795">
        <ele>354.79998779297</ele>
        <time>2020-10-04T18:48:57.306Z</time>
      </trkpt>
      <trkpt lat="45.8694" lon="4.55751">
        <ele>354.20001220703</ele>
        <time>2020-10-04T18:49:04.819Z</time>
      </trkpt>
      <trkpt lat="45.86945" lon="4.55736">
        <ele>353.79998779297</ele>
        <time>2020-10-04T18:49:12.337Z</time>
      </trkpt>
      <trkpt lat="45.86948" lon="4.55712">
        <ele>353.20001220703</ele>
        <time>2020-10-04T18:49:19.861Z</time>
      </trkpt>
      <trkpt lat="45.86948" lon="4.55705">
        <ele>353</ele>
        <time>2020-10-04T18:49:27.387Z</time>
      </trkpt>
      <trkpt lat="45.86944" lon="4.55691">
        <ele>352.79998779297</ele>
        <time>2020-10-04T18:49:34.918Z</time>
      </trkpt>
      <trkpt lat="45.8694" lon="4.55686">
        <ele>352.60000610352</ele>
        <time>2020-10-04T18:49:42.451Z</time>
      </trkpt>
      <trkpt lat="45.86934" lon="4.55665">
        <ele>352.39999389648</ele>
        <time>2020-10-04T18:49:49.990Z</time>
      </trkpt>
      <trkpt lat="45.86941" lon="4.55646">
        <ele>351.60000610352</ele>
        <time>2020-10-04T18:49:57.535Z</time>
      </trkpt>
      <trkpt lat="45.86943" lon="4.55639">
        <ele>351.39999389648</ele>
        <time>2020-10-04T18:50:05.082Z</time>
      </trkpt>
      <trkpt lat="45.86946" lon="4.55633">
        <ele>351</ele>
        <time>2020-10-04T18:50:12.631Z</time>
      </trkpt>
      <trkpt lat="45.86959" lon="4.5562">
        <ele>350.60000610352</ele>
        <time>2020-10-04T18:50:20.186Z</time>
      </trkpt>
      <trkpt lat="45.8698" lon="4.55616">
        <ele>350.20001220703</ele>
        <time>2020-10-04T18:50:27.750Z</time>
      </trkpt>
      <trkpt lat="45.86995" lon="4.55623">
        <ele>350</ele>
        <time>2020-10-04T18:50:35.320Z</time>
      </trkpt>
      <trkpt lat="45.87004" lon="4.55628">
        <ele>349.79998779297</ele>
        <time>2020-10-04T18:50:42.894Z</time>
      </trkpt>
      <trkpt lat="45.8703" lon="4.55644">
        <ele>350</ele>
        <time>2020-10-04T18:50:50.479Z</time>
      </trkpt>
      <trkpt lat="45.87049" lon="4.5566">
        <ele>350.39999389648</ele>
        <time>2020-10-04T18:50:58.072Z</time>
      </trkpt>
      <trkpt lat="45.87066" lon="4.55686">
        <ele>351.20001220703</ele>
        <time>2020-10-04T18:51:05.676Z</time>
      </trkpt>
      <trkpt lat="45.87074" lon="4.55697">
        <ele>351.60000610352</ele>
        <time>2020-10-04T18:51:13.284Z</time>
      </trkpt>
      <trkpt lat="45.87085" lon="4.55713">
        <ele>352.20001220703</ele>
        <time>2020-10-04T18:51:20.898Z</time>
      </trkpt>
      <trkpt lat="45.871" lon="4.5573">
        <ele>352.79998779297</ele>
        <time>2020-10-04T18:51:28.520Z</time>
      </trkpt>
      <trkpt lat="45.87096" lon="4.55734">
        <ele>352.79998779297</ele>
        <time>2020-10-04T18:51:36.144Z</time>
      </trkpt>
      <trkpt lat="45.87087" lon="4.55726">
        <ele>353</ele>
        <time>2020-10-04T18:51:43.772Z</time>
      </trkpt>
      <trkpt lat="45.87086" lon="4.55724">
        <ele>353</ele>
        <time>2020-10-04T18:51:51.401Z</time>
      </trkpt>
      <trkpt lat="45.87074" lon="4.55713">
        <ele>353</ele>
        <time>2020-10-04T18:51:59.035Z</time>
      </trkpt>
      <trkpt lat="45.87063" lon="4.557">
        <ele>353.39999389648</ele>
        <time>2020-10-04T18:52:06.675Z</time>
      </trkpt>
      <trkpt lat="45.87058" lon="4.55697">
        <ele>354</ele>
        <time>2020-10-04T18:52:14.317Z</time>
      </trkpt>
      <trkpt lat="45.87056" lon="4.55697">
        <ele>354</ele>
        <time>2020-10-04T18:52:21.960Z</time>
      </trkpt>
      <trkpt lat="45.87053" lon="4.557">
        <ele>354</ele>
        <time>2020-10-04T18:52:29.604Z</time>
      </trkpt>
      <trkpt lat="45.8705" lon="4.55709">
        <ele>354.20001220703</ele>
        <time>2020-10-04T18:52:37.251Z</time>
      </trkpt>
      <trkpt lat="45.87049" lon="4.55711">
        <ele>354.39999389648</ele>
        <time>2020-10-04T18:52:44.899Z</time>
      </trkpt>
      <trkpt lat="45.87048" lon="4.55733">
        <ele>355</ele>
        <time>2020-10-04T18:52:52.553Z</time>
      </trkpt>
      <trkpt lat="45.8705" lon="4.55764">
        <ele>356</ele>
        <time>2020-10-04T18:53:00.215Z</time>
      </trkpt>
      <trkpt lat="45.8705" lon="4.55767">
        <ele>356</ele>
        <time>2020-10-04T18:53:07.878Z</time>
      </trkpt>
      <trkpt lat="45.87048" lon="4.5579">
        <ele>356.79998779297</ele>
        <time>2020-10-04T18:53:15.548Z</time>
      </trkpt>
      <trkpt lat="45.87039" lon="4.55798">
        <ele>357</ele>
        <time>2020-10-04T18:53:23.222Z</time>
      </trkpt>
      <trkpt lat="45.87026" lon="4.55812">
        <ele>356.79998779297</ele>
        <time>2020-10-04T18:53:30.902Z</time>
      </trkpt>
      <trkpt lat="45.87023" lon="4.55835">
        <ele>356.79998779297</ele>
        <time>2020-10-04T18:53:38.589Z</time>
      </trkpt>
      <trkpt lat="45.87018" lon="4.55857">
        <ele>356.79998779297</ele>
        <time>2020-10-04T18:53:46.282Z</time>
      </trkpt>
      <trkpt lat="45.87014" lon="4.55869">
        <ele>357</ele>
        <time>2020-10-04T18:53:53.979Z</time>
      </trkpt>
      <trkpt lat="45.87012" lon="4.55874">
        <ele>357.20001220703</ele>
        <time>2020-10-04T18:54:01.677Z</time>
      </trkpt>
      <trkpt lat="45.87007" lon="4.55897">
        <ele>357.79998779297</ele>
        <time>2020-10-04T18:54:09.382Z</time>
      </trkpt>
      <trkpt lat="45.87006" lon="4.55903">
        <ele>358.20001220703</ele>
        <time>2020-10-04T18:54:17.089Z</time>
      </trkpt>
      <trkpt lat="45.87002" lon="4.55924">
        <ele>359</ele>
        <time>2020-10-04T18:54:24.802Z</time>
      </trkpt>
      <trkpt lat="45.86999" lon="4.5594">
        <ele>359.20001220703</ele>
        <time>2020-10-04T18:54:32.519Z</time>
      </trkpt>
      <trkpt lat="45.86997" lon="4.55953">
        <ele>359.39999389648</ele>
        <time>2020-10-04T18:54:40.240Z</time>
      </trkpt>
      <trkpt lat="45.86997" lon="4.55978">
        <ele>359.79998779297</ele>
        <time>2020-10-04T18:54:47.968Z</time>
      </trkpt>
      <trkpt lat="45.87003" lon="4.55997">
        <ele>360.20001220703</ele>
        <time>2020-10-04T18:54:55.701Z</time>
      </trkpt>
      <trkpt lat="45.87006" lon="4.56007">
        <ele>360.60000610352</ele>
        <time>2020-10-04T18:55:03.438Z</time>
      </trkpt>
      <trkpt lat="45.8701" lon="4.5602">
        <ele>361.39999389648</ele>
        <time>2020-10-04T18:55:11.179Z</time>
      </trkpt>
      <trkpt lat="45.87012" lon="4.56027">
        <ele>361.60000610352</ele>
        <time>2020-10-04T18:55:18.922Z</time>
      </trkpt>
      <trkpt lat="45.87016" lon="4.56053">
        <ele>362.20001220703</ele>
        <time>2020-10-04T18:55:26.672Z</time>
      </trkpt>
      <trkpt lat="45.87019" lon="4.56078">
        <ele>362.79998779297</ele>
        <time>2020-10-04T18:55:34.429Z</time>
      </trkpt>
      <trkpt lat="45.8702" lon="4.56081">
        <ele>363</ele>
        <time>2020-10-04T18:55:42.187Z</time>
      </trkpt>
      <trkpt lat="45.87023" lon="4.56105">
        <ele>364</ele>
        <time>2020-10-04T18:55:49.952Z</time>
      </trkpt>
      <trkpt lat="45.87024" lon="4.56127">
        <ele>364.20001220703</ele>
        <time>2020-10-04T18:55:57.723Z</time>
      </trkpt>
      <trkpt lat="45.87019" lon="4.56148">
        <ele>364.79998779297</ele>
        <time>2020-10-04T18:56:05.500Z</time>
      </trkpt>
      <trkpt lat="45.87019" lon="4.56151">
        <ele>365</ele>
        <time>2020-10-04T18:56:13.278Z</time>
      </trkpt>
      <trkpt lat="45.87018" lon="4.56174">
        <ele>365.39999389648</ele>
        <time>2020-10-04T18:56:21.062Z</time>
      </trkpt>
      <trkpt lat="45.87021" lon="4.56194">
        <ele>366.20001220703</ele>
        <time>2020-10-04T18:56:28.852Z</time>
      </trkpt>
      <trkpt lat="45.87022" lon="4.56198">
        <ele>366.20001220703</ele>
        <time>2020-10-04T18:56:36.643Z</time>
      </trkpt>
      <trkpt lat="45.87024" lon="4.56203">
        <ele>366.39999389648</ele>
        <time>2020-10-04T18:56:44.436Z</time>
      </trkpt>
      <trkpt lat="45.87029" lon="4.56206">
        <ele>366.60000610352</ele>
        <time>2020-10-04T18:56:52.231Z</time>
      </trkpt>
      <trkpt lat="45.87046" lon="4.56208">
        <ele>367.20001220703</ele>
        <time>2020-10-04T18:57:00.033Z</time>
      </trkpt>
      <trkpt lat="45.87051" lon="4.56208">
        <ele>367.20001220703</ele>
        <time>2020-10-04T18:57:07.837Z</time>
      </trkpt>
      <trkpt lat="45.87065" lon="4.5621">
        <ele>368.20001220703</ele>
        <time>2020-10-04T18:57:15.646Z</time>
      </trkpt>
      <trkpt lat="45.87068" lon="4.56211">
        <ele>368.60000610352</ele>
        <time>2020-10-04T18:57:23.456Z</time>
      </trkpt>
      <trkpt lat="45.87079" lon="4.56213">
        <ele>369.60000610352</ele>
        <time>2020-10-04T18:57:31.271Z</time>
      </trkpt>
      <trkpt lat="45.87083" lon="4.56213">
        <ele>370.20001220703</ele>
        <time>2020-10-04T18:57:39.088Z</time>
      </trkpt>
      <trkpt lat="45.8709" lon="4.56214">
        <ele>370.79998779297</ele>
        <time>2020-10-04T18:57:46.907Z</time>
      </trkpt>
      <trkpt lat="45.87102" lon="4.56219">
        <ele>371.79998779297</ele>
        <time>2020-10-04T18:57:54.731Z</time>
      </trkpt>
      <trkpt lat="45.87103" lon="4.56221">
        <ele>372</ele>
        <time>2020-10-04T18:58:02.556Z</time>
      </trkpt>
      <trkpt lat="45.87107" lon="4.56233">
        <ele>372.60000610352</ele>
        <time>2020-10-04T18:58:10.384Z</time>
      </trkpt>
      <trkpt lat="45.87109" lon="4.56245">
        <ele>373.20001220703</ele>
        <time>2020-10-04T18:58:18.216Z</time>
      </trkpt>
      <trkpt lat="45.87112" lon="4.56251">
        <ele>373.39999389648</ele>
        <time>2020-10-04T18:58:26.050Z</time>
      </trkpt>
      <trkpt lat="45.87116" lon="4.56254">
        <ele>373.39999389648</ele>
        <time>2020-10-04T18:58:33.886Z</time>
      </trkpt>
      <trkpt lat="45.87125" lon="4.56256">
        <ele>373.60000610352</ele>
        <time>2020-10-04T18:58:41.725Z</time>
      </trkpt>
      <trkpt lat="45.87142" lon="4.56259">
        <ele>373.79998779297</ele>
        <time>2020-10-04T18:58:49.571Z</time>
      </trkpt>
      <trkpt lat="45.87153" lon="4.5626">
        <ele>374.20001220703</ele>
        <time>2020-10-04T18:58:57.422Z</time>
      </trkpt>
      <trkpt lat="45.87158" lon="4.56262">
        <ele>374.60000610352</ele>
        <time>2020-10-04T18:59:05.274Z</time>
      </trkpt>
      <trkpt lat="45.87168" lon="4.56259">
        <ele>375.20001220703</ele>
        <time>2020-10-04T18:59:13.131Z</time>
      </trkpt>
      <trkpt lat="45.87177" lon="4.56244">
        <ele>376.20001220703</ele>
        <time>2020-10-04T18:59:20.993Z</time>
      </trkpt>
      <trkpt lat="45.8718" lon="4.56238">
        <ele>376.60000610352</ele>
        <time>2020-10-04T18:59:28.857Z</time>
      </trkpt>
      <trkpt lat="45.87193" lon="4.56216">
        <ele>377</ele>
        <time>2020-10-04T18:59:36.729Z</time>
      </trkpt>
      <trkpt lat="45.87204" lon="4.56207">
        <ele>377</ele>
        <time>2020-10-04T18:59:44.606Z</time>
      </trkpt>
      <trkpt lat="45.87219" lon="4.56212">
        <ele>377.20001220703</ele>
        <time>2020-10-04T18:59:52.489Z</time>
      </trkpt>
      <trkpt lat="45.87227" lon="4.56214">
        <ele>377.60000610352</ele>
        <time>2020-10-04T19:00:00.375Z</time>
      </trkpt>
      <trkpt lat="45.8724" lon="4.56219">
        <ele>378.60000610352</ele>
        <time>2020-10-04T19:00:08.267Z</time>
      </trkpt>
      <trkpt lat="45.87243" lon="4.56219">
        <ele>378.79998779297</ele>
        <time>2020-10-04T19:00:16.160Z</time>
      </trkpt>
      <trkpt lat="45.87261" lon="4.56222">
        <ele>379.39999389648</ele>
        <time>2020-10-04T19:00:24.060Z</time>
      </trkpt>
      <trkpt lat="45.87266" lon="4.56223">
        <ele>379.79998779297</ele>
        <time>2020-10-04T19:00:31.962Z</time>
      </trkpt>
      <trkpt lat="45.87282" lon="4.5622">
        <ele>381</ele>
        <time>2020-10-04T19:00:39.870Z</time>
      </trkpt>
      <trkpt lat="45.87299" lon="4.5622">
        <ele>382</ele>
        <time>2020-10-04T19:00:47.785Z</time>
      </trkpt>
      <trkpt lat="45.87301" lon="4.5622">
        <ele>382.20001220703</ele>
        <time>2020-10-04T19:00:55.701Z</time>
      </trkpt>
      <trkpt lat="45.87314" lon="4.56218">
        <ele>383.20001220703</ele>
        <time>2020-10-04T19:01:03.622Z</time>
      </trkpt>
      <trkpt lat="45.87316" lon="4.56217">
        <ele>383.20001220703</ele>
        <time>2020-10-04T19:01:11.544Z</time>
      </trkpt>
      <trkpt lat="45.87324" lon="4.56209">
        <ele>384.20001220703</ele>
        <time>2020-10-04T19:01:19.470Z</time>
      </trkpt>
      <trkpt lat="45.87326" lon="4.56207">
        <ele>384.20001220703</ele>
        <time>2020-10-04T19:01:27.397Z</time>
      </trkpt>
      <trkpt lat="45.87335" lon="4.56192">
        <ele>384.60000610352</ele>
        <time>2020-10-04T19:01:35.329Z</time>
      </trkpt>
      <trkpt lat="45.87348" lon="4.56186">
        <ele>384.60000610352</ele>
        <time>2020-10-04T19:01:43.267Z</time>
      </trkpt>
      <trkpt lat="45.87371" lon="4.56186">
        <ele>384.39999389648</ele>
        <time>2020-10-04T19:01:51.214Z</time>
      </trkpt>
      <trkpt lat="45.87392" lon="4.56189">
        <ele>384</ele>
        <time>2020-10-04T19:01:59.169Z</time>
      </trkpt>
      <trkpt lat="45.8742" lon="4.56196">
        <ele>383.79998779297</ele>
        <time>2020-10-04T19:02:07.136Z</time>
      </trkpt>
      <trkpt lat="45.87445" lon="4.56203">
        <ele>383.20001220703</ele>
        <time>2020-10-04T19:02:15.112Z</time>
      </trkpt>
      <trkpt lat="45.87452" lon="4.56205">
        <ele>382.79998779297</ele>
        <time>2020-10-04T19:02:23.091Z</time>
      </trkpt>
      <trkpt lat="45.87475" lon="4.56215">
        <ele>382.20001220703</ele>
        <time>2020-10-04T19:02:31.080Z</time>
      </trkpt>
      <trkpt lat="45.87478" lon="4.56217">
        <ele>382</ele>
        <time>2020-10-04T19:02:39.070Z</time>
      </trkpt>
      <trkpt lat="45.87498" lon="4.56226">
        <ele>381.39999389648</ele>
        <time>2020-10-04T19:02:47.069Z</time>
      </trkpt>
      <trkpt lat="45.87512" lon="4.56232">
        <ele>381</ele>
        <time>2020-10-04T19:02:55.073Z</time>
      </trkpt>
      <trkpt lat="45.87527" lon="4.5624">
        <ele>380.60000610352</ele>
        <time>2020-10-04T19:03:03.084Z</time>
      </trkpt>
      <trkpt lat="45.87554" lon="4.56253">
        <ele>380</ele>
        <time>2020-10-04T19:03:11.106Z</time>
      </trkpt>
      <trkpt lat="45.87566" lon="4.56265">
        <ele>379.39999389648</ele>
        <time>2020-10-04T19:03:19.134Z</time>
      </trkpt>
      <trkpt lat="45.87566" lon="4.56268">
        <ele>379.20001220703</ele>
        <time>2020-10-04T19:03:27.162Z</time>
      </trkpt>
      <trkpt lat="45.87565" lon="4.56271">
        <ele>379</ele>
        <time>2020-10-04T19:03:35.191Z</time>
      </trkpt>
      <trkpt lat="45.87563" lon="4.56274">
        <ele>378.79998779297</ele>
        <time>2020-10-04T19:03:43.221Z</time>
      </trkpt>
      <trkpt lat="45.87558" lon="4.5629">
        <ele>378.39999389648</ele>
        <time>2020-10-04T19:03:51.256Z</time>
      </trkpt>
      <trkpt lat="45.87553" lon="4.56305">
        <ele>378.39999389648</ele>
        <time>2020-10-04T19:03:59.296Z</time>
      </trkpt>
      <trkpt lat="45.87547" lon="4.56324">
        <ele>379.79998779297</ele>
        <time>2020-10-04T19:04:07.342Z</time>
      </trkpt>
      <trkpt lat="45.87546" lon="4.56327">
        <ele>380.20001220703</ele>
        <time>2020-10-04T19:04:15.389Z</time>
      </trkpt>
      <trkpt lat="45.87542" lon="4.56336">
        <ele>381.39999389648</ele>
        <time>2020-10-04T19:04:23.438Z</time>
      </trkpt>
      <trkpt lat="45.87538" lon="4.56347">
        <ele>382.39999389648</ele>
        <time>2020-10-04T19:04:31.491Z</time>
      </trkpt>
      <trkpt lat="45.87534" lon="4.56356">
        <ele>383.60000610352</ele>
        <time>2020-10-04T19:04:39.547Z</time>
      </trkpt>
      <trkpt lat="45.87532" lon="4.56366">
        <ele>384.39999389648</ele>
        <time>2020-10-04T19:04:47.606Z</time>
      </trkpt>
      <trkpt lat="45.87533" lon="4.56369">
        <ele>384.60000610352</ele>
        <time>2020-10-04T19:04:55.666Z</time>
      </trkpt>
      <trkpt lat="45.87542" lon="4.56377">
        <ele>385.60000610352</ele>
        <time>2020-10-04T19:05:03.730Z</time>
      </trkpt>
      <trkpt lat="45.87544" lon="4.56379">
        <ele>386</ele>
        <time>2020-10-04T19:05:11.795Z</time>
      </trkpt>
      <trkpt lat="45.87549" lon="4.56382">
        <ele>386.60000610352</ele>
        <time>2020-10-04T19:05:19.862Z</time>
      </trkpt>
      <trkpt lat="45.87555" lon="4.56385">
        <ele>387.79998779297</ele>
        <time>2020-10-04T19:05:27.932Z</time>
      </trkpt>
      <trkpt lat="45.87558" lon="4.56387">
        <ele>388.20001220703</ele>
        <time>2020-10-04T19:05:36.003Z</time>
      </trkpt>
      <trkpt lat="45.87575" lon="4.56396">
        <ele>388.60000610352</ele>
        <time>2020-10-04T19:05:44.081Z</time>
      </trkpt>
      <trkpt lat="45.87581" lon="4.564">
        <ele>389</ele>
        <time>2020-10-04T19:05:52.162Z</time>
      </trkpt>
      <trkpt lat="45.87588" lon="4.56404">
        <ele>389.39999389648</ele>
        <time>2020-10-04T19:06:00.246Z</time>
      </trkpt>
      <trkpt lat="45.87599" lon="4.56411">
        <ele>390</ele>
        <time>2020-10-04T19:06:08.334Z</time>
      </trkpt>
      <trkpt lat="45.87604" lon="4.56414">
        <ele>390.60000610352</ele>
        <time>2020-10-04T19:06:16.425Z</time>
      </trkpt>
      <trkpt lat="45.87607" lon="4.56417">
        <ele>391.20001220703</ele>
        <time>2020-10-04T19:06:24.517Z</time>
      </trkpt>
      <trkpt lat="45.87618" lon="4.56424">
        <ele>392</ele>
        <time>2020-10-04T19:06:32.614Z</time>
      </trkpt>
      <trkpt lat="45.87621" lon="4.56425">
        <ele>392.20001220703</ele>
        <time>2020-10-04T19:06:40.712Z</time>
      </trkpt>
      <trkpt lat="45.87624" lon="4.56426">
        <ele>392.60000610352</ele>
        <time>2020-10-04T19:06:48.812Z</time>
      </trkpt>
      <trkpt lat="45.87626" lon="4.5643">
        <ele>393</ele>
        <time>2020-10-04T19:06:56.913Z</time>
      </trkpt>
      <trkpt lat="45.87625" lon="4.56436">
        <ele>393</ele>
        <time>2020-10-04T19:07:05.016Z</time>
      </trkpt>
      <trkpt lat="45.87622" lon="4.56442">
        <ele>393.20001220703</ele>
        <time>2020-10-04T19:07:13.120Z</time>
      </trkpt>
      <trkpt lat="45.87621" lon="4.56445">
        <ele>393.20001220703</ele>
        <time>2020-10-04T19:07:21.225Z</time>
      </trkpt>
      <trkpt lat="45.87613" lon="4.56472">
        <ele>393.79998779297</ele>
        <time>2020-10-04T19:07:29.338Z</time>
      </trkpt>
      <trkpt lat="45.87608" lon="4.56487">
        <ele>394.20001220703</ele>
        <time>2020-10-04T19:07:37.456Z</time>
      </trkpt>
      <trkpt lat="45.87607" lon="4.56491">
        <ele>394.39999389648</ele>
        <time>2020-10-04T19:07:45.575Z</time>
      </trkpt>
      <trkpt lat="45.87607" lon="4.56494">
        <ele>394.60000610352</ele>
        <time>2020-10-04T19:07:53.695Z</time>
      </trkpt>
      <trkpt lat="45.87609" lon="4.56497">
        <ele>394.79998779297</ele>
        <time>2020-10-04T19:08:01.816Z</time>
      </trkpt>
      <trkpt lat="45.87617" lon="4.56499">
        <ele>395.39999389648</ele>
        <time>2020-10-04T19:08:09.941Z</time>
      </trkpt>
      <trkpt lat="45.87621" lon="4.56501">
        <ele>395.79998779297</ele>
        <time>2020-10-04T19:08:18.067Z</time>
      </trkpt>
      <trkpt lat="45.87626" lon="4.56504">
        <ele>396.60000610352</ele>
        <time>2020-10-04T19:08:26.196Z</time>
      </trkpt>
      <trkpt lat="45.87632" lon="4.56507">
        <ele>397</ele>
        <time>2020-10-04T19:08:34.327Z</time>
      </trkpt>
      <trkpt lat="45.87643" lon="4.56512">
        <ele>397.60000610352</ele>
        <time>2020-10-04T19:08:42.462Z</time>
      </trkpt>
      <trkpt lat="45.87645" lon="4.56513">
        <ele>397.79998779297</ele>
        <time>2020-10-04T19:08:50.598Z</time>
      </trkpt>
      <trkpt lat="45.87659" lon="4.56521">
        <ele>398.60000610352</ele>
        <time>2020-10-04T19:08:58.741Z</time>
      </trkpt>
      <trkpt lat="45.87663" lon="4.56522">
        <ele>398.79998779297</ele>
        <time>2020-10-04T19:09:06.885Z</time>
      </trkpt>
      <trkpt lat="45.8767" lon="4.56525">
        <ele>399.20001220703</ele>
        <time>2020-10-04T19:09:15.032Z</time>
      </trkpt>
      <trkpt lat="45.87678" lon="4.56531">
        <ele>399.79998779297</ele>
        <time>2020-10-04T19:09:23.183Z</time>
      </trkpt>
      <trkpt lat="45.87681" lon="4.56535">
        <ele>399.79998779297</ele>
        <time>2020-10-04T19:09:31.335Z</time>
      </trkpt>
      <trkpt lat="45.87681" lon="4.56541">
        <ele>399.79998779297</ele>
        <time>2020-10-04T19:09:39.489Z</time>
      </trkpt>
      <trkpt lat="45.87678" lon="4.56551">
        <ele>399.60000610352</ele>
        <time>2020-10-04T19:09:47.646Z</time>
      </trkpt>
      <trkpt lat="45.87673" lon="4.56568">
        <ele>399.39999389648</ele>
        <time>2020-10-04T19:09:55.808Z</time>
      </trkpt>
      <trkpt lat="45.87661" lon="4.56604">
        <ele>399.20001220703</ele>
        <time>2020-10-04T19:10:03.981Z</time>
      </trkpt>
      <trkpt lat="45.87648" lon="4.5664">
        <ele>398.39999389648</ele>
        <time>2020-10-04T19:10:12.165Z</time>
      </trkpt>
      <trkpt lat="45.87636" lon="4.56668">
        <ele>398</ele>
        <time>2020-10-04T19:10:20.358Z</time>
      </trkpt>
      <trkpt lat="45.87633" lon="4.56676">
        <ele>398</ele>
        <time>2020-10-04T19:10:28.554Z</time>
      </trkpt>
      <trkpt lat="45.87623" lon="4.567">
        <ele>397.60000610352</ele>
        <time>2020-10-04T19:10:36.757Z</time>
      </trkpt>
      <trkpt lat="45.87608" lon="4.56737">
        <ele>397.60000610352</ele>
        <time>2020-10-04T19:10:44.972Z</time>
      </trkpt>
      <trkpt lat="45.8759" lon="4.56779">
        <ele>398</ele>
        <time>2020-10-04T19:10:53.201Z</time>
      </trkpt>
      <trkpt lat="45.87578" lon="4.56808">
        <ele>398.60000610352</ele>
        <time>2020-10-04T19:11:01.439Z</time>
      </trkpt>
      <trkpt lat="45.87574" lon="4.56818">
        <ele>399</ele>
        <time>2020-10-04T19:11:09.680Z</time>
      </trkpt>
      <trkpt lat="45.87566" lon="4.56836">
        <ele>399.39999389648</ele>
        <time>2020-10-04T19:11:17.927Z</time>
      </trkpt>
      <trkpt lat="45.8756" lon="4.5685">
        <ele>400.20001220703</ele>
        <time>2020-10-04T19:11:26.179Z</time>
      </trkpt>
      <trkpt lat="45.87556" lon="4.5686">
        <ele>400.60000610352</ele>
        <time>2020-10-04T19:11:34.434Z</time>
      </trkpt>
      <trkpt lat="45.87549" lon="4.56878">
        <ele>401.39999389648</ele>
        <time>2020-10-04T19:11:42.695Z</time>
      </trkpt>
      <trkpt lat="45.87545" lon="4.56888">
        <ele>402</ele>
        <time>2020-10-04T19:11:50.959Z</time>
      </trkpt>
      <trkpt lat="45.87541" lon="4.56897">
        <ele>402.39999389648</ele>
        <time>2020-10-04T19:11:59.226Z</time>
      </trkpt>
      <trkpt lat="45.87534" lon="4.56914">
        <ele>403</ele>
        <time>2020-10-04T19:12:07.498Z</time>
      </trkpt>
      <trkpt lat="45.87522" lon="4.56939">
        <ele>403.39999389648</ele>
        <time>2020-10-04T19:12:15.779Z</time>
      </trkpt>
      <trkpt lat="45.87521" lon="4.56943">
        <ele>403.39999389648</ele>
        <time>2020-10-04T19:12:24.061Z</time>
      </trkpt>
      <trkpt lat="45.87517" lon="4.56953">
        <ele>404.60000610352</ele>
        <time>2020-10-04T19:12:32.346Z</time>
      </trkpt>
      <trkpt lat="45.87512" lon="4.56962">
        <ele>405.39999389648</ele>
        <time>2020-10-04T19:12:40.634Z</time>
      </trkpt>
      <trkpt lat="45.87511" lon="4.56966">
        <ele>405.60000610352</ele>
        <time>2020-10-04T19:12:48.923Z</time>
      </trkpt>
      <trkpt lat="45.87503" lon="4.5699">
        <ele>406</ele>
        <time>2020-10-04T19:12:57.220Z</time>
      </trkpt>
      <trkpt lat="45.87498" lon="4.57006">
        <ele>406.60000610352</ele>
        <time>2020-10-04T19:13:05.522Z</time>
      </trkpt>
      <trkpt lat="45.87491" lon="4.57022">
        <ele>407</ele>
        <time>2020-10-04T19:13:13.829Z</time>
      </trkpt>
      <trkpt lat="45.87482" lon="4.57047">
        <ele>407</ele>
        <time>2020-10-04T19:13:22.144Z</time>
      </trkpt>
      <trkpt lat="45.87475" lon="4.57081">
        <ele>406.20001220703</ele>
        <time>2020-10-04T19:13:30.469Z</time>
      </trkpt>
      <trkpt lat="45.87472" lon="4.57097">
        <ele>405.60000610352</ele>
        <time>2020-10-04T19:13:38.798Z</time>
      </trkpt>
      <trkpt lat="45.87467" lon="4.57116">
        <ele>405.20001220703</ele>
        <time>2020-10-04T19:13:47.133Z</time>
      </trkpt>
      <trkpt lat="45.87459" lon="4.57143">
        <ele>404.39999389648</ele>
        <time>2020-10-04T19:13:55.476Z</time>
      </trkpt>
      <trkpt lat="45.87454" lon="4.57155">
        <ele>404.20001220703</ele>
        <time>2020-10-04T19:14:03.823Z</time>
      </trkpt>
      <trkpt lat="45.87448" lon="4.57168">
        <ele>402.60000610352</ele>
        <time>2020-10-04T19:14:12.174Z</time>
      </trkpt>
      <trkpt lat="45.87437" lon="4.57191">
        <ele>401.39999389648</ele>
        <time>2020-10-04T19:14:20.533Z</time>
      </trkpt>
      <trkpt lat="45.87427" lon="4.57217">
        <ele>399.60000610352</ele>
        <time>2020-10-04T19:14:28.900Z</time>
      </trkpt>
      <trkpt lat="45.87424" lon="4.57225">
        <ele>398.39999389648</ele>
        <time>2020-10-04T19:14:37.270Z</time>
      </trkpt>
      <trkpt lat="45.87421" lon="4.57233">
        <ele>397</ele>
        <time>2020-10-04T19:14:45.642Z</time>
      </trkpt>
      <trkpt lat="45.87418" lon="4.57241">
        <ele>395.79998779297</ele>
        <time>2020-10-04T19:14:54.017Z</time>
      </trkpt>
      <trkpt lat="45.87416" lon="4.57249">
        <ele>395</ele>
        <time>2020-10-04T19:15:02.394Z</time>
      </trkpt>
      <trkpt lat="45.87414" lon="4.57256">
        <ele>392.79998779297</ele>
        <time>2020-10-04T19:15:10.773Z</time>
      </trkpt>
      <trkpt lat="45.87411" lon="4.57264">
        <ele>391.79998779297</ele>
        <time>2020-10-04T19:15:19.154Z</time>
      </trkpt>
      <trkpt lat="45.87406" lon="4.57286">
        <ele>390.60000610352</ele>
        <time>2020-10-04T19:15:27.542Z</time>
      </trkpt>
      <trkpt lat="45.87403" lon="4.57301">
        <ele>389.60000610352</ele>
        <time>2020-10-04T19:15:35.934Z</time>
      </trkpt>
      <trkpt lat="45.87402" lon="4.57308">
        <ele>389.39999389648</ele>
        <time>2020-10-04T19:15:44.328Z</time>
      </trkpt>
      <trkpt lat="45.87398" lon="4.57345">
        <ele>388.39999389648</ele>
        <time>2020-10-04T19:15:52.732Z</time>
      </trkpt>
      <trkpt lat="45.87396" lon="4.57351">
        <ele>388.20001220703</ele>
        <time>2020-10-04T19:16:01.138Z</time>
      </trkpt>
      <trkpt lat="45.87384" lon="4.57363">
        <ele>387.60000610352</ele>
        <time>2020-10-04T19:16:09.550Z</time>
      </trkpt>
      <trkpt lat="45.87379" lon="4.57366">
        <ele>387.60000610352</ele>
        <time>2020-10-04T19:16:17.964Z</time>
      </trkpt>
      <trkpt lat="45.87365" lon="4.57372">
        <ele>387.20001220703</ele>
        <time>2020-10-04T19:16:26.384Z</time>
      </trkpt>
      <trkpt lat="45.87353" lon="4.57376">
        <ele>385.39999389648</ele>
        <time>2020-10-04T19:16:34.809Z</time>
      </trkpt>
      <trkpt lat="45.87351" lon="4.57376">
        <ele>384.79998779297</ele>
        <time>2020-10-04T19:16:43.235Z</time>
      </trkpt>
      <trkpt lat="45.87349" lon="4.57377">
        <ele>384.20001220703</ele>
        <time>2020-10-04T19:16:51.662Z</time>
      </trkpt>
      <trkpt lat="45.87344" lon="4.57377">
        <ele>383.20001220703</ele>
        <time>2020-10-04T19:17:00.091Z</time>
      </trkpt>
      <trkpt lat="45.87343" lon="4.57378">
        <ele>383</ele>
        <time>2020-10-04T19:17:08.520Z</time>
      </trkpt>
      <trkpt lat="45.87337" lon="4.57381">
        <ele>381.60000610352</ele>
        <time>2020-10-04T19:17:16.952Z</time>
      </trkpt>
      <trkpt lat="45.87331" lon="4.57384">
        <ele>380.39999389648</ele>
        <time>2020-10-04T19:17:25.386Z</time>
      </trkpt>
      <trkpt lat="45.87327" lon="4.57388">
        <ele>379.60000610352</ele>
        <time>2020-10-04T19:17:33.822Z</time>
      </trkpt>
      <trkpt lat="45.87325" lon="4.57391">
        <ele>379.20001220703</ele>
        <time>2020-10-04T19:17:42.259Z</time>
      </trkpt>
      <trkpt lat="45.8732" lon="4.57397">
        <ele>377.60000610352</ele>
        <time>2020-10-04T19:17:50.699Z</time>
      </trkpt>
      <trkpt lat="45.87316" lon="4.57403">
        <ele>376.39999389648</ele>
        <time>2020-10-04T19:17:59.141Z</time>
      </trkpt>
      <trkpt lat="45.87302" lon="4.57414">
        <ele>375</ele>
        <time>2020-10-04T19:18:07.589Z</time>
      </trkpt>
      <trkpt lat="45.87298" lon="4.57418">
        <ele>375</ele>
        <time>2020-10-04T19:18:16.039Z</time>
      </trkpt>
      <trkpt lat="45.87289" lon="4.57424">
        <ele>373.79998779297</ele>
        <time>2020-10-04T19:18:24.493Z</time>
      </trkpt>
      <trkpt lat="45.87277" lon="4.57434">
        <ele>372.39999389648</ele>
        <time>2020-10-04T19:18:32.953Z</time>
      </trkpt>
      <trkpt lat="45.87267" lon="4.5744">
        <ele>371.60000610352</ele>
        <time>2020-10-04T19:18:41.417Z</time>
      </trkpt>
      <trkpt lat="45.87262" lon="4.57443">
        <ele>371</ele>
        <time>2020-10-04T19:18:49.883Z</time>
      </trkpt>
      <trkpt lat="45.87251" lon="4.57449">
        <ele>370.60000610352</ele>
        <time>2020-10-04T19:18:58.354Z</time>
      </trkpt>
      <trkpt lat="45.87246" lon="4.57454">
        <ele>370.20001220703</ele>
        <time>2020-10-04T19:19:06.827Z</time>
      </trkpt>
      <trkpt lat="45.87242" lon="4.57459">
        <ele>369.60000610352</ele>
        <time>2020-10-04T19:19:15.302Z</time>
      </trkpt>
      <trkpt lat="45.87236" lon="4.57472">
        <ele>368.20001220703</ele>
        <time>2020-10-04T19:19:23.782Z</time>
      </trkpt>
      <trkpt lat="45.87234" lon="4.57479">
        <ele>367.20001220703</ele>
        <time>2020-10-04T19:19:32.264Z</time>
      </trkpt>
      <trkpt lat="45.87233" lon="4.57487">
        <ele>366.60000610352</ele>
        <time>2020-10-04T19:19:40.748Z</time>
      </trkpt>
      <trkpt lat="45.87231" lon="4.57495">
        <ele>366.20001220703</ele>
        <time>2020-10-04T19:19:49.234Z</time>
      </trkpt>
      <trkpt lat="45.87225" lon="4.5751">
        <ele>365.79998779297</ele>
        <time>2020-10-04T19:19:57.725Z</time>
      </trkpt>
      <trkpt lat="45.87209" lon="4.57528">
        <ele>365.20001220703</ele>
        <time>2020-10-04T19:20:06.224Z</time>
      </trkpt>
      <trkpt lat="45.87201" lon="4.57535">
        <ele>365</ele>
        <time>2020-10-04T19:20:14.727Z</time>
      </trkpt>
      <trkpt lat="45.87192" lon="4.5754">
        <ele>363.60000610352</ele>
        <time>2020-10-04T19:20:23.234Z</time>
      </trkpt>
      <trkpt lat="45.87188" lon="4.57542">
        <ele>363.20001220703</ele>
        <time>2020-10-04T19:20:31.743Z</time>
      </trkpt>
      <trkpt lat="45.87175" lon="4.57549">
        <ele>362.60000610352</ele>
        <time>2020-10-04T19:20:40.257Z</time>
      </trkpt>
      <trkpt lat="45.87161" lon="4.57557">
        <ele>362.20001220703</ele>
        <time>2020-10-04T19:20:48.777Z</time>
      </trkpt>
      <trkpt lat="45.87137" lon="4.57565">
        <ele>362</ele>
        <time>2020-10-04T19:20:57.307Z</time>
      </trkpt>
      <trkpt lat="45.87112" lon="4.57571">
        <ele>361.60000610352</ele>
        <time>2020-10-04T19:21:05.847Z</time>
      </trkpt>
      <trkpt lat="45.87084" lon="4.57577">
        <ele>361.60000610352</ele>
        <time>2020-10-04T19:21:14.398Z</time>
      </trkpt>
      <trkpt lat="45.87063" lon="4.57577">
        <ele>361.79998779297</ele>
        <time>2020-10-04T19:21:22.957Z</time>
      </trkpt>
      <trkpt lat="45.87038" lon="4.57578">
        <ele>363</ele>
        <time>2020-10-04T19:21:31.526Z</time>
      </trkpt>
      <trkpt lat="45.8702" lon="4.57584">
        <ele>363</ele>
        <time>2020-10-04T19:21:40.103Z</time>
      </trkpt>
      <trkpt lat="45.86996" lon="4.5759">
        <ele>363</ele>
        <time>2020-10-04T19:21:48.689Z</time>
      </trkpt>
      <trkpt lat="45.8697" lon="4.57595">
        <ele>363</ele>
        <time>2020-10-04T19:21:57.286Z</time>
      </trkpt>
      <trkpt lat="45.86945" lon="4.57598">
        <ele>362.79998779297</ele>
        <time>2020-10-04T19:22:05.893Z</time>
      </trkpt>
      <trkpt lat="45.86919" lon="4.57595">
        <ele>362.79998779297</ele>
        <time>2020-10-04T19:22:14.510Z</time>
      </trkpt>
      <trkpt lat="45.86898" lon="4.57592">
        <ele>363</ele>
        <time>2020-10-04T19:22:23.136Z</time>
      </trkpt>
      <trkpt lat="45.86863" lon="4.57588">
        <ele>363.20001220703</ele>
        <time>2020-10-04T19:22:31.775Z</time>
      </trkpt>
      <trkpt lat="45.86837" lon="4.57589">
        <ele>363.60000610352</ele>
        <time>2020-10-04T19:22:40.425Z</time>
      </trkpt>
      <trkpt lat="45.8683" lon="4.57591">
        <ele>363.79998779297</ele>
        <time>2020-10-04T19:22:49.078Z</time>
      </trkpt>
      <trkpt lat="45.86808" lon="4.57605">
        <ele>364.20001220703</ele>
        <time>2020-10-04T19:22:57.740Z</time>
      </trkpt>
      <trkpt lat="45.86794" lon="4.57619">
        <ele>364.79998779297</ele>
        <time>2020-10-04T19:23:06.409Z</time>
      </trkpt>
      <trkpt lat="45.86783" lon="4.57632">
        <ele>364.79998779297</ele>
        <time>2020-10-04T19:23:15.083Z</time>
      </trkpt>
      <trkpt lat="45.8676" lon="4.57662">
        <ele>365.39999389648</ele>
        <time>2020-10-04T19:23:23.770Z</time>
      </trkpt>
      <trkpt lat="45.86752" lon="4.57672">
        <ele>365.79998779297</ele>
        <time>2020-10-04T19:23:32.461Z</time>
      </trkpt>
      <trkpt lat="45.86738" lon="4.57691">
        <ele>366.20001220703</ele>
        <time>2020-10-04T19:23:41.160Z</time>
      </trkpt>
      <trkpt lat="45.86713" lon="4.57722">
        <ele>366.79998779297</ele>
        <time>2020-10-04T19:23:49.872Z</time>
      </trkpt>
      <trkpt lat="45.86711" lon="4.57724">
        <ele>367</ele>
        <time>2020-10-04T19:23:58.585Z</time>
      </trkpt>
      <trkpt lat="45.86694" lon="4.57735">
        <ele>367.20001220703</ele>
        <time>2020-10-04T19:24:07.305Z</time>
      </trkpt>
      <trkpt lat="45.86674" lon="4.57735">
        <ele>367.39999389648</ele>
        <time>2020-10-04T19:24:16.033Z</time>
      </trkpt>
      <trkpt lat="45.86644" lon="4.57731">
        <ele>367.39999389648</ele>
        <time>2020-10-04T19:24:24.773Z</time>
      </trkpt>
      <trkpt lat="45.86608" lon="4.57725">
        <ele>367.39999389648</ele>
        <time>2020-10-04T19:24:33.527Z</time>
      </trkpt>
      <trkpt lat="45.86577" lon="4.5772">
        <ele>367.39999389648</ele>
        <time>2020-10-04T19:24:42.294Z</time>
      </trkpt>
      <trkpt lat="45.86549" lon="4.57724">
        <ele>367.20001220703</ele>
        <time>2020-10-04T19:24:51.072Z</time>
      </trkpt>
      <trkpt lat="45.86513" lon="4.57732">
        <ele>367.39999389648</ele>
        <time>2020-10-04T19:24:59.864Z</time>
      </trkpt>
      <trkpt lat="45.86482" lon="4.57738">
        <ele>367.60000610352</ele>
        <time>2020-10-04T19:25:08.669Z</time>
      </trkpt>
      <trkpt lat="45.86468" lon="4.57738">
        <ele>368.39999389648</ele>
        <time>2020-10-04T19:25:17.480Z</time>
      </trkpt>
      <trkpt lat="45.86456" lon="4.57737">
        <ele>368.79998779297</ele>
        <time>2020-10-04T19:25:26.295Z</time>
      </trkpt>
      <trkpt lat="45.86448" lon="4.57736">
        <ele>369.20001220703</ele>
        <time>2020-10-04T19:25:35.113Z</time>
      </trkpt>
      <trkpt lat="45.8644" lon="4.57735">
        <ele>369.39999389648</ele>
        <time>2020-10-04T19:25:43.935Z</time>
      </trkpt>
      <trkpt lat="45.86418" lon="4.5773">
        <ele>369.79998779297</ele>
        <time>2020-10-04T19:25:52.765Z</time>
      </trkpt>
      <trkpt lat="45.864" lon="4.57726">
        <ele>370.20001220703</ele>
        <time>2020-10-04T19:26:01.603Z</time>
      </trkpt>
      <trkpt lat="45.86398" lon="4.57725">
        <ele>370.60000610352</ele>
        <time>2020-10-04T19:26:10.442Z</time>
      </trkpt>
      <trkpt lat="45.86395" lon="4.57722">
        <ele>371</ele>
        <time>2020-10-04T19:26:19.282Z</time>
      </trkpt>
      <trkpt lat="45.86393" lon="4.57718">
        <ele>371.39999389648</ele>
        <time>2020-10-04T19:26:28.123Z</time>
      </trkpt>
      <trkpt lat="45.86386" lon="4.5771">
        <ele>371.60000610352</ele>
        <time>2020-10-04T19:26:36.968Z</time>
      </trkpt>
      <trkpt lat="45.86385" lon="4.57708">
        <ele>371.60000610352</ele>
        <time>2020-10-04T19:26:45.814Z</time>
      </trkpt>
      <trkpt lat="45.86371" lon="4.57688">
        <ele>371.79998779297</ele>
        <time>2020-10-04T19:26:54.667Z</time>
      </trkpt>
      <trkpt lat="45.86352" lon="4.57661">
        <ele>372.60000610352</ele>
        <time>2020-10-04T19:27:03.531Z</time>
      </trkpt>
      <trkpt lat="45.86345" lon="4.57651">
        <ele>372.79998779297</ele>
        <time>2020-10-04T19:27:12.399Z</time>
      </trkpt>
      <trkpt lat="45.86324" lon="4.57622">
        <ele>373.20001220703</ele>
        <time>2020-10-04T19:27:21.279Z</time>
      </trkpt>
      <trkpt lat="45.86303" lon="4.57594">
        <ele>373.39999389648</ele>
        <time>2020-10-04T19:27:30.170Z</time>
      </trkpt>
      <trkpt lat="45.86288" lon="4.57571">
        <ele>373.39999389648</ele>
        <time>2020-10-04T19:27:39.070Z</time>
      </trkpt>
      <trkpt lat="45.86269" lon="4.57543">
        <ele>372.60000610352</ele>
        <time>2020-10-04T19:27:47.981Z</time>
      </trkpt>
      <trkpt lat="45.86249" lon="4.57508">
        <ele>372.20001220703</ele>
        <time>2020-10-04T19:27:56.904Z</time>
      </trkpt>
      <trkpt lat="45.86244" lon="4.57498">
        <ele>372.20001220703</ele>
        <time>2020-10-04T19:28:05.830Z</time>
      </trkpt>
      <trkpt lat="45.86233" lon="4.57479">
        <ele>372</ele>
        <time>2020-10-04T19:28:14.763Z</time>
      </trkpt>
      <trkpt lat="45.86222" lon="4.5746">
        <ele>371.79998779297</ele>
        <time>2020-10-04T19:28:23.703Z</time>
      </trkpt>
      <trkpt lat="45.86214" lon="4.57448">
        <ele>371.60000610352</ele>
        <time>2020-10-04T19:28:32.648Z</time>
      </trkpt>
      <trkpt lat="45.86207" lon="4.57438">
        <ele>371.60000610352</ele>
        <time>2020-10-04T19:28:41.596Z</time>
      </trkpt>
      <trkpt lat="45.86201" lon="4.57432">
        <ele>371.39999389648</ele>
        <time>2020-10-04T19:28:50.548Z</time>
      </trkpt>
      <trkpt lat="45.86194" lon="4.5744">
        <ele>371.39999389648</ele>
        <time>2020-10-04T19:28:59.503Z</time>
      </trkpt>
      <trkpt lat="45.86189" lon="4.57448">
        <ele>371.39999389648</ele>
        <time>2020-10-04T19:29:08.461Z</time>
      </trkpt>
      <trkpt lat="45.86181" lon="4.57461">
        <ele>371.20001220703</ele>
        <time>2020-10-04T19:29:17.424Z</time>
      </trkpt>
      <trkpt lat="45.86168" lon="4.57482">
        <ele>370.79998779297</ele>
        <time>2020-10-04T19:29:26.395Z</time>
      </trkpt>
      <trkpt lat="45.86156" lon="4.57499">
        <ele>370.60000610352</ele>
        <time>2020-10-04T19:29:35.372Z</time>
      </trkpt>
      <trkpt lat="45.86151" lon="4.57509">
        <ele>370.39999389648</ele>
        <time>2020-10-04T19:29:44.353Z</time>
      </trkpt>
      <trkpt lat="45.86145" lon="4.57519">
        <ele>370</ele>
        <time>2020-10-04T19:29:53.337Z</time>
      </trkpt>
      <trkpt lat="45.86138" lon="4.57536">
        <ele>369.60000610352</ele>
        <time>2020-10-04T19:30:02.327Z</time>
      </trkpt>
      <trkpt lat="45.86135" lon="4.57542">
        <ele>369.39999389648</ele>
        <time>2020-10-04T19:30:11.319Z</time>
      </trkpt>
      <trkpt lat="45.86119" lon="4.57571">
        <ele>368.20001220703</ele>
        <time>2020-10-04T19:30:20.321Z</time>
      </trkpt>
      <trkpt lat="45.86116" lon="4.57576">
        <ele>367.79998779297</ele>
        <time>2020-10-04T19:30:29.325Z</time>
      </trkpt>
      <trkpt lat="45.8611" lon="4.57588">
        <ele>367</ele>
        <time>2020-10-04T19:30:38.333Z</time>
      </trkpt>
      <trkpt lat="45.861" lon="4.57604">
        <ele>365.79998779297</ele>
        <time>2020-10-04T19:30:47.347Z</time>
      </trkpt>
      <trkpt lat="45.86097" lon="4.57609">
        <ele>365.60000610352</ele>
        <time>2020-10-04T19:30:56.363Z</time>
      </trkpt>
      <trkpt lat="45.86087" lon="4.57627">
        <ele>364.79998779297</ele>
        <time>2020-10-04T19:31:05.385Z</time>
      </trkpt>
      <trkpt lat="45.86083" lon="4.57633">
        <ele>364.20001220703</ele>
        <time>2020-10-04T19:31:14.409Z</time>
      </trkpt>
      <trkpt lat="45.86077" lon="4.57645">
        <ele>363.60000610352</ele>
        <time>2020-10-04T19:31:23.438Z</time>
      </trkpt>
      <trkpt lat="45.86061" lon="4.57677">
        <ele>363.20001220703</ele>
        <time>2020-10-04T19:31:32.477Z</time>
      </trkpt>
      <trkpt lat="45.86048" lon="4.57708">
        <ele>362.39999389648</ele>
        <time>2020-10-04T19:31:41.526Z</time>
      </trkpt>
      <trkpt lat="45.86044" lon="4.57719">
        <ele>362.20001220703</ele>
        <time>2020-10-04T19:31:50.579Z</time>
      </trkpt>
      <trkpt lat="45.86028" lon="4.57759">
        <ele>361.60000610352</ele>
        <time>2020-10-04T19:31:59.645Z</time>
      </trkpt>
      <trkpt lat="45.86019" lon="4.57784">
        <ele>361.39999389648</ele>
        <time>2020-10-04T19:32:08.718Z</time>
      </trkpt>
      <trkpt lat="45.86015" lon="4.57792">
        <ele>361.39999389648</ele>
        <time>2020-10-04T19:32:17.794Z</time>
      </trkpt>
      <trkpt lat="45.86005" lon="4.5781">
        <ele>361.39999389648</ele>
        <time>2020-10-04T19:32:26.876Z</time>
      </trkpt>
      <trkpt lat="45.85995" lon="4.57824">
        <ele>361.60000610352</ele>
        <time>2020-10-04T19:32:35.964Z</time>
      </trkpt>
      <trkpt lat="45.85987" lon="4.57837">
        <ele>361.60000610352</ele>
        <time>2020-10-04T19:32:45.057Z</time>
      </trkpt>
      <trkpt lat="45.85988" lon="4.57841">
        <ele>361.60000610352</ele>
        <time>2020-10-04T19:32:54.151Z</time>
      </trkpt>
      <trkpt lat="45.85994" lon="4.57862">
        <ele>361.60000610352</ele>
        <time>2020-10-04T19:33:03.251Z</time>
      </trkpt>
      <trkpt lat="45.85998" lon="4.57901">
        <ele>361.39999389648</ele>
        <time>2020-10-04T19:33:12.362Z</time>
      </trkpt>
      <trkpt lat="45.86001" lon="4.57936">
        <ele>360.39999389648</ele>
        <time>2020-10-04T19:33:21.483Z</time>
      </trkpt>
      <trkpt lat="45.86003" lon="4.57959">
        <ele>359.60000610352</ele>
        <time>2020-10-04T19:33:30.610Z</time>
      </trkpt>
      <trkpt lat="45.86004" lon="4.57974">
        <ele>359.20001220703</ele>
        <time>2020-10-04T19:33:39.741Z</time>
      </trkpt>
      <trkpt lat="45.86009" lon="4.58018">
        <ele>358.39999389648</ele>
        <time>2020-10-04T19:33:48.885Z</time>
      </trkpt>
      <trkpt lat="45.86009" lon="4.58025">
        <ele>358.20001220703</ele>
        <time>2020-10-04T19:33:58.031Z</time>
      </trkpt>
      <trkpt lat="45.86011" lon="4.58054">
        <ele>357</ele>
        <time>2020-10-04T19:34:07.185Z</time>
      </trkpt>
      <trkpt lat="45.86012" lon="4.58067">
        <ele>356.79998779297</ele>
        <time>2020-10-04T19:34:16.342Z</time>
      </trkpt>
      <trkpt lat="45.86012" lon="4.58074">
        <ele>356.60000610352</ele>
        <time>2020-10-04T19:34:25.501Z</time>
      </trkpt>
      <trkpt lat="45.86015" lon="4.58101">
        <ele>356</ele>
        <time>2020-10-04T19:34:34.668Z</time>
      </trkpt>
      <trkpt lat="45.86016" lon="4.58108">
        <ele>355.79998779297</ele>
        <time>2020-10-04T19:34:43.837Z</time>
      </trkpt>
      <trkpt lat="45.86017" lon="4.58153">
        <ele>355.39999389648</ele>
        <time>2020-10-04T19:34:53.018Z</time>
      </trkpt>
      <trkpt lat="45.86019" lon="4.58191">
        <ele>354.79998779297</ele>
        <time>2020-10-04T19:35:02.210Z</time>
      </trkpt>
      <trkpt lat="45.8602" lon="4.58221">
        <ele>354</ele>
        <time>2020-10-04T19:35:11.410Z</time>
      </trkpt>
      <trkpt lat="45.8602" lon="4.58266">
        <ele>353.79998779297</ele>
        <time>2020-10-04T19:35:20.623Z</time>
      </trkpt>
      <trkpt lat="45.8602" lon="4.58287">
        <ele>353</ele>
        <time>2020-10-04T19:35:29.842Z</time>
      </trkpt>
      <trkpt lat="45.8602" lon="4.58294">
        <ele>352.60000610352</ele>
        <time>2020-10-04T19:35:39.063Z</time>
      </trkpt>
      <trkpt lat="45.86018" lon="4.58343">
        <ele>351.60000610352</ele>
        <time>2020-10-04T19:35:48.297Z</time>
      </trkpt>
      <trkpt lat="45.86017" lon="4.58352">
        <ele>351.39999389648</ele>
        <time>2020-10-04T19:35:57.534Z</time>
      </trkpt>
      <trkpt lat="45.86017" lon="4.58392">
        <ele>350.39999389648</ele>
        <time>2020-10-04T19:36:06.782Z</time>
      </trkpt>
      <trkpt lat="45.86017" lon="4.58403">
        <ele>349.79998779297</ele>
        <time>2020-10-04T19:36:16.033Z</time>
      </trkpt>
      <trkpt lat="45.86016" lon="4.58426">
        <ele>349.20001220703</ele>
        <time>2020-10-04T19:36:25.290Z</time>
      </trkpt>
      <trkpt lat="45.86015" lon="4.58462">
        <ele>347.79998779297</ele>
        <time>2020-10-04T19:36:34.557Z</time>
      </trkpt>
      <trkpt lat="45.86015" lon="4.58485">
        <ele>346.60000610352</ele>
        <time>2020-10-04T19:36:43.831Z</time>
      </trkpt>
      <trkpt lat="45.86015" lon="4.58508">
        <ele>345.20001220703</ele>
        <time>2020-10-04T19:36:53.111Z</time>
      </trkpt>
      <trkpt lat="45.86016" lon="4.58531">
        <ele>344</ele>
        <time>2020-10-04T19:37:02.397Z</time>
      </trkpt>
      <trkpt lat="45.86017" lon="4.58552">
        <ele>343</ele>
        <time>2020-10-04T19:37:11.689Z</time>
      </trkpt>
      <trkpt lat="45.86017" lon="4.58562">
        <ele>342.60000610352</ele>
        <time>2020-10-04T19:37:20.984Z</time>
      </trkpt>
      <trkpt lat="45.86018" lon="4.58594">
        <ele>341</ele>
        <time>2020-10-04T19:37:30.288Z</time>
      </trkpt>
      <trkpt lat="45.86019" lon="4.58624">
        <ele>340</ele>
        <time>2020-10-04T19:37:39.600Z</time>
      </trkpt>
      <trkpt lat="45.86019" lon="4.58634">
        <ele>339.39999389648</ele>
        <time>2020-10-04T19:37:48.915Z</time>
      </trkpt>
      <trkpt lat="45.86018" lon="4.58651">
        <ele>339</ele>
        <time>2020-10-04T19:37:58.235Z</time>
      </trkpt>
      <trkpt lat="45.86016" lon="4.58665">
        <ele>338.60000610352</ele>
        <time>2020-10-04T19:38:07.559Z</time>
      </trkpt>
      <trkpt lat="45.86015" lon="4.58678">
        <ele>337.79998779297</ele>
        <time>2020-10-04T19:38:16.886Z</time>
      </trkpt>
      <trkpt lat="45.86014" lon="4.58704">
        <ele>337.39999389648</ele>
        <time>2020-10-04T19:38:26.220Z</time>
      </trkpt>
      <trkpt lat="45.86012" lon="4.58746">
        <ele>336.79998779297</ele>
        <time>2020-10-04T19:38:35.566Z</time>
      </trkpt>
      <trkpt lat="45.8601" lon="4.58762">
        <ele>336.79998779297</ele>
        <time>2020-10-04T19:38:44.917Z</time>
      </trkpt>
      <trkpt lat="45.85998" lon="4.58818">
        <ele>335.60000610352</ele>
        <time>2020-10-04T19:38:54.284Z</time>
      </trkpt>
      <trkpt lat="45.85997" lon="4.58827">
        <ele>335.20001220703</ele>
        <time>2020-10-04T19:39:03.653Z</time>
      </trkpt>
      <trkpt lat="45.85996" lon="4.58845">
        <ele>334.39999389648</ele>
        <time>2020-10-04T19:39:13.027Z</time>
      </trkpt>
      <trkpt lat="45.85995" lon="4.58864">
        <ele>334</ele>
        <time>2020-10-04T19:39:22.407Z</time>
      </trkpt>
      <trkpt lat="45.85995" lon="4.58874">
        <ele>333.79998779297</ele>
        <time>2020-10-04T19:39:31.789Z</time>
      </trkpt>
      <trkpt lat="45.85996" lon="4.58883">
        <ele>333.20001220703</ele>
        <time>2020-10-04T19:39:41.174Z</time>
      </trkpt>
      <trkpt lat="45.85997" lon="4.58902">
        <ele>332</ele>
        <time>2020-10-04T19:39:50.564Z</time>
      </trkpt>
      <trkpt lat="45.85997" lon="4.58919">
        <ele>331.39999389648</ele>
        <time>2020-10-04T19:39:59.959Z</time>
      </trkpt>
      <trkpt lat="45.85996" lon="4.58935">
        <ele>330.79998779297</ele>
        <time>2020-10-04T19:40:09.358Z</time>
      </trkpt>
      <trkpt lat="45.85993" lon="4.58958">
        <ele>329.39999389648</ele>
        <time>2020-10-04T19:40:18.764Z</time>
      </trkpt>
      <trkpt lat="45.85992" lon="4.58966">
        <ele>329</ele>
        <time>2020-10-04T19:40:28.172Z</time>
      </trkpt>
      <trkpt lat="45.8599" lon="4.58981">
        <ele>328.79998779297</ele>
        <time>2020-10-04T19:40:37.584Z</time>
      </trkpt>
      <trkpt lat="45.85985" lon="4.58994">
        <ele>328.60000610352</ele>
        <time>2020-10-04T19:40:47.000Z</time>
      </trkpt>
      <trkpt lat="45.85961" lon="4.59022">
        <ele>328.39999389648</ele>
        <time>2020-10-04T19:40:56.429Z</time>
      </trkpt>
      <trkpt lat="45.85944" lon="4.59042">
        <ele>328.60000610352</ele>
        <time>2020-10-04T19:41:05.866Z</time>
      </trkpt>
      <trkpt lat="45.85948" lon="4.59053">
        <ele>328.79998779297</ele>
        <time>2020-10-04T19:41:15.307Z</time>
      </trkpt>
      <trkpt lat="45.85955" lon="4.59056">
        <ele>328.79998779297</ele>
        <time>2020-10-04T19:41:24.750Z</time>
      </trkpt>
      <trkpt lat="45.85963" lon="4.5906">
        <ele>328.79998779297</ele>
        <time>2020-10-04T19:41:34.197Z</time>
      </trkpt>
      <trkpt lat="45.85967" lon="4.59062">
        <ele>328.60000610352</ele>
        <time>2020-10-04T19:41:43.646Z</time>
      </trkpt>
      <trkpt lat="45.85974" lon="4.59074">
        <ele>328.39999389648</ele>
        <time>2020-10-04T19:41:53.099Z</time>
      </trkpt>
      <trkpt lat="45.85975" lon="4.5908">
        <ele>328.39999389648</ele>
        <time>2020-10-04T19:42:02.554Z</time>
      </trkpt>
      <trkpt lat="45.85975" lon="4.59092">
        <ele>328</ele>
        <time>2020-10-04T19:42:12.012Z</time>
      </trkpt>
      <trkpt lat="45.85975" lon="4.59099">
        <ele>327.60000610352</ele>
        <time>2020-10-04T19:42:21.472Z</time>
      </trkpt>
      <trkpt lat="45.85973" lon="4.59111">
        <ele>327.20001220703</ele>
        <time>2020-10-04T19:42:30.935Z</time>
      </trkpt>
      <trkpt lat="45.85971" lon="4.59128">
        <ele>326.20001220703</ele>
        <time>2020-10-04T19:42:40.403Z</time>
      </trkpt>
      <trkpt lat="45.85971" lon="4.59132">
        <ele>325.39999389648</ele>
        <time>2020-10-04T19:42:49.872Z</time>
      </trkpt>
      <trkpt lat="45.8597" lon="4.59136">
        <ele>324.79998779297</ele>
        <time>2020-10-04T19:42:59.342Z</time>
      </trkpt>
      <trkpt lat="45.85968" lon="4.59162">
        <ele>324</ele>
        <time>2020-10-04T19:43:08.820Z</time>
      </trkpt>
      <trkpt lat="45.85967" lon="4.59167">
        <ele>323.79998779297</ele>
        <time>2020-10-04T19:43:18.299Z</time>
      </trkpt>
      <trkpt lat="45.85963" lon="4.5919">
        <ele>323.39999389648</ele>
        <time>2020-10-04T19:43:27.785Z</time>
      </trkpt>
      <trkpt lat="45.85957" lon="4.59212">
        <ele>322.60000610352</ele>
        <time>2020-10-04T19:43:37.277Z</time>
      </trkpt>
      <trkpt lat="45.85955" lon="4.59221">
        <ele>322.20001220703</ele>
        <time>2020-10-04T19:43:46.772Z</time>
      </trkpt>
      <trkpt lat="45.85951" lon="4.5923">
        <ele>321.60000610352</ele>
        <time>2020-10-04T19:43:56.269Z</time>
      </trkpt>
      <trkpt lat="45.85946" lon="4.59245">
        <ele>320.79998779297</ele>
        <time>2020-10-04T19:44:05.771Z</time>
      </trkpt>
      <trkpt lat="45.85944" lon="4.59252">
        <ele>320.39999389648</ele>
        <time>2020-10-04T19:44:15.275Z</time>
      </trkpt>
      <trkpt lat="45.8594" lon="4.59265">
        <ele>319.39999389648</ele>
        <time>2020-10-04T19:44:24.783Z</time>
      </trkpt>
      <trkpt lat="45.85938" lon="4.59276">
        <ele>318.20001220703</ele>
        <time>2020-10-04T19:44:34.294Z</time>
      </trkpt>
      <trkpt lat="45.85937" lon="4.59284">
        <ele>318</ele>
        <time>2020-10-04T19:44:43.808Z</time>
      </trkpt>
      <trkpt lat="45.85936" lon="4.59287">
        <ele>317.79998779297</ele>
        <time>2020-10-04T19:44:53.323Z</time>
      </trkpt>
      <trkpt lat="45.85935" lon="4.59298">
        <ele>317.39999389648</ele>
        <time>2020-10-04T19:45:02.841Z</time>
      </trkpt>
      <trkpt lat="45.85936" lon="4.59302">
        <ele>317.20001220703</ele>
        <time>2020-10-04T19:45:12.360Z</time>
      </trkpt>
      <trkpt lat="45.85938" lon="4.59316">
        <ele>317</ele>
        <time>2020-10-04T19:45:21.883Z</time>
      </trkpt>
      <trkpt lat="45.85938" lon="4.5932">
        <ele>317</ele>
        <time>2020-10-04T19:45:31.407Z</time>
      </trkpt>
      <trkpt lat="45.85935" lon="4.59337">
        <ele>316.20001220703</ele>
        <time>2020-10-04T19:45:40.936Z</time>
      </trkpt>
      <trkpt lat="45.8593" lon="4.59357">
        <ele>315.20001220703</ele>
        <time>2020-10-04T19:45:50.471Z</time>
      </trkpt>
      <trkpt lat="45.85928" lon="4.59363">
        <ele>314.60000610352</ele>
        <time>2020-10-04T19:46:00.008Z</time>
      </trkpt>
      <trkpt lat="45.85927" lon="4.5937">
        <ele>314</ele>
        <time>2020-10-04T19:46:09.547Z</time>
      </trkpt>
      <trkpt lat="45.85925" lon="4.59387">
        <ele>313.39999389648</ele>
        <time>2020-10-04T19:46:19.090Z</time>
      </trkpt>
      <trkpt lat="45.85925" lon="4.59404">
        <ele>312.79998779297</ele>
        <time>2020-10-04T19:46:28.638Z</time>
      </trkpt>
      <trkpt lat="45.85925" lon="4.59414">
        <ele>312.20001220703</ele>
        <time>2020-10-04T19:46:38.189Z</time>
      </trkpt>
      <trkpt lat="45.85926" lon="4.59431">
        <ele>312</ele>
        <time>2020-10-04T19:46:47.745Z</time>
      </trkpt>
      <trkpt lat="45.85926" lon="4.5945">
        <ele>310.79998779297</ele>
        <time>2020-10-04T19:46:57.306Z</time>
      </trkpt>
      <trkpt lat="45.85927" lon="4.59478">
        <ele>309.39999389648</ele>
        <time>2020-10-04T19:47:06.875Z</time>
      </trkpt>
      <trkpt lat="45.85929" lon="4.59496">
        <ele>307.79998779297</ele>
        <time>2020-10-04T19:47:16.448Z</time>
      </trkpt>
      <trkpt lat="45.8593" lon="4.5951">
        <ele>306.39999389648</ele>
        <time>2020-10-04T19:47:26.026Z</time>
      </trkpt>
      <trkpt lat="45.85932" lon="4.59523">
        <ele>304.60000610352</ele>
        <time>2020-10-04T19:47:35.607Z</time>
      </trkpt>
      <trkpt lat="45.85932" lon="4.5953">
        <ele>303.60000610352</ele>
        <time>2020-10-04T19:47:45.190Z</time>
      </trkpt>
      <trkpt lat="45.85933" lon="4.59537">
        <ele>302.39999389648</ele>
        <time>2020-10-04T19:47:54.775Z</time>
      </trkpt>
      <trkpt lat="45.85934" lon="4.59544">
        <ele>301.39999389648</ele>
        <time>2020-10-04T19:48:04.362Z</time>
      </trkpt>
      <trkpt lat="45.85935" lon="4.59552">
        <ele>300.20001220703</ele>
        <time>2020-10-04T19:48:13.951Z</time>
      </trkpt>
      <trkpt lat="45.85937" lon="4.59568">
        <ele>298.79998779297</ele>
        <time>2020-10-04T19:48:23.545Z</time>
      </trkpt>
      <trkpt lat="45.85938" lon="4.59593">
        <ele>297.79998779297</ele>
        <time>2020-10-04T19:48:33.146Z</time>
      </trkpt>
      <trkpt lat="45.85938" lon="4.5962">
        <ele>296.20001220703</ele>
        <time>2020-10-04T19:48:42.754Z</time>
      </trkpt>
      <trkpt lat="45.85938" lon="4.59629">
        <ele>295.60000610352</ele>
        <time>2020-10-04T19:48:52.365Z</time>
      </trkpt>
      <trkpt lat="45.85939" lon="4.59638">
        <ele>295.20001220703</ele>
        <time>2020-10-04T19:49:01.978Z</time>
      </trkpt>
      <trkpt lat="45.85939" lon="4.59662">
        <ele>294.39999389648</ele>
        <time>2020-10-04T19:49:11.598Z</time>
      </trkpt>
      <trkpt lat="45.8594" lon="4.5967">
        <ele>293.79998779297</ele>
        <time>2020-10-04T19:49:21.220Z</time>
      </trkpt>
      <trkpt lat="45.85941" lon="4.59695">
        <ele>292.79998779297</ele>
        <time>2020-10-04T19:49:30.849Z</time>
      </trkpt>
      <trkpt lat="45.8594" lon="4.59703">
        <ele>292.60000610352</ele>
        <time>2020-10-04T19:49:40.480Z</time>
      </trkpt>
      <trkpt lat="45.85939" lon="4.59711">
        <ele>292.60000610352</ele>
        <time>2020-10-04T19:49:50.113Z</time>
      </trkpt>
      <trkpt lat="45.85935" lon="4.59741">
        <ele>292.60000610352</ele>
        <time>2020-10-04T19:49:59.755Z</time>
      </trkpt>
      <trkpt lat="45.8593" lon="4.59767">
        <ele>294</ele>
        <time>2020-10-04T19:50:09.404Z</time>
      </trkpt>
      <trkpt lat="45.85929" lon="4.5977">
        <ele>294.79998779297</ele>
        <time>2020-10-04T19:50:19.054Z</time>
      </trkpt>
      <trkpt lat="45.85928" lon="4.59773">
        <ele>295.39999389648</ele>
        <time>2020-10-04T19:50:28.705Z</time>
      </trkpt>
      <trkpt lat="45.85926" lon="4.59782">
        <ele>296.79998779297</ele>
        <time>2020-10-04T19:50:38.359Z</time>
      </trkpt>
      <trkpt lat="45.85925" lon="4.59788">
        <ele>298</ele>
        <time>2020-10-04T19:50:48.015Z</time>
      </trkpt>
      <trkpt lat="45.85924" lon="4.59794">
        <ele>299.20001220703</ele>
        <time>2020-10-04T19:50:57.672Z</time>
      </trkpt>
      <trkpt lat="45.85922" lon="4.5981">
        <ele>300.60000610352</ele>
        <time>2020-10-04T19:51:07.334Z</time>
      </trkpt>
      <trkpt lat="45.8592" lon="4.59818">
        <ele>301.79998779297</ele>
        <time>2020-10-04T19:51:16.998Z</time>
      </trkpt>
      <trkpt lat="45.8592" lon="4.59822">
        <ele>302.20001220703</ele>
        <time>2020-10-04T19:51:26.663Z</time>
      </trkpt>
      <trkpt lat="45.85919" lon="4.5983">
        <ele>303</ele>
        <time>2020-10-04T19:51:36.331Z</time>
      </trkpt>
      <trkpt lat="45.85917" lon="4.59846">
        <ele>304.20001220703</ele>
        <time>2020-10-04T19:51:46.003Z</time>
      </trkpt>
      <trkpt lat="45.85917" lon="4.5985">
        <ele>304.39999389648</ele>
        <time>2020-10-04T19:51:55.676Z</time>
      </trkpt>
      <trkpt lat="45.85917" lon="4.59867">
        <ele>305.60000610352</ele>
        <time>2020-10-04T19:52:05.354Z</time>
      </trkpt>
      <trkpt lat="45.85917" lon="4.59871">
        <ele>306</ele>
        <time>2020-10-04T19:52:15.033Z</time>
      </trkpt>
      <trkpt lat="45.85916" lon="4.59878">
        <ele>306.60000610352</ele>
        <time>2020-10-04T19:52:24.714Z</time>
      </trkpt>
      <trkpt lat="45.85916" lon="4.59884">
        <ele>308</ele>
        <time>2020-10-04T19:52:34.397Z</time>
      </trkpt>
      <trkpt lat="45.85917" lon="4.59888">
        <ele>308.20001220703</ele>
        <time>2020-10-04T19:52:44.081Z</time>
      </trkpt>
      <trkpt lat="45.85915" lon="4.59904">
        <ele>309.20001220703</ele>
        <time>2020-10-04T19:52:53.769Z</time>
      </trkpt>
      <trkpt lat="45.85915" lon="4.59912">
        <ele>309.60000610352</ele>
        <time>2020-10-04T19:53:03.459Z</time>
      </trkpt>
      <trkpt lat="45.85915" lon="4.59916">
        <ele>310.20001220703</ele>
        <time>2020-10-04T19:53:13.151Z</time>
      </trkpt>
      <trkpt lat="45.85915" lon="4.59929">
        <ele>311.39999389648</ele>
        <time>2020-10-04T19:53:22.846Z</time>
      </trkpt>
      <trkpt lat="45.85914" lon="4.59937">
        <ele>312.60000610352</ele>
        <time>2020-10-04T19:53:32.543Z</time>
      </trkpt>
      <trkpt lat="45.85913" lon="4.59945">
        <ele>313.20001220703</ele>
        <time>2020-10-04T19:53:42.243Z</time>
      </trkpt>
      <trkpt lat="45.85913" lon="4.59952">
        <ele>313.79998779297</ele>
        <time>2020-10-04T19:53:51.944Z</time>
      </trkpt>
      <trkpt lat="45.85913" lon="4.59959">
        <ele>315</ele>
        <time>2020-10-04T19:54:01.647Z</time>
      </trkpt>
      <trkpt lat="45.85913" lon="4.5996">
        <ele>315.20001220703</ele>
        <time>2020-10-04T19:54:11.351Z</time>
      </trkpt>
      <trkpt lat="45.85913" lon="4.5996">
        <ele>316</ele>
        <time>2020-10-04T19:54:21.055Z</time>
      </trkpt>
      <trkpt lat="45.85913" lon="4.5996">
        <ele>316.60000610352</ele>
        <time>2020-10-04T19:54:30.759Z</time>
      </trkpt>
      <trkpt lat="45.85913" lon="4.5996">
        <ele>316.79998779297</ele>
        <time>2020-10-04T19:54:40.463Z</time>
      </trkpt>
      <trkpt lat="45.85913" lon="4.5996">
        <ele>317</ele>
        <time>2020-10-04T19:54:50.167Z</time>
      </trkpt>
      <trkpt lat="45.85913" lon="4.5996">
        <ele>316.79998779297</ele>
        <time>2020-10-04T19:54:59.871Z</time>
      </trkpt>
      <trkpt lat="45.85912" lon="4.59961">
        <ele>316.60000610352</ele>
        <time>2020-10-04T19:55:09.575Z</time>
      </trkpt>
      <trkpt lat="45.85903" lon="4.59965">
        <ele>316.39999389648</ele>
        <time>2020-10-04T19:55:19.283Z</time>
      </trkpt>
      <trkpt lat="45.85874" lon="4.59966">
        <ele>316.20001220703</ele>
        <time>2020-10-04T19:55:29.003Z</time>
      </trkpt>
      <trkpt lat="45.85845" lon="4.59964">
        <ele>315</ele>
        <time>2020-10-04T19:55:38.734Z</time>
      </trkpt>
      <trkpt lat="45.85839" lon="4.59963">
        <ele>314.60000610352</ele>
        <time>2020-10-04T19:55:48.467Z</time>
      </trkpt>
      <trkpt lat="45.8583" lon="4.59961">
        <ele>313.79998779297</ele>
        <time>2020-10-04T19:55:58.204Z</time>
      </trkpt>
      <trkpt lat="45.85818" lon="4.59957">
        <ele>312.60000610352</ele>
        <time>2020-10-04T19:56:07.946Z</time>
      </trkpt>
      <trkpt lat="45.85811" lon="4.59959">
        <ele>312</ele>
        <time>2020-10-04T19:56:17.691Z</time>
      </trkpt>
      <trkpt lat="45.85808" lon="4.59962">
        <ele>311.39999389648</ele>
        <time>2020-10-04T19:56:27.437Z</time>
      </trkpt>
      <trkpt lat="45.85801" lon="4.59973">
        <ele>310.20001220703</ele>
        <time>2020-10-04T19:56:37.188Z</time>
      </trkpt>
      <trkpt lat="45.85794" lon="4.5999">
        <ele>309.79998779297</ele>
        <time>2020-10-04T19:56:46.944Z</time>
      </trkpt>
      <trkpt lat="45.85782" lon="4.60028">
        <ele>309.60000610352</ele>
        <time>2020-10-04T19:56:56.712Z</time>
      </trkpt>
      <trkpt lat="45.85775" lon="4.6006">
        <ele>309.60000610352</ele>
        <time>2020-10-04T19:57:06.489Z</time>
      </trkpt>
      <trkpt lat="45.85778" lon="4.60085">
        <ele>309.79998779297</ele>
        <time>2020-10-04T19:57:16.273Z</time>
      </trkpt>
      <trkpt lat="45.85785" lon="4.60114">
        <ele>310.60000610352</ele>
        <time>2020-10-04T19:57:26.066Z</time>
      </trkpt>
      <trkpt lat="45.85787" lon="4.60118">
        <ele>311</ele>
        <time>2020-10-04T19:57:35.860Z</time>
      </trkpt>
      <trkpt lat="45.85787" lon="4.6012">
        <ele>311.20001220703</ele>
        <time>2020-10-04T19:57:45.655Z</time>
      </trkpt>
      <trkpt lat="45.85787" lon="4.60124">
        <ele>311.60000610352</ele>
        <time>2020-10-04T19:57:55.450Z</time>
      </trkpt>
      <trkpt lat="45.85787" lon="4.60124">
        <ele>311.79998779297</ele>
        <time>2020-10-04T19:58:05.246Z</time>
      </trkpt>
      <trkpt lat="45.85788" lon="4.60124">
        <ele>311.79998779297</ele>
        <time>2020-10-04T19:58:15.042Z</time>
      </trkpt>
      <trkpt lat="45.85787" lon="4.60125">
        <ele>311.79998779297</ele>
        <time>2020-10-04T19:58:24.838Z</time>
      </trkpt>
      <trkpt lat="45.85785" lon="4.60127">
        <ele>311.60000610352</ele>
        <time>2020-10-04T19:58:34.635Z</time>
      </trkpt>
      <trkpt lat="45.85784" lon="4.60131">
        <ele>311.60000610352</ele>
        <time>2020-10-04T19:58:44.433Z</time>
      </trkpt>
      <trkpt lat="45.85784" lon="4.6014">
        <ele>311.60000610352</ele>
        <time>2020-10-04T19:58:54.234Z</time>
      </trkpt>
      <trkpt lat="45.85782" lon="4.60159">
        <ele>311.60000610352</ele>
        <time>2020-10-04T19:59:04.040Z</time>
      </trkpt>
      <trkpt lat="45.85781" lon="4.60177">
        <ele>311.79998779297</ele>
        <time>2020-10-04T19:59:13.851Z</time>
      </trkpt>
      <trkpt lat="45.85782" lon="4.60193">
        <ele>312.20001220703</ele>
        <time>2020-10-04T19:59:23.666Z</time>
      </trkpt>
      <trkpt lat="45.85782" lon="4.60202">
        <ele>312.20001220703</ele>
        <time>2020-10-04T19:59:33.484Z</time>
      </trkpt>
      <trkpt lat="45.85782" lon="4.60214">
        <ele>312.60000610352</ele>
        <time>2020-10-04T19:59:43.305Z</time>
      </trkpt>
      <trkpt lat="45.85782" lon="4.60225">
        <ele>313.60000610352</ele>
        <time>2020-10-04T19:59:53.129Z</time>
      </trkpt>
      <trkpt lat="45.85782" lon="4.60229">
        <ele>313.79998779297</ele>
        <time>2020-10-04T20:00:02.954Z</time>
      </trkpt>
      <trkpt lat="45.85781" lon="4.6025">
        <ele>314.79998779297</ele>
        <time>2020-10-04T20:00:12.785Z</time>
      </trkpt>
      <trkpt lat="45.85781" lon="4.60253">
        <ele>314.79998779297</ele>
        <time>2020-10-04T20:00:22.617Z</time>
      </trkpt>
      <trkpt lat="45.8578" lon="4.60271">
        <ele>315.20001220703</ele>
        <time>2020-10-04T20:00:32.454Z</time>
      </trkpt>
      <trkpt lat="45.85779" lon="4.6029">
        <ele>316</ele>
        <time>2020-10-04T20:00:42.296Z</time>
      </trkpt>
      <trkpt lat="45.85779" lon="4.60293">
        <ele>316.20001220703</ele>
        <time>2020-10-04T20:00:52.139Z</time>
      </trkpt>
      <trkpt lat="45.85779" lon="4.60318">
        <ele>317.20001220703</ele>
        <time>2020-10-04T20:01:01.989Z</time>
      </trkpt>
      <trkpt lat="45.85779" lon="4.60332">
        <ele>318.39999389648</ele>
        <time>2020-10-04T20:01:11.843Z</time>
      </trkpt>
      <trkpt lat="45.85778" lon="4.60348">
        <ele>319</ele>
        <time>2020-10-04T20:01:21.701Z</time>
      </trkpt>
      <trkpt lat="45.85778" lon="4.60354">
        <ele>319.39999389648</ele>
        <time>2020-10-04T20:01:31.561Z</time>
      </trkpt>
      <trkpt lat="45.85777" lon="4.60368">
        <ele>320</ele>
        <time>2020-10-04T20:01:41.425Z</time>
      </trkpt>
      <trkpt lat="45.85777" lon="4.60378">
        <ele>320.60000610352</ele>
        <time>2020-10-04T20:01:51.292Z</time>
      </trkpt>
      <trkpt lat="45.85777" lon="4.60393">
        <ele>321.39999389648</ele>
        <time>2020-10-04T20:02:01.163Z</time>
      </trkpt>
      <trkpt lat="45.85776" lon="4.60404">
        <ele>321.79998779297</ele>
        <time>2020-10-04T20:02:11.037Z</time>
      </trkpt>
      <trkpt lat="45.85776" lon="4.60421">
        <ele>322.60000610352</ele>
        <time>2020-10-04T20:02:20.916Z</time>
      </trkpt>
      <trkpt lat="45.85776" lon="4.60428">
        <ele>322.79998779297</ele>
        <time>2020-10-04T20:02:30.797Z</time>
      </trkpt>
      <trkpt lat="45.85776" lon="4.60449">
        <ele>323.60000610352</ele>
        <time>2020-10-04T20:02:40.684Z</time>
      </trkpt>
      <trkpt lat="45.85775" lon="4.60456">
        <ele>323.79998779297</ele>
        <time>2020-10-04T20:02:50.572Z</time>
      </trkpt>
      <trkpt lat="45.8577" lon="4.60461">
        <ele>324.39999389648</ele>
        <time>2020-10-04T20:03:00.463Z</time>
      </trkpt>
      <trkpt lat="45.85762" lon="4.60463">
        <ele>325</ele>
        <time>2020-10-04T20:03:10.357Z</time>
      </trkpt>
      <trkpt lat="45.85757" lon="4.60462">
        <ele>325.39999389648</ele>
        <time>2020-10-04T20:03:20.253Z</time>
      </trkpt>
      <trkpt lat="45.85737" lon="4.60459">
        <ele>325.79998779297</ele>
        <time>2020-10-04T20:03:30.157Z</time>
      </trkpt>
      <trkpt lat="45.85719" lon="4.60457">
        <ele>325.60000610352</ele>
        <time>2020-10-04T20:03:40.068Z</time>
      </trkpt>
      <trkpt lat="45.85689" lon="4.60453">
        <ele>325</ele>
        <time>2020-10-04T20:03:49.991Z</time>
      </trkpt>
      <trkpt lat="45.85674" lon="4.60451">
        <ele>324.60000610352</ele>
        <time>2020-10-04T20:03:59.920Z</time>
      </trkpt>
      <trkpt lat="45.85659" lon="4.60448">
        <ele>324.60000610352</ele>
        <time>2020-10-04T20:04:09.855Z</time>
      </trkpt>
      <trkpt lat="45.85639" lon="4.60445">
        <ele>324.39999389648</ele>
        <time>2020-10-04T20:04:19.798Z</time>
      </trkpt>
      <trkpt lat="45.85622" lon="4.60444">
        <ele>324.20001220703</ele>
        <time>2020-10-04T20:04:29.748Z</time>
      </trkpt>
      <trkpt lat="45.85618" lon="4.60447">
        <ele>324.20001220703</ele>
        <time>2020-10-04T20:04:39.700Z</time>
      </trkpt>
      <trkpt lat="45.85616" lon="4.60454">
        <ele>324.20001220703</ele>
        <time>2020-10-04T20:04:49.654Z</time>
      </trkpt>
      <trkpt lat="45.85616" lon="4.60462">
        <ele>324.20001220703</ele>
        <time>2020-10-04T20:04:59.610Z</time>
      </trkpt>
      <trkpt lat="45.85617" lon="4.6047">
        <ele>324.20001220703</ele>
        <time>2020-10-04T20:05:09.568Z</time>
      </trkpt>
      <trkpt lat="45.85625" lon="4.60508">
        <ele>324.79998779297</ele>
        <time>2020-10-04T20:05:19.537Z</time>
      </trkpt>
      <trkpt lat="45.85633" lon="4.6053">
        <ele>326.20001220703</ele>
        <time>2020-10-04T20:05:29.513Z</time>
      </trkpt>
      <trkpt lat="45.85636" lon="4.6054">
        <ele>327</ele>
        <time>2020-10-04T20:05:39.492Z</time>
      </trkpt>
      <trkpt lat="45.85638" lon="4.60545">
        <ele>327.39999389648</ele>
        <time>2020-10-04T20:05:49.473Z</time>
      </trkpt>
      <trkpt lat="45.85644" lon="4.60559">
        <ele>328.79998779297</ele>
        <time>2020-10-04T20:05:59.458Z</time>
      </trkpt>
      <trkpt lat="45.85646" lon="4.60568">
        <ele>329.60000610352</ele>
        <time>2020-10-04T20:06:09.446Z</time>
      </trkpt>
      <trkpt lat="45.85643" lon="4.60575">
        <ele>329.79998779297</ele>
        <time>2020-10-04T20:06:19.436Z</time>
      </trkpt>
      <trkpt lat="45.85639" lon="4.60577">
        <ele>330</ele>
        <time>2020-10-04T20:06:29.428Z</time>
      </trkpt>
      <trkpt lat="45.85622" lon="4.60589">
        <ele>330</ele>
        <time>2020-10-04T20:06:39.427Z</time>
      </trkpt>
      <trkpt lat="45.85622" lon="4.60603">
        <ele>328.60000610352</ele>
        <time>2020-10-04T20:06:49.430Z</time>
      </trkpt>
      <trkpt lat="45.85622" lon="4.60608">
        <ele>328</ele>
        <time>2020-10-04T20:06:59.434Z</time>
      </trkpt>
      <trkpt lat="45.85623" lon="4.60612">
        <ele>327.79998779297</ele>
        <time>2020-10-04T20:07:09.440Z</time>
      </trkpt>
      <trkpt lat="45.85623" lon="4.60617">
        <ele>327.39999389648</ele>
        <time>2020-10-04T20:07:19.447Z</time>
      </trkpt>
      <trkpt lat="45.85625" lon="4.6063">
        <ele>327.20001220703</ele>
        <time>2020-10-04T20:07:29.458Z</time>
      </trkpt>
      <trkpt lat="45.85625" lon="4.6063">
        <ele>327</ele>
        <time>2020-10-04T20:07:39.469Z</time>
      </trkpt>
      <trkpt lat="45.85623" lon="4.60628">
        <ele>327.20001220703</ele>
        <time>2020-10-04T20:07:49.481Z</time>
      </trkpt>
      <trkpt lat="45.8562" lon="4.60625">
        <ele>327.20001220703</ele>
        <time>2020-10-04T20:07:59.494Z</time>
      </trkpt>
      <trkpt lat="45.85619" lon="4.60625">
        <ele>327</ele>
        <time>2020-10-04T20:08:09.508Z</time>
      </trkpt>
      <trkpt lat="45.85616" lon="4.60627">
        <ele>327</ele>
        <time>2020-10-04T20:08:19.523Z</time>
      </trkpt>
      <trkpt lat="45.85604" lon="4.60635">
        <ele>326.39999389648</ele>
        <time>2020-10-04T20:08:29.543Z</time>
      </trkpt>
      <trkpt lat="45.85602" lon="4.60637">
        <ele>326.39999389648</ele>
        <time>2020-10-04T20:08:39.564Z</time>
      </trkpt>
      <trkpt lat="45.85591" lon="4.60645">
        <ele>325.79998779297</ele>
        <time>2020-10-04T20:08:49.590Z</time>
      </trkpt>
      <trkpt lat="45.85578" lon="4.60655">
        <ele>325.20001220703</ele>
        <time>2020-10-04T20:08:59.622Z</time>
      </trkpt>
      <trkpt lat="45.85576" lon="4.60658">
        <ele>325.20001220703</ele>
        <time>2020-10-04T20:09:09.655Z</time>
      </trkpt>
      <trkpt lat="45.85574" lon="4.60677">
        <ele>324.60000610352</ele>
        <time>2020-10-04T20:09:19.693Z</time>
      </trkpt>
      <trkpt lat="45.85575" lon="4.60688">
        <ele>324.20001220703</ele>
        <time>2020-10-04T20:09:29.734Z</time>
      </trkpt>
      <trkpt lat="45.85575" lon="4.607">
        <ele>323.79998779297</ele>
        <time>2020-10-04T20:09:39.779Z</time>
      </trkpt>
      <trkpt lat="45.85575" lon="4.60721">
        <ele>323.20001220703</ele>
        <time>2020-10-04T20:09:49.829Z</time>
      </trkpt>
      <trkpt lat="45.85575" lon="4.60724">
        <ele>323.20001220703</ele>
        <time>2020-10-04T20:09:59.880Z</time>
      </trkpt>
      <trkpt lat="45.85578" lon="4.60749">
        <ele>323</ele>
        <time>2020-10-04T20:10:09.938Z</time>
      </trkpt>
      <trkpt lat="45.85575" lon="4.60764">
        <ele>322.79998779297</ele>
        <time>2020-10-04T20:10:20.001Z</time>
      </trkpt>
      <trkpt lat="45.8556" lon="4.60784">
        <ele>322.79998779297</ele>
        <time>2020-10-04T20:10:30.072Z</time>
      </trkpt>
      <trkpt lat="45.85556" lon="4.6079">
        <ele>322</ele>
        <time>2020-10-04T20:10:40.145Z</time>
      </trkpt>
      <trkpt lat="45.85545" lon="4.60805">
        <ele>321</ele>
        <time>2020-10-04T20:10:50.224Z</time>
      </trkpt>
      <trkpt lat="45.85543" lon="4.60807">
        <ele>321</ele>
        <time>2020-10-04T20:11:00.304Z</time>
      </trkpt>
      <trkpt lat="45.85529" lon="4.60826">
        <ele>320.20001220703</ele>
        <time>2020-10-04T20:11:10.392Z</time>
      </trkpt>
      <trkpt lat="45.85523" lon="4.60835">
        <ele>319.79998779297</ele>
        <time>2020-10-04T20:11:20.483Z</time>
      </trkpt>
      <trkpt lat="45.85515" lon="4.60848">
        <ele>319.20001220703</ele>
        <time>2020-10-04T20:11:30.579Z</time>
      </trkpt>
      <trkpt lat="45.85505" lon="4.60865">
        <ele>318.79998779297</ele>
        <time>2020-10-04T20:11:40.681Z</time>
      </trkpt>
      <trkpt lat="45.85498" lon="4.60875">
        <ele>318.79998779297</ele>
        <time>2020-10-04T20:11:50.787Z</time>
      </trkpt>
      <trkpt lat="45.85479" lon="4.60908">
        <ele>318.79998779297</ele>
        <time>2020-10-04T20:12:00.905Z</time>
      </trkpt>
      <trkpt lat="45.85467" lon="4.60933">
        <ele>318.60000610352</ele>
        <time>2020-10-04T20:12:11.031Z</time>
      </trkpt>
      <trkpt lat="45.85464" lon="4.60939">
        <ele>318.60000610352</ele>
        <time>2020-10-04T20:12:21.159Z</time>
      </trkpt>
      <trkpt lat="45.85462" lon="4.60939">
        <ele>318.39999389648</ele>
        <time>2020-10-04T20:12:31.288Z</time>
      </trkpt>
      <trkpt lat="45.85448" lon="4.60931">
        <ele>318</ele>
        <time>2020-10-04T20:12:41.423Z</time>
      </trkpt>
      <trkpt lat="45.85435" lon="4.60923">
        <ele>317.79998779297</ele>
        <time>2020-10-04T20:12:51.564Z</time>
      </trkpt>
      <trkpt lat="45.85427" lon="4.60918">
        <ele>317.39999389648</ele>
        <time>2020-10-04T20:13:01.708Z</time>
      </trkpt>
      <trkpt lat="45.85414" lon="4.60909">
        <ele>316.39999389648</ele>
        <time>2020-10-04T20:13:11.858Z</time>
      </trkpt>
      <trkpt lat="45.85399" lon="4.60898">
        <ele>315.79998779297</ele>
        <time>2020-10-04T20:13:22.015Z</time>
      </trkpt>
      <trkpt lat="45.85384" lon="4.60888">
        <ele>315</ele>
        <time>2020-10-04T20:13:32.178Z</time>
      </trkpt>
      <trkpt lat="45.85373" lon="4.60882">
        <ele>313.79998779297</ele>
        <time>2020-10-04T20:13:42.346Z</time>
      </trkpt>
      <trkpt lat="45.85359" lon="4.6087">
        <ele>312.79998779297</ele>
        <time>2020-10-04T20:13:52.520Z</time>
      </trkpt>
      <trkpt lat="45.85355" lon="4.60866">
        <ele>311.79998779297</ele>
        <time>2020-10-04T20:14:02.696Z</time>
      </trkpt>
      <trkpt lat="45.85351" lon="4.60863">
        <ele>310.79998779297</ele>
        <time>2020-10-04T20:14:12.874Z</time>
      </trkpt>
      <trkpt lat="45.85345" lon="4.6086">
        <ele>309.20001220703</ele>
        <time>2020-10-04T20:14:23.055Z</time>
      </trkpt>
      <trkpt lat="45.8534" lon="4.6086">
        <ele>308.20001220703</ele>
        <time>2020-10-04T20:14:33.237Z</time>
      </trkpt>
      <trkpt lat="45.85338" lon="4.60861">
        <ele>307.79998779297</ele>
        <time>2020-10-04T20:14:43.420Z</time>
      </trkpt>
      <trkpt lat="45.85337" lon="4.60864">
        <ele>307.60000610352</ele>
        <time>2020-10-04T20:14:53.604Z</time>
      </trkpt>
      <trkpt lat="45.85331" lon="4.60887">
        <ele>307</ele>
        <time>2020-10-04T20:15:03.795Z</time>
      </trkpt>
      <trkpt lat="45.85314" lon="4.6094">
        <ele>306.39999389648</ele>
        <time>2020-10-04T20:15:14.002Z</time>
      </trkpt>
      <trkpt lat="45.85307" lon="4.60967">
        <ele>305.79998779297</ele>
        <time>2020-10-04T20:15:24.217Z</time>
      </trkpt>
      <trkpt lat="45.85301" lon="4.60986">
        <ele>304.60000610352</ele>
        <time>2020-10-04T20:15:34.438Z</time>
      </trkpt>
      <trkpt lat="45.85298" lon="4.60997">
        <ele>304.20001220703</ele>
        <time>2020-10-04T20:15:44.662Z</time>
      </trkpt>
      <trkpt lat="45.85292" lon="4.61019">
        <ele>303.79998779297</ele>
        <time>2020-10-04T20:15:54.893Z</time>
      </trkpt>
      <trkpt lat="45.85285" lon="4.61047">
        <ele>303.60000610352</ele>
        <time>2020-10-04T20:16:05.132Z</time>
      </trkpt>
      <trkpt lat="45.85284" lon="4.61051">
        <ele>303.39999389648</ele>
        <time>2020-10-04T20:16:15.372Z</time>
      </trkpt>
      <trkpt lat="45.85275" lon="4.6106">
        <ele>303.39999389648</ele>
        <time>2020-10-04T20:16:25.616Z</time>
      </trkpt>
      <trkpt lat="45.85271" lon="4.61062">
        <ele>303.20001220703</ele>
        <time>2020-10-04T20:16:35.862Z</time>
      </trkpt>
      <trkpt lat="45.85242" lon="4.61079">
        <ele>302.39999389648</ele>
        <time>2020-10-04T20:16:46.121Z</time>
      </trkpt>
      <trkpt lat="45.8523" lon="4.61087">
        <ele>300.79998779297</ele>
        <time>2020-10-04T20:16:56.385Z</time>
      </trkpt>
      <trkpt lat="45.85226" lon="4.61091">
        <ele>299.79998779297</ele>
        <time>2020-10-04T20:17:06.651Z</time>
      </trkpt>
      <trkpt lat="45.85224" lon="4.61092">
        <ele>298.20001220703</ele>
        <time>2020-10-04T20:17:16.917Z</time>
      </trkpt>
      <trkpt lat="45.85224" lon="4.61092">
        <ele>297</ele>
        <time>2020-10-04T20:17:27.184Z</time>
      </trkpt>
    </trkseg>
  </trk>
</gpx>